<?xml version='1.0' encoding='UTF-8'?><gpx version="1.1" creator="JPX - https://github.com/jenetics/jpx" xmlns="http://www.topografix.com/GPX/1/1"><trk><trkseg><trkpt lat="43.3757261" lon="11.7879308"><ele>271.99999999999994</ele><time>2026-04-22T14:53:29.061Z</time></trkpt><trkpt lat="43.3757853" lon="11.7879639"><ele>272.0</ele><time>2026-04-22T14:53:53.1Z</time></trkpt><trkpt lat="43.3758511" lon="11.7879965"><ele>272.0</ele><time>2026-04-22T14:54:00.136Z</time></trkpt><trkpt lat="43.3759093" lon="11.7879355"><ele>272.0</ele><time>2026-04-22T14:54:29.102Z</time></trkpt><trkpt lat="43.3759503" lon="11.7878591"><ele>272.0</ele><time>2026-04-22T14:54:32.144Z</time></trkpt><trkpt lat="43.37593" lon="11.7877583"><ele>271.99999999999994</ele><time>2026-04-22T14:54:37.05Z</time></trkpt><trkpt lat="43.3758583" lon="11.78773"><ele>272.0</ele><time>2026-04-22T14:54:42.052Z</time></trkpt><trkpt lat="43.3757933" lon="11.7877383"><ele>272.0</ele><time>2026-04-22T14:54:59.054Z</time></trkpt><trkpt lat="43.3757167" lon="11.7877267"><ele>272.0</ele><time>2026-04-22T14:55:04.05Z</time></trkpt><trkpt lat="43.375655" lon="11.7877"><ele>272.0</ele><time>2026-04-22T14:55:08.054Z</time></trkpt><trkpt lat="43.3755883" lon="11.7876367"><ele>272.0</ele><time>2026-04-22T14:55:12.053Z</time></trkpt><trkpt lat="43.3754917" lon="11.7875983"><ele>272.0</ele><time>2026-04-22T14:55:35.052Z</time></trkpt><trkpt lat="43.37546" lon="11.787685"><ele>272.0</ele><time>2026-04-22T14:55:39.05Z</time></trkpt><trkpt lat="43.375455" lon="11.7878183"><ele>272.0</ele><time>2026-04-22T14:55:44.051Z</time></trkpt><trkpt lat="43.3754533" lon="11.7879283"><ele>272.0</ele><time>2026-04-22T14:55:48.052Z</time></trkpt><trkpt lat="43.3754633" lon="11.7880317"><ele>272.0</ele><time>2026-04-22T14:55:51.049Z</time></trkpt><trkpt lat="43.37547" lon="11.788135"><ele>272.0</ele><time>2026-04-22T14:55:54.052Z</time></trkpt><trkpt lat="43.3754983" lon="11.7882267"><ele>272.0</ele><time>2026-04-22T14:55:57.052Z</time></trkpt><trkpt lat="43.3755233" lon="11.78832"><ele>272.0</ele><time>2026-04-22T14:56:00.052Z</time></trkpt><trkpt lat="43.3755367" lon="11.7884417"><ele>271.6666666666667</ele><time>2026-04-22T14:56:03.051Z</time></trkpt><trkpt lat="43.375545" lon="11.788565"><ele>271.33333333333337</ele><time>2026-04-22T14:56:06.052Z</time></trkpt><trkpt lat="43.3755533" lon="11.78866"><ele>271.0</ele><time>2026-04-22T14:56:08.055Z</time></trkpt><trkpt lat="43.3755583" lon="11.7887667"><ele>270.6666666666667</ele><time>2026-04-22T14:56:10.052Z</time></trkpt><trkpt lat="43.3755583" lon="11.7888867"><ele>270.3333333333333</ele><time>2026-04-22T14:56:12.055Z</time></trkpt><trkpt lat="43.3755533" lon="11.7890217"><ele>270.0</ele><time>2026-04-22T14:56:14.055Z</time></trkpt><trkpt lat="43.3755517" lon="11.78918"><ele>270.0</ele><time>2026-04-22T14:56:16.052Z</time></trkpt><trkpt lat="43.37555" lon="11.7893567"><ele>270.0</ele><time>2026-04-22T14:56:18.05Z</time></trkpt><trkpt lat="43.3755483" lon="11.7894517"><ele>270.0</ele><time>2026-04-22T14:56:19.052Z</time></trkpt><trkpt lat="43.3755467" lon="11.7895467"><ele>270.0</ele><time>2026-04-22T14:56:20.053Z</time></trkpt><trkpt lat="43.3755383" lon="11.789645"><ele>270.0</ele><time>2026-04-22T14:56:21.053Z</time></trkpt><trkpt lat="43.37553" lon="11.789745"><ele>270.0</ele><time>2026-04-22T14:56:22.05Z</time></trkpt><trkpt lat="43.375515" lon="11.7898483"><ele>270.0</ele><time>2026-04-22T14:56:23.05Z</time></trkpt><trkpt lat="43.3754967" lon="11.7899483"><ele>270.0</ele><time>2026-04-22T14:56:24.05Z</time></trkpt><trkpt lat="43.3754717" lon="11.7900417"><ele>270.0</ele><time>2026-04-22T14:56:25.05Z</time></trkpt><trkpt lat="43.37544" lon="11.79013"><ele>270.0</ele><time>2026-04-22T14:56:26.054Z</time></trkpt><trkpt lat="43.37541" lon="11.7902117"><ele>270.0</ele><time>2026-04-22T14:56:27.057Z</time></trkpt><trkpt lat="43.375375" lon="11.7902883"><ele>270.0</ele><time>2026-04-22T14:56:28.05Z</time></trkpt><trkpt lat="43.3753083" lon="11.7904267"><ele>270.0</ele><time>2026-04-22T14:56:30.054Z</time></trkpt><trkpt lat="43.3752383" lon="11.7905483"><ele>270.0</ele><time>2026-04-22T14:56:32.052Z</time></trkpt><trkpt lat="43.3751717" lon="11.7906567"><ele>270.0</ele><time>2026-04-22T14:56:34.051Z</time></trkpt><trkpt lat="43.3751117" lon="11.79076"><ele>270.0</ele><time>2026-04-22T14:56:36.048Z</time></trkpt><trkpt lat="43.3750567" lon="11.790845"><ele>270.0</ele><time>2026-04-22T14:56:38.051Z</time></trkpt><trkpt lat="43.3750133" lon="11.7909217"><ele>270.0</ele><time>2026-04-22T14:56:40.052Z</time></trkpt><trkpt lat="43.3749733" lon="11.790995"><ele>270.0</ele><time>2026-04-22T14:56:42.051Z</time></trkpt><trkpt lat="43.3749333" lon="11.79107"><ele>270.0</ele><time>2026-04-22T14:56:44.055Z</time></trkpt><trkpt lat="43.3748883" lon="11.7911417"><ele>270.0</ele><time>2026-04-22T14:56:46.051Z</time></trkpt><trkpt lat="43.3748433" lon="11.7912217"><ele>270.0</ele><time>2026-04-22T14:56:48.053Z</time></trkpt><trkpt lat="43.3748" lon="11.791305"><ele>270.0</ele><time>2026-04-22T14:56:50.052Z</time></trkpt><trkpt lat="43.3747583" lon="11.791385"><ele>270.0</ele><time>2026-04-22T14:56:52.054Z</time></trkpt><trkpt lat="43.3747133" lon="11.79146"><ele>270.5</ele><time>2026-04-22T14:56:54.053Z</time></trkpt><trkpt lat="43.3746717" lon="11.7915367"><ele>271.0</ele><time>2026-04-22T14:56:56.052Z</time></trkpt><trkpt lat="43.374625" lon="11.7916067"><ele>271.5</ele><time>2026-04-22T14:56:58.052Z</time></trkpt><trkpt lat="43.3745533" lon="11.791685"><ele>272.0</ele><time>2026-04-22T14:57:01.054Z</time></trkpt><trkpt lat="43.374495" lon="11.7917733"><ele>272.5</ele><time>2026-04-22T14:57:04.056Z</time></trkpt><trkpt lat="43.3744417" lon="11.7918567"><ele>273.0</ele><time>2026-04-22T14:57:07.049Z</time></trkpt><trkpt lat="43.3743867" lon="11.79195"><ele>273.1666666666667</ele><time>2026-04-22T14:57:10.049Z</time></trkpt><trkpt lat="43.3743317" lon="11.79203"><ele>273.3333333333333</ele><time>2026-04-22T14:57:13.052Z</time></trkpt><trkpt lat="43.37429" lon="11.7921167"><ele>273.5</ele><time>2026-04-22T14:57:16.051Z</time></trkpt><trkpt lat="43.3742483" lon="11.7922033"><ele>273.66666666666663</ele><time>2026-04-22T14:57:19.051Z</time></trkpt><trkpt lat="43.3742133" lon="11.7922967"><ele>273.8333333333333</ele><time>2026-04-22T14:57:22.051Z</time></trkpt><trkpt lat="43.374185" lon="11.7923933"><ele>274.0</ele><time>2026-04-22T14:57:25.05Z</time></trkpt><trkpt lat="43.3741533" lon="11.792505"><ele>274.0</ele><time>2026-04-22T14:57:28.052Z</time></trkpt><trkpt lat="43.3741283" lon="11.79262"><ele>274.0</ele><time>2026-04-22T14:57:31.056Z</time></trkpt><trkpt lat="43.3741117" lon="11.7927233"><ele>274.0</ele><time>2026-04-22T14:57:34.051Z</time></trkpt><trkpt lat="43.3740983" lon="11.7928483"><ele>274.0</ele><time>2026-04-22T14:57:37.051Z</time></trkpt><trkpt lat="43.374075" lon="11.7929717"><ele>274.0</ele><time>2026-04-22T14:57:40.056Z</time></trkpt><trkpt lat="43.374045" lon="11.7930883"><ele>274.0</ele><time>2026-04-22T14:57:43.052Z</time></trkpt><trkpt lat="43.374015" lon="11.793165"><ele>274.0</ele><time>2026-04-22T14:57:45.052Z</time></trkpt><trkpt lat="43.3739717" lon="11.79328"><ele>274.0</ele><time>2026-04-22T14:57:48.057Z</time></trkpt><trkpt lat="43.3739533" lon="11.7933783"><ele>274.0</ele><time>2026-04-22T14:57:50.052Z</time></trkpt><trkpt lat="43.3739333" lon="11.7934817"><ele>274.0</ele><time>2026-04-22T14:57:52.051Z</time></trkpt><trkpt lat="43.3738983" lon="11.793585"><ele>274.0</ele><time>2026-04-22T14:57:54.051Z</time></trkpt><trkpt lat="43.3738633" lon="11.7936917"><ele>274.0</ele><time>2026-04-22T14:57:56.051Z</time></trkpt><trkpt lat="43.37384" lon="11.793785"><ele>274.0</ele><time>2026-04-22T14:57:58.049Z</time></trkpt><trkpt lat="43.3738233" lon="11.793885"><ele>274.0</ele><time>2026-04-22T14:58:00.052Z</time></trkpt><trkpt lat="43.37385" lon="11.7939817"><ele>274.0</ele><time>2026-04-22T14:58:02.052Z</time></trkpt><trkpt lat="43.3738983" lon="11.7940733"><ele>274.0</ele><time>2026-04-22T14:58:04.052Z</time></trkpt><trkpt lat="43.3739383" lon="11.7941567"><ele>274.0</ele><time>2026-04-22T14:58:06.051Z</time></trkpt><trkpt lat="43.3739733" lon="11.7942517"><ele>274.0</ele><time>2026-04-22T14:58:08.056Z</time></trkpt><trkpt lat="43.3739717" lon="11.7943533"><ele>273.4</ele><time>2026-04-22T14:58:10.055Z</time></trkpt><trkpt lat="43.3739117" lon="11.7944267"><ele>272.79999999999995</ele><time>2026-04-22T14:58:12.049Z</time></trkpt><trkpt lat="43.3738367" lon="11.7945133"><ele>272.20000000000005</ele><time>2026-04-22T14:58:14.052Z</time></trkpt><trkpt lat="43.373765" lon="11.7946133"><ele>271.6</ele><time>2026-04-22T14:58:16.053Z</time></trkpt><trkpt lat="43.37372" lon="11.7947317"><ele>271.0</ele><time>2026-04-22T14:58:18.052Z</time></trkpt><trkpt lat="43.3737133" lon="11.7948683"><ele>271.0</ele><time>2026-04-22T14:58:20.053Z</time></trkpt><trkpt lat="43.3737133" lon="11.7949733"><ele>271.0</ele><time>2026-04-22T14:58:22.055Z</time></trkpt><trkpt lat="43.3736833" lon="11.7950517"><ele>271.0</ele><time>2026-04-22T14:58:24.05Z</time></trkpt><trkpt lat="43.3736233" lon="11.7951017"><ele>271.0</ele><time>2026-04-22T14:58:26.051Z</time></trkpt><trkpt lat="43.3735433" lon="11.7951383"><ele>271.0</ele><time>2026-04-22T14:58:28.052Z</time></trkpt><trkpt lat="43.373455" lon="11.7951633"><ele>271.0</ele><time>2026-04-22T14:58:30.051Z</time></trkpt><trkpt lat="43.3733667" lon="11.7951733"><ele>271.0</ele><time>2026-04-22T14:58:32.051Z</time></trkpt><trkpt lat="43.3732867" lon="11.7951683"><ele>271.0</ele><time>2026-04-22T14:58:34.053Z</time></trkpt><trkpt lat="43.3732083" lon="11.7951533"><ele>271.0</ele><time>2026-04-22T14:58:36.05Z</time></trkpt><trkpt lat="43.373125" lon="11.795145"><ele>271.0</ele><time>2026-04-22T14:58:38.05Z</time></trkpt><trkpt lat="43.3730367" lon="11.79516"><ele>271.0</ele><time>2026-04-22T14:58:40.05Z</time></trkpt><trkpt lat="43.3729317" lon="11.7951983"><ele>271.0</ele><time>2026-04-22T14:58:42.051Z</time></trkpt><trkpt lat="43.3728167" lon="11.79526"><ele>270.66666666666663</ele><time>2026-04-22T14:58:44.05Z</time></trkpt><trkpt lat="43.372755" lon="11.7953"><ele>270.3333333333333</ele><time>2026-04-22T14:58:45.053Z</time></trkpt><trkpt lat="43.372685" lon="11.7953433"><ele>270.0</ele><time>2026-04-22T14:58:46.051Z</time></trkpt><trkpt lat="43.3726117" lon="11.7953867"><ele>269.6666666666667</ele><time>2026-04-22T14:58:47.048Z</time></trkpt><trkpt lat="43.3725367" lon="11.7954333"><ele>269.33333333333337</ele><time>2026-04-22T14:58:48.049Z</time></trkpt><trkpt lat="43.3724583" lon="11.79548"><ele>269.0</ele><time>2026-04-22T14:58:49.051Z</time></trkpt><trkpt lat="43.3723783" lon="11.7955283"><ele>269.0</ele><time>2026-04-22T14:58:50.051Z</time></trkpt><trkpt lat="43.3722983" lon="11.79558"><ele>269.0</ele><time>2026-04-22T14:58:51.052Z</time></trkpt><trkpt lat="43.3722167" lon="11.795635"><ele>269.0</ele><time>2026-04-22T14:58:52.05Z</time></trkpt><trkpt lat="43.3721367" lon="11.7956883"><ele>269.0</ele><time>2026-04-22T14:58:53.052Z</time></trkpt><trkpt lat="43.3720533" lon="11.795745"><ele>269.0</ele><time>2026-04-22T14:58:54.049Z</time></trkpt><trkpt lat="43.3719683" lon="11.7958"><ele>268.4</ele><time>2026-04-22T14:58:55.052Z</time></trkpt><trkpt lat="43.3718817" lon="11.795855"><ele>267.79999999999995</ele><time>2026-04-22T14:58:56.052Z</time></trkpt><trkpt lat="43.371795" lon="11.7959033"><ele>267.20000000000005</ele><time>2026-04-22T14:58:57.051Z</time></trkpt><trkpt lat="43.371705" lon="11.7959433"><ele>266.6</ele><time>2026-04-22T14:58:58.053Z</time></trkpt><trkpt lat="43.371615" lon="11.7959783"><ele>266.0</ele><time>2026-04-22T14:58:59.052Z</time></trkpt><trkpt lat="43.3715283" lon="11.796015"><ele>265.83333333333337</ele><time>2026-04-22T14:59:00.053Z</time></trkpt><trkpt lat="43.371445" lon="11.79605"><ele>265.6666666666667</ele><time>2026-04-22T14:59:01.051Z</time></trkpt><trkpt lat="43.371365" lon="11.79608"><ele>265.5</ele><time>2026-04-22T14:59:02.05Z</time></trkpt><trkpt lat="43.3712933" lon="11.7961083"><ele>265.3333333333333</ele><time>2026-04-22T14:59:03.052Z</time></trkpt><trkpt lat="43.3712317" lon="11.7961367"><ele>265.16666666666663</ele><time>2026-04-22T14:59:04.049Z</time></trkpt><trkpt lat="43.3711267" lon="11.7961867"><ele>265.0</ele><time>2026-04-22T14:59:06.052Z</time></trkpt><trkpt lat="43.3710483" lon="11.7962317"><ele>265.57142857142856</ele><time>2026-04-22T14:59:08.053Z</time></trkpt><trkpt lat="43.3709817" lon="11.79627"><ele>266.1428571428571</ele><time>2026-04-22T14:59:10.052Z</time></trkpt><trkpt lat="43.370895" lon="11.7963017"><ele>266.7142857142857</ele><time>2026-04-22T14:59:13.052Z</time></trkpt><trkpt lat="43.370825" lon="11.7963283"><ele>267.2857142857143</ele><time>2026-04-22T14:59:16.053Z</time></trkpt><trkpt lat="43.37076" lon="11.7963583"><ele>267.8571428571429</ele><time>2026-04-22T14:59:19.052Z</time></trkpt><trkpt lat="43.3707" lon="11.7963983"><ele>268.42857142857144</ele><time>2026-04-22T14:59:22.052Z</time></trkpt><trkpt lat="43.370635" lon="11.796435"><ele>269.0</ele><time>2026-04-22T14:59:25.052Z</time></trkpt><trkpt lat="43.3705633" lon="11.7964783"><ele>269.83333333333337</ele><time>2026-04-22T14:59:29.05Z</time></trkpt><trkpt lat="43.3705017" lon="11.796515"><ele>270.6666666666667</ele><time>2026-04-22T14:59:32.054Z</time></trkpt><trkpt lat="43.3704283" lon="11.79655"><ele>271.5</ele><time>2026-04-22T14:59:35.05Z</time></trkpt><trkpt lat="43.3703567" lon="11.79657"><ele>272.3333333333333</ele><time>2026-04-22T14:59:38.051Z</time></trkpt><trkpt lat="43.370285" lon="11.796605"><ele>273.16666666666663</ele><time>2026-04-22T14:59:41.049Z</time></trkpt><trkpt lat="43.3702067" lon="11.79664"><ele>274.0</ele><time>2026-04-22T14:59:44.051Z</time></trkpt><trkpt lat="43.37013" lon="11.796675"><ele>274.0</ele><time>2026-04-22T14:59:47.052Z</time></trkpt><trkpt lat="43.37006" lon="11.7967033"><ele>274.0</ele><time>2026-04-22T14:59:50.054Z</time></trkpt><trkpt lat="43.3700067" lon="11.796755"><ele>274.0</ele><time>2026-04-22T14:59:53.053Z</time></trkpt><trkpt lat="43.3699383" lon="11.7968067"><ele>274.0</ele><time>2026-04-22T14:59:56.052Z</time></trkpt><trkpt lat="43.3698667" lon="11.796845"><ele>274.0</ele><time>2026-04-22T14:59:59.049Z</time></trkpt><trkpt lat="43.3697967" lon="11.79688"><ele>274.0</ele><time>2026-04-22T15:00:02.048Z</time></trkpt><trkpt lat="43.369715" lon="11.7969317"><ele>273.5</ele><time>2026-04-22T15:00:06.053Z</time></trkpt><trkpt lat="43.3696867" lon="11.7970467"><ele>273.0</ele><time>2026-04-22T15:00:09.051Z</time></trkpt><trkpt lat="43.3697333" lon="11.7971517"><ele>272.5</ele><time>2026-04-22T15:00:12.052Z</time></trkpt><trkpt lat="43.3697683" lon="11.7972467"><ele>272.0</ele><time>2026-04-22T15:00:15.053Z</time></trkpt><trkpt lat="43.3698133" lon="11.7973217"><ele>271.5</ele><time>2026-04-22T15:00:18.052Z</time></trkpt><trkpt lat="43.36987" lon="11.797395"><ele>271.0</ele><time>2026-04-22T15:00:21.048Z</time></trkpt><trkpt lat="43.3699333" lon="11.7974667"><ele>271.0</ele><time>2026-04-22T15:00:23.051Z</time></trkpt><trkpt lat="43.37" lon="11.7975517"><ele>271.0</ele><time>2026-04-22T15:00:25.051Z</time></trkpt><trkpt lat="43.37007" lon="11.797645"><ele>271.0</ele><time>2026-04-22T15:00:27.05Z</time></trkpt><trkpt lat="43.3701583" lon="11.7977533"><ele>271.0</ele><time>2026-04-22T15:00:29.051Z</time></trkpt><trkpt lat="43.3702433" lon="11.7978517"><ele>271.0</ele><time>2026-04-22T15:00:31.051Z</time></trkpt><trkpt lat="43.370325" lon="11.7979383"><ele>271.0</ele><time>2026-04-22T15:00:33.053Z</time></trkpt><trkpt lat="43.3703967" lon="11.7980267"><ele>271.0</ele><time>2026-04-22T15:00:35.05Z</time></trkpt><trkpt lat="43.3704683" lon="11.79812"><ele>271.0</ele><time>2026-04-22T15:00:37.054Z</time></trkpt><trkpt lat="43.3705267" lon="11.7982217"><ele>271.0</ele><time>2026-04-22T15:00:39.052Z</time></trkpt><trkpt lat="43.3705767" lon="11.7983333"><ele>271.0</ele><time>2026-04-22T15:00:41.05Z</time></trkpt><trkpt lat="43.3706233" lon="11.7984433"><ele>271.0</ele><time>2026-04-22T15:00:43.051Z</time></trkpt><trkpt lat="43.3706683" lon="11.798555"><ele>271.0</ele><time>2026-04-22T15:00:45.053Z</time></trkpt><trkpt lat="43.37071" lon="11.7986617"><ele>271.0</ele><time>2026-04-22T15:00:47.053Z</time></trkpt><trkpt lat="43.3707517" lon="11.79877"><ele>271.0</ele><time>2026-04-22T15:00:49.052Z</time></trkpt><trkpt lat="43.37079" lon="11.7988717"><ele>271.0</ele><time>2026-04-22T15:00:51.053Z</time></trkpt><trkpt lat="43.370825" lon="11.7989717"><ele>271.0</ele><time>2026-04-22T15:00:53.055Z</time></trkpt><trkpt lat="43.3708617" lon="11.7990767"><ele>271.0</ele><time>2026-04-22T15:00:55.052Z</time></trkpt><trkpt lat="43.3708933" lon="11.7991683"><ele>271.0</ele><time>2026-04-22T15:00:57.051Z</time></trkpt><trkpt lat="43.3709333" lon="11.7992983"><ele>271.0</ele><time>2026-04-22T15:01:00.049Z</time></trkpt><trkpt lat="43.370965" lon="11.7994067"><ele>271.0</ele><time>2026-04-22T15:01:02.053Z</time></trkpt><trkpt lat="43.3709983" lon="11.7995133"><ele>271.0</ele><time>2026-04-22T15:01:04.052Z</time></trkpt><trkpt lat="43.3710217" lon="11.7996067"><ele>271.0</ele><time>2026-04-22T15:01:06.048Z</time></trkpt><trkpt lat="43.3710317" lon="11.799755"><ele>271.0</ele><time>2026-04-22T15:01:09.051Z</time></trkpt><trkpt lat="43.371015" lon="11.7998833"><ele>271.0</ele><time>2026-04-22T15:01:11.052Z</time></trkpt><trkpt lat="43.37097" lon="11.7999833"><ele>271.0</ele><time>2026-04-22T15:01:13.054Z</time></trkpt><trkpt lat="43.3709217" lon="11.8001017"><ele>271.0</ele><time>2026-04-22T15:01:15.051Z</time></trkpt><trkpt lat="43.3708783" lon="11.8002233"><ele>271.0</ele><time>2026-04-22T15:01:17.05Z</time></trkpt><trkpt lat="43.3708367" lon="11.80033"><ele>270.8333333333333</ele><time>2026-04-22T15:01:19.052Z</time></trkpt><trkpt lat="43.3707983" lon="11.8004383"><ele>270.66666666666663</ele><time>2026-04-22T15:01:21.052Z</time></trkpt><trkpt lat="43.3707633" lon="11.8005433"><ele>270.5</ele><time>2026-04-22T15:01:23.051Z</time></trkpt><trkpt lat="43.3707317" lon="11.8006417"><ele>270.3333333333333</ele><time>2026-04-22T15:01:25.051Z</time></trkpt><trkpt lat="43.3707" lon="11.8007533"><ele>270.1666666666667</ele><time>2026-04-22T15:01:27.052Z</time></trkpt><trkpt lat="43.3706633" lon="11.800875"><ele>270.0</ele><time>2026-04-22T15:01:29.048Z</time></trkpt><trkpt lat="43.3706167" lon="11.8009767"><ele>269.8</ele><time>2026-04-22T15:01:31.048Z</time></trkpt><trkpt lat="43.370575" lon="11.8011"><ele>269.6</ele><time>2026-04-22T15:01:33.054Z</time></trkpt><trkpt lat="43.370525" lon="11.80123"><ele>269.4</ele><time>2026-04-22T15:01:35.053Z</time></trkpt><trkpt lat="43.3704817" lon="11.8013567"><ele>269.2</ele><time>2026-04-22T15:01:37.051Z</time></trkpt><trkpt lat="43.3704533" lon="11.8014883"><ele>269.0</ele><time>2026-04-22T15:01:39.05Z</time></trkpt><trkpt lat="43.3704383" lon="11.8016317"><ele>268.8</ele><time>2026-04-22T15:01:41.051Z</time></trkpt><trkpt lat="43.3704267" lon="11.8017767"><ele>268.59999999999997</ele><time>2026-04-22T15:01:43.055Z</time></trkpt><trkpt lat="43.3704067" lon="11.8019167"><ele>268.4</ele><time>2026-04-22T15:01:45.052Z</time></trkpt><trkpt lat="43.370375" lon="11.8020517"><ele>268.2</ele><time>2026-04-22T15:01:47.054Z</time></trkpt><trkpt lat="43.370335" lon="11.8021817"><ele>268.0</ele><time>2026-04-22T15:01:49.051Z</time></trkpt><trkpt lat="43.3702817" lon="11.8023017"><ele>268.0</ele><time>2026-04-22T15:01:51.049Z</time></trkpt><trkpt lat="43.370225" lon="11.8024183"><ele>268.0</ele><time>2026-04-22T15:01:53.05Z</time></trkpt><trkpt lat="43.37018" lon="11.8025283"><ele>268.0</ele><time>2026-04-22T15:01:55.052Z</time></trkpt><trkpt lat="43.3701133" lon="11.802605"><ele>268.0</ele><time>2026-04-22T15:01:57.053Z</time></trkpt><trkpt lat="43.3700433" lon="11.8026717"><ele>268.0</ele><time>2026-04-22T15:01:59.054Z</time></trkpt><trkpt lat="43.3699667" lon="11.8027417"><ele>267.4</ele><time>2026-04-22T15:02:01.05Z</time></trkpt><trkpt lat="43.3698917" lon="11.8027983"><ele>266.8</ele><time>2026-04-22T15:02:03.05Z</time></trkpt><trkpt lat="43.369815" lon="11.802865"><ele>266.2</ele><time>2026-04-22T15:02:05.051Z</time></trkpt><trkpt lat="43.369725" lon="11.80292"><ele>265.6</ele><time>2026-04-22T15:02:07.05Z</time></trkpt><trkpt lat="43.369635" lon="11.80297"><ele>265.0</ele><time>2026-04-22T15:02:09.051Z</time></trkpt><trkpt lat="43.3695467" lon="11.8030283"><ele>265.0</ele><time>2026-04-22T15:02:11.052Z</time></trkpt><trkpt lat="43.3694567" lon="11.8030717"><ele>265.0</ele><time>2026-04-22T15:02:13.051Z</time></trkpt><trkpt lat="43.3693717" lon="11.803125"><ele>265.0</ele><time>2026-04-22T15:02:15.052Z</time></trkpt><trkpt lat="43.3692867" lon="11.8031933"><ele>265.0</ele><time>2026-04-22T15:02:17.053Z</time></trkpt><trkpt lat="43.3692033" lon="11.803275"><ele>265.0</ele><time>2026-04-22T15:02:19.05Z</time></trkpt><trkpt lat="43.36912" lon="11.803365"><ele>265.0</ele><time>2026-04-22T15:02:21.05Z</time></trkpt><trkpt lat="43.36905" lon="11.803455"><ele>265.0</ele><time>2026-04-22T15:02:23.052Z</time></trkpt><trkpt lat="43.3689933" lon="11.803565"><ele>265.0</ele><time>2026-04-22T15:02:25.056Z</time></trkpt><trkpt lat="43.3689467" lon="11.803675"><ele>265.0</ele><time>2026-04-22T15:02:27.052Z</time></trkpt><trkpt lat="43.3689033" lon="11.8037833"><ele>265.0</ele><time>2026-04-22T15:02:29.053Z</time></trkpt><trkpt lat="43.368865" lon="11.8039167"><ele>264.6</ele><time>2026-04-22T15:02:31.052Z</time></trkpt><trkpt lat="43.36883" lon="11.8040467"><ele>264.2</ele><time>2026-04-22T15:02:33.053Z</time></trkpt><trkpt lat="43.368805" lon="11.80418"><ele>263.8</ele><time>2026-04-22T15:02:35.049Z</time></trkpt><trkpt lat="43.3687917" lon="11.8043017"><ele>263.4</ele><time>2026-04-22T15:02:37.053Z</time></trkpt><trkpt lat="43.368785" lon="11.8044267"><ele>263.0</ele><time>2026-04-22T15:02:39.052Z</time></trkpt><trkpt lat="43.3687767" lon="11.8045467"><ele>263.0</ele><time>2026-04-22T15:02:41.052Z</time></trkpt><trkpt lat="43.3687683" lon="11.8046617"><ele>263.0</ele><time>2026-04-22T15:02:43.049Z</time></trkpt><trkpt lat="43.3687617" lon="11.8047867"><ele>263.0</ele><time>2026-04-22T15:02:45.053Z</time></trkpt><trkpt lat="43.3687633" lon="11.8049117"><ele>263.0</ele><time>2026-04-22T15:02:47.049Z</time></trkpt><trkpt lat="43.3687783" lon="11.805035"><ele>263.0</ele><time>2026-04-22T15:02:49.051Z</time></trkpt><trkpt lat="43.3687967" lon="11.8051517"><ele>263.0</ele><time>2026-04-22T15:02:51.052Z</time></trkpt><trkpt lat="43.3688183" lon="11.805275"><ele>262.83333333333337</ele><time>2026-04-22T15:02:53.051Z</time></trkpt><trkpt lat="43.368855" lon="11.8054033"><ele>262.6666666666667</ele><time>2026-04-22T15:02:55.054Z</time></trkpt><trkpt lat="43.3688817" lon="11.8055083"><ele>262.5</ele><time>2026-04-22T15:02:57.05Z</time></trkpt><trkpt lat="43.3688767" lon="11.8056033"><ele>262.3333333333333</ele><time>2026-04-22T15:02:59.053Z</time></trkpt><trkpt lat="43.3688383" lon="11.8056767"><ele>262.16666666666663</ele><time>2026-04-22T15:03:01.053Z</time></trkpt><trkpt lat="43.3687617" lon="11.8057367"><ele>262.0</ele><time>2026-04-22T15:03:03.054Z</time></trkpt><trkpt lat="43.368665" lon="11.8057983"><ele>261.3333333333333</ele><time>2026-04-22T15:03:05.052Z</time></trkpt><trkpt lat="43.368555" lon="11.8058583"><ele>260.66666666666663</ele><time>2026-04-22T15:03:07.055Z</time></trkpt><trkpt lat="43.368495" lon="11.8058917"><ele>260.0</ele><time>2026-04-22T15:03:08.053Z</time></trkpt><trkpt lat="43.3684267" lon="11.805905"><ele>259.3333333333333</ele><time>2026-04-22T15:03:09.052Z</time></trkpt><trkpt lat="43.3683617" lon="11.80593"><ele>258.6666666666667</ele><time>2026-04-22T15:03:10.049Z</time></trkpt><trkpt lat="43.368295" lon="11.805965"><ele>258.0</ele><time>2026-04-22T15:03:11.055Z</time></trkpt><trkpt lat="43.3682283" lon="11.8060033"><ele>257.4285714285714</ele><time>2026-04-22T15:03:12.05Z</time></trkpt><trkpt lat="43.368165" lon="11.8060533"><ele>256.85714285714283</ele><time>2026-04-22T15:03:13.05Z</time></trkpt><trkpt lat="43.3681033" lon="11.8061033"><ele>256.2857142857143</ele><time>2026-04-22T15:03:14.05Z</time></trkpt><trkpt lat="43.368045" lon="11.80615"><ele>255.7142857142857</ele><time>2026-04-22T15:03:15.053Z</time></trkpt><trkpt lat="43.3679883" lon="11.806205"><ele>255.1428571428571</ele><time>2026-04-22T15:03:16.048Z</time></trkpt><trkpt lat="43.3679333" lon="11.8062667"><ele>254.57142857142858</ele><time>2026-04-22T15:03:17.05Z</time></trkpt><trkpt lat="43.3678883" lon="11.8063483"><ele>254.0</ele><time>2026-04-22T15:03:18.049Z</time></trkpt><trkpt lat="43.3678617" lon="11.806445"><ele>253.66666666666669</ele><time>2026-04-22T15:03:19.052Z</time></trkpt><trkpt lat="43.3678417" lon="11.8065467"><ele>253.33333333333334</ele><time>2026-04-22T15:03:20.051Z</time></trkpt><trkpt lat="43.3678117" lon="11.8066433"><ele>253.0</ele><time>2026-04-22T15:03:21.051Z</time></trkpt><trkpt lat="43.3677717" lon="11.8067317"><ele>252.66666666666669</ele><time>2026-04-22T15:03:22.052Z</time></trkpt><trkpt lat="43.36772" lon="11.8068117"><ele>252.33333333333334</ele><time>2026-04-22T15:03:23.051Z</time></trkpt><trkpt lat="43.36766" lon="11.806885"><ele>252.0</ele><time>2026-04-22T15:03:24.053Z</time></trkpt><trkpt lat="43.3675967" lon="11.8069567"><ele>251.66666666666666</ele><time>2026-04-22T15:03:25.049Z</time></trkpt><trkpt lat="43.3675383" lon="11.80703"><ele>251.33333333333331</ele><time>2026-04-22T15:03:26.049Z</time></trkpt><trkpt lat="43.3674817" lon="11.8070983"><ele>251.0</ele><time>2026-04-22T15:03:27.052Z</time></trkpt><trkpt lat="43.3674283" lon="11.8071633"><ele>250.66666666666666</ele><time>2026-04-22T15:03:28.046Z</time></trkpt><trkpt lat="43.3673767" lon="11.8072167"><ele>250.33333333333331</ele><time>2026-04-22T15:03:29.05Z</time></trkpt><trkpt lat="43.3672867" lon="11.8072933"><ele>250.0</ele><time>2026-04-22T15:03:31.051Z</time></trkpt><trkpt lat="43.36721" lon="11.8073367"><ele>249.99999999999997</ele><time>2026-04-22T15:03:33.05Z</time></trkpt><trkpt lat="43.3671383" lon="11.80738"><ele>250.0</ele><time>2026-04-22T15:03:36.05Z</time></trkpt><trkpt lat="43.3670667" lon="11.8074083"><ele>250.0</ele><time>2026-04-22T15:03:41.049Z</time></trkpt><trkpt lat="43.3669967" lon="11.8073867"><ele>250.0</ele><time>2026-04-22T15:03:45.051Z</time></trkpt><trkpt lat="43.366935" lon="11.8073683"><ele>249.99999999999997</ele><time>2026-04-22T15:03:48.049Z</time></trkpt><trkpt lat="43.3668633" lon="11.8073967"><ele>250.0</ele><time>2026-04-22T15:03:53.051Z</time></trkpt><trkpt lat="43.3667733" lon="11.8073817"><ele>250.0</ele><time>2026-04-22T15:03:56.051Z</time></trkpt><trkpt lat="43.3667067" lon="11.807375"><ele>250.0</ele><time>2026-04-22T15:03:58.05Z</time></trkpt><trkpt lat="43.3666183" lon="11.8073667"><ele>250.0</ele><time>2026-04-22T15:04:00.052Z</time></trkpt><trkpt lat="43.36652" lon="11.8073483"><ele>250.0</ele><time>2026-04-22T15:04:02.052Z</time></trkpt><trkpt lat="43.3664133" lon="11.807325"><ele>250.0</ele><time>2026-04-22T15:04:04.049Z</time></trkpt><trkpt lat="43.3663017" lon="11.807305"><ele>250.2</ele><time>2026-04-22T15:04:06.051Z</time></trkpt><trkpt lat="43.3661883" lon="11.8072833"><ele>250.4</ele><time>2026-04-22T15:04:08.053Z</time></trkpt><trkpt lat="43.3660817" lon="11.8072633"><ele>250.60000000000002</ele><time>2026-04-22T15:04:10.051Z</time></trkpt><trkpt lat="43.3659733" lon="11.8072467"><ele>250.8</ele><time>2026-04-22T15:04:12.049Z</time></trkpt><trkpt lat="43.3658667" lon="11.807225"><ele>251.0</ele><time>2026-04-22T15:04:14.054Z</time></trkpt><trkpt lat="43.3657567" lon="11.8072"><ele>251.00000000000003</ele><time>2026-04-22T15:04:16.05Z</time></trkpt><trkpt lat="43.3656333" lon="11.80717"><ele>251.0</ele><time>2026-04-22T15:04:18.051Z</time></trkpt><trkpt lat="43.3655167" lon="11.807145"><ele>251.0</ele><time>2026-04-22T15:04:20.049Z</time></trkpt><trkpt lat="43.3654517" lon="11.8071317"><ele>251.0</ele><time>2026-04-22T15:04:21.05Z</time></trkpt><trkpt lat="43.3653867" lon="11.80712"><ele>251.00000000000003</ele><time>2026-04-22T15:04:22.049Z</time></trkpt><trkpt lat="43.3653167" lon="11.807105"><ele>251.0</ele><time>2026-04-22T15:04:23.049Z</time></trkpt><trkpt lat="43.3652483" lon="11.80709"><ele>251.0</ele><time>2026-04-22T15:04:24.049Z</time></trkpt><trkpt lat="43.3651267" lon="11.8070617"><ele>251.0</ele><time>2026-04-22T15:04:26.051Z</time></trkpt><trkpt lat="43.3650083" lon="11.807035"><ele>251.0</ele><time>2026-04-22T15:04:28.05Z</time></trkpt><trkpt lat="43.3648933" lon="11.8070233"><ele>251.0</ele><time>2026-04-22T15:04:30.049Z</time></trkpt><trkpt lat="43.36478" lon="11.8070233"><ele>251.00000000000003</ele><time>2026-04-22T15:04:32.051Z</time></trkpt><trkpt lat="43.364655" lon="11.8070367"><ele>251.0</ele><time>2026-04-22T15:04:34.056Z</time></trkpt><trkpt lat="43.3645917" lon="11.80705"><ele>251.0</ele><time>2026-04-22T15:04:35.052Z</time></trkpt><trkpt lat="43.3645283" lon="11.8070633"><ele>251.0</ele><time>2026-04-22T15:04:36.051Z</time></trkpt><trkpt lat="43.364465" lon="11.807075"><ele>251.00000000000003</ele><time>2026-04-22T15:04:37.049Z</time></trkpt><trkpt lat="43.3643983" lon="11.807085"><ele>251.0</ele><time>2026-04-22T15:04:38.05Z</time></trkpt><trkpt lat="43.3643317" lon="11.8070933"><ele>250.99999999999997</ele><time>2026-04-22T15:04:39.052Z</time></trkpt><trkpt lat="43.3642667" lon="11.8071"><ele>251.0</ele><time>2026-04-22T15:04:40.051Z</time></trkpt><trkpt lat="43.3642" lon="11.8071033"><ele>250.99999999999997</ele><time>2026-04-22T15:04:41.05Z</time></trkpt><trkpt lat="43.364135" lon="11.8071117"><ele>250.99999999999997</ele><time>2026-04-22T15:04:42.051Z</time></trkpt><trkpt lat="43.36407" lon="11.8071183"><ele>251.0</ele><time>2026-04-22T15:04:43.053Z</time></trkpt><trkpt lat="43.3640033" lon="11.807125"><ele>250.99999999999997</ele><time>2026-04-22T15:04:44.055Z</time></trkpt><trkpt lat="43.36394" lon="11.807135"><ele>250.99999999999997</ele><time>2026-04-22T15:04:45.054Z</time></trkpt><trkpt lat="43.363875" lon="11.8071433"><ele>250.71428571428567</ele><time>2026-04-22T15:04:46.049Z</time></trkpt><trkpt lat="43.36381" lon="11.80715"><ele>250.42857142857142</ele><time>2026-04-22T15:04:47.049Z</time></trkpt><trkpt lat="43.3637417" lon="11.807155"><ele>250.1428571428571</ele><time>2026-04-22T15:04:48.05Z</time></trkpt><trkpt lat="43.3636733" lon="11.807165"><ele>249.85714285714283</ele><time>2026-04-22T15:04:49.051Z</time></trkpt><trkpt lat="43.363605" lon="11.80717"><ele>249.57142857142856</ele><time>2026-04-22T15:04:50.054Z</time></trkpt><trkpt lat="43.3635383" lon="11.8071767"><ele>249.28571428571428</ele><time>2026-04-22T15:04:51.052Z</time></trkpt><trkpt lat="43.36347" lon="11.8071883"><ele>249.0</ele><time>2026-04-22T15:04:52.049Z</time></trkpt><trkpt lat="43.3634017" lon="11.8072017"><ele>249.0</ele><time>2026-04-22T15:04:53.049Z</time></trkpt><trkpt lat="43.3633333" lon="11.80721"><ele>248.99999999999997</ele><time>2026-04-22T15:04:54.05Z</time></trkpt><trkpt lat="43.3632633" lon="11.8072217"><ele>249.0</ele><time>2026-04-22T15:04:55.055Z</time></trkpt><trkpt lat="43.3631917" lon="11.807235"><ele>249.0</ele><time>2026-04-22T15:04:56.052Z</time></trkpt><trkpt lat="43.3631217" lon="11.8072483"><ele>248.99999999999997</ele><time>2026-04-22T15:04:57.049Z</time></trkpt><trkpt lat="43.3630533" lon="11.80726"><ele>249.0</ele><time>2026-04-22T15:04:58.049Z</time></trkpt><trkpt lat="43.3629833" lon="11.80727"><ele>249.0</ele><time>2026-04-22T15:04:59.052Z</time></trkpt><trkpt lat="43.362915" lon="11.8072783"><ele>248.85714285714283</ele><time>2026-04-22T15:05:00.051Z</time></trkpt><trkpt lat="43.3628467" lon="11.8072883"><ele>248.7142857142857</ele><time>2026-04-22T15:05:01.052Z</time></trkpt><trkpt lat="43.36278" lon="11.8072967"><ele>248.57142857142856</ele><time>2026-04-22T15:05:02.052Z</time></trkpt><trkpt lat="43.36271" lon="11.8073017"><ele>248.42857142857144</ele><time>2026-04-22T15:05:03.05Z</time></trkpt><trkpt lat="43.3626417" lon="11.80731"><ele>248.2857142857143</ele><time>2026-04-22T15:05:04.05Z</time></trkpt><trkpt lat="43.3625767" lon="11.8073217"><ele>248.14285714285717</ele><time>2026-04-22T15:05:05.051Z</time></trkpt><trkpt lat="43.3625083" lon="11.80733"><ele>248.0</ele><time>2026-04-22T15:05:06.051Z</time></trkpt><trkpt lat="43.3624417" lon="11.8073367"><ele>248.00000000000003</ele><time>2026-04-22T15:05:07.051Z</time></trkpt><trkpt lat="43.36238" lon="11.807355"><ele>248.0</ele><time>2026-04-22T15:05:08.049Z</time></trkpt><trkpt lat="43.3622583" lon="11.80738"><ele>248.0</ele><time>2026-04-22T15:05:10.052Z</time></trkpt><trkpt lat="43.362195" lon="11.8073867"><ele>248.0</ele><time>2026-04-22T15:05:11.048Z</time></trkpt><trkpt lat="43.3621317" lon="11.8073933"><ele>248.00000000000003</ele><time>2026-04-22T15:05:12.049Z</time></trkpt><trkpt lat="43.3620083" lon="11.8074083"><ele>248.0</ele><time>2026-04-22T15:05:14.053Z</time></trkpt><trkpt lat="43.361945" lon="11.80742"><ele>248.5</ele><time>2026-04-22T15:05:15.05Z</time></trkpt><trkpt lat="43.3618233" lon="11.8074417"><ele>249.0</ele><time>2026-04-22T15:05:17.05Z</time></trkpt><trkpt lat="43.3617083" lon="11.80746"><ele>249.5</ele><time>2026-04-22T15:05:19.051Z</time></trkpt><trkpt lat="43.3615983" lon="11.80748"><ele>250.0</ele><time>2026-04-22T15:05:21.052Z</time></trkpt><trkpt lat="43.3614917" lon="11.8074983"><ele>250.0</ele><time>2026-04-22T15:05:23.049Z</time></trkpt><trkpt lat="43.3613867" lon="11.8075133"><ele>250.0</ele><time>2026-04-22T15:05:25.049Z</time></trkpt><trkpt lat="43.3612817" lon="11.8075267"><ele>250.0</ele><time>2026-04-22T15:05:27.05Z</time></trkpt><trkpt lat="43.3611867" lon="11.8075333"><ele>250.0</ele><time>2026-04-22T15:05:29.05Z</time></trkpt><trkpt lat="43.3611017" lon="11.8075483"><ele>250.0</ele><time>2026-04-22T15:05:31.051Z</time></trkpt><trkpt lat="43.3610217" lon="11.8075567"><ele>249.57142857142856</ele><time>2026-04-22T15:05:33.052Z</time></trkpt><trkpt lat="43.3609517" lon="11.8075633"><ele>249.14285714285717</ele><time>2026-04-22T15:05:35.051Z</time></trkpt><trkpt lat="43.3608817" lon="11.8075733"><ele>248.71428571428572</ele><time>2026-04-22T15:05:37.05Z</time></trkpt><trkpt lat="43.3608133" lon="11.807585"><ele>248.28571428571428</ele><time>2026-04-22T15:05:39.049Z</time></trkpt><trkpt lat="43.3607467" lon="11.80759"><ele>247.85714285714283</ele><time>2026-04-22T15:05:41.052Z</time></trkpt><trkpt lat="43.3606817" lon="11.8076117"><ele>247.42857142857144</ele><time>2026-04-22T15:05:43.05Z</time></trkpt><trkpt lat="43.3606467" lon="11.8076933"><ele>247.0</ele><time>2026-04-22T15:05:45.049Z</time></trkpt><trkpt lat="43.3606617" lon="11.8078083"><ele>247.0</ele><time>2026-04-22T15:05:47.049Z</time></trkpt><trkpt lat="43.360675" lon="11.807935"><ele>247.0</ele><time>2026-04-22T15:05:49.052Z</time></trkpt><trkpt lat="43.360695" lon="11.8080767"><ele>247.0</ele><time>2026-04-22T15:05:51.051Z</time></trkpt><trkpt lat="43.3607117" lon="11.8082217"><ele>247.0</ele><time>2026-04-22T15:05:53.051Z</time></trkpt><trkpt lat="43.3607333" lon="11.8083633"><ele>247.0</ele><time>2026-04-22T15:05:55.051Z</time></trkpt><trkpt lat="43.3607517" lon="11.80851"><ele>246.8</ele><time>2026-04-22T15:05:57.054Z</time></trkpt><trkpt lat="43.3607633" lon="11.8086567"><ele>246.6</ele><time>2026-04-22T15:05:59.052Z</time></trkpt><trkpt lat="43.3607783" lon="11.8088067"><ele>246.40000000000003</ele><time>2026-04-22T15:06:01.052Z</time></trkpt><trkpt lat="43.3608" lon="11.8089433"><ele>246.20000000000002</ele><time>2026-04-22T15:06:03.05Z</time></trkpt><trkpt lat="43.36082" lon="11.8090783"><ele>246.0</ele><time>2026-04-22T15:06:05.051Z</time></trkpt><trkpt lat="43.3608417" lon="11.80922"><ele>246.0</ele><time>2026-04-22T15:06:07.049Z</time></trkpt><trkpt lat="43.3608683" lon="11.8093683"><ele>246.00000000000003</ele><time>2026-04-22T15:06:09.048Z</time></trkpt><trkpt lat="43.3608933" lon="11.80951"><ele>246.00000000000003</ele><time>2026-04-22T15:06:11.056Z</time></trkpt><trkpt lat="43.360915" lon="11.809655"><ele>246.0</ele><time>2026-04-22T15:06:13.053Z</time></trkpt><trkpt lat="43.3609233" lon="11.8098083"><ele>246.0</ele><time>2026-04-22T15:06:15.053Z</time></trkpt><trkpt lat="43.3609483" lon="11.809955"><ele>246.0</ele><time>2026-04-22T15:06:17.048Z</time></trkpt><trkpt lat="43.3609683" lon="11.8101"><ele>246.00000000000003</ele><time>2026-04-22T15:06:19.051Z</time></trkpt><trkpt lat="43.36099" lon="11.810245"><ele>246.00000000000003</ele><time>2026-04-22T15:06:21.051Z</time></trkpt><trkpt lat="43.3610067" lon="11.8103833"><ele>246.0</ele><time>2026-04-22T15:06:23.051Z</time></trkpt><trkpt lat="43.3610233" lon="11.810525"><ele>246.0</ele><time>2026-04-22T15:06:25.052Z</time></trkpt><trkpt lat="43.361045" lon="11.8106617"><ele>246.0</ele><time>2026-04-22T15:06:27.053Z</time></trkpt><trkpt lat="43.3610633" lon="11.8108017"><ele>246.00000000000003</ele><time>2026-04-22T15:06:29.053Z</time></trkpt><trkpt lat="43.3610833" lon="11.8109433"><ele>246.00000000000003</ele><time>2026-04-22T15:06:31.049Z</time></trkpt><trkpt lat="43.3611017" lon="11.8110833"><ele>246.0</ele><time>2026-04-22T15:06:33.05Z</time></trkpt><trkpt lat="43.3611167" lon="11.811225"><ele>246.0</ele><time>2026-04-22T15:06:35.054Z</time></trkpt><trkpt lat="43.3611283" lon="11.811365"><ele>246.0</ele><time>2026-04-22T15:06:37.053Z</time></trkpt><trkpt lat="43.3611483" lon="11.8115017"><ele>246.00000000000003</ele><time>2026-04-22T15:06:39.052Z</time></trkpt><trkpt lat="43.3611733" lon="11.811635"><ele>246.00000000000003</ele><time>2026-04-22T15:06:41.049Z</time></trkpt><trkpt lat="43.3611917" lon="11.81177"><ele>246.0</ele><time>2026-04-22T15:06:43.052Z</time></trkpt><trkpt lat="43.36121" lon="11.81191"><ele>246.0</ele><time>2026-04-22T15:06:45.049Z</time></trkpt><trkpt lat="43.3612267" lon="11.81205"><ele>246.0</ele><time>2026-04-22T15:06:47.05Z</time></trkpt><trkpt lat="43.3612467" lon="11.8121917"><ele>246.00000000000003</ele><time>2026-04-22T15:06:49.056Z</time></trkpt><trkpt lat="43.361265" lon="11.81233"><ele>246.00000000000003</ele><time>2026-04-22T15:06:51.053Z</time></trkpt><trkpt lat="43.36129" lon="11.81247"><ele>246.0</ele><time>2026-04-22T15:06:53.049Z</time></trkpt><trkpt lat="43.3613133" lon="11.8126083"><ele>246.0</ele><time>2026-04-22T15:06:55.052Z</time></trkpt><trkpt lat="43.3613333" lon="11.812755"><ele>245.60000000000002</ele><time>2026-04-22T15:06:57.05Z</time></trkpt><trkpt lat="43.3613467" lon="11.812895"><ele>245.20000000000002</ele><time>2026-04-22T15:06:59.051Z</time></trkpt><trkpt lat="43.3613633" lon="11.8130367"><ele>244.79999999999998</ele><time>2026-04-22T15:07:01.052Z</time></trkpt><trkpt lat="43.36138" lon="11.81318"><ele>244.39999999999998</ele><time>2026-04-22T15:07:03.048Z</time></trkpt><trkpt lat="43.3613933" lon="11.8133217"><ele>244.0</ele><time>2026-04-22T15:07:05.049Z</time></trkpt><trkpt lat="43.3614067" lon="11.813465"><ele>244.0</ele><time>2026-04-22T15:07:07.049Z</time></trkpt><trkpt lat="43.3614183" lon="11.8136067"><ele>243.99999999999997</ele><time>2026-04-22T15:07:09.051Z</time></trkpt><trkpt lat="43.361435" lon="11.813755"><ele>243.99999999999997</ele><time>2026-04-22T15:07:11.05Z</time></trkpt><trkpt lat="43.36146" lon="11.813895"><ele>244.0</ele><time>2026-04-22T15:07:13.052Z</time></trkpt><trkpt lat="43.3614833" lon="11.8140433"><ele>244.0</ele><time>2026-04-22T15:07:15.05Z</time></trkpt><trkpt lat="43.3615033" lon="11.8141933"><ele>244.39999999999998</ele><time>2026-04-22T15:07:17.05Z</time></trkpt><trkpt lat="43.361525" lon="11.81434"><ele>244.79999999999998</ele><time>2026-04-22T15:07:19.049Z</time></trkpt><trkpt lat="43.3615483" lon="11.8144833"><ele>245.20000000000002</ele><time>2026-04-22T15:07:21.05Z</time></trkpt><trkpt lat="43.361575" lon="11.8146183"><ele>245.60000000000002</ele><time>2026-04-22T15:07:23.048Z</time></trkpt><trkpt lat="43.3616017" lon="11.814745"><ele>246.0</ele><time>2026-04-22T15:07:25.049Z</time></trkpt><trkpt lat="43.3616367" lon="11.81484"><ele>246.0</ele><time>2026-04-22T15:07:27.052Z</time></trkpt><trkpt lat="43.36165" lon="11.81495"><ele>246.0</ele><time>2026-04-22T15:07:30.048Z</time></trkpt><trkpt lat="43.3616467" lon="11.8150667"><ele>246.0</ele><time>2026-04-22T15:07:33.05Z</time></trkpt><trkpt lat="43.36166" lon="11.8151633"><ele>246.0</ele><time>2026-04-22T15:07:35.049Z</time></trkpt><trkpt lat="43.3616767" lon="11.815265"><ele>246.0</ele><time>2026-04-22T15:07:37.048Z</time></trkpt><trkpt lat="43.3616967" lon="11.81538"><ele>246.0</ele><time>2026-04-22T15:07:39.049Z</time></trkpt><trkpt lat="43.3617083" lon="11.815495"><ele>245.83333333333334</ele><time>2026-04-22T15:07:41.05Z</time></trkpt><trkpt lat="43.361725" lon="11.8156117"><ele>245.66666666666669</ele><time>2026-04-22T15:07:43.051Z</time></trkpt><trkpt lat="43.36174" lon="11.81573"><ele>245.5</ele><time>2026-04-22T15:07:45.051Z</time></trkpt><trkpt lat="43.3617517" lon="11.8158533"><ele>245.33333333333334</ele><time>2026-04-22T15:07:47.051Z</time></trkpt><trkpt lat="43.3617683" lon="11.81598"><ele>245.16666666666669</ele><time>2026-04-22T15:07:49.054Z</time></trkpt><trkpt lat="43.3617783" lon="11.8160967"><ele>245.0</ele><time>2026-04-22T15:07:51.054Z</time></trkpt><trkpt lat="43.3617917" lon="11.8162067"><ele>244.83333333333334</ele><time>2026-04-22T15:07:53.049Z</time></trkpt><trkpt lat="43.3617983" lon="11.8162967"><ele>244.66666666666669</ele><time>2026-04-22T15:07:55.052Z</time></trkpt><trkpt lat="43.36181" lon="11.8163883"><ele>244.5</ele><time>2026-04-22T15:07:57.051Z</time></trkpt><trkpt lat="43.3618233" lon="11.8164917"><ele>244.33333333333331</ele><time>2026-04-22T15:07:59.051Z</time></trkpt><trkpt lat="43.36183" lon="11.8166017"><ele>244.16666666666666</ele><time>2026-04-22T15:08:01.049Z</time></trkpt><trkpt lat="43.3618533" lon="11.81671"><ele>244.0</ele><time>2026-04-22T15:08:03.049Z</time></trkpt><trkpt lat="43.3618783" lon="11.8168233"><ele>243.79999999999998</ele><time>2026-04-22T15:08:05.049Z</time></trkpt><trkpt lat="43.3618867" lon="11.81694"><ele>243.59999999999997</ele><time>2026-04-22T15:08:07.05Z</time></trkpt><trkpt lat="43.3619017" lon="11.81706"><ele>243.4</ele><time>2026-04-22T15:08:09.05Z</time></trkpt><trkpt lat="43.3619233" lon="11.8171867"><ele>243.2</ele><time>2026-04-22T15:08:11.05Z</time></trkpt><trkpt lat="43.361945" lon="11.8173133"><ele>243.0</ele><time>2026-04-22T15:08:13.048Z</time></trkpt><trkpt lat="43.3619633" lon="11.8174333"><ele>243.0</ele><time>2026-04-22T15:08:15.049Z</time></trkpt><trkpt lat="43.361975" lon="11.817555"><ele>243.0</ele><time>2026-04-22T15:08:17.05Z</time></trkpt><trkpt lat="43.361985" lon="11.8176817"><ele>243.0</ele><time>2026-04-22T15:08:19.05Z</time></trkpt><trkpt lat="43.3619967" lon="11.817805"><ele>243.0</ele><time>2026-04-22T15:08:21.052Z</time></trkpt><trkpt lat="43.3620083" lon="11.817925"><ele>243.0</ele><time>2026-04-22T15:08:23.05Z</time></trkpt><trkpt lat="43.3620233" lon="11.8180483"><ele>243.4</ele><time>2026-04-22T15:08:25.051Z</time></trkpt><trkpt lat="43.3620417" lon="11.8181733"><ele>243.8</ele><time>2026-04-22T15:08:27.048Z</time></trkpt><trkpt lat="43.3620633" lon="11.8182933"><ele>244.2</ele><time>2026-04-22T15:08:29.053Z</time></trkpt><trkpt lat="43.3620833" lon="11.81842"><ele>244.6</ele><time>2026-04-22T15:08:31.051Z</time></trkpt><trkpt lat="43.3621" lon="11.8185467"><ele>245.0</ele><time>2026-04-22T15:08:33.051Z</time></trkpt><trkpt lat="43.3621167" lon="11.818675"><ele>245.00000000000003</ele><time>2026-04-22T15:08:35.049Z</time></trkpt><trkpt lat="43.362135" lon="11.8188017"><ele>245.0</ele><time>2026-04-22T15:08:37.052Z</time></trkpt><trkpt lat="43.3621567" lon="11.818925"><ele>245.0</ele><time>2026-04-22T15:08:39.048Z</time></trkpt><trkpt lat="43.3621817" lon="11.81904"><ele>245.0</ele><time>2026-04-22T15:08:41.051Z</time></trkpt><trkpt lat="43.3622033" lon="11.8191533"><ele>245.00000000000003</ele><time>2026-04-22T15:08:43.052Z</time></trkpt><trkpt lat="43.36222" lon="11.8192717"><ele>245.0</ele><time>2026-04-22T15:08:45.049Z</time></trkpt><trkpt lat="43.36224" lon="11.819395"><ele>244.6</ele><time>2026-04-22T15:08:47.052Z</time></trkpt><trkpt lat="43.3622517" lon="11.8195217"><ele>244.2</ele><time>2026-04-22T15:08:49.045Z</time></trkpt><trkpt lat="43.3622683" lon="11.8196533"><ele>243.8</ele><time>2026-04-22T15:08:51.051Z</time></trkpt><trkpt lat="43.3622833" lon="11.8197783"><ele>243.4</ele><time>2026-04-22T15:08:53.053Z</time></trkpt><trkpt lat="43.3622983" lon="11.8199033"><ele>243.0</ele><time>2026-04-22T15:08:55.051Z</time></trkpt><trkpt lat="43.3623083" lon="11.820025"><ele>243.0</ele><time>2026-04-22T15:08:57.051Z</time></trkpt><trkpt lat="43.3623217" lon="11.8201483"><ele>243.0</ele><time>2026-04-22T15:08:59.053Z</time></trkpt><trkpt lat="43.3623367" lon="11.82027"><ele>243.0</ele><time>2026-04-22T15:09:01.049Z</time></trkpt><trkpt lat="43.3623533" lon="11.8204367"><ele>243.0</ele><time>2026-04-22T15:09:04.054Z</time></trkpt><trkpt lat="43.3623067" lon="11.8205133"><ele>243.0</ele><time>2026-04-22T15:09:06.051Z</time></trkpt><trkpt lat="43.3622283" lon="11.8205333"><ele>243.2</ele><time>2026-04-22T15:09:08.046Z</time></trkpt><trkpt lat="43.3621417" lon="11.82053"><ele>243.4</ele><time>2026-04-22T15:09:10.047Z</time></trkpt><trkpt lat="43.36205" lon="11.8205317"><ele>243.59999999999997</ele><time>2026-04-22T15:09:12.048Z</time></trkpt><trkpt lat="43.36195" lon="11.8205333"><ele>243.79999999999998</ele><time>2026-04-22T15:09:14.047Z</time></trkpt><trkpt lat="43.361845" lon="11.8205333"><ele>244.0</ele><time>2026-04-22T15:09:16.046Z</time></trkpt><trkpt lat="43.361745" lon="11.8205317"><ele>244.0</ele><time>2026-04-22T15:09:18.053Z</time></trkpt><trkpt lat="43.3616433" lon="11.8205333"><ele>243.99999999999997</ele><time>2026-04-22T15:09:20.049Z</time></trkpt><trkpt lat="43.3615433" lon="11.8205317"><ele>243.99999999999997</ele><time>2026-04-22T15:09:22.048Z</time></trkpt><trkpt lat="43.361445" lon="11.820535"><ele>244.0</ele><time>2026-04-22T15:09:24.051Z</time></trkpt><trkpt lat="43.3613417" lon="11.82053"><ele>244.0</ele><time>2026-04-22T15:09:26.049Z</time></trkpt><trkpt lat="43.3612383" lon="11.8205317"><ele>243.6</ele><time>2026-04-22T15:09:28.048Z</time></trkpt><trkpt lat="43.3611383" lon="11.8205367"><ele>243.2</ele><time>2026-04-22T15:09:30.048Z</time></trkpt><trkpt lat="43.361035" lon="11.8205367"><ele>242.79999999999998</ele><time>2026-04-22T15:09:32.051Z</time></trkpt><trkpt lat="43.3609417" lon="11.8205383"><ele>242.39999999999998</ele><time>2026-04-22T15:09:34.051Z</time></trkpt><trkpt lat="43.3608483" lon="11.8205383"><ele>242.0</ele><time>2026-04-22T15:09:36.05Z</time></trkpt><trkpt lat="43.3607517" lon="11.8205417"><ele>242.0</ele><time>2026-04-22T15:09:38.049Z</time></trkpt><trkpt lat="43.360655" lon="11.8205433"><ele>242.0</ele><time>2026-04-22T15:09:40.048Z</time></trkpt><trkpt lat="43.3605617" lon="11.8205383"><ele>242.0</ele><time>2026-04-22T15:09:42.047Z</time></trkpt><trkpt lat="43.36046" lon="11.82052"><ele>242.0</ele><time>2026-04-22T15:09:44.053Z</time></trkpt><trkpt lat="43.3603583" lon="11.8205283"><ele>242.0</ele><time>2026-04-22T15:09:46.05Z</time></trkpt><trkpt lat="43.3602683" lon="11.8205533"><ele>241.83333333333334</ele><time>2026-04-22T15:09:48.052Z</time></trkpt><trkpt lat="43.3601817" lon="11.820565"><ele>241.66666666666669</ele><time>2026-04-22T15:09:50.052Z</time></trkpt><trkpt lat="43.3600983" lon="11.8205567"><ele>241.5</ele><time>2026-04-22T15:09:52.054Z</time></trkpt><trkpt lat="43.36001" lon="11.8205617"><ele>241.33333333333331</ele><time>2026-04-22T15:09:54.054Z</time></trkpt><trkpt lat="43.3599167" lon="11.8205583"><ele>241.16666666666666</ele><time>2026-04-22T15:09:56.054Z</time></trkpt><trkpt lat="43.35983" lon="11.820565"><ele>241.0</ele><time>2026-04-22T15:09:58.048Z</time></trkpt><trkpt lat="43.35974" lon="11.8205683"><ele>241.20000000000002</ele><time>2026-04-22T15:10:00.051Z</time></trkpt><trkpt lat="43.359655" lon="11.8205667"><ele>241.40000000000003</ele><time>2026-04-22T15:10:02.051Z</time></trkpt><trkpt lat="43.35957" lon="11.82054"><ele>241.6</ele><time>2026-04-22T15:10:04.048Z</time></trkpt><trkpt lat="43.3594767" lon="11.820555"><ele>241.8</ele><time>2026-04-22T15:10:06.051Z</time></trkpt><trkpt lat="43.3593833" lon="11.8205617"><ele>242.0</ele><time>2026-04-22T15:10:08.053Z</time></trkpt><trkpt lat="43.3592867" lon="11.8205683"><ele>242.0</ele><time>2026-04-22T15:10:10.052Z</time></trkpt><trkpt lat="43.359185" lon="11.82057"><ele>242.0</ele><time>2026-04-22T15:10:12.051Z</time></trkpt><trkpt lat="43.3590883" lon="11.8205833"><ele>242.0</ele><time>2026-04-22T15:10:14.056Z</time></trkpt><trkpt lat="43.3589967" lon="11.8205817"><ele>242.0</ele><time>2026-04-22T15:10:16.05Z</time></trkpt><trkpt lat="43.35891" lon="11.82058"><ele>242.0</ele><time>2026-04-22T15:10:18.054Z</time></trkpt><trkpt lat="43.35882" lon="11.82057"><ele>242.00000000000003</ele><time>2026-04-22T15:10:20.051Z</time></trkpt><trkpt lat="43.3587283" lon="11.8205783"><ele>242.0</ele><time>2026-04-22T15:10:22.049Z</time></trkpt><trkpt lat="43.35864" lon="11.820585"><ele>242.0</ele><time>2026-04-22T15:10:24.052Z</time></trkpt><trkpt lat="43.3585533" lon="11.8205917"><ele>242.0</ele><time>2026-04-22T15:10:26.054Z</time></trkpt><trkpt lat="43.3584667" lon="11.8205917"><ele>242.00000000000003</ele><time>2026-04-22T15:10:28.052Z</time></trkpt><trkpt lat="43.35838" lon="11.8205917"><ele>242.0</ele><time>2026-04-22T15:10:30.049Z</time></trkpt><trkpt lat="43.3582983" lon="11.8206"><ele>242.00000000000003</ele><time>2026-04-22T15:10:32.051Z</time></trkpt><trkpt lat="43.3582117" lon="11.820605"><ele>242.0</ele><time>2026-04-22T15:10:34.049Z</time></trkpt><trkpt lat="43.3581333" lon="11.8206"><ele>242.0</ele><time>2026-04-22T15:10:36.049Z</time></trkpt><trkpt lat="43.3580517" lon="11.8205967"><ele>242.0</ele><time>2026-04-22T15:10:38.051Z</time></trkpt><trkpt lat="43.3579633" lon="11.820605"><ele>242.00000000000003</ele><time>2026-04-22T15:10:40.05Z</time></trkpt><trkpt lat="43.357875" lon="11.820605"><ele>242.0</ele><time>2026-04-22T15:10:42.049Z</time></trkpt><trkpt lat="43.357785" lon="11.8206133"><ele>242.2</ele><time>2026-04-22T15:10:44.051Z</time></trkpt><trkpt lat="43.357695" lon="11.8206083"><ele>242.39999999999998</ele><time>2026-04-22T15:10:46.051Z</time></trkpt><trkpt lat="43.3576" lon="11.8205983"><ele>242.60000000000002</ele><time>2026-04-22T15:10:48.049Z</time></trkpt><trkpt lat="43.35751" lon="11.820595"><ele>242.8</ele><time>2026-04-22T15:10:50.05Z</time></trkpt><trkpt lat="43.3574167" lon="11.8206133"><ele>243.0</ele><time>2026-04-22T15:10:52.05Z</time></trkpt><trkpt lat="43.3573233" lon="11.8206183"><ele>243.0</ele><time>2026-04-22T15:10:54.051Z</time></trkpt><trkpt lat="43.3572333" lon="11.8206367"><ele>243.0</ele><time>2026-04-22T15:10:56.05Z</time></trkpt><trkpt lat="43.3571433" lon="11.82064"><ele>243.0</ele><time>2026-04-22T15:10:58.047Z</time></trkpt><trkpt lat="43.3570517" lon="11.8206383"><ele>243.0</ele><time>2026-04-22T15:11:00.05Z</time></trkpt><trkpt lat="43.35696" lon="11.8206417"><ele>243.0</ele><time>2026-04-22T15:11:02.053Z</time></trkpt><trkpt lat="43.3568633" lon="11.8206317"><ele>243.0</ele><time>2026-04-22T15:11:04.051Z</time></trkpt><trkpt lat="43.3567617" lon="11.820635"><ele>243.0</ele><time>2026-04-22T15:11:06.052Z</time></trkpt><trkpt lat="43.3566683" lon="11.8206367"><ele>243.0</ele><time>2026-04-22T15:11:08.051Z</time></trkpt><trkpt lat="43.3565667" lon="11.8206383"><ele>243.0</ele><time>2026-04-22T15:11:10.049Z</time></trkpt><trkpt lat="43.3564683" lon="11.820655"><ele>243.0</ele><time>2026-04-22T15:11:12.051Z</time></trkpt><trkpt lat="43.3563683" lon="11.82065"><ele>243.0</ele><time>2026-04-22T15:11:14.051Z</time></trkpt><trkpt lat="43.35627" lon="11.82066"><ele>243.0</ele><time>2026-04-22T15:11:16.052Z</time></trkpt><trkpt lat="43.3561683" lon="11.8206533"><ele>243.0</ele><time>2026-04-22T15:11:18.05Z</time></trkpt><trkpt lat="43.35607" lon="11.82065"><ele>243.0</ele><time>2026-04-22T15:11:20.055Z</time></trkpt><trkpt lat="43.3559767" lon="11.8206533"><ele>243.0</ele><time>2026-04-22T15:11:22.052Z</time></trkpt><trkpt lat="43.3558883" lon="11.8206667"><ele>243.0</ele><time>2026-04-22T15:11:24.052Z</time></trkpt><trkpt lat="43.3558" lon="11.8206667"><ele>243.0</ele><time>2026-04-22T15:11:26.054Z</time></trkpt><trkpt lat="43.3557067" lon="11.8206683"><ele>243.0</ele><time>2026-04-22T15:11:28.049Z</time></trkpt><trkpt lat="43.355605" lon="11.8206633"><ele>243.0</ele><time>2026-04-22T15:11:30.052Z</time></trkpt><trkpt lat="43.355505" lon="11.8206567"><ele>243.0</ele><time>2026-04-22T15:11:32.051Z</time></trkpt><trkpt lat="43.355405" lon="11.8206567"><ele>243.2</ele><time>2026-04-22T15:11:34.05Z</time></trkpt><trkpt lat="43.355305" lon="11.8206683"><ele>243.4</ele><time>2026-04-22T15:11:36.051Z</time></trkpt><trkpt lat="43.355205" lon="11.8206567"><ele>243.59999999999997</ele><time>2026-04-22T15:11:38.056Z</time></trkpt><trkpt lat="43.355105" lon="11.82067"><ele>243.79999999999998</ele><time>2026-04-22T15:11:40.052Z</time></trkpt><trkpt lat="43.35501" lon="11.82068"><ele>244.0</ele><time>2026-04-22T15:11:42.05Z</time></trkpt><trkpt lat="43.3549117" lon="11.82068"><ele>244.0</ele><time>2026-04-22T15:11:44.055Z</time></trkpt><trkpt lat="43.3548083" lon="11.8206783"><ele>243.99999999999997</ele><time>2026-04-22T15:11:46.052Z</time></trkpt><trkpt lat="43.3546983" lon="11.8206717"><ele>243.99999999999997</ele><time>2026-04-22T15:11:48.049Z</time></trkpt><trkpt lat="43.35459" lon="11.8206733"><ele>244.0</ele><time>2026-04-22T15:11:50.051Z</time></trkpt><trkpt lat="43.3544867" lon="11.8206867"><ele>244.0</ele><time>2026-04-22T15:11:52.05Z</time></trkpt><trkpt lat="43.3543733" lon="11.8206917"><ele>244.0</ele><time>2026-04-22T15:11:54.05Z</time></trkpt><trkpt lat="43.3542583" lon="11.8206883"><ele>244.0</ele><time>2026-04-22T15:11:56.05Z</time></trkpt><trkpt lat="43.354145" lon="11.820685"><ele>244.0</ele><time>2026-04-22T15:11:58.051Z</time></trkpt><trkpt lat="43.3540333" lon="11.820685"><ele>244.0</ele><time>2026-04-22T15:12:00.049Z</time></trkpt><trkpt lat="43.3539217" lon="11.8206883"><ele>244.0</ele><time>2026-04-22T15:12:02.052Z</time></trkpt><trkpt lat="43.35381" lon="11.82069"><ele>244.0</ele><time>2026-04-22T15:12:04.049Z</time></trkpt><trkpt lat="43.3536967" lon="11.8206967"><ele>244.0</ele><time>2026-04-22T15:12:06.048Z</time></trkpt><trkpt lat="43.3535833" lon="11.820695"><ele>244.0</ele><time>2026-04-22T15:12:08.054Z</time></trkpt><trkpt lat="43.35347" lon="11.8206917"><ele>244.0</ele><time>2026-04-22T15:12:10.048Z</time></trkpt><trkpt lat="43.3533017" lon="11.82071"><ele>244.0</ele><time>2026-04-22T15:12:13.05Z</time></trkpt><trkpt lat="43.3531833" lon="11.8207133"><ele>244.0</ele><time>2026-04-22T15:12:15.051Z</time></trkpt><trkpt lat="43.3530733" lon="11.82071"><ele>244.0</ele><time>2026-04-22T15:12:17.05Z</time></trkpt><trkpt lat="43.3529583" lon="11.8207067"><ele>243.5</ele><time>2026-04-22T15:12:19.052Z</time></trkpt><trkpt lat="43.352845" lon="11.82071"><ele>243.0</ele><time>2026-04-22T15:12:21.055Z</time></trkpt><trkpt lat="43.3527267" lon="11.8207117"><ele>242.5</ele><time>2026-04-22T15:12:23.05Z</time></trkpt><trkpt lat="43.352615" lon="11.8207117"><ele>242.0</ele><time>2026-04-22T15:12:25.052Z</time></trkpt><trkpt lat="43.3525083" lon="11.8207117"><ele>242.0</ele><time>2026-04-22T15:12:27.053Z</time></trkpt><trkpt lat="43.3524" lon="11.82071"><ele>242.0</ele><time>2026-04-22T15:12:29.049Z</time></trkpt><trkpt lat="43.3522983" lon="11.82071"><ele>242.0</ele><time>2026-04-22T15:12:31.052Z</time></trkpt><trkpt lat="43.3521933" lon="11.8207283"><ele>242.0</ele><time>2026-04-22T15:12:33.049Z</time></trkpt><trkpt lat="43.352095" lon="11.820735"><ele>242.0</ele><time>2026-04-22T15:12:35.049Z</time></trkpt><trkpt lat="43.3520067" lon="11.8207233"><ele>242.33333333333334</ele><time>2026-04-22T15:12:37.048Z</time></trkpt><trkpt lat="43.3519217" lon="11.8207283"><ele>242.66666666666669</ele><time>2026-04-22T15:12:39.053Z</time></trkpt><trkpt lat="43.3518433" lon="11.82075"><ele>243.0</ele><time>2026-04-22T15:12:41.052Z</time></trkpt><trkpt lat="43.35177" lon="11.8207817"><ele>243.33333333333331</ele><time>2026-04-22T15:12:44.05Z</time></trkpt><trkpt lat="43.3517567" lon="11.82088"><ele>243.66666666666666</ele><time>2026-04-22T15:12:48.049Z</time></trkpt><trkpt lat="43.3517267" lon="11.821055"><ele>244.0</ele><time>2026-04-22T15:13:37.049Z</time></trkpt><trkpt lat="43.351705" lon="11.8211833"><ele>244.16666666666666</ele><time>2026-04-22T15:13:40.051Z</time></trkpt><trkpt lat="43.351715" lon="11.8213133"><ele>244.33333333333331</ele><time>2026-04-22T15:13:43.052Z</time></trkpt><trkpt lat="43.3517283" lon="11.8214183"><ele>244.5</ele><time>2026-04-22T15:13:45.05Z</time></trkpt><trkpt lat="43.3517367" lon="11.8215333"><ele>244.66666666666669</ele><time>2026-04-22T15:13:47.051Z</time></trkpt><trkpt lat="43.3517467" lon="11.8216517"><ele>244.83333333333334</ele><time>2026-04-22T15:13:49.053Z</time></trkpt><trkpt lat="43.35176" lon="11.821775"><ele>245.0</ele><time>2026-04-22T15:13:51.054Z</time></trkpt><trkpt lat="43.3517717" lon="11.8218983"><ele>245.0</ele><time>2026-04-22T15:13:53.054Z</time></trkpt><trkpt lat="43.3517833" lon="11.822025"><ele>245.0</ele><time>2026-04-22T15:13:55.051Z</time></trkpt><trkpt lat="43.3517967" lon="11.8221533"><ele>245.0</ele><time>2026-04-22T15:13:57.054Z</time></trkpt><trkpt lat="43.3518117" lon="11.8222817"><ele>245.0</ele><time>2026-04-22T15:13:59.055Z</time></trkpt><trkpt lat="43.3518217" lon="11.82241"><ele>245.0</ele><time>2026-04-22T15:14:01.05Z</time></trkpt><trkpt lat="43.3518333" lon="11.82254"><ele>244.6</ele><time>2026-04-22T15:14:03.052Z</time></trkpt><trkpt lat="43.3518467" lon="11.8226717"><ele>244.2</ele><time>2026-04-22T15:14:05.053Z</time></trkpt><trkpt lat="43.35186" lon="11.822805"><ele>243.8</ele><time>2026-04-22T15:14:07.052Z</time></trkpt><trkpt lat="43.3518767" lon="11.8229333"><ele>243.4</ele><time>2026-04-22T15:14:09.053Z</time></trkpt><trkpt lat="43.3518867" lon="11.8230617"><ele>243.0</ele><time>2026-04-22T15:14:11.052Z</time></trkpt><trkpt lat="43.3518983" lon="11.8231933"><ele>243.0</ele><time>2026-04-22T15:14:13.052Z</time></trkpt><trkpt lat="43.3519117" lon="11.8233267"><ele>243.0</ele><time>2026-04-22T15:14:15.052Z</time></trkpt><trkpt lat="43.3519233" lon="11.823455"><ele>243.0</ele><time>2026-04-22T15:14:17.053Z</time></trkpt><trkpt lat="43.3519333" lon="11.8235817"><ele>243.0</ele><time>2026-04-22T15:14:19.049Z</time></trkpt><trkpt lat="43.351945" lon="11.8237083"><ele>243.0</ele><time>2026-04-22T15:14:21.054Z</time></trkpt><trkpt lat="43.3519583" lon="11.8238367"><ele>242.8</ele><time>2026-04-22T15:14:23.054Z</time></trkpt><trkpt lat="43.3519717" lon="11.8239633"><ele>242.60000000000002</ele><time>2026-04-22T15:14:25.053Z</time></trkpt><trkpt lat="43.3519867" lon="11.8240933"><ele>242.39999999999998</ele><time>2026-04-22T15:14:27.055Z</time></trkpt><trkpt lat="43.3519983" lon="11.82422"><ele>242.2</ele><time>2026-04-22T15:14:29.051Z</time></trkpt><trkpt lat="43.35201" lon="11.824345"><ele>242.0</ele><time>2026-04-22T15:14:31.054Z</time></trkpt><trkpt lat="43.3520217" lon="11.8244683"><ele>242.39999999999998</ele><time>2026-04-22T15:14:33.05Z</time></trkpt><trkpt lat="43.3520333" lon="11.8245883"><ele>242.79999999999998</ele><time>2026-04-22T15:14:35.054Z</time></trkpt><trkpt lat="43.3520417" lon="11.8247133"><ele>243.2</ele><time>2026-04-22T15:14:37.051Z</time></trkpt><trkpt lat="43.35205" lon="11.8248367"><ele>243.6</ele><time>2026-04-22T15:14:39.054Z</time></trkpt><trkpt lat="43.3520633" lon="11.82496"><ele>244.0</ele><time>2026-04-22T15:14:41.054Z</time></trkpt><trkpt lat="43.3520717" lon="11.8251017"><ele>244.0</ele><time>2026-04-22T15:14:43.054Z</time></trkpt><trkpt lat="43.35209" lon="11.82525"><ele>243.99999999999997</ele><time>2026-04-22T15:14:45.051Z</time></trkpt><trkpt lat="43.3521083" lon="11.82539"><ele>243.99999999999997</ele><time>2026-04-22T15:14:47.055Z</time></trkpt><trkpt lat="43.3521267" lon="11.8255283"><ele>244.0</ele><time>2026-04-22T15:14:49.057Z</time></trkpt><trkpt lat="43.3521383" lon="11.82567"><ele>244.0</ele><time>2026-04-22T15:14:51.055Z</time></trkpt><trkpt lat="43.3521483" lon="11.8258183"><ele>244.0</ele><time>2026-04-22T15:14:53.053Z</time></trkpt><trkpt lat="43.35216" lon="11.8259683"><ele>243.99999999999997</ele><time>2026-04-22T15:14:55.051Z</time></trkpt><trkpt lat="43.352185" lon="11.8261183"><ele>243.99999999999997</ele><time>2026-04-22T15:14:57.052Z</time></trkpt><trkpt lat="43.3521983" lon="11.8262667"><ele>244.0</ele><time>2026-04-22T15:14:59.053Z</time></trkpt><trkpt lat="43.3522017" lon="11.8264117"><ele>244.0</ele><time>2026-04-22T15:15:01.055Z</time></trkpt><trkpt lat="43.3522167" lon="11.82655"><ele>243.6</ele><time>2026-04-22T15:15:03.05Z</time></trkpt><trkpt lat="43.3522283" lon="11.8267017"><ele>243.2</ele><time>2026-04-22T15:15:05.053Z</time></trkpt><trkpt lat="43.35224" lon="11.826845"><ele>242.79999999999998</ele><time>2026-04-22T15:15:07.052Z</time></trkpt><trkpt lat="43.3522533" lon="11.8269833"><ele>242.39999999999998</ele><time>2026-04-22T15:15:09.053Z</time></trkpt><trkpt lat="43.3522667" lon="11.827125"><ele>242.0</ele><time>2026-04-22T15:15:11.053Z</time></trkpt><trkpt lat="43.35228" lon="11.827265"><ele>242.0</ele><time>2026-04-22T15:15:13.052Z</time></trkpt><trkpt lat="43.3522917" lon="11.8274033"><ele>242.0</ele><time>2026-04-22T15:15:15.053Z</time></trkpt><trkpt lat="43.35231" lon="11.8275433"><ele>242.0</ele><time>2026-04-22T15:15:17.05Z</time></trkpt><trkpt lat="43.3523283" lon="11.827685"><ele>242.0</ele><time>2026-04-22T15:15:19.055Z</time></trkpt><trkpt lat="43.35234" lon="11.827825"><ele>242.0</ele><time>2026-04-22T15:15:21.053Z</time></trkpt><trkpt lat="43.3523517" lon="11.8279667"><ele>242.0</ele><time>2026-04-22T15:15:23.052Z</time></trkpt><trkpt lat="43.352365" lon="11.8281167"><ele>242.0</ele><time>2026-04-22T15:15:25.057Z</time></trkpt><trkpt lat="43.3523783" lon="11.8282633"><ele>242.0</ele><time>2026-04-22T15:15:27.05Z</time></trkpt><trkpt lat="43.3523917" lon="11.8284133"><ele>242.0</ele><time>2026-04-22T15:15:29.056Z</time></trkpt><trkpt lat="43.352405" lon="11.828565"><ele>242.0</ele><time>2026-04-22T15:15:31.055Z</time></trkpt><trkpt lat="43.3524317" lon="11.8287167"><ele>242.0</ele><time>2026-04-22T15:15:33.057Z</time></trkpt><trkpt lat="43.3524533" lon="11.828865"><ele>242.0</ele><time>2026-04-22T15:15:35.056Z</time></trkpt><trkpt lat="43.35247" lon="11.8290183"><ele>242.0</ele><time>2026-04-22T15:15:37.052Z</time></trkpt><trkpt lat="43.3524883" lon="11.8291633"><ele>242.0</ele><time>2026-04-22T15:15:39.055Z</time></trkpt><trkpt lat="43.3525067" lon="11.8293083"><ele>242.0</ele><time>2026-04-22T15:15:41.056Z</time></trkpt><trkpt lat="43.3525167" lon="11.8294583"><ele>242.0</ele><time>2026-04-22T15:15:43.054Z</time></trkpt><trkpt lat="43.3525383" lon="11.8296233"><ele>242.0</ele><time>2026-04-22T15:15:45.053Z</time></trkpt><trkpt lat="43.352555" lon="11.8297783"><ele>242.0</ele><time>2026-04-22T15:15:47.054Z</time></trkpt><trkpt lat="43.35257" lon="11.82993"><ele>242.0</ele><time>2026-04-22T15:15:49.05Z</time></trkpt><trkpt lat="43.352575" lon="11.830065"><ele>242.0</ele><time>2026-04-22T15:15:51.052Z</time></trkpt><trkpt lat="43.3525833" lon="11.8302017"><ele>242.0</ele><time>2026-04-22T15:15:53.054Z</time></trkpt><trkpt lat="43.3525917" lon="11.8303367"><ele>242.0</ele><time>2026-04-22T15:15:55.052Z</time></trkpt><trkpt lat="43.3526017" lon="11.8304767"><ele>242.0</ele><time>2026-04-22T15:15:57.051Z</time></trkpt><trkpt lat="43.3526167" lon="11.8306167"><ele>242.0</ele><time>2026-04-22T15:15:59.051Z</time></trkpt><trkpt lat="43.35263" lon="11.8307617"><ele>242.0</ele><time>2026-04-22T15:16:01.054Z</time></trkpt><trkpt lat="43.3526483" lon="11.8309133"><ele>241.8</ele><time>2026-04-22T15:16:03.051Z</time></trkpt><trkpt lat="43.35267" lon="11.831065"><ele>241.6</ele><time>2026-04-22T15:16:05.051Z</time></trkpt><trkpt lat="43.3526817" lon="11.83119"><ele>241.40000000000003</ele><time>2026-04-22T15:16:07.053Z</time></trkpt><trkpt lat="43.3526917" lon="11.831315"><ele>241.20000000000002</ele><time>2026-04-22T15:16:09.052Z</time></trkpt><trkpt lat="43.352705" lon="11.8314383"><ele>241.0</ele><time>2026-04-22T15:16:11.051Z</time></trkpt><trkpt lat="43.3527183" lon="11.8315617"><ele>241.0</ele><time>2026-04-22T15:16:13.053Z</time></trkpt><trkpt lat="43.3527317" lon="11.8316883"><ele>241.00000000000003</ele><time>2026-04-22T15:16:15.051Z</time></trkpt><trkpt lat="43.3527483" lon="11.831815"><ele>241.00000000000003</ele><time>2026-04-22T15:16:17.052Z</time></trkpt><trkpt lat="43.352755" lon="11.8319583"><ele>241.0</ele><time>2026-04-22T15:16:19.054Z</time></trkpt><trkpt lat="43.352765" lon="11.8320983"><ele>241.0</ele><time>2026-04-22T15:16:21.052Z</time></trkpt><trkpt lat="43.352775" lon="11.8322317"><ele>241.16666666666666</ele><time>2026-04-22T15:16:23.051Z</time></trkpt><trkpt lat="43.3527867" lon="11.8323633"><ele>241.33333333333331</ele><time>2026-04-22T15:16:25.052Z</time></trkpt><trkpt lat="43.3528033" lon="11.8324983"><ele>241.5</ele><time>2026-04-22T15:16:27.052Z</time></trkpt><trkpt lat="43.3528233" lon="11.8326217"><ele>241.66666666666669</ele><time>2026-04-22T15:16:29.051Z</time></trkpt><trkpt lat="43.3528433" lon="11.8327267"><ele>241.83333333333334</ele><time>2026-04-22T15:16:31.052Z</time></trkpt><trkpt lat="43.3528667" lon="11.83283"><ele>242.0</ele><time>2026-04-22T15:16:33.053Z</time></trkpt><trkpt lat="43.35288" lon="11.832935"><ele>242.14285714285714</ele><time>2026-04-22T15:16:35.055Z</time></trkpt><trkpt lat="43.3528933" lon="11.8330333"><ele>242.28571428571428</ele><time>2026-04-22T15:16:37.051Z</time></trkpt><trkpt lat="43.3529117" lon="11.8331183"><ele>242.42857142857142</ele><time>2026-04-22T15:16:39.054Z</time></trkpt><trkpt lat="43.3529733" lon="11.8331"><ele>242.57142857142856</ele><time>2026-04-22T15:16:45.052Z</time></trkpt><trkpt lat="43.3530433" lon="11.8331383"><ele>242.71428571428572</ele><time>2026-04-22T15:17:02.055Z</time></trkpt><trkpt lat="43.35313" lon="11.833145"><ele>242.85714285714283</ele><time>2026-04-22T15:17:05.052Z</time></trkpt><trkpt lat="43.353195" lon="11.8331417"><ele>243.0</ele><time>2026-04-22T15:17:07.054Z</time></trkpt><trkpt lat="43.3532633" lon="11.8331433"><ele>243.0</ele><time>2026-04-22T15:17:09.051Z</time></trkpt><trkpt lat="43.3533383" lon="11.8331433"><ele>243.0</ele><time>2026-04-22T15:17:11.05Z</time></trkpt><trkpt lat="43.353415" lon="11.833145"><ele>243.0</ele><time>2026-04-22T15:17:13.052Z</time></trkpt><trkpt lat="43.3534983" lon="11.8331433"><ele>243.0</ele><time>2026-04-22T15:17:15.053Z</time></trkpt><trkpt lat="43.3535917" lon="11.8331267"><ele>243.0</ele><time>2026-04-22T15:17:17.054Z</time></trkpt><trkpt lat="43.353685" lon="11.8331183"><ele>243.0</ele><time>2026-04-22T15:17:19.05Z</time></trkpt><trkpt lat="43.35378" lon="11.8331183"><ele>243.0</ele><time>2026-04-22T15:17:21.052Z</time></trkpt><trkpt lat="43.3538817" lon="11.8331083"><ele>243.0</ele><time>2026-04-22T15:17:23.052Z</time></trkpt><trkpt lat="43.35397" lon="11.8331133"><ele>243.0</ele><time>2026-04-22T15:17:25.051Z</time></trkpt><trkpt lat="43.3540583" lon="11.83312"><ele>243.0</ele><time>2026-04-22T15:17:27.052Z</time></trkpt><trkpt lat="43.354145" lon="11.8331283"><ele>243.0</ele><time>2026-04-22T15:17:29.052Z</time></trkpt><trkpt lat="43.3542383" lon="11.8331267"><ele>243.0</ele><time>2026-04-22T15:17:31.052Z</time></trkpt><trkpt lat="43.3543333" lon="11.833105"><ele>243.0</ele><time>2026-04-22T15:17:33.054Z</time></trkpt><trkpt lat="43.3544283" lon="11.8331017"><ele>243.0</ele><time>2026-04-22T15:17:35.054Z</time></trkpt><trkpt lat="43.3545217" lon="11.8331017"><ele>243.0</ele><time>2026-04-22T15:17:37.057Z</time></trkpt><trkpt lat="43.3546133" lon="11.833105"><ele>243.0</ele><time>2026-04-22T15:17:39.049Z</time></trkpt><trkpt lat="43.354705" lon="11.83311"><ele>243.0</ele><time>2026-04-22T15:17:41.056Z</time></trkpt><trkpt lat="43.3548" lon="11.83311"><ele>243.0</ele><time>2026-04-22T15:17:43.053Z</time></trkpt><trkpt lat="43.3548933" lon="11.83311"><ele>243.0</ele><time>2026-04-22T15:17:45.054Z</time></trkpt><trkpt lat="43.354985" lon="11.833115"><ele>243.0</ele><time>2026-04-22T15:17:47.051Z</time></trkpt><trkpt lat="43.355075" lon="11.833115"><ele>243.0</ele><time>2026-04-22T15:17:49.053Z</time></trkpt><trkpt lat="43.355165" lon="11.833115"><ele>243.0</ele><time>2026-04-22T15:17:51.055Z</time></trkpt><trkpt lat="43.3552567" lon="11.8331133"><ele>243.0</ele><time>2026-04-22T15:17:53.051Z</time></trkpt><trkpt lat="43.355345" lon="11.833115"><ele>243.0</ele><time>2026-04-22T15:17:55.054Z</time></trkpt><trkpt lat="43.3554317" lon="11.8331167"><ele>243.0</ele><time>2026-04-22T15:17:57.055Z</time></trkpt><trkpt lat="43.3555217" lon="11.8331"><ele>243.0</ele><time>2026-04-22T15:17:59.05Z</time></trkpt><trkpt lat="43.355605" lon="11.8331"><ele>243.0</ele><time>2026-04-22T15:18:01.054Z</time></trkpt><trkpt lat="43.3556867" lon="11.8330983"><ele>242.66666666666666</ele><time>2026-04-22T15:18:03.053Z</time></trkpt><trkpt lat="43.3557683" lon="11.8330983"><ele>242.33333333333331</ele><time>2026-04-22T15:18:05.052Z</time></trkpt><trkpt lat="43.3558533" lon="11.8330967"><ele>242.0</ele><time>2026-04-22T15:18:07.056Z</time></trkpt><trkpt lat="43.3559383" lon="11.8331033"><ele>241.66666666666666</ele><time>2026-04-22T15:18:09.052Z</time></trkpt><trkpt lat="43.356025" lon="11.83311"><ele>241.33333333333331</ele><time>2026-04-22T15:18:11.052Z</time></trkpt><trkpt lat="43.35611" lon="11.8331167"><ele>241.0</ele><time>2026-04-22T15:18:13.054Z</time></trkpt><trkpt lat="43.3561917" lon="11.83312"><ele>240.99999999999997</ele><time>2026-04-22T15:18:15.054Z</time></trkpt><trkpt lat="43.3562783" lon="11.8331217"><ele>241.0</ele><time>2026-04-22T15:18:17.051Z</time></trkpt><trkpt lat="43.3563667" lon="11.833125"><ele>241.0</ele><time>2026-04-22T15:18:19.052Z</time></trkpt><trkpt lat="43.356455" lon="11.83312"><ele>241.0</ele><time>2026-04-22T15:18:21.051Z</time></trkpt><trkpt lat="43.35654" lon="11.833115"><ele>240.99999999999997</ele><time>2026-04-22T15:18:23.053Z</time></trkpt><trkpt lat="43.3566317" lon="11.8331033"><ele>241.0</ele><time>2026-04-22T15:18:25.052Z</time></trkpt><trkpt lat="43.3567183" lon="11.8330967"><ele>240.99999999999997</ele><time>2026-04-22T15:18:27.047Z</time></trkpt><trkpt lat="43.3568017" lon="11.8330917"><ele>241.0</ele><time>2026-04-22T15:18:29.054Z</time></trkpt><trkpt lat="43.3568867" lon="11.8330917"><ele>241.0</ele><time>2026-04-22T15:18:31.053Z</time></trkpt><trkpt lat="43.3569683" lon="11.8331067"><ele>241.0</ele><time>2026-04-22T15:18:33.053Z</time></trkpt><trkpt lat="43.3570517" lon="11.8331217"><ele>240.99999999999997</ele><time>2026-04-22T15:18:35.055Z</time></trkpt><trkpt lat="43.3571317" lon="11.8331283"><ele>241.0</ele><time>2026-04-22T15:18:37.052Z</time></trkpt><trkpt lat="43.3572167" lon="11.8331367"><ele>240.99999999999997</ele><time>2026-04-22T15:18:39.05Z</time></trkpt><trkpt lat="43.3572967" lon="11.8331433"><ele>241.0</ele><time>2026-04-22T15:18:41.055Z</time></trkpt><trkpt lat="43.3573817" lon="11.8331433"><ele>241.0</ele><time>2026-04-22T15:18:43.052Z</time></trkpt><trkpt lat="43.3574717" lon="11.8331417"><ele>241.0</ele><time>2026-04-22T15:18:45.052Z</time></trkpt><trkpt lat="43.3575567" lon="11.8331417"><ele>240.99999999999997</ele><time>2026-04-22T15:18:47.052Z</time></trkpt><trkpt lat="43.35764" lon="11.83314"><ele>241.0</ele><time>2026-04-22T15:18:49.053Z</time></trkpt><trkpt lat="43.3577217" lon="11.8331383"><ele>240.99999999999997</ele><time>2026-04-22T15:18:51.05Z</time></trkpt><trkpt lat="43.3578033" lon="11.8331367"><ele>241.0</ele><time>2026-04-22T15:18:53.05Z</time></trkpt><trkpt lat="43.3578733" lon="11.8331333"><ele>241.0</ele><time>2026-04-22T15:18:55.054Z</time></trkpt><trkpt lat="43.35795" lon="11.8331317"><ele>241.0</ele><time>2026-04-22T15:18:57.052Z</time></trkpt><trkpt lat="43.35803" lon="11.8331283"><ele>240.99999999999997</ele><time>2026-04-22T15:18:59.052Z</time></trkpt><trkpt lat="43.3581133" lon="11.83313"><ele>241.0</ele><time>2026-04-22T15:19:01.054Z</time></trkpt><trkpt lat="43.3581867" lon="11.83313"><ele>241.33333333333331</ele><time>2026-04-22T15:19:03.052Z</time></trkpt><trkpt lat="43.358265" lon="11.8331283"><ele>241.66666666666666</ele><time>2026-04-22T15:19:05.053Z</time></trkpt><trkpt lat="43.358345" lon="11.8331333"><ele>242.0</ele><time>2026-04-22T15:19:07.052Z</time></trkpt><trkpt lat="43.358425" lon="11.83313"><ele>242.33333333333331</ele><time>2026-04-22T15:19:09.052Z</time></trkpt><trkpt lat="43.358505" lon="11.8331267"><ele>242.66666666666666</ele><time>2026-04-22T15:19:11.056Z</time></trkpt><trkpt lat="43.3585817" lon="11.83313"><ele>243.0</ele><time>2026-04-22T15:19:13.052Z</time></trkpt><trkpt lat="43.3586517" lon="11.83313"><ele>243.0</ele><time>2026-04-22T15:19:15.052Z</time></trkpt><trkpt lat="43.35872" lon="11.8331333"><ele>243.0</ele><time>2026-04-22T15:19:17.053Z</time></trkpt><trkpt lat="43.3588033" lon="11.833135"><ele>243.0</ele><time>2026-04-22T15:19:19.051Z</time></trkpt><trkpt lat="43.3588783" lon="11.8331317"><ele>243.0</ele><time>2026-04-22T15:19:21.052Z</time></trkpt><trkpt lat="43.3589683" lon="11.8331267"><ele>243.0</ele><time>2026-04-22T15:19:23.049Z</time></trkpt><trkpt lat="43.35905" lon="11.8331117"><ele>243.0</ele><time>2026-04-22T15:19:25.053Z</time></trkpt><trkpt lat="43.3591183" lon="11.8330933"><ele>243.16666666666666</ele><time>2026-04-22T15:19:27.053Z</time></trkpt><trkpt lat="43.3592017" lon="11.8330683"><ele>243.33333333333331</ele><time>2026-04-22T15:19:30.053Z</time></trkpt><trkpt lat="43.3592783" lon="11.833045"><ele>243.5</ele><time>2026-04-22T15:19:33.052Z</time></trkpt><trkpt lat="43.35934" lon="11.8330133"><ele>243.66666666666666</ele><time>2026-04-22T15:19:35.052Z</time></trkpt><trkpt lat="43.359435" lon="11.83299"><ele>243.83333333333331</ele><time>2026-04-22T15:19:38.055Z</time></trkpt><trkpt lat="43.35951" lon="11.8329767"><ele>244.0</ele><time>2026-04-22T15:19:40.051Z</time></trkpt><trkpt lat="43.3596333" lon="11.83295"><ele>243.71428571428567</ele><time>2026-04-22T15:19:43.055Z</time></trkpt><trkpt lat="43.3597067" lon="11.8329417"><ele>243.42857142857142</ele><time>2026-04-22T15:19:45.052Z</time></trkpt><trkpt lat="43.3597717" lon="11.83294"><ele>243.1428571428571</ele><time>2026-04-22T15:19:47.054Z</time></trkpt><trkpt lat="43.3598383" lon="11.83294"><ele>242.85714285714283</ele><time>2026-04-22T15:19:49.053Z</time></trkpt><trkpt lat="43.3599083" lon="11.832935"><ele>242.57142857142856</ele><time>2026-04-22T15:19:51.052Z</time></trkpt><trkpt lat="43.3599733" lon="11.8329383"><ele>242.28571428571428</ele><time>2026-04-22T15:19:53.051Z</time></trkpt><trkpt lat="43.3600383" lon="11.832935"><ele>242.0</ele><time>2026-04-22T15:19:55.051Z</time></trkpt><trkpt lat="43.3601117" lon="11.832935"><ele>242.00000000000003</ele><time>2026-04-22T15:19:57.054Z</time></trkpt><trkpt lat="43.360185" lon="11.832935"><ele>242.0</ele><time>2026-04-22T15:19:59.054Z</time></trkpt><trkpt lat="43.360265" lon="11.8329433"><ele>242.0</ele><time>2026-04-22T15:20:01.053Z</time></trkpt><trkpt lat="43.3603417" lon="11.8329533"><ele>242.0</ele><time>2026-04-22T15:20:03.052Z</time></trkpt><trkpt lat="43.3604217" lon="11.8329517"><ele>242.00000000000003</ele><time>2026-04-22T15:20:05.052Z</time></trkpt><trkpt lat="43.3604967" lon="11.8329467"><ele>242.0</ele><time>2026-04-22T15:20:07.054Z</time></trkpt><trkpt lat="43.3605717" lon="11.8329417"><ele>242.00000000000003</ele><time>2026-04-22T15:20:09.052Z</time></trkpt><trkpt lat="43.3606483" lon="11.8329383"><ele>242.0</ele><time>2026-04-22T15:20:11.051Z</time></trkpt><trkpt lat="43.360725" lon="11.8329433"><ele>242.0</ele><time>2026-04-22T15:20:13.05Z</time></trkpt><trkpt lat="43.3608033" lon="11.83295"><ele>242.0</ele><time>2026-04-22T15:20:15.052Z</time></trkpt><trkpt lat="43.3608817" lon="11.8329467"><ele>242.00000000000003</ele><time>2026-04-22T15:20:17.054Z</time></trkpt><trkpt lat="43.3609583" lon="11.8329483"><ele>242.0</ele><time>2026-04-22T15:20:19.053Z</time></trkpt><trkpt lat="43.36104" lon="11.8329533"><ele>242.00000000000003</ele><time>2026-04-22T15:20:21.057Z</time></trkpt><trkpt lat="43.3611183" lon="11.8329617"><ele>242.0</ele><time>2026-04-22T15:20:23.051Z</time></trkpt><trkpt lat="43.3611967" lon="11.832965"><ele>242.0</ele><time>2026-04-22T15:20:25.049Z</time></trkpt><trkpt lat="43.3612733" lon="11.8329583"><ele>242.0</ele><time>2026-04-22T15:20:27.052Z</time></trkpt><trkpt lat="43.3613483" lon="11.8329633"><ele>242.00000000000003</ele><time>2026-04-22T15:20:29.05Z</time></trkpt><trkpt lat="43.3614283" lon="11.8329617"><ele>242.0</ele><time>2026-04-22T15:20:31.054Z</time></trkpt><trkpt lat="43.36151" lon="11.832965"><ele>242.00000000000003</ele><time>2026-04-22T15:20:33.054Z</time></trkpt><trkpt lat="43.3615933" lon="11.8329633"><ele>242.0</ele><time>2026-04-22T15:20:35.052Z</time></trkpt><trkpt lat="43.3616683" lon="11.8329583"><ele>242.0</ele><time>2026-04-22T15:20:37.052Z</time></trkpt><trkpt lat="43.361745" lon="11.8329533"><ele>242.0</ele><time>2026-04-22T15:20:39.053Z</time></trkpt><trkpt lat="43.3618233" lon="11.832955"><ele>242.00000000000003</ele><time>2026-04-22T15:20:41.055Z</time></trkpt><trkpt lat="43.3618967" lon="11.8329583"><ele>242.0</ele><time>2026-04-22T15:20:43.052Z</time></trkpt><trkpt lat="43.3619867" lon="11.8329383"><ele>242.00000000000003</ele><time>2026-04-22T15:20:46.054Z</time></trkpt><trkpt lat="43.3620667" lon="11.8329617"><ele>242.0</ele><time>2026-04-22T15:20:49.055Z</time></trkpt><trkpt lat="43.3621483" lon="11.8329633"><ele>242.0</ele><time>2026-04-22T15:20:52.052Z</time></trkpt><trkpt lat="43.3622283" lon="11.83296"><ele>242.0</ele><time>2026-04-22T15:20:55.051Z</time></trkpt><trkpt lat="43.36231" lon="11.83296"><ele>242.00000000000003</ele><time>2026-04-22T15:20:58.052Z</time></trkpt><trkpt lat="43.362385" lon="11.8329617"><ele>242.0</ele><time>2026-04-22T15:21:01.053Z</time></trkpt><trkpt lat="43.3624533" lon="11.8329683"><ele>242.00000000000003</ele><time>2026-04-22T15:21:04.051Z</time></trkpt><trkpt lat="43.3625267" lon="11.8329783"><ele>242.0</ele><time>2026-04-22T15:21:07.054Z</time></trkpt><trkpt lat="43.36257" lon="11.83305"><ele>242.0</ele><time>2026-04-22T15:21:11.05Z</time></trkpt><trkpt lat="43.3625517" lon="11.8331733"><ele>242.0</ele><time>2026-04-22T15:21:15.055Z</time></trkpt><trkpt lat="43.362525" lon="11.833285"><ele>242.00000000000003</ele><time>2026-04-22T15:21:17.053Z</time></trkpt><trkpt lat="43.3624867" lon="11.8334333"><ele>242.0</ele><time>2026-04-22T15:21:19.056Z</time></trkpt><trkpt lat="43.3624467" lon="11.833585"><ele>242.0</ele><time>2026-04-22T15:21:21.051Z</time></trkpt><trkpt lat="43.3624117" lon="11.8337317"><ele>242.0</ele><time>2026-04-22T15:21:23.05Z</time></trkpt><trkpt lat="43.36238" lon="11.8338717"><ele>242.0</ele><time>2026-04-22T15:21:25.054Z</time></trkpt><trkpt lat="43.3623483" lon="11.8340117"><ele>242.0</ele><time>2026-04-22T15:21:27.05Z</time></trkpt><trkpt lat="43.362315" lon="11.834155"><ele>242.0</ele><time>2026-04-22T15:21:29.053Z</time></trkpt><trkpt lat="43.3622817" lon="11.8343017"><ele>242.0</ele><time>2026-04-22T15:21:31.054Z</time></trkpt><trkpt lat="43.3622467" lon="11.8344417"><ele>242.0</ele><time>2026-04-22T15:21:33.052Z</time></trkpt><trkpt lat="43.362215" lon="11.834595"><ele>242.0</ele><time>2026-04-22T15:21:35.052Z</time></trkpt><trkpt lat="43.36218" lon="11.8347367"><ele>242.0</ele><time>2026-04-22T15:21:37.051Z</time></trkpt><trkpt lat="43.3621433" lon="11.8348817"><ele>242.0</ele><time>2026-04-22T15:21:39.05Z</time></trkpt><trkpt lat="43.3621133" lon="11.835035"><ele>242.2</ele><time>2026-04-22T15:21:41.055Z</time></trkpt><trkpt lat="43.36208" lon="11.835185"><ele>242.39999999999998</ele><time>2026-04-22T15:21:43.052Z</time></trkpt><trkpt lat="43.36204" lon="11.8353217"><ele>242.60000000000002</ele><time>2026-04-22T15:21:45.052Z</time></trkpt><trkpt lat="43.3620017" lon="11.8354533"><ele>242.8</ele><time>2026-04-22T15:21:47.05Z</time></trkpt><trkpt lat="43.3619667" lon="11.83559"><ele>243.0</ele><time>2026-04-22T15:21:49.049Z</time></trkpt><trkpt lat="43.3619317" lon="11.83573"><ele>243.0</ele><time>2026-04-22T15:21:51.051Z</time></trkpt><trkpt lat="43.3618983" lon="11.8358667"><ele>243.0</ele><time>2026-04-22T15:21:53.053Z</time></trkpt><trkpt lat="43.3618767" lon="11.8360133"><ele>243.0</ele><time>2026-04-22T15:21:55.051Z</time></trkpt><trkpt lat="43.361845" lon="11.83614"><ele>243.0</ele><time>2026-04-22T15:21:57.051Z</time></trkpt><trkpt lat="43.361805" lon="11.8362633"><ele>243.0</ele><time>2026-04-22T15:21:59.048Z</time></trkpt><trkpt lat="43.3617683" lon="11.8363883"><ele>243.0</ele><time>2026-04-22T15:22:01.054Z</time></trkpt><trkpt lat="43.3617433" lon="11.8365267"><ele>243.0</ele><time>2026-04-22T15:22:03.05Z</time></trkpt><trkpt lat="43.36171" lon="11.8366417"><ele>243.0</ele><time>2026-04-22T15:22:05.05Z</time></trkpt><trkpt lat="43.3616883" lon="11.836745"><ele>243.0</ele><time>2026-04-22T15:22:07.055Z</time></trkpt><trkpt lat="43.3616667" lon="11.8368433"><ele>243.0</ele><time>2026-04-22T15:22:09.049Z</time></trkpt><trkpt lat="43.3616467" lon="11.8369383"><ele>243.0</ele><time>2026-04-22T15:22:11.05Z</time></trkpt><trkpt lat="43.3616233" lon="11.8370233"><ele>243.0</ele><time>2026-04-22T15:22:13.054Z</time></trkpt><trkpt lat="43.3615983" lon="11.8371083"><ele>243.0</ele><time>2026-04-22T15:22:15.053Z</time></trkpt><trkpt lat="43.361575" lon="11.8371983"><ele>243.0</ele><time>2026-04-22T15:22:17.051Z</time></trkpt><trkpt lat="43.36155" lon="11.8372967"><ele>243.0</ele><time>2026-04-22T15:22:19.053Z</time></trkpt><trkpt lat="43.3615233" lon="11.837385"><ele>243.0</ele><time>2026-04-22T15:22:21.052Z</time></trkpt><trkpt lat="43.3614983" lon="11.8374733"><ele>243.0</ele><time>2026-04-22T15:22:23.052Z</time></trkpt><trkpt lat="43.3614733" lon="11.83756"><ele>243.0</ele><time>2026-04-22T15:22:25.051Z</time></trkpt><trkpt lat="43.3614467" lon="11.8376517"><ele>243.0</ele><time>2026-04-22T15:22:27.05Z</time></trkpt><trkpt lat="43.36142" lon="11.83774"><ele>243.0</ele><time>2026-04-22T15:22:29.052Z</time></trkpt><trkpt lat="43.3614" lon="11.8378517"><ele>243.0</ele><time>2026-04-22T15:22:31.052Z</time></trkpt><trkpt lat="43.3613733" lon="11.8379417"><ele>243.0</ele><time>2026-04-22T15:22:33.053Z</time></trkpt><trkpt lat="43.36135" lon="11.8380383"><ele>243.0</ele><time>2026-04-22T15:22:35.051Z</time></trkpt><trkpt lat="43.3613217" lon="11.8381367"><ele>243.0</ele><time>2026-04-22T15:22:37.052Z</time></trkpt><trkpt lat="43.3612983" lon="11.8382333"><ele>243.0</ele><time>2026-04-22T15:22:39.053Z</time></trkpt><trkpt lat="43.36127" lon="11.8383217"><ele>243.28571428571428</ele><time>2026-04-22T15:22:41.052Z</time></trkpt><trkpt lat="43.361235" lon="11.838395"><ele>243.57142857142858</ele><time>2026-04-22T15:22:43.054Z</time></trkpt><trkpt lat="43.361205" lon="11.8384867"><ele>243.85714285714286</ele><time>2026-04-22T15:22:45.052Z</time></trkpt><trkpt lat="43.3611833" lon="11.838585"><ele>244.14285714285714</ele><time>2026-04-22T15:22:47.051Z</time></trkpt><trkpt lat="43.3611583" lon="11.83868"><ele>244.42857142857144</ele><time>2026-04-22T15:22:49.05Z</time></trkpt><trkpt lat="43.3611317" lon="11.8387767"><ele>244.71428571428572</ele><time>2026-04-22T15:22:51.05Z</time></trkpt><trkpt lat="43.361105" lon="11.83888"><ele>245.0</ele><time>2026-04-22T15:22:53.052Z</time></trkpt><trkpt lat="43.361085" lon="11.83899"><ele>245.00000000000003</ele><time>2026-04-22T15:22:55.052Z</time></trkpt><trkpt lat="43.3610633" lon="11.8391"><ele>245.0</ele><time>2026-04-22T15:22:57.051Z</time></trkpt><trkpt lat="43.3610433" lon="11.8392067"><ele>245.0</ele><time>2026-04-22T15:22:59.047Z</time></trkpt><trkpt lat="43.3610233" lon="11.8393067"><ele>245.0</ele><time>2026-04-22T15:23:01.051Z</time></trkpt><trkpt lat="43.3610017" lon="11.8394283"><ele>245.00000000000003</ele><time>2026-04-22T15:23:04.048Z</time></trkpt><trkpt lat="43.3610083" lon="11.8395233"><ele>245.0</ele><time>2026-04-22T15:23:12.053Z</time></trkpt><trkpt lat="43.3609717" lon="11.8396117"><ele>245.0</ele><time>2026-04-22T15:23:36.051Z</time></trkpt><trkpt lat="43.3610483" lon="11.8396383"><ele>245.0</ele><time>2026-04-22T15:23:40.052Z</time></trkpt><trkpt lat="43.3611133" lon="11.8396317"><ele>245.0</ele><time>2026-04-22T15:23:42.051Z</time></trkpt><trkpt lat="43.3611817" lon="11.83963"><ele>245.0</ele><time>2026-04-22T15:23:44.051Z</time></trkpt><trkpt lat="43.36125" lon="11.8396217"><ele>245.0</ele><time>2026-04-22T15:23:46.051Z</time></trkpt><trkpt lat="43.36133" lon="11.8396283"><ele>245.0</ele><time>2026-04-22T15:23:48.051Z</time></trkpt><trkpt lat="43.3614083" lon="11.83964"><ele>245.0</ele><time>2026-04-22T15:23:50.05Z</time></trkpt><trkpt lat="43.3614767" lon="11.83965"><ele>245.0</ele><time>2026-04-22T15:23:52.049Z</time></trkpt><trkpt lat="43.36154" lon="11.8396583"><ele>245.0</ele><time>2026-04-22T15:23:54.048Z</time></trkpt><trkpt lat="43.3616133" lon="11.8396583"><ele>245.0</ele><time>2026-04-22T15:23:56.048Z</time></trkpt><trkpt lat="43.3616883" lon="11.839655"><ele>245.0</ele><time>2026-04-22T15:23:58.046Z</time></trkpt><trkpt lat="43.3617517" lon="11.8396517"><ele>245.0</ele><time>2026-04-22T15:24:00.046Z</time></trkpt><trkpt lat="43.361835" lon="11.83965"><ele>245.0</ele><time>2026-04-22T15:24:03.051Z</time></trkpt><trkpt lat="43.3619183" lon="11.8396483"><ele>245.0</ele><time>2026-04-22T15:24:06.054Z</time></trkpt><trkpt lat="43.3620017" lon="11.8396483"><ele>245.00000000000003</ele><time>2026-04-22T15:24:09.049Z</time></trkpt><trkpt lat="43.3620817" lon="11.83965"><ele>245.0</ele><time>2026-04-22T15:24:12.047Z</time></trkpt><trkpt lat="43.3621583" lon="11.8396483"><ele>245.0</ele><time>2026-04-22T15:24:15.053Z</time></trkpt><trkpt lat="43.3622383" lon="11.83964"><ele>245.0</ele><time>2026-04-22T15:24:18.046Z</time></trkpt><trkpt lat="43.3623083" lon="11.8396133"><ele>245.00000000000003</ele><time>2026-04-22T15:24:21.048Z</time></trkpt><trkpt lat="43.362395" lon="11.8395967"><ele>245.0</ele><time>2026-04-22T15:24:24.051Z</time></trkpt><trkpt lat="43.3624567" lon="11.8395633"><ele>245.00000000000003</ele><time>2026-04-22T15:24:26.053Z</time></trkpt><trkpt lat="43.3625183" lon="11.8395433"><ele>245.0</ele><time>2026-04-22T15:24:29.05Z</time></trkpt><trkpt lat="43.3625833" lon="11.8394883"><ele>245.0</ele><time>2026-04-22T15:26:23.052Z</time></trkpt><trkpt lat="43.36264" lon="11.83943"><ele>245.0</ele><time>2026-04-22T15:26:25.051Z</time></trkpt><trkpt lat="43.3627033" lon="11.83936"><ele>245.00000000000003</ele><time>2026-04-22T15:26:27.05Z</time></trkpt><trkpt lat="43.3627767" lon="11.83928"><ele>245.0</ele><time>2026-04-22T15:26:29.049Z</time></trkpt><trkpt lat="43.3628583" lon="11.8392017"><ele>244.8</ele><time>2026-04-22T15:26:31.053Z</time></trkpt><trkpt lat="43.3629317" lon="11.83912"><ele>244.6</ele><time>2026-04-22T15:26:33.05Z</time></trkpt><trkpt lat="43.3630133" lon="11.83904"><ele>244.39999999999998</ele><time>2026-04-22T15:26:35.05Z</time></trkpt><trkpt lat="43.3630933" lon="11.8389583"><ele>244.2</ele><time>2026-04-22T15:26:37.052Z</time></trkpt><trkpt lat="43.3631783" lon="11.8388833"><ele>244.0</ele><time>2026-04-22T15:26:39.052Z</time></trkpt><trkpt lat="43.363255" lon="11.8388083"><ele>244.39999999999998</ele><time>2026-04-22T15:26:41.049Z</time></trkpt><trkpt lat="43.3633367" lon="11.8387267"><ele>244.79999999999998</ele><time>2026-04-22T15:26:43.051Z</time></trkpt><trkpt lat="43.3634283" lon="11.8386567"><ele>245.20000000000002</ele><time>2026-04-22T15:26:45.056Z</time></trkpt><trkpt lat="43.363525" lon="11.83859"><ele>245.60000000000002</ele><time>2026-04-22T15:26:47.05Z</time></trkpt><trkpt lat="43.3636067" lon="11.838515"><ele>246.0</ele><time>2026-04-22T15:26:49.052Z</time></trkpt><trkpt lat="43.36369" lon="11.8384433"><ele>246.0</ele><time>2026-04-22T15:26:51.051Z</time></trkpt><trkpt lat="43.36377" lon="11.838365"><ele>246.00000000000003</ele><time>2026-04-22T15:26:53.051Z</time></trkpt><trkpt lat="43.3638667" lon="11.8383083"><ele>246.00000000000003</ele><time>2026-04-22T15:26:55.051Z</time></trkpt><trkpt lat="43.3639533" lon="11.8382567"><ele>246.0</ele><time>2026-04-22T15:26:57.049Z</time></trkpt><trkpt lat="43.3640483" lon="11.8382117"><ele>246.0</ele><time>2026-04-22T15:26:59.049Z</time></trkpt><trkpt lat="43.36412" lon="11.8381883"><ele>246.60000000000002</ele><time>2026-04-22T15:27:01.052Z</time></trkpt><trkpt lat="43.3642117" lon="11.8381583"><ele>247.20000000000002</ele><time>2026-04-22T15:27:03.051Z</time></trkpt><trkpt lat="43.3643067" lon="11.8381217"><ele>247.79999999999998</ele><time>2026-04-22T15:27:05.05Z</time></trkpt><trkpt lat="43.3644017" lon="11.8380883"><ele>248.39999999999998</ele><time>2026-04-22T15:27:07.052Z</time></trkpt><trkpt lat="43.36451" lon="11.83806"><ele>249.0</ele><time>2026-04-22T15:27:09.052Z</time></trkpt><trkpt lat="43.364615" lon="11.83803"><ele>249.6</ele><time>2026-04-22T15:27:11.057Z</time></trkpt><trkpt lat="43.3647283" lon="11.8379817"><ele>250.2</ele><time>2026-04-22T15:27:13.053Z</time></trkpt><trkpt lat="43.3647933" lon="11.8379583"><ele>250.79999999999998</ele><time>2026-04-22T15:27:14.052Z</time></trkpt><trkpt lat="43.364855" lon="11.83794"><ele>251.39999999999998</ele><time>2026-04-22T15:27:15.051Z</time></trkpt><trkpt lat="43.364965" lon="11.8378983"><ele>252.0</ele><time>2026-04-22T15:27:17.054Z</time></trkpt><trkpt lat="43.3650817" lon="11.8378483"><ele>252.0</ele><time>2026-04-22T15:27:19.054Z</time></trkpt><trkpt lat="43.3651867" lon="11.8378133"><ele>252.0</ele><time>2026-04-22T15:27:21.052Z</time></trkpt><trkpt lat="43.36529" lon="11.8377817"><ele>252.0</ele><time>2026-04-22T15:27:23.052Z</time></trkpt><trkpt lat="43.3653933" lon="11.8377667"><ele>252.0</ele><time>2026-04-22T15:27:25.052Z</time></trkpt><trkpt lat="43.3654933" lon="11.83777"><ele>252.0</ele><time>2026-04-22T15:27:27.048Z</time></trkpt><trkpt lat="43.3655933" lon="11.83781"><ele>251.8</ele><time>2026-04-22T15:27:29.052Z</time></trkpt><trkpt lat="43.3656883" lon="11.8378567"><ele>251.6</ele><time>2026-04-22T15:27:31.053Z</time></trkpt><trkpt lat="43.3657833" lon="11.8378967"><ele>251.40000000000003</ele><time>2026-04-22T15:27:33.05Z</time></trkpt><trkpt lat="43.3658817" lon="11.8379367"><ele>251.20000000000002</ele><time>2026-04-22T15:27:35.051Z</time></trkpt><trkpt lat="43.36598" lon="11.8379783"><ele>251.0</ele><time>2026-04-22T15:27:37.051Z</time></trkpt><trkpt lat="43.3660783" lon="11.8380133"><ele>251.00000000000003</ele><time>2026-04-22T15:27:39.054Z</time></trkpt><trkpt lat="43.3661733" lon="11.838055"><ele>251.0</ele><time>2026-04-22T15:27:41.051Z</time></trkpt><trkpt lat="43.366265" lon="11.8380983"><ele>251.0</ele><time>2026-04-22T15:27:43.054Z</time></trkpt><trkpt lat="43.3663583" lon="11.838145"><ele>251.0</ele><time>2026-04-22T15:27:45.05Z</time></trkpt><trkpt lat="43.3664333" lon="11.8381983"><ele>251.00000000000003</ele><time>2026-04-22T15:27:47.056Z</time></trkpt><trkpt lat="43.3664917" lon="11.8382317"><ele>251.0</ele><time>2026-04-22T15:27:49.05Z</time></trkpt><trkpt lat="43.366575" lon="11.83826"><ele>250.66666666666669</ele><time>2026-04-22T15:27:52.054Z</time></trkpt><trkpt lat="43.3666433" lon="11.8382767"><ele>250.33333333333334</ele><time>2026-04-22T15:27:54.051Z</time></trkpt><trkpt lat="43.3667183" lon="11.8383"><ele>250.0</ele><time>2026-04-22T15:27:56.051Z</time></trkpt><trkpt lat="43.3668" lon="11.8383183"><ele>249.66666666666669</ele><time>2026-04-22T15:27:58.052Z</time></trkpt><trkpt lat="43.366885" lon="11.8383367"><ele>249.33333333333334</ele><time>2026-04-22T15:28:00.052Z</time></trkpt><trkpt lat="43.3669667" lon="11.8383567"><ele>249.0</ele><time>2026-04-22T15:28:02.055Z</time></trkpt><trkpt lat="43.3670433" lon="11.8383733"><ele>249.0</ele><time>2026-04-22T15:28:04.051Z</time></trkpt><trkpt lat="43.3671267" lon="11.8383883"><ele>249.0</ele><time>2026-04-22T15:28:06.052Z</time></trkpt><trkpt lat="43.3671983" lon="11.8384083"><ele>249.0</ele><time>2026-04-22T15:28:08.056Z</time></trkpt><trkpt lat="43.3672733" lon="11.8384317"><ele>249.0</ele><time>2026-04-22T15:28:10.05Z</time></trkpt><trkpt lat="43.3673433" lon="11.8384483"><ele>249.0</ele><time>2026-04-22T15:28:12.052Z</time></trkpt><trkpt lat="43.36742" lon="11.8384633"><ele>249.0</ele><time>2026-04-22T15:28:14.051Z</time></trkpt><trkpt lat="43.3675033" lon="11.8384917"><ele>250.39999999999998</ele><time>2026-04-22T15:28:16.051Z</time></trkpt><trkpt lat="43.367585" lon="11.838535"><ele>251.79999999999998</ele><time>2026-04-22T15:28:18.05Z</time></trkpt><trkpt lat="43.3676717" lon="11.838595"><ele>253.20000000000002</ele><time>2026-04-22T15:28:20.053Z</time></trkpt><trkpt lat="43.3677583" lon="11.8386583"><ele>254.60000000000002</ele><time>2026-04-22T15:28:22.051Z</time></trkpt><trkpt lat="43.3678417" lon="11.8387217"><ele>256.0</ele><time>2026-04-22T15:28:24.054Z</time></trkpt><trkpt lat="43.3679217" lon="11.8387883"><ele>256.0</ele><time>2026-04-22T15:28:26.057Z</time></trkpt><trkpt lat="43.3680033" lon="11.838855"><ele>256.0</ele><time>2026-04-22T15:28:28.053Z</time></trkpt><trkpt lat="43.3680817" lon="11.8389067"><ele>256.0</ele><time>2026-04-22T15:28:30.053Z</time></trkpt><trkpt lat="43.36818" lon="11.8389483"><ele>256.0</ele><time>2026-04-22T15:28:32.053Z</time></trkpt><trkpt lat="43.3682817" lon="11.838965"><ele>256.0</ele><time>2026-04-22T15:28:34.051Z</time></trkpt><trkpt lat="43.3683883" lon="11.83897"><ele>256.0</ele><time>2026-04-22T15:28:36.053Z</time></trkpt><trkpt lat="43.36849" lon="11.8389833"><ele>256.0</ele><time>2026-04-22T15:28:38.052Z</time></trkpt><trkpt lat="43.3685883" lon="11.8390133"><ele>256.0</ele><time>2026-04-22T15:28:40.055Z</time></trkpt><trkpt lat="43.3686783" lon="11.839035"><ele>256.0</ele><time>2026-04-22T15:28:42.053Z</time></trkpt><trkpt lat="43.3687667" lon="11.8390533"><ele>256.0</ele><time>2026-04-22T15:28:44.054Z</time></trkpt><trkpt lat="43.3688583" lon="11.839075"><ele>255.99999999999997</ele><time>2026-04-22T15:28:46.051Z</time></trkpt><trkpt lat="43.3689517" lon="11.8390783"><ele>256.0</ele><time>2026-04-22T15:28:48.054Z</time></trkpt><trkpt lat="43.3690417" lon="11.839095"><ele>256.0</ele><time>2026-04-22T15:28:50.049Z</time></trkpt><trkpt lat="43.369125" lon="11.8391083"><ele>256.0</ele><time>2026-04-22T15:28:52.054Z</time></trkpt><trkpt lat="43.36921" lon="11.8391217"><ele>255.99999999999997</ele><time>2026-04-22T15:28:54.051Z</time></trkpt><trkpt lat="43.3692967" lon="11.83913"><ele>256.0</ele><time>2026-04-22T15:28:56.054Z</time></trkpt><trkpt lat="43.3693767" lon="11.8391317"><ele>256.0</ele><time>2026-04-22T15:28:58.05Z</time></trkpt><trkpt lat="43.3694567" lon="11.8391367"><ele>256.0</ele><time>2026-04-22T15:29:00.054Z</time></trkpt><trkpt lat="43.3695417" lon="11.8391683"><ele>256.0</ele><time>2026-04-22T15:29:02.054Z</time></trkpt><trkpt lat="43.3696333" lon="11.8392183"><ele>256.0</ele><time>2026-04-22T15:29:04.05Z</time></trkpt><trkpt lat="43.3697317" lon="11.839275"><ele>256.0</ele><time>2026-04-22T15:29:06.053Z</time></trkpt><trkpt lat="43.36983" lon="11.8393217"><ele>256.6</ele><time>2026-04-22T15:29:08.051Z</time></trkpt><trkpt lat="43.3699467" lon="11.839375"><ele>257.20000000000005</ele><time>2026-04-22T15:29:10.05Z</time></trkpt><trkpt lat="43.37005" lon="11.8394267"><ele>257.79999999999995</ele><time>2026-04-22T15:29:12.051Z</time></trkpt><trkpt lat="43.37011" lon="11.8394583"><ele>258.4</ele><time>2026-04-22T15:29:13.048Z</time></trkpt><trkpt lat="43.3702233" lon="11.8395067"><ele>259.0</ele><time>2026-04-22T15:29:15.053Z</time></trkpt><trkpt lat="43.3703283" lon="11.8395267"><ele>259.0</ele><time>2026-04-22T15:29:17.049Z</time></trkpt><trkpt lat="43.370435" lon="11.8395183"><ele>259.0</ele><time>2026-04-22T15:29:19.05Z</time></trkpt><trkpt lat="43.3705517" lon="11.8394617"><ele>259.0</ele><time>2026-04-22T15:29:21.051Z</time></trkpt><trkpt lat="43.37061" lon="11.83941"><ele>259.0</ele><time>2026-04-22T15:29:22.051Z</time></trkpt><trkpt lat="43.3706667" lon="11.8393683"><ele>259.0</ele><time>2026-04-22T15:29:23.056Z</time></trkpt><trkpt lat="43.3707767" lon="11.8392917"><ele>256.75</ele><time>2026-04-22T15:29:25.052Z</time></trkpt><trkpt lat="43.3708817" lon="11.8392167"><ele>254.5</ele><time>2026-04-22T15:29:27.052Z</time></trkpt><trkpt lat="43.370985" lon="11.8391383"><ele>252.25</ele><time>2026-04-22T15:29:29.048Z</time></trkpt><trkpt lat="43.37109" lon="11.8390667"><ele>250.0</ele><time>2026-04-22T15:29:31.052Z</time></trkpt><trkpt lat="43.37119" lon="11.8389917"><ele>250.0</ele><time>2026-04-22T15:29:33.05Z</time></trkpt><trkpt lat="43.3712833" lon="11.8389217"><ele>250.0</ele><time>2026-04-22T15:29:35.05Z</time></trkpt><trkpt lat="43.3713767" lon="11.838855"><ele>250.0</ele><time>2026-04-22T15:29:37.052Z</time></trkpt><trkpt lat="43.371475" lon="11.8387833"><ele>250.0</ele><time>2026-04-22T15:29:39.052Z</time></trkpt><trkpt lat="43.3715633" lon="11.8387133"><ele>250.0</ele><time>2026-04-22T15:29:41.049Z</time></trkpt><trkpt lat="43.3716583" lon="11.8386383"><ele>250.25</ele><time>2026-04-22T15:29:43.053Z</time></trkpt><trkpt lat="43.3717533" lon="11.8385617"><ele>250.5</ele><time>2026-04-22T15:29:45.051Z</time></trkpt><trkpt lat="43.3718267" lon="11.8384517"><ele>250.75</ele><time>2026-04-22T15:29:47.05Z</time></trkpt><trkpt lat="43.3718867" lon="11.838315"><ele>251.0</ele><time>2026-04-22T15:29:49.053Z</time></trkpt><trkpt lat="43.3719367" lon="11.8381717"><ele>250.0</ele><time>2026-04-22T15:29:51.05Z</time></trkpt><trkpt lat="43.371985" lon="11.8380183"><ele>249.0</ele><time>2026-04-22T15:29:53.049Z</time></trkpt><trkpt lat="43.372025" lon="11.8378667"><ele>248.0</ele><time>2026-04-22T15:29:55.052Z</time></trkpt><trkpt lat="43.372065" lon="11.837715"><ele>247.0</ele><time>2026-04-22T15:29:57.052Z</time></trkpt><trkpt lat="43.3721067" lon="11.8375617"><ele>247.2</ele><time>2026-04-22T15:29:59.052Z</time></trkpt><trkpt lat="43.3721533" lon="11.83741"><ele>247.39999999999998</ele><time>2026-04-22T15:30:01.05Z</time></trkpt><trkpt lat="43.3722017" lon="11.8372667"><ele>247.60000000000002</ele><time>2026-04-22T15:30:03.05Z</time></trkpt><trkpt lat="43.3722933" lon="11.8372167"><ele>247.8</ele><time>2026-04-22T15:30:05.05Z</time></trkpt><trkpt lat="43.372385" lon="11.8372467"><ele>248.0</ele><time>2026-04-22T15:30:07.052Z</time></trkpt><trkpt lat="43.372465" lon="11.8373067"><ele>248.00000000000003</ele><time>2026-04-22T15:30:09.053Z</time></trkpt><trkpt lat="43.3725367" lon="11.83736"><ele>248.0</ele><time>2026-04-22T15:30:11.051Z</time></trkpt><trkpt lat="43.3726067" lon="11.8374083"><ele>248.0</ele><time>2026-04-22T15:30:13.053Z</time></trkpt><trkpt lat="43.372665" lon="11.8374633"><ele>248.0</ele><time>2026-04-22T15:30:15.052Z</time></trkpt><trkpt lat="43.3727417" lon="11.8375233"><ele>248.00000000000003</ele><time>2026-04-22T15:30:18.05Z</time></trkpt><trkpt lat="43.372835" lon="11.8375617"><ele>248.0</ele><time>2026-04-22T15:30:21.05Z</time></trkpt><trkpt lat="43.3728933" lon="11.8375983"><ele>248.00000000000003</ele><time>2026-04-22T15:30:23.052Z</time></trkpt><trkpt lat="43.372955" lon="11.8376267"><ele>248.0</ele><time>2026-04-22T15:30:25.049Z</time></trkpt><trkpt lat="43.373035" lon="11.8376767"><ele>248.0</ele><time>2026-04-22T15:30:28.048Z</time></trkpt><trkpt lat="43.3730967" lon="11.8376983"><ele>248.0</ele><time>2026-04-22T15:30:30.053Z</time></trkpt><trkpt lat="43.3731617" lon="11.837725"><ele>248.00000000000003</ele><time>2026-04-22T15:30:32.057Z</time></trkpt><trkpt lat="43.3732417" lon="11.8377567"><ele>248.0</ele><time>2026-04-22T15:30:35.051Z</time></trkpt><trkpt lat="43.3733233" lon="11.8377933"><ele>248.0</ele><time>2026-04-22T15:30:38.052Z</time></trkpt><trkpt lat="43.37341" lon="11.837825"><ele>248.00000000000003</ele><time>2026-04-22T15:30:41.055Z</time></trkpt><trkpt lat="43.3734717" lon="11.8378433"><ele>248.0</ele><time>2026-04-22T15:30:43.05Z</time></trkpt><trkpt lat="43.3735633" lon="11.8378767"><ele>248.0</ele><time>2026-04-22T15:30:46.05Z</time></trkpt><trkpt lat="43.3736267" lon="11.837905"><ele>248.00000000000003</ele><time>2026-04-22T15:30:48.054Z</time></trkpt><trkpt lat="43.3736867" lon="11.8379333"><ele>248.0</ele><time>2026-04-22T15:30:50.052Z</time></trkpt><trkpt lat="43.3737483" lon="11.8379567"><ele>248.0</ele><time>2026-04-22T15:30:52.052Z</time></trkpt><trkpt lat="43.3738367" lon="11.8379867"><ele>248.50000000000003</ele><time>2026-04-22T15:30:55.051Z</time></trkpt><trkpt lat="43.3739017" lon="11.838015"><ele>249.0</ele><time>2026-04-22T15:30:57.05Z</time></trkpt><trkpt lat="43.3739883" lon="11.838055"><ele>249.5</ele><time>2026-04-22T15:31:00.05Z</time></trkpt><trkpt lat="43.3740767" lon="11.8380883"><ele>250.0</ele><time>2026-04-22T15:31:03.051Z</time></trkpt><trkpt lat="43.3741633" lon="11.8381233"><ele>250.50000000000003</ele><time>2026-04-22T15:31:06.053Z</time></trkpt><trkpt lat="43.3742517" lon="11.8381533"><ele>251.0</ele><time>2026-04-22T15:31:09.049Z</time></trkpt><trkpt lat="43.3743167" lon="11.8381767"><ele>250.99999999999997</ele><time>2026-04-22T15:31:11.054Z</time></trkpt><trkpt lat="43.37438" lon="11.8382017"><ele>251.0</ele><time>2026-04-22T15:31:13.05Z</time></trkpt><trkpt lat="43.3744433" lon="11.838225"><ele>250.99999999999997</ele><time>2026-04-22T15:31:15.051Z</time></trkpt><trkpt lat="43.3745117" lon="11.8382517"><ele>250.99999999999997</ele><time>2026-04-22T15:31:17.051Z</time></trkpt><trkpt lat="43.3745783" lon="11.83828"><ele>251.0</ele><time>2026-04-22T15:31:19.052Z</time></trkpt><trkpt lat="43.37465" lon="11.8383067"><ele>250.99999999999997</ele><time>2026-04-22T15:31:21.051Z</time></trkpt><trkpt lat="43.3747333" lon="11.83834"><ele>250.99999999999997</ele><time>2026-04-22T15:31:23.05Z</time></trkpt><trkpt lat="43.3748067" lon="11.83837"><ele>251.20000000000002</ele><time>2026-04-22T15:31:25.052Z</time></trkpt><trkpt lat="43.3748883" lon="11.8384033"><ele>251.40000000000003</ele><time>2026-04-22T15:31:27.05Z</time></trkpt><trkpt lat="43.374975" lon="11.8384383"><ele>251.6</ele><time>2026-04-22T15:31:29.051Z</time></trkpt><trkpt lat="43.3750667" lon="11.8384817"><ele>251.8</ele><time>2026-04-22T15:31:31.053Z</time></trkpt><trkpt lat="43.3751667" lon="11.83854"><ele>252.0</ele><time>2026-04-22T15:31:33.055Z</time></trkpt><trkpt lat="43.3752717" lon="11.8386033"><ele>252.0</ele><time>2026-04-22T15:31:35.053Z</time></trkpt><trkpt lat="43.3753833" lon="11.83867"><ele>252.0</ele><time>2026-04-22T15:31:37.054Z</time></trkpt><trkpt lat="43.375505" lon="11.8387283"><ele>252.0</ele><time>2026-04-22T15:31:39.054Z</time></trkpt><trkpt lat="43.3755683" lon="11.8387567"><ele>252.0</ele><time>2026-04-22T15:31:40.05Z</time></trkpt><trkpt lat="43.3756867" lon="11.83877"><ele>252.0</ele><time>2026-04-22T15:31:42.053Z</time></trkpt><trkpt lat="43.3757517" lon="11.8387567"><ele>251.57142857142856</ele><time>2026-04-22T15:31:43.051Z</time></trkpt><trkpt lat="43.375815" lon="11.8387367"><ele>251.14285714285714</ele><time>2026-04-22T15:31:44.05Z</time></trkpt><trkpt lat="43.3758783" lon="11.8387083"><ele>250.71428571428572</ele><time>2026-04-22T15:31:45.049Z</time></trkpt><trkpt lat="43.3759417" lon="11.8386817"><ele>250.28571428571428</ele><time>2026-04-22T15:31:46.05Z</time></trkpt><trkpt lat="43.3760083" lon="11.8386583"><ele>249.85714285714283</ele><time>2026-04-22T15:31:47.048Z</time></trkpt><trkpt lat="43.376075" lon="11.8386383"><ele>249.42857142857142</ele><time>2026-04-22T15:31:48.053Z</time></trkpt><trkpt lat="43.3761383" lon="11.8386133"><ele>249.0</ele><time>2026-04-22T15:31:49.05Z</time></trkpt><trkpt lat="43.3762017" lon="11.8385883"><ele>249.0</ele><time>2026-04-22T15:31:50.051Z</time></trkpt><trkpt lat="43.376265" lon="11.838565"><ele>249.0</ele><time>2026-04-22T15:31:51.053Z</time></trkpt><trkpt lat="43.3763867" lon="11.8385217"><ele>249.0</ele><time>2026-04-22T15:31:53.053Z</time></trkpt><trkpt lat="43.3764483" lon="11.8385033"><ele>249.0</ele><time>2026-04-22T15:31:54.052Z</time></trkpt><trkpt lat="43.3765117" lon="11.8384883"><ele>249.0</ele><time>2026-04-22T15:31:55.05Z</time></trkpt><trkpt lat="43.3765767" lon="11.8384767"><ele>249.0</ele><time>2026-04-22T15:31:56.049Z</time></trkpt><trkpt lat="43.3766417" lon="11.8384617"><ele>248.83333333333334</ele><time>2026-04-22T15:31:57.05Z</time></trkpt><trkpt lat="43.376705" lon="11.8384467"><ele>248.66666666666669</ele><time>2026-04-22T15:31:58.05Z</time></trkpt><trkpt lat="43.37677" lon="11.8384333"><ele>248.5</ele><time>2026-04-22T15:31:59.052Z</time></trkpt><trkpt lat="43.376895" lon="11.8384"><ele>248.33333333333334</ele><time>2026-04-22T15:32:01.054Z</time></trkpt><trkpt lat="43.37696" lon="11.8383817"><ele>248.16666666666669</ele><time>2026-04-22T15:32:02.052Z</time></trkpt><trkpt lat="43.3770233" lon="11.838365"><ele>248.0</ele><time>2026-04-22T15:32:03.053Z</time></trkpt><trkpt lat="43.377085" lon="11.8383467"><ele>248.0</ele><time>2026-04-22T15:32:04.05Z</time></trkpt><trkpt lat="43.37715" lon="11.8383333"><ele>248.0</ele><time>2026-04-22T15:32:05.051Z</time></trkpt><trkpt lat="43.3772733" lon="11.838305"><ele>248.0</ele><time>2026-04-22T15:32:07.05Z</time></trkpt><trkpt lat="43.377345" lon="11.838295"><ele>248.0</ele><time>2026-04-22T15:32:08.051Z</time></trkpt><trkpt lat="43.3774083" lon="11.8382733"><ele>248.0</ele><time>2026-04-22T15:32:09.049Z</time></trkpt><trkpt lat="43.3775267" lon="11.83823"><ele>247.5</ele><time>2026-04-22T15:32:11.049Z</time></trkpt><trkpt lat="43.3776433" lon="11.8382"><ele>247.0</ele><time>2026-04-22T15:32:13.053Z</time></trkpt><trkpt lat="43.3777583" lon="11.8381683"><ele>246.5</ele><time>2026-04-22T15:32:15.049Z</time></trkpt><trkpt lat="43.3778683" lon="11.83815"><ele>246.0</ele><time>2026-04-22T15:32:17.053Z</time></trkpt><trkpt lat="43.3779733" lon="11.8381433"><ele>246.0</ele><time>2026-04-22T15:32:19.05Z</time></trkpt><trkpt lat="43.3780767" lon="11.8381417"><ele>246.0</ele><time>2026-04-22T15:32:21.049Z</time></trkpt><trkpt lat="43.3781717" lon="11.8381433"><ele>246.0</ele><time>2026-04-22T15:32:23.048Z</time></trkpt><trkpt lat="43.3782583" lon="11.838145"><ele>246.0</ele><time>2026-04-22T15:32:25.049Z</time></trkpt><trkpt lat="43.3783367" lon="11.8381483"><ele>246.0</ele><time>2026-04-22T15:32:27.05Z</time></trkpt><trkpt lat="43.3784067" lon="11.8381767"><ele>246.0</ele><time>2026-04-22T15:32:29.049Z</time></trkpt><trkpt lat="43.3784633" lon="11.8382617"><ele>246.0</ele><time>2026-04-22T15:32:31.048Z</time></trkpt><trkpt lat="43.3784967" lon="11.83838"><ele>246.00000000000003</ele><time>2026-04-22T15:32:33.051Z</time></trkpt><trkpt lat="43.37853" lon="11.838505"><ele>246.00000000000003</ele><time>2026-04-22T15:32:35.052Z</time></trkpt><trkpt lat="43.3785633" lon="11.83863"><ele>246.0</ele><time>2026-04-22T15:32:37.051Z</time></trkpt><trkpt lat="43.3786067" lon="11.8387517"><ele>246.0</ele><time>2026-04-22T15:32:39.052Z</time></trkpt><trkpt lat="43.3786467" lon="11.83888"><ele>246.0</ele><time>2026-04-22T15:32:41.05Z</time></trkpt><trkpt lat="43.3786867" lon="11.8390133"><ele>246.00000000000003</ele><time>2026-04-22T15:32:43.052Z</time></trkpt><trkpt lat="43.3787267" lon="11.83914"><ele>246.00000000000003</ele><time>2026-04-22T15:32:45.052Z</time></trkpt><trkpt lat="43.3787633" lon="11.8392667"><ele>246.0</ele><time>2026-04-22T15:32:47.051Z</time></trkpt><trkpt lat="43.3788" lon="11.8393883"><ele>246.0</ele><time>2026-04-22T15:32:49.052Z</time></trkpt><trkpt lat="43.3788367" lon="11.8395117"><ele>246.0</ele><time>2026-04-22T15:32:51.052Z</time></trkpt><trkpt lat="43.3788717" lon="11.8396383"><ele>246.00000000000003</ele><time>2026-04-22T15:32:53.053Z</time></trkpt><trkpt lat="43.3789067" lon="11.83976"><ele>246.00000000000003</ele><time>2026-04-22T15:32:55.055Z</time></trkpt><trkpt lat="43.3789417" lon="11.8398767"><ele>246.0</ele><time>2026-04-22T15:32:57.049Z</time></trkpt><trkpt lat="43.3789767" lon="11.839995"><ele>246.0</ele><time>2026-04-22T15:32:59.052Z</time></trkpt><trkpt lat="43.379005" lon="11.8401133"><ele>246.16666666666666</ele><time>2026-04-22T15:33:01.052Z</time></trkpt><trkpt lat="43.3790333" lon="11.84023"><ele>246.33333333333331</ele><time>2026-04-22T15:33:03.05Z</time></trkpt><trkpt lat="43.3790633" lon="11.8403467"><ele>246.5</ele><time>2026-04-22T15:33:05.052Z</time></trkpt><trkpt lat="43.37909" lon="11.8404617"><ele>246.66666666666666</ele><time>2026-04-22T15:33:07.053Z</time></trkpt><trkpt lat="43.3791167" lon="11.8405767"><ele>246.83333333333331</ele><time>2026-04-22T15:33:09.051Z</time></trkpt><trkpt lat="43.3791483" lon="11.8406917"><ele>247.0</ele><time>2026-04-22T15:33:11.049Z</time></trkpt><trkpt lat="43.3791833" lon="11.8408117"><ele>247.0</ele><time>2026-04-22T15:33:13.053Z</time></trkpt><trkpt lat="43.3792183" lon="11.8409317"><ele>247.0</ele><time>2026-04-22T15:33:15.05Z</time></trkpt><trkpt lat="43.3792567" lon="11.8410483"><ele>247.0</ele><time>2026-04-22T15:33:17.052Z</time></trkpt><trkpt lat="43.3792967" lon="11.84116"><ele>247.0</ele><time>2026-04-22T15:33:19.054Z</time></trkpt><trkpt lat="43.3793367" lon="11.8412783"><ele>247.0</ele><time>2026-04-22T15:33:21.052Z</time></trkpt><trkpt lat="43.379375" lon="11.8413967"><ele>246.99999999999997</ele><time>2026-04-22T15:33:23.052Z</time></trkpt><trkpt lat="43.37941" lon="11.8415183"><ele>247.0</ele><time>2026-04-22T15:33:25.054Z</time></trkpt><trkpt lat="43.3794383" lon="11.84164"><ele>247.0</ele><time>2026-04-22T15:33:27.052Z</time></trkpt><trkpt lat="43.37945" lon="11.8417533"><ele>247.0</ele><time>2026-04-22T15:33:29.054Z</time></trkpt><trkpt lat="43.379465" lon="11.8418683"><ele>246.99999999999997</ele><time>2026-04-22T15:33:31.051Z</time></trkpt><trkpt lat="43.3794833" lon="11.841985"><ele>247.0</ele><time>2026-04-22T15:33:33.05Z</time></trkpt><trkpt lat="43.3795083" lon="11.8421067"><ele>247.0</ele><time>2026-04-22T15:33:35.052Z</time></trkpt><trkpt lat="43.3795467" lon="11.842235"><ele>247.0</ele><time>2026-04-22T15:33:37.052Z</time></trkpt><trkpt lat="43.3795867" lon="11.8423517"><ele>247.0</ele><time>2026-04-22T15:33:39.05Z</time></trkpt><trkpt lat="43.37963" lon="11.8424683"><ele>247.0</ele><time>2026-04-22T15:33:41.052Z</time></trkpt><trkpt lat="43.3796683" lon="11.8425867"><ele>247.0</ele><time>2026-04-22T15:33:43.05Z</time></trkpt><trkpt lat="43.37971" lon="11.842705"><ele>247.0</ele><time>2026-04-22T15:33:45.051Z</time></trkpt><trkpt lat="43.379755" lon="11.84282"><ele>247.0</ele><time>2026-04-22T15:33:47.052Z</time></trkpt><trkpt lat="43.3797983" lon="11.8429333"><ele>247.0</ele><time>2026-04-22T15:33:49.049Z</time></trkpt><trkpt lat="43.37984" lon="11.843045"><ele>247.0</ele><time>2026-04-22T15:33:51.05Z</time></trkpt><trkpt lat="43.3798867" lon="11.8431517"><ele>247.0</ele><time>2026-04-22T15:33:53.05Z</time></trkpt><trkpt lat="43.3799367" lon="11.8432633"><ele>247.0</ele><time>2026-04-22T15:33:55.048Z</time></trkpt><trkpt lat="43.379985" lon="11.8433683"><ele>247.0</ele><time>2026-04-22T15:33:57.054Z</time></trkpt><trkpt lat="43.3800383" lon="11.8434717"><ele>247.0</ele><time>2026-04-22T15:33:59.05Z</time></trkpt><trkpt lat="43.380095" lon="11.8435733"><ele>247.0</ele><time>2026-04-22T15:34:01.051Z</time></trkpt><trkpt lat="43.3801517" lon="11.84368"><ele>247.0</ele><time>2026-04-22T15:34:03.051Z</time></trkpt><trkpt lat="43.3802033" lon="11.84378"><ele>246.99999999999997</ele><time>2026-04-22T15:34:05.051Z</time></trkpt><trkpt lat="43.3802583" lon="11.8438817"><ele>247.0</ele><time>2026-04-22T15:34:07.049Z</time></trkpt><trkpt lat="43.3803083" lon="11.8439817"><ele>247.0</ele><time>2026-04-22T15:34:09.05Z</time></trkpt><trkpt lat="43.3803583" lon="11.844085"><ele>247.0</ele><time>2026-04-22T15:34:11.052Z</time></trkpt><trkpt lat="43.3804033" lon="11.8441867"><ele>246.99999999999997</ele><time>2026-04-22T15:34:13.051Z</time></trkpt><trkpt lat="43.38045" lon="11.84429"><ele>247.0</ele><time>2026-04-22T15:34:15.049Z</time></trkpt><trkpt lat="43.3804917" lon="11.8443967"><ele>247.16666666666666</ele><time>2026-04-22T15:34:17.051Z</time></trkpt><trkpt lat="43.3805333" lon="11.8445017"><ele>247.33333333333331</ele><time>2026-04-22T15:34:19.05Z</time></trkpt><trkpt lat="43.3805733" lon="11.8446017"><ele>247.5</ele><time>2026-04-22T15:34:21.051Z</time></trkpt><trkpt lat="43.3806067" lon="11.8447"><ele>247.66666666666669</ele><time>2026-04-22T15:34:23.051Z</time></trkpt><trkpt lat="43.3806383" lon="11.8447917"><ele>247.83333333333334</ele><time>2026-04-22T15:34:25.048Z</time></trkpt><trkpt lat="43.3806733" lon="11.8449017"><ele>248.0</ele><time>2026-04-22T15:34:28.047Z</time></trkpt><trkpt lat="43.3807" lon="11.84499"><ele>248.00000000000003</ele><time>2026-04-22T15:34:31.049Z</time></trkpt><trkpt lat="43.3807217" lon="11.8450833"><ele>248.0</ele><time>2026-04-22T15:34:36.053Z</time></trkpt><trkpt lat="43.380745" lon="11.845195"><ele>248.0</ele><time>2026-04-22T15:34:41.049Z</time></trkpt><trkpt lat="43.3807717" lon="11.84528"><ele>248.0</ele><time>2026-04-22T15:34:44.05Z</time></trkpt><trkpt lat="43.3808217" lon="11.8454083"><ele>248.00000000000003</ele><time>2026-04-22T15:34:48.051Z</time></trkpt><trkpt lat="43.3808533" lon="11.8455367"><ele>248.0</ele><time>2026-04-22T15:34:51.048Z</time></trkpt><trkpt lat="43.3808867" lon="11.845635"><ele>248.60000000000002</ele><time>2026-04-22T15:34:53.05Z</time></trkpt><trkpt lat="43.3809267" lon="11.8457417"><ele>249.20000000000002</ele><time>2026-04-22T15:34:55.052Z</time></trkpt><trkpt lat="43.3809783" lon="11.8458433"><ele>249.8</ele><time>2026-04-22T15:34:57.054Z</time></trkpt><trkpt lat="43.3810267" lon="11.84595"><ele>250.4</ele><time>2026-04-22T15:34:59.053Z</time></trkpt><trkpt lat="43.3810767" lon="11.84606"><ele>251.0</ele><time>2026-04-22T15:35:01.048Z</time></trkpt><trkpt lat="43.38113" lon="11.8461717"><ele>251.0</ele><time>2026-04-22T15:35:03.049Z</time></trkpt><trkpt lat="43.3811833" lon="11.846275"><ele>251.00000000000003</ele><time>2026-04-22T15:35:05.054Z</time></trkpt><trkpt lat="43.3812383" lon="11.8463767"><ele>251.00000000000003</ele><time>2026-04-22T15:35:07.052Z</time></trkpt><trkpt lat="43.3813067" lon="11.8464617"><ele>251.0</ele><time>2026-04-22T15:35:09.052Z</time></trkpt><trkpt lat="43.3813767" lon="11.8465483"><ele>251.0</ele><time>2026-04-22T15:35:11.049Z</time></trkpt><trkpt lat="43.3814533" lon="11.8466267"><ele>251.16666666666669</ele><time>2026-04-22T15:35:13.055Z</time></trkpt><trkpt lat="43.3815183" lon="11.8466917"><ele>251.33333333333334</ele><time>2026-04-22T15:35:15.052Z</time></trkpt><trkpt lat="43.38157" lon="11.84675"><ele>251.5</ele><time>2026-04-22T15:35:17.05Z</time></trkpt><trkpt lat="43.38162" lon="11.8468133"><ele>251.66666666666669</ele><time>2026-04-22T15:35:19.051Z</time></trkpt><trkpt lat="43.3816667" lon="11.8469083"><ele>251.83333333333334</ele><time>2026-04-22T15:35:22.05Z</time></trkpt><trkpt lat="43.3817" lon="11.846995"><ele>252.0</ele><time>2026-04-22T15:35:25.052Z</time></trkpt><trkpt lat="43.3817067" lon="11.8471167"><ele>252.0</ele><time>2026-04-22T15:35:29.051Z</time></trkpt><trkpt lat="43.381755" lon="11.8472067"><ele>252.0</ele><time>2026-04-22T15:35:32.05Z</time></trkpt><trkpt lat="43.381815" lon="11.8472333"><ele>252.0</ele><time>2026-04-22T15:35:35.051Z</time></trkpt><trkpt lat="43.38189" lon="11.8471917"><ele>252.0</ele><time>2026-04-22T15:35:38.052Z</time></trkpt><trkpt lat="43.3819733" lon="11.8471417"><ele>252.0</ele><time>2026-04-22T15:35:41.05Z</time></trkpt><trkpt lat="43.382065" lon="11.847105"><ele>252.0</ele><time>2026-04-22T15:35:44.052Z</time></trkpt><trkpt lat="43.38213" lon="11.8470917"><ele>252.0</ele><time>2026-04-22T15:35:46.048Z</time></trkpt><trkpt lat="43.3822" lon="11.8470683"><ele>252.0</ele><time>2026-04-22T15:35:48.05Z</time></trkpt><trkpt lat="43.382275" lon="11.8470333"><ele>252.0</ele><time>2026-04-22T15:35:50.05Z</time></trkpt><trkpt lat="43.3823517" lon="11.8470067"><ele>252.0</ele><time>2026-04-22T15:35:52.05Z</time></trkpt><trkpt lat="43.3824283" lon="11.84698"><ele>252.0</ele><time>2026-04-22T15:35:54.048Z</time></trkpt><trkpt lat="43.3825033" lon="11.84695"><ele>252.0</ele><time>2026-04-22T15:35:56.051Z</time></trkpt><trkpt lat="43.38258" lon="11.8469217"><ele>252.0</ele><time>2026-04-22T15:35:58.047Z</time></trkpt><trkpt lat="43.3826533" lon="11.8469"><ele>252.0</ele><time>2026-04-22T15:36:00.051Z</time></trkpt><trkpt lat="43.3827283" lon="11.8468767"><ele>252.0</ele><time>2026-04-22T15:36:02.05Z</time></trkpt><trkpt lat="43.3828017" lon="11.8468533"><ele>252.0</ele><time>2026-04-22T15:36:04.049Z</time></trkpt><trkpt lat="43.3828783" lon="11.8468333"><ele>252.0</ele><time>2026-04-22T15:36:06.052Z</time></trkpt><trkpt lat="43.38295" lon="11.8468167"><ele>252.0</ele><time>2026-04-22T15:36:08.051Z</time></trkpt><trkpt lat="43.383025" lon="11.8468017"><ele>252.0</ele><time>2026-04-22T15:36:10.049Z</time></trkpt><trkpt lat="43.3830883" lon="11.8467983"><ele>252.0</ele><time>2026-04-22T15:36:12.051Z</time></trkpt><trkpt lat="43.3831733" lon="11.8467767"><ele>252.0</ele><time>2026-04-22T15:36:15.051Z</time></trkpt><trkpt lat="43.3832567" lon="11.84674"><ele>252.0</ele><time>2026-04-22T15:36:18.05Z</time></trkpt><trkpt lat="43.383325" lon="11.8467"><ele>252.0</ele><time>2026-04-22T15:36:20.052Z</time></trkpt><trkpt lat="43.3833967" lon="11.84667"><ele>252.0</ele><time>2026-04-22T15:36:22.05Z</time></trkpt><trkpt lat="43.3834803" lon="11.846631"><ele>252.0</ele><time>2026-04-22T15:36:24.197Z</time></trkpt><trkpt lat="43.3835489" lon="11.8466109"><ele>252.0</ele><time>2026-04-22T15:36:26.173Z</time></trkpt><trkpt lat="43.3836242" lon="11.8465877"><ele>252.0</ele><time>2026-04-22T15:36:28.166Z</time></trkpt><trkpt lat="43.3836933" lon="11.846555"><ele>252.0</ele><time>2026-04-22T15:36:30.048Z</time></trkpt><trkpt lat="43.38377" lon="11.8465183"><ele>252.0</ele><time>2026-04-22T15:36:32.055Z</time></trkpt><trkpt lat="43.3838467" lon="11.84647"><ele>252.0</ele><time>2026-04-22T15:36:34.051Z</time></trkpt><trkpt lat="43.383925" lon="11.8464383"><ele>252.0</ele><time>2026-04-22T15:36:36.05Z</time></trkpt><trkpt lat="43.384005" lon="11.846405"><ele>252.0</ele><time>2026-04-22T15:36:38.05Z</time></trkpt><trkpt lat="43.384085" lon="11.8463683"><ele>252.0</ele><time>2026-04-22T15:36:40.049Z</time></trkpt><trkpt lat="43.3841633" lon="11.8463333"><ele>252.0</ele><time>2026-04-22T15:36:42.049Z</time></trkpt><trkpt lat="43.3842417" lon="11.8462933"><ele>252.0</ele><time>2026-04-22T15:36:44.051Z</time></trkpt><trkpt lat="43.38431" lon="11.846245"><ele>252.0</ele><time>2026-04-22T15:36:46.051Z</time></trkpt><trkpt lat="43.384385" lon="11.8462117"><ele>252.0</ele><time>2026-04-22T15:36:49.05Z</time></trkpt><trkpt lat="43.384445" lon="11.84617"><ele>252.0</ele><time>2026-04-22T15:36:52.05Z</time></trkpt><trkpt lat="43.3845217" lon="11.8461233"><ele>252.0</ele><time>2026-04-22T15:36:56.052Z</time></trkpt><trkpt lat="43.3846817" lon="11.8460367"><ele>252.0</ele><time>2026-04-22T15:38:01.051Z</time></trkpt><trkpt lat="43.3847483" lon="11.846025"><ele>252.0</ele><time>2026-04-22T15:38:05.052Z</time></trkpt><trkpt lat="43.3848117" lon="11.846"><ele>252.2</ele><time>2026-04-22T15:38:07.052Z</time></trkpt><trkpt lat="43.38489" lon="11.845965"><ele>252.39999999999998</ele><time>2026-04-22T15:38:09.05Z</time></trkpt><trkpt lat="43.38499" lon="11.8459133"><ele>252.60000000000002</ele><time>2026-04-22T15:38:11.053Z</time></trkpt><trkpt lat="43.385085" lon="11.845855"><ele>252.8</ele><time>2026-04-22T15:38:13.051Z</time></trkpt><trkpt lat="43.385185" lon="11.8458083"><ele>253.0</ele><time>2026-04-22T15:38:15.05Z</time></trkpt><trkpt lat="43.3852817" lon="11.845755"><ele>252.99999999999997</ele><time>2026-04-22T15:38:17.051Z</time></trkpt><trkpt lat="43.3853733" lon="11.8456917"><ele>253.0</ele><time>2026-04-22T15:38:19.05Z</time></trkpt><trkpt lat="43.3854567" lon="11.84565"><ele>253.0</ele><time>2026-04-22T15:38:21.053Z</time></trkpt><trkpt lat="43.3855317" lon="11.845605"><ele>253.0</ele><time>2026-04-22T15:38:23.05Z</time></trkpt><trkpt lat="43.38561" lon="11.8455617"><ele>252.99999999999997</ele><time>2026-04-22T15:38:25.051Z</time></trkpt><trkpt lat="43.3856867" lon="11.8455083"><ele>253.0</ele><time>2026-04-22T15:38:27.049Z</time></trkpt><trkpt lat="43.3857633" lon="11.8454617"><ele>253.0</ele><time>2026-04-22T15:38:29.049Z</time></trkpt><trkpt lat="43.38584" lon="11.84542"><ele>253.0</ele><time>2026-04-22T15:38:31.049Z</time></trkpt><trkpt lat="43.3859183" lon="11.8453733"><ele>253.0</ele><time>2026-04-22T15:38:33.05Z</time></trkpt><trkpt lat="43.3860033" lon="11.8453383"><ele>253.0</ele><time>2026-04-22T15:38:35.049Z</time></trkpt><trkpt lat="43.3860902" lon="11.8452933"><ele>253.0</ele><time>2026-04-22T15:38:37.113Z</time></trkpt><trkpt lat="43.3862216" lon="11.8452262"><ele>253.0</ele><time>2026-04-22T15:38:40.048Z</time></trkpt><trkpt lat="43.38631" lon="11.84518"><ele>253.0</ele><time>2026-04-22T15:38:42.052Z</time></trkpt><trkpt lat="43.3864017" lon="11.8451317"><ele>253.0</ele><time>2026-04-22T15:38:44.052Z</time></trkpt><trkpt lat="43.3864917" lon="11.8450967"><ele>253.0</ele><time>2026-04-22T15:38:46.052Z</time></trkpt><trkpt lat="43.3865783" lon="11.8450683"><ele>253.0</ele><time>2026-04-22T15:38:48.052Z</time></trkpt><trkpt lat="43.3866583" lon="11.8450383"><ele>253.16666666666666</ele><time>2026-04-22T15:38:50.05Z</time></trkpt><trkpt lat="43.38673" lon="11.845"><ele>253.33333333333331</ele><time>2026-04-22T15:38:52.045Z</time></trkpt><trkpt lat="43.386795" lon="11.84498"><ele>253.5</ele><time>2026-04-22T15:38:54.049Z</time></trkpt><trkpt lat="43.386855" lon="11.8449467"><ele>253.66666666666669</ele><time>2026-04-22T15:38:56.053Z</time></trkpt><trkpt lat="43.3869383" lon="11.8448967"><ele>253.83333333333334</ele><time>2026-04-22T15:38:59.05Z</time></trkpt><trkpt lat="43.3870333" lon="11.8448483"><ele>254.0</ele><time>2026-04-22T15:39:02.049Z</time></trkpt><trkpt lat="43.387105" lon="11.84481"><ele>253.83333333333334</ele><time>2026-04-22T15:39:04.049Z</time></trkpt><trkpt lat="43.3871867" lon="11.8447783"><ele>253.66666666666669</ele><time>2026-04-22T15:39:06.052Z</time></trkpt><trkpt lat="43.3872783" lon="11.84477"><ele>253.5</ele><time>2026-04-22T15:39:08.052Z</time></trkpt><trkpt lat="43.3873683" lon="11.8447767"><ele>253.33333333333331</ele><time>2026-04-22T15:39:10.048Z</time></trkpt><trkpt lat="43.38746" lon="11.8447867"><ele>253.16666666666666</ele><time>2026-04-22T15:39:12.05Z</time></trkpt><trkpt lat="43.3875483" lon="11.8447833"><ele>253.0</ele><time>2026-04-22T15:39:14.052Z</time></trkpt><trkpt lat="43.3876283" lon="11.8447683"><ele>252.99999999999997</ele><time>2026-04-22T15:39:16.052Z</time></trkpt><trkpt lat="43.38771" lon="11.8447583"><ele>253.0</ele><time>2026-04-22T15:39:18.05Z</time></trkpt><trkpt lat="43.387795" lon="11.844755"><ele>253.0</ele><time>2026-04-22T15:39:20.051Z</time></trkpt><trkpt lat="43.3878817" lon="11.84476"><ele>253.0</ele><time>2026-04-22T15:39:22.049Z</time></trkpt><trkpt lat="43.38797" lon="11.8447533"><ele>252.99999999999997</ele><time>2026-04-22T15:39:24.05Z</time></trkpt><trkpt lat="43.3880583" lon="11.8447483"><ele>253.0</ele><time>2026-04-22T15:39:26.049Z</time></trkpt><trkpt lat="43.38815" lon="11.8447467"><ele>253.2</ele><time>2026-04-22T15:39:28.051Z</time></trkpt><trkpt lat="43.3882517" lon="11.8447433"><ele>253.4</ele><time>2026-04-22T15:39:30.051Z</time></trkpt><trkpt lat="43.388345" lon="11.8447333"><ele>253.59999999999997</ele><time>2026-04-22T15:39:32.049Z</time></trkpt><trkpt lat="43.3884383" lon="11.8447283"><ele>253.79999999999998</ele><time>2026-04-22T15:39:34.049Z</time></trkpt><trkpt lat="43.3885267" lon="11.8447317"><ele>254.0</ele><time>2026-04-22T15:39:36.05Z</time></trkpt><trkpt lat="43.388615" lon="11.8447383"><ele>254.00000000000003</ele><time>2026-04-22T15:39:38.052Z</time></trkpt><trkpt lat="43.3887" lon="11.8447367"><ele>254.0</ele><time>2026-04-22T15:39:40.051Z</time></trkpt><trkpt lat="43.3887767" lon="11.8447317"><ele>254.0</ele><time>2026-04-22T15:39:42.053Z</time></trkpt><trkpt lat="43.3888517" lon="11.8447283"><ele>254.0</ele><time>2026-04-22T15:39:44.052Z</time></trkpt><trkpt lat="43.3889167" lon="11.84472"><ele>254.00000000000003</ele><time>2026-04-22T15:39:46.052Z</time></trkpt><trkpt lat="43.3890083" lon="11.8447117"><ele>254.0</ele><time>2026-04-22T15:39:49.05Z</time></trkpt><trkpt lat="43.3890767" lon="11.844695"><ele>253.83333333333334</ele><time>2026-04-22T15:39:51.051Z</time></trkpt><trkpt lat="43.389155" lon="11.84468"><ele>253.66666666666669</ele><time>2026-04-22T15:39:53.052Z</time></trkpt><trkpt lat="43.38924" lon="11.844675"><ele>253.5</ele><time>2026-04-22T15:39:55.05Z</time></trkpt><trkpt lat="43.3893267" lon="11.8447033"><ele>253.33333333333331</ele><time>2026-04-22T15:39:57.051Z</time></trkpt><trkpt lat="43.38941" lon="11.844705"><ele>253.16666666666666</ele><time>2026-04-22T15:39:59.052Z</time></trkpt><trkpt lat="43.3894983" lon="11.8447017"><ele>253.0</ele><time>2026-04-22T15:40:01.051Z</time></trkpt><trkpt lat="43.3895817" lon="11.8447"><ele>252.99999999999997</ele><time>2026-04-22T15:40:03.051Z</time></trkpt><trkpt lat="43.3896633" lon="11.8446933"><ele>253.0</ele><time>2026-04-22T15:40:05.048Z</time></trkpt><trkpt lat="43.3897333" lon="11.8446867"><ele>253.0</ele><time>2026-04-22T15:40:07.05Z</time></trkpt><trkpt lat="43.3898133" lon="11.84471"><ele>253.0</ele><time>2026-04-22T15:40:10.05Z</time></trkpt><trkpt lat="43.38987" lon="11.84481"><ele>252.99999999999997</ele><time>2026-04-22T15:40:13.05Z</time></trkpt><trkpt lat="43.3899" lon="11.8449033"><ele>253.0</ele><time>2026-04-22T15:40:15.051Z</time></trkpt><trkpt lat="43.3899383" lon="11.84498"><ele>252.99999999999997</ele><time>2026-04-22T15:40:17.051Z</time></trkpt><trkpt lat="43.389975" lon="11.8450617"><ele>253.0</ele><time>2026-04-22T15:40:19.054Z</time></trkpt><trkpt lat="43.3900183" lon="11.8451633"><ele>253.0</ele><time>2026-04-22T15:40:22.052Z</time></trkpt><trkpt lat="43.390045" lon="11.8452433"><ele>253.0</ele><time>2026-04-22T15:40:24.053Z</time></trkpt><trkpt lat="43.390075" lon="11.845325"><ele>252.99999999999997</ele><time>2026-04-22T15:40:26.05Z</time></trkpt><trkpt lat="43.3901033" lon="11.8454333"><ele>253.0</ele><time>2026-04-22T15:40:29.049Z</time></trkpt><trkpt lat="43.3901133" lon="11.845545"><ele>253.16666666666666</ele><time>2026-04-22T15:40:32.051Z</time></trkpt><trkpt lat="43.3901433" lon="11.8456517"><ele>253.33333333333331</ele><time>2026-04-22T15:40:35.05Z</time></trkpt><trkpt lat="43.3901883" lon="11.8457467"><ele>253.5</ele><time>2026-04-22T15:40:38.051Z</time></trkpt><trkpt lat="43.3902217" lon="11.8458367"><ele>253.66666666666669</ele><time>2026-04-22T15:40:41.051Z</time></trkpt><trkpt lat="43.3902583" lon="11.8459133"><ele>253.83333333333334</ele><time>2026-04-22T15:40:43.049Z</time></trkpt><trkpt lat="43.3903033" lon="11.84602"><ele>254.0</ele><time>2026-04-22T15:40:46.053Z</time></trkpt><trkpt lat="43.3903367" lon="11.8461233"><ele>254.16666666666669</ele><time>2026-04-22T15:40:49.049Z</time></trkpt><trkpt lat="43.3903683" lon="11.8462367"><ele>254.33333333333334</ele><time>2026-04-22T15:40:52.05Z</time></trkpt><trkpt lat="43.3904117" lon="11.84634"><ele>254.5</ele><time>2026-04-22T15:40:55.053Z</time></trkpt><trkpt lat="43.3904517" lon="11.846435"><ele>254.66666666666669</ele><time>2026-04-22T15:40:58.049Z</time></trkpt><trkpt lat="43.3904967" lon="11.8465283"><ele>254.83333333333334</ele><time>2026-04-22T15:41:01.048Z</time></trkpt><trkpt lat="43.3905217" lon="11.8466217"><ele>255.0</ele><time>2026-04-22T15:41:04.05Z</time></trkpt><trkpt lat="43.3905417" lon="11.8467233"><ele>255.66666666666666</ele><time>2026-04-22T15:41:08.054Z</time></trkpt><trkpt lat="43.3905817" lon="11.8468233"><ele>256.3333333333333</ele><time>2026-04-22T15:41:11.051Z</time></trkpt><trkpt lat="43.39062" lon="11.84693"><ele>257.0</ele><time>2026-04-22T15:41:14.049Z</time></trkpt><trkpt lat="43.3906583" lon="11.847025"><ele>257.66666666666663</ele><time>2026-04-22T15:41:17.052Z</time></trkpt><trkpt lat="43.3906883" lon="11.8471283"><ele>258.3333333333333</ele><time>2026-04-22T15:41:20.053Z</time></trkpt><trkpt lat="43.3907083" lon="11.8472183"><ele>259.0</ele><time>2026-04-22T15:41:23.051Z</time></trkpt><trkpt lat="43.3907383" lon="11.8472983"><ele>259.0</ele><time>2026-04-22T15:41:26.051Z</time></trkpt><trkpt lat="43.39077" lon="11.8474033"><ele>259.0</ele><time>2026-04-22T15:41:30.05Z</time></trkpt><trkpt lat="43.3908067" lon="11.8475017"><ele>259.0</ele><time>2026-04-22T15:41:33.051Z</time></trkpt><trkpt lat="43.3908433" lon="11.847605"><ele>259.0</ele><time>2026-04-22T15:41:36.052Z</time></trkpt><trkpt lat="43.39088" lon="11.847695"><ele>259.0</ele><time>2026-04-22T15:41:39.052Z</time></trkpt><trkpt lat="43.3909117" lon="11.8477783"><ele>259.0</ele><time>2026-04-22T15:41:42.055Z</time></trkpt><trkpt lat="43.3909333" lon="11.84787"><ele>259.16666666666663</ele><time>2026-04-22T15:41:45.051Z</time></trkpt><trkpt lat="43.3909617" lon="11.8479633"><ele>259.3333333333333</ele><time>2026-04-22T15:41:48.052Z</time></trkpt><trkpt lat="43.3909917" lon="11.8480633"><ele>259.5</ele><time>2026-04-22T15:41:51.051Z</time></trkpt><trkpt lat="43.3910217" lon="11.8481667"><ele>259.6666666666667</ele><time>2026-04-22T15:41:54.052Z</time></trkpt><trkpt lat="43.391055" lon="11.848245"><ele>259.83333333333337</ele><time>2026-04-22T15:41:57.051Z</time></trkpt><trkpt lat="43.39109" lon="11.84835"><ele>260.0</ele><time>2026-04-22T15:42:01.05Z</time></trkpt><trkpt lat="43.3911167" lon="11.8484367"><ele>260.33333333333337</ele><time>2026-04-22T15:42:04.053Z</time></trkpt><trkpt lat="43.3911517" lon="11.848535"><ele>260.6666666666667</ele><time>2026-04-22T15:42:08.052Z</time></trkpt><trkpt lat="43.3911883" lon="11.8486333"><ele>261.0</ele><time>2026-04-22T15:42:12.052Z</time></trkpt><trkpt lat="43.3912167" lon="11.848715"><ele>261.3333333333333</ele><time>2026-04-22T15:42:16.049Z</time></trkpt><trkpt lat="43.3912467" lon="11.8488"><ele>261.66666666666663</ele><time>2026-04-22T15:42:20.05Z</time></trkpt><trkpt lat="43.39128" lon="11.8488917"><ele>262.0</ele><time>2026-04-22T15:42:23.053Z</time></trkpt><trkpt lat="43.3913117" lon="11.8489967"><ele>262.0</ele><time>2026-04-22T15:42:27.051Z</time></trkpt><trkpt lat="43.39134" lon="11.84909"><ele>262.0</ele><time>2026-04-22T15:42:32.052Z</time></trkpt><trkpt lat="43.3913567" lon="11.8491767"><ele>262.0</ele><time>2026-04-22T15:42:36.052Z</time></trkpt><trkpt lat="43.39137" lon="11.8492733"><ele>262.0</ele><time>2026-04-22T15:42:39.049Z</time></trkpt><trkpt lat="43.391385" lon="11.849375"><ele>262.0</ele><time>2026-04-22T15:42:42.052Z</time></trkpt><trkpt lat="43.3914017" lon="11.8494733"><ele>262.0</ele><time>2026-04-22T15:42:45.052Z</time></trkpt><trkpt lat="43.391435" lon="11.8495667"><ele>262.0</ele><time>2026-04-22T15:42:48.049Z</time></trkpt><trkpt lat="43.391475" lon="11.8496617"><ele>262.66666666666663</ele><time>2026-04-22T15:42:51.053Z</time></trkpt><trkpt lat="43.3915117" lon="11.8497533"><ele>263.3333333333333</ele><time>2026-04-22T15:42:54.053Z</time></trkpt><trkpt lat="43.3915433" lon="11.8498517"><ele>264.0</ele><time>2026-04-22T15:42:58.051Z</time></trkpt><trkpt lat="43.391575" lon="11.84994"><ele>264.6666666666667</ele><time>2026-04-22T15:43:01.052Z</time></trkpt><trkpt lat="43.3916183" lon="11.850035"><ele>265.33333333333337</ele><time>2026-04-22T15:43:04.05Z</time></trkpt><trkpt lat="43.391655" lon="11.8501367"><ele>266.0</ele><time>2026-04-22T15:43:07.047Z</time></trkpt><trkpt lat="43.391695" lon="11.8502317"><ele>266.33333333333337</ele><time>2026-04-22T15:43:10.052Z</time></trkpt><trkpt lat="43.3917333" lon="11.8503367"><ele>266.6666666666667</ele><time>2026-04-22T15:43:13.051Z</time></trkpt><trkpt lat="43.3917717" lon="11.85043"><ele>267.0</ele><time>2026-04-22T15:43:16.052Z</time></trkpt><trkpt lat="43.3918083" lon="11.8505233"><ele>267.3333333333333</ele><time>2026-04-22T15:43:19.05Z</time></trkpt><trkpt lat="43.3918367" lon="11.8506117"><ele>267.66666666666663</ele><time>2026-04-22T15:43:22.051Z</time></trkpt><trkpt lat="43.3918733" lon="11.8507133"><ele>268.0</ele><time>2026-04-22T15:43:26.05Z</time></trkpt><trkpt lat="43.3919033" lon="11.850805"><ele>268.0</ele><time>2026-04-22T15:43:29.051Z</time></trkpt><trkpt lat="43.3919183" lon="11.8508967"><ele>268.0</ele><time>2026-04-22T15:43:32.052Z</time></trkpt><trkpt lat="43.39194" lon="11.8509967"><ele>268.0</ele><time>2026-04-22T15:43:35.052Z</time></trkpt><trkpt lat="43.3919583" lon="11.8510867"><ele>268.0</ele><time>2026-04-22T15:43:38.056Z</time></trkpt><trkpt lat="43.39199" lon="11.8511983"><ele>268.0</ele><time>2026-04-22T15:43:42.052Z</time></trkpt><trkpt lat="43.392005" lon="11.8513"><ele>268.0</ele><time>2026-04-22T15:43:45.055Z</time></trkpt><trkpt lat="43.3920333" lon="11.851385"><ele>268.0</ele><time>2026-04-22T15:43:48.053Z</time></trkpt><trkpt lat="43.39206" lon="11.8514817"><ele>268.2857142857143</ele><time>2026-04-22T15:43:51.052Z</time></trkpt><trkpt lat="43.392075" lon="11.8515867"><ele>268.57142857142856</ele><time>2026-04-22T15:43:54.05Z</time></trkpt><trkpt lat="43.392095" lon="11.85169"><ele>268.85714285714283</ele><time>2026-04-22T15:43:57.051Z</time></trkpt><trkpt lat="43.392115" lon="11.85179"><ele>269.1428571428571</ele><time>2026-04-22T15:44:00.054Z</time></trkpt><trkpt lat="43.3921367" lon="11.8518833"><ele>269.4285714285714</ele><time>2026-04-22T15:44:03.05Z</time></trkpt><trkpt lat="43.3921633" lon="11.85197"><ele>269.7142857142857</ele><time>2026-04-22T15:44:06.052Z</time></trkpt><trkpt lat="43.3921867" lon="11.8520717"><ele>270.0</ele><time>2026-04-22T15:44:09.051Z</time></trkpt><trkpt lat="43.3922183" lon="11.85215"><ele>270.85714285714283</ele><time>2026-04-22T15:44:12.052Z</time></trkpt><trkpt lat="43.3922283" lon="11.852245"><ele>271.71428571428567</ele><time>2026-04-22T15:44:15.053Z</time></trkpt><trkpt lat="43.392245" lon="11.85235"><ele>272.57142857142856</ele><time>2026-04-22T15:44:18.051Z</time></trkpt><trkpt lat="43.39226" lon="11.8524517"><ele>273.42857142857144</ele><time>2026-04-22T15:44:21.052Z</time></trkpt><trkpt lat="43.39227" lon="11.8525417"><ele>274.28571428571433</ele><time>2026-04-22T15:44:24.052Z</time></trkpt><trkpt lat="43.3922883" lon="11.8526383"><ele>275.14285714285717</ele><time>2026-04-22T15:44:27.051Z</time></trkpt><trkpt lat="43.3923167" lon="11.8527333"><ele>276.0</ele><time>2026-04-22T15:44:30.053Z</time></trkpt><trkpt lat="43.392345" lon="11.8528267"><ele>276.57142857142856</ele><time>2026-04-22T15:44:33.05Z</time></trkpt><trkpt lat="43.39238" lon="11.852915"><ele>277.14285714285717</ele><time>2026-04-22T15:44:36.051Z</time></trkpt><trkpt lat="43.3924133" lon="11.8530033"><ele>277.7142857142857</ele><time>2026-04-22T15:44:39.052Z</time></trkpt><trkpt lat="43.3924367" lon="11.8530983"><ele>278.2857142857143</ele><time>2026-04-22T15:44:42.052Z</time></trkpt><trkpt lat="43.3924567" lon="11.8532017"><ele>278.8571428571429</ele><time>2026-04-22T15:44:45.053Z</time></trkpt><trkpt lat="43.3924783" lon="11.8533133"><ele>279.42857142857144</ele><time>2026-04-22T15:44:49.052Z</time></trkpt><trkpt lat="43.3924983" lon="11.8533967"><ele>280.0</ele><time>2026-04-22T15:44:52.049Z</time></trkpt><trkpt lat="43.3925233" lon="11.8534933"><ele>280.8333333333333</ele><time>2026-04-22T15:44:55.05Z</time></trkpt><trkpt lat="43.3925367" lon="11.853595"><ele>281.66666666666663</ele><time>2026-04-22T15:44:59.053Z</time></trkpt><trkpt lat="43.3925633" lon="11.853695"><ele>282.5</ele><time>2026-04-22T15:45:03.053Z</time></trkpt><trkpt lat="43.3925833" lon="11.8537833"><ele>283.3333333333333</ele><time>2026-04-22T15:45:07.051Z</time></trkpt><trkpt lat="43.392605" lon="11.8538917"><ele>284.1666666666667</ele><time>2026-04-22T15:45:11.05Z</time></trkpt><trkpt lat="43.392625" lon="11.8539917"><ele>285.0</ele><time>2026-04-22T15:45:15.053Z</time></trkpt><trkpt lat="43.39265" lon="11.8541"><ele>285.0</ele><time>2026-04-22T15:45:19.053Z</time></trkpt><trkpt lat="43.3926617" lon="11.8541967"><ele>285.0</ele><time>2026-04-22T15:45:22.051Z</time></trkpt><trkpt lat="43.39268" lon="11.85431"><ele>285.0</ele><time>2026-04-22T15:45:26.055Z</time></trkpt><trkpt lat="43.392735" lon="11.8544833"><ele>285.0</ele><time>2026-04-22T15:46:15.053Z</time></trkpt><trkpt lat="43.392705" lon="11.8545783"><ele>285.0</ele><time>2026-04-22T15:46:19.052Z</time></trkpt><trkpt lat="43.3926983" lon="11.8546683"><ele>285.0</ele><time>2026-04-22T15:46:24.054Z</time></trkpt><trkpt lat="43.3926967" lon="11.8547633"><ele>286.1666666666667</ele><time>2026-04-22T15:46:28.051Z</time></trkpt><trkpt lat="43.3927167" lon="11.8548667"><ele>287.3333333333333</ele><time>2026-04-22T15:46:33.05Z</time></trkpt><trkpt lat="43.3927233" lon="11.85496"><ele>288.5</ele><time>2026-04-22T15:46:37.05Z</time></trkpt><trkpt lat="43.3927433" lon="11.8550583"><ele>289.66666666666663</ele><time>2026-04-22T15:46:41.051Z</time></trkpt><trkpt lat="43.392775" lon="11.8551633"><ele>290.8333333333333</ele><time>2026-04-22T15:46:45.053Z</time></trkpt><trkpt lat="43.3928" lon="11.8552733"><ele>292.0</ele><time>2026-04-22T15:46:49.055Z</time></trkpt><trkpt lat="43.39282" lon="11.855375"><ele>293.1428571428571</ele><time>2026-04-22T15:46:53.051Z</time></trkpt><trkpt lat="43.3928233" lon="11.8554867"><ele>294.2857142857143</ele><time>2026-04-22T15:46:57.049Z</time></trkpt><trkpt lat="43.3928217" lon="11.8555783"><ele>295.42857142857144</ele><time>2026-04-22T15:47:00.051Z</time></trkpt><trkpt lat="43.392805" lon="11.8556733"><ele>296.57142857142856</ele><time>2026-04-22T15:47:05.051Z</time></trkpt><trkpt lat="43.39279" lon="11.8557717"><ele>297.7142857142857</ele><time>2026-04-22T15:47:10.05Z</time></trkpt><trkpt lat="43.392795" lon="11.8558617"><ele>298.85714285714283</ele><time>2026-04-22T15:47:14.051Z</time></trkpt><trkpt lat="43.392845" lon="11.8559383"><ele>300.0</ele><time>2026-04-22T15:47:18.05Z</time></trkpt><trkpt lat="43.3929067" lon="11.8559883"><ele>301.4285714285714</ele><time>2026-04-22T15:47:22.05Z</time></trkpt><trkpt lat="43.3929767" lon="11.8560167"><ele>302.85714285714283</ele><time>2026-04-22T15:47:26.05Z</time></trkpt><trkpt lat="43.3930333" lon="11.8560683"><ele>304.2857142857143</ele><time>2026-04-22T15:47:30.051Z</time></trkpt><trkpt lat="43.3930967" lon="11.8561267"><ele>305.71428571428567</ele><time>2026-04-22T15:47:35.05Z</time></trkpt><trkpt lat="43.393145" lon="11.8561933"><ele>307.1428571428571</ele><time>2026-04-22T15:47:39.049Z</time></trkpt><trkpt lat="43.3932033" lon="11.856255"><ele>308.57142857142856</ele><time>2026-04-22T15:47:43.052Z</time></trkpt><trkpt lat="43.3932667" lon="11.856305"><ele>310.0</ele><time>2026-04-22T15:47:48.051Z</time></trkpt><trkpt lat="43.3933383" lon="11.8563433"><ele>310.0</ele><time>2026-04-22T15:47:53.052Z</time></trkpt><trkpt lat="43.3933967" lon="11.8564067"><ele>310.0</ele><time>2026-04-22T15:47:58.053Z</time></trkpt><trkpt lat="43.3934217" lon="11.85649"><ele>310.0</ele><time>2026-04-22T15:48:02.051Z</time></trkpt><trkpt lat="43.3934283" lon="11.8565883"><ele>310.0</ele><time>2026-04-22T15:48:06.051Z</time></trkpt><trkpt lat="43.3934317" lon="11.8566967"><ele>310.0</ele><time>2026-04-22T15:48:11.051Z</time></trkpt><trkpt lat="43.39344" lon="11.8567833"><ele>310.0</ele><time>2026-04-22T15:48:16.051Z</time></trkpt><trkpt lat="43.393425" lon="11.85687"><ele>310.0</ele><time>2026-04-22T15:48:20.053Z</time></trkpt><trkpt lat="43.3933667" lon="11.8569133"><ele>311.57142857142856</ele><time>2026-04-22T15:48:26.05Z</time></trkpt><trkpt lat="43.3933017" lon="11.8569333"><ele>313.1428571428571</ele><time>2026-04-22T15:48:30.053Z</time></trkpt><trkpt lat="43.3932283" lon="11.856955"><ele>314.71428571428567</ele><time>2026-04-22T15:48:34.053Z</time></trkpt><trkpt lat="43.3931533" lon="11.8569817"><ele>316.2857142857143</ele><time>2026-04-22T15:48:38.051Z</time></trkpt><trkpt lat="43.3930833" lon="11.8569883"><ele>317.85714285714283</ele><time>2026-04-22T15:48:42.053Z</time></trkpt><trkpt lat="43.3930133" lon="11.8570217"><ele>319.4285714285714</ele><time>2026-04-22T15:48:46.051Z</time></trkpt><trkpt lat="43.3929567" lon="11.857065"><ele>321.0</ele><time>2026-04-22T15:48:49.053Z</time></trkpt><trkpt lat="43.3929033" lon="11.8571383"><ele>320.99999999999994</ele><time>2026-04-22T15:48:53.05Z</time></trkpt><trkpt lat="43.3928567" lon="11.8572033"><ele>321.0</ele><time>2026-04-22T15:48:57.053Z</time></trkpt><trkpt lat="43.3928183" lon="11.8572817"><ele>321.0</ele><time>2026-04-22T15:49:02.052Z</time></trkpt><trkpt lat="43.3928517" lon="11.8573867"><ele>321.0</ele><time>2026-04-22T15:49:08.052Z</time></trkpt><trkpt lat="43.392895" lon="11.8574717"><ele>321.0</ele><time>2026-04-22T15:49:12.051Z</time></trkpt><trkpt lat="43.392955" lon="11.8575183"><ele>320.99999999999994</ele><time>2026-04-22T15:49:17.05Z</time></trkpt><trkpt lat="43.3930233" lon="11.8575333"><ele>321.0</ele><time>2026-04-22T15:49:22.049Z</time></trkpt><trkpt lat="43.3930717" lon="11.8576067"><ele>322.57142857142856</ele><time>2026-04-22T15:49:26.054Z</time></trkpt><trkpt lat="43.3931183" lon="11.8576833"><ele>324.1428571428571</ele><time>2026-04-22T15:49:31.049Z</time></trkpt><trkpt lat="43.393175" lon="11.857755"><ele>325.71428571428567</ele><time>2026-04-22T15:49:37.05Z</time></trkpt><trkpt lat="43.393225" lon="11.8578117"><ele>327.2857142857143</ele><time>2026-04-22T15:49:41.05Z</time></trkpt><trkpt lat="43.3932767" lon="11.8578867"><ele>328.8571428571429</ele><time>2026-04-22T15:49:46.049Z</time></trkpt><trkpt lat="43.3933183" lon="11.8579567"><ele>330.4285714285714</ele><time>2026-04-22T15:49:50.05Z</time></trkpt><trkpt lat="43.3933633" lon="11.8580367"><ele>332.0</ele><time>2026-04-22T15:49:55.051Z</time></trkpt><trkpt lat="43.393385" lon="11.8581317"><ele>332.0</ele><time>2026-04-22T15:50:01.05Z</time></trkpt><trkpt lat="43.39334" lon="11.8581967"><ele>332.0</ele><time>2026-04-22T15:50:06.054Z</time></trkpt><trkpt lat="43.3932733" lon="11.85823"><ele>332.0</ele><time>2026-04-22T15:50:11.053Z</time></trkpt><trkpt lat="43.3932067" lon="11.8582683"><ele>332.0</ele><time>2026-04-22T15:50:17.051Z</time></trkpt><trkpt lat="43.3932317" lon="11.85837"><ele>332.0</ele><time>2026-04-22T15:51:56.051Z</time></trkpt><trkpt lat="43.3932867" lon="11.85845"><ele>332.0</ele><time>2026-04-22T15:52:00.053Z</time></trkpt><trkpt lat="43.3933333" lon="11.8585217"><ele>332.0</ele><time>2026-04-22T15:52:04.049Z</time></trkpt><trkpt lat="43.3933833" lon="11.8585967"><ele>334.0</ele><time>2026-04-22T15:52:08.051Z</time></trkpt><trkpt lat="43.3934283" lon="11.8586867"><ele>336.0</ele><time>2026-04-22T15:52:12.052Z</time></trkpt><trkpt lat="43.3934567" lon="11.8587833"><ele>338.0</ele><time>2026-04-22T15:52:16.049Z</time></trkpt><trkpt lat="43.3934683" lon="11.8588717"><ele>340.0</ele><time>2026-04-22T15:52:20.05Z</time></trkpt><trkpt lat="43.3934583" lon="11.85896"><ele>342.0</ele><time>2026-04-22T15:52:24.051Z</time></trkpt><trkpt lat="43.3934083" lon="11.8590217"><ele>344.0</ele><time>2026-04-22T15:52:28.051Z</time></trkpt><trkpt lat="43.3933433" lon="11.8590683"><ele>346.0</ele><time>2026-04-22T15:52:33.052Z</time></trkpt><trkpt lat="43.3932717" lon="11.8591017"><ele>346.0</ele><time>2026-04-22T15:52:38.052Z</time></trkpt><trkpt lat="43.393215" lon="11.8591483"><ele>346.0</ele><time>2026-04-22T15:52:42.049Z</time></trkpt><trkpt lat="43.393155" lon="11.85919"><ele>346.0</ele><time>2026-04-22T15:52:46.049Z</time></trkpt><trkpt lat="43.39313" lon="11.85929"><ele>346.0</ele><time>2026-04-22T15:52:51.051Z</time></trkpt><trkpt lat="43.393155" lon="11.8593733"><ele>346.0</ele><time>2026-04-22T15:52:55.051Z</time></trkpt><trkpt lat="43.3932133" lon="11.8594133"><ele>346.0</ele><time>2026-04-22T15:52:59.049Z</time></trkpt><trkpt lat="43.3932817" lon="11.8594467"><ele>346.0</ele><time>2026-04-22T15:53:03.053Z</time></trkpt><trkpt lat="43.3933333" lon="11.8594983"><ele>347.7142857142857</ele><time>2026-04-22T15:53:07.053Z</time></trkpt><trkpt lat="43.3933867" lon="11.8595517"><ele>349.42857142857144</ele><time>2026-04-22T15:53:11.05Z</time></trkpt><trkpt lat="43.39338" lon="11.859645"><ele>351.14285714285717</ele><time>2026-04-22T15:53:16.052Z</time></trkpt><trkpt lat="43.3933167" lon="11.85968"><ele>352.8571428571429</ele><time>2026-04-22T15:53:21.049Z</time></trkpt><trkpt lat="43.3932433" lon="11.859705"><ele>354.57142857142856</ele><time>2026-04-22T15:53:26.051Z</time></trkpt><trkpt lat="43.3932033" lon="11.8597783"><ele>356.28571428571433</ele><time>2026-04-22T15:53:30.05Z</time></trkpt><trkpt lat="43.393195" lon="11.859865"><ele>358.0</ele><time>2026-04-22T15:53:35.05Z</time></trkpt><trkpt lat="43.3931983" lon="11.8599517"><ele>358.00000000000006</ele><time>2026-04-22T15:53:39.049Z</time></trkpt><trkpt lat="43.3932183" lon="11.8600433"><ele>358.0</ele><time>2026-04-22T15:53:44.051Z</time></trkpt><trkpt lat="43.39325" lon="11.86013"><ele>358.0</ele><time>2026-04-22T15:53:49.052Z</time></trkpt><trkpt lat="43.3933" lon="11.860195"><ele>358.0</ele><time>2026-04-22T15:53:54.053Z</time></trkpt><trkpt lat="43.393355" lon="11.8602633"><ele>358.0</ele><time>2026-04-22T15:53:59.056Z</time></trkpt><trkpt lat="43.393365" lon="11.8603667"><ele>358.00000000000006</ele><time>2026-04-22T15:55:09.052Z</time></trkpt><trkpt lat="43.3933667" lon="11.860475"><ele>358.0</ele><time>2026-04-22T15:55:14.052Z</time></trkpt><trkpt lat="43.393365" lon="11.860575"><ele>360.42857142857144</ele><time>2026-04-22T15:55:19.057Z</time></trkpt><trkpt lat="43.39334" lon="11.8606683"><ele>362.8571428571429</ele><time>2026-04-22T15:55:24.054Z</time></trkpt><trkpt lat="43.3933033" lon="11.8607467"><ele>365.28571428571433</ele><time>2026-04-22T15:55:28.054Z</time></trkpt><trkpt lat="43.393235" lon="11.8607817"><ele>367.7142857142857</ele><time>2026-04-22T15:55:33.05Z</time></trkpt><trkpt lat="43.3931667" lon="11.860775"><ele>370.1428571428571</ele><time>2026-04-22T15:55:37.051Z</time></trkpt><trkpt lat="43.3930967" lon="11.8607833"><ele>372.5714285714286</ele><time>2026-04-22T15:55:41.053Z</time></trkpt><trkpt lat="43.3930267" lon="11.8607983"><ele>375.0</ele><time>2026-04-22T15:55:46.05Z</time></trkpt><trkpt lat="43.3929633" lon="11.86081"><ele>375.0</ele><time>2026-04-22T15:55:51.051Z</time></trkpt><trkpt lat="43.3928983" lon="11.8608217"><ele>375.0</ele><time>2026-04-22T15:55:56.054Z</time></trkpt><trkpt lat="43.3928283" lon="11.8608383"><ele>375.0</ele><time>2026-04-22T15:56:00.052Z</time></trkpt><trkpt lat="43.392765" lon="11.86084"><ele>375.0</ele><time>2026-04-22T15:56:04.051Z</time></trkpt><trkpt lat="43.3926933" lon="11.86086"><ele>375.0</ele><time>2026-04-22T15:56:09.053Z</time></trkpt><trkpt lat="43.3926283" lon="11.8608783"><ele>375.0</ele><time>2026-04-22T15:56:14.054Z</time></trkpt><trkpt lat="43.392555" lon="11.860915"><ele>375.0</ele><time>2026-04-22T15:56:19.051Z</time></trkpt><trkpt lat="43.3925017" lon="11.8609683"><ele>377.0</ele><time>2026-04-22T15:56:23.051Z</time></trkpt><trkpt lat="43.3924583" lon="11.8610367"><ele>379.0</ele><time>2026-04-22T15:56:27.052Z</time></trkpt><trkpt lat="43.3924333" lon="11.8611367"><ele>381.0</ele><time>2026-04-22T15:56:32.052Z</time></trkpt><trkpt lat="43.392425" lon="11.8612317"><ele>383.0</ele><time>2026-04-22T15:56:37.053Z</time></trkpt><trkpt lat="43.3924733" lon="11.8612933"><ele>385.0</ele><time>2026-04-22T15:56:42.051Z</time></trkpt><trkpt lat="43.3925467" lon="11.8613267"><ele>387.0</ele><time>2026-04-22T15:56:47.051Z</time></trkpt><trkpt lat="43.39262" lon="11.8613383"><ele>389.0</ele><time>2026-04-22T15:56:52.052Z</time></trkpt><trkpt lat="43.39268" lon="11.86131"><ele>389.0</ele><time>2026-04-22T15:56:56.05Z</time></trkpt><trkpt lat="43.392745" lon="11.8612833"><ele>389.0</ele><time>2026-04-22T15:57:01.05Z</time></trkpt><trkpt lat="43.3928133" lon="11.861275"><ele>389.0</ele><time>2026-04-22T15:57:06.054Z</time></trkpt><trkpt lat="43.3928867" lon="11.8612717"><ele>389.0</ele><time>2026-04-22T15:57:11.052Z</time></trkpt><trkpt lat="43.39295" lon="11.8612833"><ele>389.0</ele><time>2026-04-22T15:57:16.049Z</time></trkpt><trkpt lat="43.3930133" lon="11.8613133"><ele>389.0</ele><time>2026-04-22T15:57:22.049Z</time></trkpt><trkpt lat="43.3930633" lon="11.86137"><ele>389.0</ele><time>2026-04-22T15:57:29.053Z</time></trkpt><trkpt lat="43.39313" lon="11.8613983"><ele>390.0</ele><time>2026-04-22T15:57:44.049Z</time></trkpt><trkpt lat="43.39315" lon="11.861165"><ele>391.0</ele><time>2026-04-22T15:58:49.051Z</time></trkpt><trkpt lat="43.3931467" lon="11.8612933"><ele>392.0</ele><time>2026-04-22T15:58:57.051Z</time></trkpt><trkpt lat="43.393135" lon="11.861405"><ele>393.0</ele><time>2026-04-22T15:59:38.051Z</time></trkpt><trkpt lat="43.3930783" lon="11.8614667"><ele>394.0</ele><time>2026-04-22T15:59:44.053Z</time></trkpt><trkpt lat="43.3930183" lon="11.8615133"><ele>393.2857142857143</ele><time>2026-04-22T15:59:49.05Z</time></trkpt><trkpt lat="43.3929533" lon="11.8615233"><ele>392.57142857142856</ele><time>2026-04-22T15:59:54.052Z</time></trkpt><trkpt lat="43.3928883" lon="11.8615133"><ele>391.8571428571429</ele><time>2026-04-22T15:59:59.052Z</time></trkpt><trkpt lat="43.39282" lon="11.861515"><ele>391.1428571428571</ele><time>2026-04-22T16:00:03.047Z</time></trkpt><trkpt lat="43.392745" lon="11.8615667"><ele>390.4285714285714</ele><time>2026-04-22T16:00:07.05Z</time></trkpt><trkpt lat="43.39268" lon="11.8616217"><ele>389.7142857142857</ele><time>2026-04-22T16:00:10.051Z</time></trkpt><trkpt lat="43.392625" lon="11.8616867"><ele>389.0</ele><time>2026-04-22T16:00:13.054Z</time></trkpt><trkpt lat="43.3925867" lon="11.8617633"><ele>389.5714285714286</ele><time>2026-04-22T16:00:16.052Z</time></trkpt><trkpt lat="43.3925883" lon="11.86186"><ele>390.1428571428571</ele><time>2026-04-22T16:00:27.045Z</time></trkpt><trkpt lat="43.3925767" lon="11.86196"><ele>390.7142857142857</ele><time>2026-04-22T16:00:48.051Z</time></trkpt><trkpt lat="43.3925783" lon="11.8620483"><ele>391.28571428571433</ele><time>2026-04-22T16:00:53.06Z</time></trkpt><trkpt lat="43.3926183" lon="11.862125"><ele>391.8571428571429</ele><time>2026-04-22T16:00:58.053Z</time></trkpt><trkpt lat="43.392635" lon="11.862215"><ele>392.42857142857144</ele><time>2026-04-22T16:01:06.051Z</time></trkpt><trkpt lat="43.3925983" lon="11.862305"><ele>393.0</ele><time>2026-04-22T16:01:12.053Z</time></trkpt><trkpt lat="43.3925833" lon="11.86239"><ele>393.00000000000006</ele><time>2026-04-22T16:01:17.053Z</time></trkpt><trkpt lat="43.3926033" lon="11.8624817"><ele>393.0</ele><time>2026-04-22T16:01:22.051Z</time></trkpt><trkpt lat="43.3926417" lon="11.8625783"><ele>393.0</ele><time>2026-04-22T16:01:27.051Z</time></trkpt><trkpt lat="43.3926817" lon="11.8626717"><ele>393.0</ele><time>2026-04-22T16:01:31.05Z</time></trkpt><trkpt lat="43.3927117" lon="11.8627483"><ele>393.0</ele><time>2026-04-22T16:01:34.051Z</time></trkpt><trkpt lat="43.3927517" lon="11.8628333"><ele>393.00000000000006</ele><time>2026-04-22T16:01:37.054Z</time></trkpt><trkpt lat="43.3927917" lon="11.862905"><ele>393.0</ele><time>2026-04-22T16:01:40.052Z</time></trkpt><trkpt lat="43.3927717" lon="11.863035"><ele>393.14285714285717</ele><time>2026-04-22T16:02:13.05Z</time></trkpt><trkpt lat="43.3927267" lon="11.8631133"><ele>393.2857142857143</ele><time>2026-04-22T16:02:17.052Z</time></trkpt><trkpt lat="43.3926867" lon="11.8631833"><ele>393.42857142857144</ele><time>2026-04-22T16:02:21.054Z</time></trkpt><trkpt lat="43.392665" lon="11.863265"><ele>393.57142857142856</ele><time>2026-04-22T16:02:26.053Z</time></trkpt><trkpt lat="43.3926467" lon="11.8633633"><ele>393.7142857142857</ele><time>2026-04-22T16:02:31.049Z</time></trkpt><trkpt lat="43.3926267" lon="11.86346"><ele>393.8571428571429</ele><time>2026-04-22T16:02:35.052Z</time></trkpt><trkpt lat="43.3925917" lon="11.863535"><ele>394.0</ele><time>2026-04-22T16:02:39.052Z</time></trkpt><trkpt lat="43.39257" lon="11.863625"><ele>395.8571428571429</ele><time>2026-04-22T16:02:43.051Z</time></trkpt><trkpt lat="43.3925317" lon="11.8637017"><ele>397.7142857142857</ele><time>2026-04-22T16:02:47.048Z</time></trkpt><trkpt lat="43.39248" lon="11.86377"><ele>399.57142857142856</ele><time>2026-04-22T16:02:51.049Z</time></trkpt><trkpt lat="43.392425" lon="11.8638417"><ele>401.42857142857144</ele><time>2026-04-22T16:02:57.05Z</time></trkpt><trkpt lat="43.3923683" lon="11.8639183"><ele>403.2857142857143</ele><time>2026-04-22T16:03:02.049Z</time></trkpt><trkpt lat="43.392315" lon="11.8639967"><ele>405.14285714285717</ele><time>2026-04-22T16:03:06.051Z</time></trkpt><trkpt lat="43.39227" lon="11.8640683"><ele>407.0</ele><time>2026-04-22T16:03:10.05Z</time></trkpt><trkpt lat="43.3922433" lon="11.86415"><ele>406.99999999999994</ele><time>2026-04-22T16:03:17.049Z</time></trkpt><trkpt lat="43.3923203" lon="11.8640867"><ele>407.0</ele><time>2026-04-22T16:04:52.151Z</time></trkpt><trkpt lat="43.3923718" lon="11.8639874"><ele>407.0</ele><time>2026-04-22T16:04:55.081Z</time></trkpt><trkpt lat="43.3924193" lon="11.863907"><ele>407.0</ele><time>2026-04-22T16:04:58.178Z</time></trkpt><trkpt lat="43.3924752" lon="11.8638465"><ele>406.99999999999994</ele><time>2026-04-22T16:05:01.179Z</time></trkpt><trkpt lat="43.3925295" lon="11.863784"><ele>407.0</ele><time>2026-04-22T16:05:04.111Z</time></trkpt><trkpt lat="43.3925817" lon="11.8637183"><ele>406.99999999999994</ele><time>2026-04-22T16:05:07.05Z</time></trkpt><trkpt lat="43.3926283" lon="11.86365"><ele>407.0</ele><time>2026-04-22T16:05:10.05Z</time></trkpt><trkpt lat="43.392655" lon="11.8635533"><ele>407.0</ele><time>2026-04-22T16:05:13.054Z</time></trkpt><trkpt lat="43.3926583" lon="11.863465"><ele>407.0</ele><time>2026-04-22T16:05:16.052Z</time></trkpt><trkpt lat="43.3926267" lon="11.863265"><ele>406.99999999999994</ele><time>2026-04-22T16:05:42.052Z</time></trkpt><trkpt lat="43.3926367" lon="11.863355"><ele>407.0</ele><time>2026-04-22T16:05:52.048Z</time></trkpt><trkpt lat="43.392685" lon="11.8632833"><ele>404.8333333333333</ele><time>2026-04-22T16:06:05.052Z</time></trkpt><trkpt lat="43.3927117" lon="11.8631933"><ele>402.66666666666663</ele><time>2026-04-22T16:06:07.053Z</time></trkpt><trkpt lat="43.39277" lon="11.863075"><ele>400.5</ele><time>2026-04-22T16:06:09.052Z</time></trkpt><trkpt lat="43.3928233" lon="11.8629533"><ele>398.33333333333337</ele><time>2026-04-22T16:06:11.053Z</time></trkpt><trkpt lat="43.3928283" lon="11.8628517"><ele>396.1666666666667</ele><time>2026-04-22T16:06:13.052Z</time></trkpt><trkpt lat="43.39279" lon="11.8627583"><ele>394.0</ele><time>2026-04-22T16:06:15.05Z</time></trkpt><trkpt lat="43.3927567" lon="11.8626683"><ele>393.8571428571429</ele><time>2026-04-22T16:06:19.051Z</time></trkpt><trkpt lat="43.3926967" lon="11.86259"><ele>393.7142857142857</ele><time>2026-04-22T16:07:46.05Z</time></trkpt><trkpt lat="43.3926667" lon="11.8625083"><ele>393.57142857142856</ele><time>2026-04-22T16:07:48.052Z</time></trkpt><trkpt lat="43.3926467" lon="11.862425"><ele>393.42857142857144</ele><time>2026-04-22T16:07:50.052Z</time></trkpt><trkpt lat="43.3926333" lon="11.8623383"><ele>393.2857142857143</ele><time>2026-04-22T16:07:52.052Z</time></trkpt><trkpt lat="43.3926267" lon="11.8622133"><ele>393.14285714285717</ele><time>2026-04-22T16:07:55.05Z</time></trkpt><trkpt lat="43.39261" lon="11.8621283"><ele>393.0</ele><time>2026-04-22T16:07:57.051Z</time></trkpt><trkpt lat="43.3925883" lon="11.8620267"><ele>393.00000000000006</ele><time>2026-04-22T16:08:00.052Z</time></trkpt><trkpt lat="43.3925567" lon="11.8619433"><ele>393.0</ele><time>2026-04-22T16:08:03.05Z</time></trkpt><trkpt lat="43.3925733" lon="11.8618317"><ele>393.0</ele><time>2026-04-22T16:08:07.051Z</time></trkpt><trkpt lat="43.3926133" lon="11.8617383"><ele>393.0</ele><time>2026-04-22T16:08:10.051Z</time></trkpt><trkpt lat="43.3926567" lon="11.8616683"><ele>393.0</ele><time>2026-04-22T16:08:13.053Z</time></trkpt><trkpt lat="43.3927083" lon="11.861605"><ele>393.00000000000006</ele><time>2026-04-22T16:08:16.05Z</time></trkpt><trkpt lat="43.392765" lon="11.8615533"><ele>393.0</ele><time>2026-04-22T16:08:19.051Z</time></trkpt><trkpt lat="43.39285" lon="11.861535"><ele>393.1666666666667</ele><time>2026-04-22T16:08:22.052Z</time></trkpt><trkpt lat="43.3929233" lon="11.86153"><ele>393.33333333333337</ele><time>2026-04-22T16:08:25.051Z</time></trkpt><trkpt lat="43.3930033" lon="11.8615133"><ele>393.5</ele><time>2026-04-22T16:08:28.05Z</time></trkpt><trkpt lat="43.3930917" lon="11.861475"><ele>393.6666666666667</ele><time>2026-04-22T16:08:31.05Z</time></trkpt><trkpt lat="43.3931733" lon="11.8614533"><ele>393.83333333333337</ele><time>2026-04-22T16:08:35.052Z</time></trkpt><trkpt lat="43.39324" lon="11.8615217"><ele>394.0</ele><time>2026-04-22T16:08:39.051Z</time></trkpt><trkpt lat="43.3932967" lon="11.86156"><ele>394.00000000000006</ele><time>2026-04-22T16:08:43.05Z</time></trkpt><trkpt lat="43.39336" lon="11.8616017"><ele>394.0</ele><time>2026-04-22T16:08:47.052Z</time></trkpt><trkpt lat="43.3934233" lon="11.8616283"><ele>394.0</ele><time>2026-04-22T16:08:50.053Z</time></trkpt><trkpt lat="43.3934983" lon="11.8616633"><ele>394.0</ele><time>2026-04-22T16:08:55.052Z</time></trkpt><trkpt lat="43.3935733" lon="11.8617283"><ele>394.00000000000006</ele><time>2026-04-22T16:08:59.051Z</time></trkpt><trkpt lat="43.3936367" lon="11.8618233"><ele>394.0</ele><time>2026-04-22T16:09:02.053Z</time></trkpt><trkpt lat="43.3936817" lon="11.861885"><ele>393.00000000000006</ele><time>2026-04-22T16:09:04.051Z</time></trkpt><trkpt lat="43.3937317" lon="11.8619633"><ele>392.0</ele><time>2026-04-22T16:09:07.052Z</time></trkpt><trkpt lat="43.393785" lon="11.8620567"><ele>391.0</ele><time>2026-04-22T16:09:10.051Z</time></trkpt><trkpt lat="43.393835" lon="11.86215"><ele>390.0</ele><time>2026-04-22T16:09:13.052Z</time></trkpt><trkpt lat="43.39389" lon="11.8622367"><ele>389.00000000000006</ele><time>2026-04-22T16:09:16.05Z</time></trkpt><trkpt lat="43.393945" lon="11.8623217"><ele>388.0</ele><time>2026-04-22T16:09:19.051Z</time></trkpt><trkpt lat="43.3940083" lon="11.8624017"><ele>388.00000000000006</ele><time>2026-04-22T16:09:22.051Z</time></trkpt><trkpt lat="43.3940733" lon="11.862485"><ele>388.0</ele><time>2026-04-22T16:09:25.051Z</time></trkpt><trkpt lat="43.39412" lon="11.8625433"><ele>388.0</ele><time>2026-04-22T16:09:27.052Z</time></trkpt><trkpt lat="43.394175" lon="11.8626217"><ele>388.0</ele><time>2026-04-22T16:09:30.052Z</time></trkpt><trkpt lat="43.394235" lon="11.862695"><ele>388.00000000000006</ele><time>2026-04-22T16:09:33.05Z</time></trkpt><trkpt lat="43.3942867" lon="11.862765"><ele>388.0</ele><time>2026-04-22T16:09:36.051Z</time></trkpt><trkpt lat="43.3943717" lon="11.862785"><ele>388.0</ele><time>2026-04-22T16:10:23.05Z</time></trkpt><trkpt lat="43.39443" lon="11.8627"><ele>388.0</ele><time>2026-04-22T16:10:28.051Z</time></trkpt><trkpt lat="43.3944717" lon="11.8626317"><ele>388.0</ele><time>2026-04-22T16:10:31.052Z</time></trkpt><trkpt lat="43.3945133" lon="11.86255"><ele>388.0</ele><time>2026-04-22T16:10:35.051Z</time></trkpt><trkpt lat="43.3945483" lon="11.862455"><ele>388.0</ele><time>2026-04-22T16:10:39.052Z</time></trkpt><trkpt lat="43.3945683" lon="11.8623583"><ele>388.0</ele><time>2026-04-22T16:10:43.052Z</time></trkpt><trkpt lat="43.3946" lon="11.86228"><ele>388.0</ele><time>2026-04-22T16:10:47.051Z</time></trkpt><trkpt lat="43.3946267" lon="11.8622"><ele>389.0</ele><time>2026-04-22T16:10:51.05Z</time></trkpt><trkpt lat="43.3946967" lon="11.8621717"><ele>390.0</ele><time>2026-04-22T16:11:33.05Z</time></trkpt><trkpt lat="43.3947567" lon="11.8621267"><ele>391.0</ele><time>2026-04-22T16:11:38.05Z</time></trkpt><trkpt lat="43.3948233" lon="11.8621033"><ele>392.0</ele><time>2026-04-22T16:11:43.053Z</time></trkpt><trkpt lat="43.394895" lon="11.8621117"><ele>393.0</ele><time>2026-04-22T16:11:49.052Z</time></trkpt><trkpt lat="43.39496" lon="11.8621417"><ele>394.0</ele><time>2026-04-22T16:11:54.054Z</time></trkpt><trkpt lat="43.39502" lon="11.8621917"><ele>395.0</ele><time>2026-04-22T16:11:58.051Z</time></trkpt><trkpt lat="43.3950767" lon="11.8622333"><ele>395.0</ele><time>2026-04-22T16:12:02.054Z</time></trkpt><trkpt lat="43.3951517" lon="11.8622667"><ele>395.0</ele><time>2026-04-22T16:12:07.051Z</time></trkpt><trkpt lat="43.3952083" lon="11.8623117"><ele>395.0</ele><time>2026-04-22T16:12:11.05Z</time></trkpt><trkpt lat="43.3952617" lon="11.86236"><ele>395.0</ele><time>2026-04-22T16:12:15.053Z</time></trkpt><trkpt lat="43.3953117" lon="11.8624167"><ele>395.0</ele><time>2026-04-22T16:12:21.052Z</time></trkpt><trkpt lat="43.39537" lon="11.8624617"><ele>395.0</ele><time>2026-04-22T16:12:31.053Z</time></trkpt><trkpt lat="43.3954344" lon="11.8625096"><ele>395.0</ele><time>2026-04-22T16:12:39.224Z</time></trkpt><trkpt lat="43.395486" lon="11.8625657"><ele>397.1428571428571</ele><time>2026-04-22T16:12:49.156Z</time></trkpt><trkpt lat="43.395553" lon="11.8625881"><ele>399.28571428571433</ele><time>2026-04-22T16:13:13.167Z</time></trkpt><trkpt lat="43.3956052" lon="11.8625256"><ele>401.42857142857144</ele><time>2026-04-22T16:13:21.157Z</time></trkpt><trkpt lat="43.3956503" lon="11.8624642"><ele>403.57142857142856</ele><time>2026-04-22T16:13:30.186Z</time></trkpt><trkpt lat="43.3956946" lon="11.8623852"><ele>405.71428571428567</ele><time>2026-04-22T16:13:37.107Z</time></trkpt><trkpt lat="43.3957066" lon="11.8622907"><ele>407.8571428571429</ele><time>2026-04-22T16:13:43.216Z</time></trkpt><trkpt lat="43.3957118" lon="11.8621882"><ele>410.0</ele><time>2026-04-22T16:13:51.175Z</time></trkpt><trkpt lat="43.3957162" lon="11.8620956"><ele>410.0</ele><time>2026-04-22T16:13:56.1Z</time></trkpt><trkpt lat="43.3957356" lon="11.8620129"><ele>410.0</ele><time>2026-04-22T16:14:04.193Z</time></trkpt><trkpt lat="43.3957618" lon="11.8619259"><ele>410.0</ele><time>2026-04-22T16:14:11.107Z</time></trkpt><trkpt lat="43.3957877" lon="11.8618449"><ele>410.0</ele><time>2026-04-22T16:14:18.125Z</time></trkpt><trkpt lat="43.3958037" lon="11.8617606"><ele>410.0</ele><time>2026-04-22T16:14:32.096Z</time></trkpt><trkpt lat="43.3958319" lon="11.861675"><ele>410.0</ele><time>2026-04-22T16:14:36.154Z</time></trkpt><trkpt lat="43.3958698" lon="11.861596"><ele>410.0</ele><time>2026-04-22T16:14:42.18Z</time></trkpt><trkpt lat="43.3959189" lon="11.8615364"><ele>408.8571428571429</ele><time>2026-04-22T16:14:49.092Z</time></trkpt><trkpt lat="43.3959769" lon="11.8615006"><ele>407.71428571428567</ele><time>2026-04-22T16:14:57.055Z</time></trkpt><trkpt lat="43.3960431" lon="11.8613951"><ele>406.57142857142856</ele><time>2026-04-22T16:15:30.094Z</time></trkpt><trkpt lat="43.3960552" lon="11.8613038"><ele>405.42857142857144</ele><time>2026-04-22T16:15:45.081Z</time></trkpt><trkpt lat="43.3960664" lon="11.8612035"><ele>404.28571428571433</ele><time>2026-04-22T16:15:53.193Z</time></trkpt><trkpt lat="43.3960541" lon="11.861116"><ele>403.1428571428571</ele><time>2026-04-22T16:16:05.048Z</time></trkpt><trkpt lat="43.3960604" lon="11.8610294"><ele>402.0</ele><time>2026-04-22T16:17:05.662Z</time></trkpt><trkpt lat="43.3960884" lon="11.8609508"><ele>400.7142857142857</ele><time>2026-04-22T16:17:16.159Z</time></trkpt><trkpt lat="43.3961543" lon="11.8609351"><ele>399.42857142857144</ele><time>2026-04-22T16:17:26.126Z</time></trkpt><trkpt lat="43.3962174" lon="11.860919"><ele>398.14285714285717</ele><time>2026-04-22T16:17:34.127Z</time></trkpt><trkpt lat="43.3962504" lon="11.8608442"><ele>396.8571428571429</ele><time>2026-04-22T16:17:42.191Z</time></trkpt><trkpt lat="43.3963079" lon="11.8607914"><ele>395.57142857142856</ele><time>2026-04-22T16:17:51.101Z</time></trkpt><trkpt lat="43.3963707" lon="11.8607693"><ele>394.28571428571433</ele><time>2026-04-22T16:18:00.207Z</time></trkpt><trkpt lat="43.396438" lon="11.8607082"><ele>393.0</ele><time>2026-04-22T16:18:05.172Z</time></trkpt><trkpt lat="43.3965083" lon="11.8606744"><ele>393.0</ele><time>2026-04-22T16:18:08.104Z</time></trkpt><trkpt lat="43.3965876" lon="11.8606175"><ele>393.0</ele><time>2026-04-22T16:18:11.022Z</time></trkpt><trkpt lat="43.3966523" lon="11.8605298"><ele>393.0</ele><time>2026-04-22T16:18:14.2Z</time></trkpt><trkpt lat="43.3966652" lon="11.8604318"><ele>393.0</ele><time>2026-04-22T16:18:17.102Z</time></trkpt><trkpt lat="43.3966583" lon="11.86034"><ele>393.0</ele><time>2026-04-22T16:18:21.049Z</time></trkpt><trkpt lat="43.3966567" lon="11.860235"><ele>393.0</ele><time>2026-04-22T16:18:25.049Z</time></trkpt><trkpt lat="43.3966983" lon="11.8601617"><ele>389.6666666666667</ele><time>2026-04-22T16:18:29.053Z</time></trkpt><trkpt lat="43.3967583" lon="11.86011"><ele>386.3333333333333</ele><time>2026-04-22T16:18:33.053Z</time></trkpt><trkpt lat="43.3967133" lon="11.8600167"><ele>383.0</ele><time>2026-04-22T16:20:01.052Z</time></trkpt><trkpt lat="43.3966667" lon="11.8599333"><ele>379.66666666666663</ele><time>2026-04-22T16:20:05.046Z</time></trkpt><trkpt lat="43.3966317" lon="11.859855"><ele>376.3333333333333</ele><time>2026-04-22T16:20:08.05Z</time></trkpt><trkpt lat="43.3965917" lon="11.859765"><ele>373.0</ele><time>2026-04-22T16:20:11.053Z</time></trkpt><trkpt lat="43.3965383" lon="11.8596767"><ele>373.0</ele><time>2026-04-22T16:20:14.052Z</time></trkpt><trkpt lat="43.3964967" lon="11.859595"><ele>373.0</ele><time>2026-04-22T16:20:17.051Z</time></trkpt><trkpt lat="43.3964717" lon="11.8595083"><ele>373.0</ele><time>2026-04-22T16:20:20.052Z</time></trkpt><trkpt lat="43.3964783" lon="11.8594133"><ele>373.0</ele><time>2026-04-22T16:20:23.049Z</time></trkpt><trkpt lat="43.396485" lon="11.85931"><ele>373.0</ele><time>2026-04-22T16:20:26.054Z</time></trkpt><trkpt lat="43.396475" lon="11.8591983"><ele>373.0</ele><time>2026-04-22T16:20:29.051Z</time></trkpt><trkpt lat="43.396455" lon="11.8590983"><ele>373.0</ele><time>2026-04-22T16:20:32.051Z</time></trkpt><trkpt lat="43.3964483" lon="11.8590033"><ele>370.16666666666663</ele><time>2026-04-22T16:20:35.052Z</time></trkpt><trkpt lat="43.396485" lon="11.8589283"><ele>367.3333333333333</ele><time>2026-04-22T16:20:38.051Z</time></trkpt><trkpt lat="43.3964683" lon="11.8588133"><ele>364.5</ele><time>2026-04-22T16:20:41.051Z</time></trkpt><trkpt lat="43.3964183" lon="11.8587283"><ele>361.6666666666667</ele><time>2026-04-22T16:20:43.05Z</time></trkpt><trkpt lat="43.396365" lon="11.85862"><ele>358.83333333333337</ele><time>2026-04-22T16:20:45.051Z</time></trkpt><trkpt lat="43.39631" lon="11.858535"><ele>356.0</ele><time>2026-04-22T16:20:47.05Z</time></trkpt><trkpt lat="43.3962583" lon="11.8584483"><ele>353.0</ele><time>2026-04-22T16:20:49.05Z</time></trkpt><trkpt lat="43.396205" lon="11.8583683"><ele>350.0</ele><time>2026-04-22T16:20:51.048Z</time></trkpt><trkpt lat="43.3961633" lon="11.85828"><ele>347.0</ele><time>2026-04-22T16:20:53.049Z</time></trkpt><trkpt lat="43.39614" lon="11.8581683"><ele>344.0</ele><time>2026-04-22T16:20:55.05Z</time></trkpt><trkpt lat="43.3961133" lon="11.85803"><ele>341.0</ele><time>2026-04-22T16:20:57.051Z</time></trkpt><trkpt lat="43.3960683" lon="11.8578883"><ele>341.0</ele><time>2026-04-22T16:20:59.05Z</time></trkpt><trkpt lat="43.3960083" lon="11.8577483"><ele>341.0</ele><time>2026-04-22T16:21:01.052Z</time></trkpt><trkpt lat="43.3959283" lon="11.857675"><ele>341.0</ele><time>2026-04-22T16:21:03.05Z</time></trkpt><trkpt lat="43.3958233" lon="11.85763"><ele>341.0</ele><time>2026-04-22T16:21:05.049Z</time></trkpt><trkpt lat="43.3957367" lon="11.8576117"><ele>341.0</ele><time>2026-04-22T16:21:07.052Z</time></trkpt><trkpt lat="43.3956733" lon="11.8575533"><ele>338.6666666666667</ele><time>2026-04-22T16:21:09.051Z</time></trkpt><trkpt lat="43.3956367" lon="11.857465"><ele>336.33333333333337</ele><time>2026-04-22T16:21:11.047Z</time></trkpt><trkpt lat="43.3956033" lon="11.8573533"><ele>334.0</ele><time>2026-04-22T16:21:14.051Z</time></trkpt><trkpt lat="43.3955717" lon="11.857245"><ele>331.6666666666667</ele><time>2026-04-22T16:21:18.052Z</time></trkpt><trkpt lat="43.395555" lon="11.85715"><ele>329.3333333333333</ele><time>2026-04-22T16:21:21.051Z</time></trkpt><trkpt lat="43.39554" lon="11.8570433"><ele>327.0</ele><time>2026-04-22T16:21:24.052Z</time></trkpt><trkpt lat="43.3955367" lon="11.8569367"><ele>327.0</ele><time>2026-04-22T16:21:27.055Z</time></trkpt><trkpt lat="43.39554" lon="11.8568283"><ele>327.0</ele><time>2026-04-22T16:21:30.05Z</time></trkpt><trkpt lat="43.3955333" lon="11.8567417"><ele>327.0</ele><time>2026-04-22T16:21:32.052Z</time></trkpt><trkpt lat="43.3954867" lon="11.8566283"><ele>327.0</ele><time>2026-04-22T16:21:35.052Z</time></trkpt><trkpt lat="43.39544" lon="11.8565667"><ele>327.0</ele><time>2026-04-22T16:21:37.05Z</time></trkpt><trkpt lat="43.39539" lon="11.8565133"><ele>327.0</ele><time>2026-04-22T16:21:39.051Z</time></trkpt><trkpt lat="43.3953317" lon="11.8564683"><ele>327.0</ele><time>2026-04-22T16:21:41.052Z</time></trkpt><trkpt lat="43.3952633" lon="11.8563967"><ele>324.7142857142857</ele><time>2026-04-22T16:21:44.052Z</time></trkpt><trkpt lat="43.39527" lon="11.8563017"><ele>322.42857142857144</ele><time>2026-04-22T16:21:47.047Z</time></trkpt><trkpt lat="43.3952983" lon="11.85622"><ele>320.1428571428571</ele><time>2026-04-22T16:21:49.049Z</time></trkpt><trkpt lat="43.39531" lon="11.8561333"><ele>317.8571428571429</ele><time>2026-04-22T16:21:51.05Z</time></trkpt><trkpt lat="43.3952833" lon="11.8560167"><ele>315.5714285714286</ele><time>2026-04-22T16:21:54.053Z</time></trkpt><trkpt lat="43.3952617" lon="11.8559267"><ele>313.2857142857143</ele><time>2026-04-22T16:21:56.049Z</time></trkpt><trkpt lat="43.3952483" lon="11.85583"><ele>311.0</ele><time>2026-04-22T16:21:58.05Z</time></trkpt><trkpt lat="43.3952417" lon="11.855655"><ele>309.2</ele><time>2026-04-22T16:22:01.053Z</time></trkpt><trkpt lat="43.3952433" lon="11.8555217"><ele>307.40000000000003</ele><time>2026-04-22T16:22:03.051Z</time></trkpt><trkpt lat="43.3952383" lon="11.8553783"><ele>305.6</ele><time>2026-04-22T16:22:05.052Z</time></trkpt><trkpt lat="43.39525" lon="11.8551983"><ele>303.8</ele><time>2026-04-22T16:22:07.049Z</time></trkpt><trkpt lat="43.3952533" lon="11.8551033"><ele>302.0</ele><time>2026-04-22T16:22:08.053Z</time></trkpt><trkpt lat="43.39526" lon="11.8550067"><ele>300.33333333333337</ele><time>2026-04-22T16:22:09.052Z</time></trkpt><trkpt lat="43.3952617" lon="11.8549083"><ele>298.6666666666667</ele><time>2026-04-22T16:22:10.049Z</time></trkpt><trkpt lat="43.39526" lon="11.8547417"><ele>297.0</ele><time>2026-04-22T16:22:12.051Z</time></trkpt><trkpt lat="43.3952633" lon="11.8546533"><ele>295.3333333333333</ele><time>2026-04-22T16:22:13.049Z</time></trkpt><trkpt lat="43.3952683" lon="11.8545583"><ele>293.66666666666663</ele><time>2026-04-22T16:22:14.052Z</time></trkpt><trkpt lat="43.3952717" lon="11.8544583"><ele>292.0</ele><time>2026-04-22T16:22:15.046Z</time></trkpt><trkpt lat="43.3952683" lon="11.8543633"><ele>291.16666666666663</ele><time>2026-04-22T16:22:16.047Z</time></trkpt><trkpt lat="43.3952667" lon="11.8542733"><ele>290.3333333333333</ele><time>2026-04-22T16:22:17.047Z</time></trkpt><trkpt lat="43.3952633" lon="11.8541817"><ele>289.5</ele><time>2026-04-22T16:22:18.048Z</time></trkpt><trkpt lat="43.3952583" lon="11.85402"><ele>288.6666666666667</ele><time>2026-04-22T16:22:20.053Z</time></trkpt><trkpt lat="43.3952633" lon="11.85389"><ele>287.83333333333337</ele><time>2026-04-22T16:22:22.052Z</time></trkpt><trkpt lat="43.3952767" lon="11.85379"><ele>287.0</ele><time>2026-04-22T16:22:24.05Z</time></trkpt><trkpt lat="43.3953017" lon="11.853665"><ele>287.0</ele><time>2026-04-22T16:22:58.05Z</time></trkpt><trkpt lat="43.3953683" lon="11.8536433"><ele>287.0</ele><time>2026-04-22T16:23:00.054Z</time></trkpt><trkpt lat="43.3954533" lon="11.8536067"><ele>287.0</ele><time>2026-04-22T16:23:02.053Z</time></trkpt><trkpt lat="43.395545" lon="11.8535633"><ele>287.0</ele><time>2026-04-22T16:23:04.051Z</time></trkpt><trkpt lat="43.3956383" lon="11.85351"><ele>287.0</ele><time>2026-04-22T16:23:06.051Z</time></trkpt><trkpt lat="43.3957433" lon="11.853455"><ele>285.8</ele><time>2026-04-22T16:23:08.051Z</time></trkpt><trkpt lat="43.39585" lon="11.8533983"><ele>284.6</ele><time>2026-04-22T16:23:10.048Z</time></trkpt><trkpt lat="43.3959583" lon="11.85333"><ele>283.40000000000003</ele><time>2026-04-22T16:23:12.052Z</time></trkpt><trkpt lat="43.396075" lon="11.8532733"><ele>282.2</ele><time>2026-04-22T16:23:14.051Z</time></trkpt><trkpt lat="43.396135" lon="11.8532433"><ele>281.0</ele><time>2026-04-22T16:23:15.048Z</time></trkpt><trkpt lat="43.39625" lon="11.8531867"><ele>280.6</ele><time>2026-04-22T16:23:17.054Z</time></trkpt><trkpt lat="43.3963633" lon="11.8531233"><ele>280.20000000000005</ele><time>2026-04-22T16:23:19.048Z</time></trkpt><trkpt lat="43.3964733" lon="11.8530683"><ele>279.79999999999995</ele><time>2026-04-22T16:23:21.049Z</time></trkpt><trkpt lat="43.39658" lon="11.85301"><ele>279.4</ele><time>2026-04-22T16:23:23.051Z</time></trkpt><trkpt lat="43.396665" lon="11.8529633"><ele>279.0</ele><time>2026-04-22T16:23:25.047Z</time></trkpt><trkpt lat="43.396745" lon="11.8529183"><ele>279.0</ele><time>2026-04-22T16:23:27.05Z</time></trkpt><trkpt lat="43.39683" lon="11.85287"><ele>279.0</ele><time>2026-04-22T16:23:29.051Z</time></trkpt><trkpt lat="43.3969133" lon="11.85282"><ele>279.0</ele><time>2026-04-22T16:23:31.051Z</time></trkpt><trkpt lat="43.3970033" lon="11.85277"><ele>279.0</ele><time>2026-04-22T16:23:33.05Z</time></trkpt><trkpt lat="43.39709" lon="11.8527233"><ele>279.0</ele><time>2026-04-22T16:23:35.053Z</time></trkpt><trkpt lat="43.3971833" lon="11.8526733"><ele>279.0</ele><time>2026-04-22T16:23:37.051Z</time></trkpt><trkpt lat="43.3972667" lon="11.852625"><ele>279.0</ele><time>2026-04-22T16:23:39.05Z</time></trkpt><trkpt lat="43.3973417" lon="11.852585"><ele>279.0</ele><time>2026-04-22T16:23:41.05Z</time></trkpt><trkpt lat="43.3974133" lon="11.852545"><ele>279.0</ele><time>2026-04-22T16:23:43.053Z</time></trkpt><trkpt lat="43.397485" lon="11.8525117"><ele>279.0</ele><time>2026-04-22T16:23:46.051Z</time></trkpt><trkpt lat="43.3974783" lon="11.8524217"><ele>279.0</ele><time>2026-04-22T16:23:52.052Z</time></trkpt><trkpt lat="43.3974467" lon="11.8523317"><ele>278.6666666666667</ele><time>2026-04-22T16:23:55.05Z</time></trkpt><trkpt lat="43.397435" lon="11.8522417"><ele>278.3333333333333</ele><time>2026-04-22T16:23:57.051Z</time></trkpt><trkpt lat="43.3974083" lon="11.85214"><ele>278.0</ele><time>2026-04-22T16:23:59.051Z</time></trkpt><trkpt lat="43.3973733" lon="11.85203"><ele>277.66666666666663</ele><time>2026-04-22T16:24:01.05Z</time></trkpt><trkpt lat="43.3973367" lon="11.8519317"><ele>277.3333333333333</ele><time>2026-04-22T16:24:03.051Z</time></trkpt><trkpt lat="43.3972917" lon="11.8518533"><ele>277.0</ele><time>2026-04-22T16:24:05.05Z</time></trkpt><trkpt lat="43.3972383" lon="11.8517617"><ele>276.8333333333333</ele><time>2026-04-22T16:24:08.051Z</time></trkpt><trkpt lat="43.3971983" lon="11.8516817"><ele>276.66666666666663</ele><time>2026-04-22T16:24:10.051Z</time></trkpt><trkpt lat="43.3971567" lon="11.8515867"><ele>276.5</ele><time>2026-04-22T16:24:12.051Z</time></trkpt><trkpt lat="43.397125" lon="11.8514867"><ele>276.3333333333333</ele><time>2026-04-22T16:24:14.051Z</time></trkpt><trkpt lat="43.3970967" lon="11.851385"><ele>276.1666666666667</ele><time>2026-04-22T16:24:16.052Z</time></trkpt><trkpt lat="43.3970467" lon="11.8512933"><ele>276.0</ele><time>2026-04-22T16:24:18.051Z</time></trkpt><trkpt lat="43.3969933" lon="11.8512017"><ele>275.6</ele><time>2026-04-22T16:24:20.053Z</time></trkpt><trkpt lat="43.396955" lon="11.8511033"><ele>275.20000000000005</ele><time>2026-04-22T16:24:22.05Z</time></trkpt><trkpt lat="43.3969" lon="11.8510033"><ele>274.79999999999995</ele><time>2026-04-22T16:24:24.05Z</time></trkpt><trkpt lat="43.3968633" lon="11.8508833"><ele>274.4</ele><time>2026-04-22T16:24:26.054Z</time></trkpt><trkpt lat="43.3968317" lon="11.8507583"><ele>274.0</ele><time>2026-04-22T16:24:28.05Z</time></trkpt><trkpt lat="43.3968083" lon="11.8506217"><ele>273.59999999999997</ele><time>2026-04-22T16:24:30.05Z</time></trkpt><trkpt lat="43.3967933" lon="11.85048"><ele>273.2</ele><time>2026-04-22T16:24:32.05Z</time></trkpt><trkpt lat="43.3967733" lon="11.8503367"><ele>272.79999999999995</ele><time>2026-04-22T16:24:34.051Z</time></trkpt><trkpt lat="43.3967517" lon="11.8501933"><ele>272.4</ele><time>2026-04-22T16:24:36.051Z</time></trkpt><trkpt lat="43.3967333" lon="11.850065"><ele>272.0</ele><time>2026-04-22T16:24:38.051Z</time></trkpt><trkpt lat="43.39672" lon="11.8499617"><ele>271.83333333333337</ele><time>2026-04-22T16:24:40.049Z</time></trkpt><trkpt lat="43.3967033" lon="11.8498383"><ele>271.6666666666667</ele><time>2026-04-22T16:24:43.05Z</time></trkpt><trkpt lat="43.3966817" lon="11.8497283"><ele>271.5</ele><time>2026-04-22T16:24:46.051Z</time></trkpt><trkpt lat="43.396665" lon="11.8496267"><ele>271.3333333333333</ele><time>2026-04-22T16:24:49.049Z</time></trkpt><trkpt lat="43.3966383" lon="11.8495133"><ele>271.16666666666663</ele><time>2026-04-22T16:24:52.05Z</time></trkpt><trkpt lat="43.3966117" lon="11.8494017"><ele>271.0</ele><time>2026-04-22T16:24:55.051Z</time></trkpt><trkpt lat="43.3965967" lon="11.8492817"><ele>270.85714285714283</ele><time>2026-04-22T16:24:58.051Z</time></trkpt><trkpt lat="43.3965817" lon="11.84919"><ele>270.7142857142857</ele><time>2026-04-22T16:25:00.051Z</time></trkpt><trkpt lat="43.39656" lon="11.8491033"><ele>270.57142857142856</ele><time>2026-04-22T16:25:02.052Z</time></trkpt><trkpt lat="43.396535" lon="11.8490167"><ele>270.42857142857144</ele><time>2026-04-22T16:25:04.05Z</time></trkpt><trkpt lat="43.396505" lon="11.84894"><ele>270.2857142857143</ele><time>2026-04-22T16:25:06.051Z</time></trkpt><trkpt lat="43.396475" lon="11.8488633"><ele>270.1428571428571</ele><time>2026-04-22T16:25:08.045Z</time></trkpt><trkpt lat="43.39643" lon="11.848745"><ele>270.0</ele><time>2026-04-22T16:25:11.052Z</time></trkpt><trkpt lat="43.3963883" lon="11.84866"><ele>270.0</ele><time>2026-04-22T16:25:13.048Z</time></trkpt><trkpt lat="43.396345" lon="11.8485833"><ele>270.0</ele><time>2026-04-22T16:25:15.05Z</time></trkpt><trkpt lat="43.3963017" lon="11.8485017"><ele>270.0</ele><time>2026-04-22T16:25:17.05Z</time></trkpt><trkpt lat="43.39626" lon="11.84842"><ele>270.0</ele><time>2026-04-22T16:25:19.05Z</time></trkpt><trkpt lat="43.3962183" lon="11.848335"><ele>270.0</ele><time>2026-04-22T16:25:21.051Z</time></trkpt><trkpt lat="43.39618" lon="11.8482483"><ele>270.0</ele><time>2026-04-22T16:25:23.052Z</time></trkpt><trkpt lat="43.3961517" lon="11.8481633"><ele>270.0</ele><time>2026-04-22T16:25:25.05Z</time></trkpt><trkpt lat="43.3961283" lon="11.848075"><ele>269.42857142857144</ele><time>2026-04-22T16:25:27.051Z</time></trkpt><trkpt lat="43.3960917" lon="11.8479867"><ele>268.85714285714283</ele><time>2026-04-22T16:25:30.049Z</time></trkpt><trkpt lat="43.3960467" lon="11.8478867"><ele>268.2857142857143</ele><time>2026-04-22T16:25:56.05Z</time></trkpt><trkpt lat="43.3960317" lon="11.8477933"><ele>267.7142857142857</ele><time>2026-04-22T16:25:59.05Z</time></trkpt><trkpt lat="43.3960233" lon="11.847705"><ele>267.1428571428571</ele><time>2026-04-22T16:26:02.052Z</time></trkpt><trkpt lat="43.3960117" lon="11.8476117"><ele>266.57142857142856</ele><time>2026-04-22T16:26:06.052Z</time></trkpt><trkpt lat="43.3959717" lon="11.847515"><ele>266.0</ele><time>2026-04-22T16:26:09.051Z</time></trkpt><trkpt lat="43.3959417" lon="11.8474233"><ele>265.8</ele><time>2026-04-22T16:26:12.051Z</time></trkpt><trkpt lat="43.39588" lon="11.8473217"><ele>265.6</ele><time>2026-04-22T16:26:15.05Z</time></trkpt><trkpt lat="43.3958333" lon="11.8472133"><ele>265.4</ele><time>2026-04-22T16:26:18.053Z</time></trkpt><trkpt lat="43.3957983" lon="11.8471083"><ele>265.2</ele><time>2026-04-22T16:26:21.05Z</time></trkpt><trkpt lat="43.3957517" lon="11.8469983"><ele>265.0</ele><time>2026-04-22T16:26:24.05Z</time></trkpt><trkpt lat="43.39569" lon="11.8469117"><ele>264.99999999999994</ele><time>2026-04-22T16:26:26.052Z</time></trkpt><trkpt lat="43.3956583" lon="11.8468283"><ele>265.0</ele><time>2026-04-22T16:26:28.05Z</time></trkpt><trkpt lat="43.3956283" lon="11.8467467"><ele>265.0</ele><time>2026-04-22T16:26:30.052Z</time></trkpt><trkpt lat="43.3955983" lon="11.8466567"><ele>265.0</ele><time>2026-04-22T16:26:32.052Z</time></trkpt><trkpt lat="43.395575" lon="11.846575"><ele>265.0</ele><time>2026-04-22T16:26:34.05Z</time></trkpt><trkpt lat="43.3955533" lon="11.8464933"><ele>264.99999999999994</ele><time>2026-04-22T16:26:36.052Z</time></trkpt><trkpt lat="43.39553" lon="11.8464017"><ele>265.0</ele><time>2026-04-22T16:26:38.052Z</time></trkpt><trkpt lat="43.3955" lon="11.8462783"><ele>264.5</ele><time>2026-04-22T16:26:41.05Z</time></trkpt><trkpt lat="43.395475" lon="11.8461867"><ele>264.0</ele><time>2026-04-22T16:26:43.051Z</time></trkpt><trkpt lat="43.3954433" lon="11.84607"><ele>263.5</ele><time>2026-04-22T16:26:46.05Z</time></trkpt><trkpt lat="43.3954083" lon="11.8459567"><ele>263.0</ele><time>2026-04-22T16:26:49.051Z</time></trkpt><trkpt lat="43.39537" lon="11.8458483"><ele>262.5</ele><time>2026-04-22T16:26:52.051Z</time></trkpt><trkpt lat="43.395335" lon="11.8457667"><ele>262.0</ele><time>2026-04-22T16:26:55.05Z</time></trkpt><trkpt lat="43.3953033" lon="11.8456817"><ele>261.57142857142856</ele><time>2026-04-22T16:26:58.053Z</time></trkpt><trkpt lat="43.39527" lon="11.84558"><ele>261.14285714285717</ele><time>2026-04-22T16:27:01.05Z</time></trkpt><trkpt lat="43.3952467" lon="11.8454783"><ele>260.7142857142857</ele><time>2026-04-22T16:27:04.051Z</time></trkpt><trkpt lat="43.39521" lon="11.84538"><ele>260.2857142857143</ele><time>2026-04-22T16:27:07.052Z</time></trkpt><trkpt lat="43.3951667" lon="11.845315"><ele>259.8571428571429</ele><time>2026-04-22T16:27:10.049Z</time></trkpt><trkpt lat="43.3951283" lon="11.8452367"><ele>259.42857142857144</ele><time>2026-04-22T16:27:13.051Z</time></trkpt><trkpt lat="43.3950883" lon="11.8451617"><ele>259.0</ele><time>2026-04-22T16:27:17.048Z</time></trkpt><trkpt lat="43.3950317" lon="11.8450783"><ele>259.0</ele><time>2026-04-22T16:27:21.051Z</time></trkpt><trkpt lat="43.3949833" lon="11.8450083"><ele>259.0</ele><time>2026-04-22T16:27:24.051Z</time></trkpt><trkpt lat="43.394925" lon="11.844915"><ele>259.0</ele><time>2026-04-22T16:27:27.05Z</time></trkpt><trkpt lat="43.394875" lon="11.84482"><ele>259.0</ele><time>2026-04-22T16:27:30.049Z</time></trkpt><trkpt lat="43.3948433" lon="11.8447083"><ele>259.0</ele><time>2026-04-22T16:27:33.052Z</time></trkpt><trkpt lat="43.3947933" lon="11.8446467"><ele>259.0</ele><time>2026-04-22T16:27:36.051Z</time></trkpt><trkpt lat="43.39475" lon="11.8445633"><ele>259.0</ele><time>2026-04-22T16:27:39.05Z</time></trkpt><trkpt lat="43.3947167" lon="11.8444833"><ele>259.0</ele><time>2026-04-22T16:27:42.05Z</time></trkpt><trkpt lat="43.3947833" lon="11.8444533"><ele>259.0</ele><time>2026-04-22T16:28:43.052Z</time></trkpt><trkpt lat="43.3948783" lon="11.8444533"><ele>259.0</ele><time>2026-04-22T16:28:46.049Z</time></trkpt><trkpt lat="43.3949433" lon="11.8444567"><ele>259.0</ele><time>2026-04-22T16:28:48.049Z</time></trkpt><trkpt lat="43.395015" lon="11.8444633"><ele>259.0</ele><time>2026-04-22T16:28:50.053Z</time></trkpt><trkpt lat="43.3950883" lon="11.8444617"><ele>259.0</ele><time>2026-04-22T16:28:52.049Z</time></trkpt><trkpt lat="43.395175" lon="11.8444617"><ele>259.0</ele><time>2026-04-22T16:28:54.051Z</time></trkpt><trkpt lat="43.3952817" lon="11.8444633"><ele>259.0</ele><time>2026-04-22T16:28:56.053Z</time></trkpt><trkpt lat="43.3953967" lon="11.844445"><ele>259.0</ele><time>2026-04-22T16:28:58.052Z</time></trkpt><trkpt lat="43.3955" lon="11.8444467"><ele>259.0</ele><time>2026-04-22T16:29:00.051Z</time></trkpt><trkpt lat="43.3956067" lon="11.8444417"><ele>259.0</ele><time>2026-04-22T16:29:02.053Z</time></trkpt><trkpt lat="43.3957317" lon="11.844415"><ele>259.0</ele><time>2026-04-22T16:29:04.05Z</time></trkpt><trkpt lat="43.3958483" lon="11.8444017"><ele>259.0</ele><time>2026-04-22T16:29:06.051Z</time></trkpt><trkpt lat="43.3959683" lon="11.84438"><ele>259.0</ele><time>2026-04-22T16:29:08.054Z</time></trkpt><trkpt lat="43.3960933" lon="11.8443633"><ele>259.0</ele><time>2026-04-22T16:29:10.048Z</time></trkpt><trkpt lat="43.396215" lon="11.8443583"><ele>259.0</ele><time>2026-04-22T16:29:12.052Z</time></trkpt><trkpt lat="43.396335" lon="11.844355"><ele>259.0</ele><time>2026-04-22T16:29:14.051Z</time></trkpt><trkpt lat="43.3964517" lon="11.8443567"><ele>259.0</ele><time>2026-04-22T16:29:16.052Z</time></trkpt><trkpt lat="43.3965767" lon="11.8443583"><ele>259.0</ele><time>2026-04-22T16:29:18.05Z</time></trkpt><trkpt lat="43.39664" lon="11.8443583"><ele>259.0</ele><time>2026-04-22T16:29:19.05Z</time></trkpt><trkpt lat="43.3967617" lon="11.844345"><ele>259.0</ele><time>2026-04-22T16:29:21.051Z</time></trkpt><trkpt lat="43.39688" lon="11.84433"><ele>259.0</ele><time>2026-04-22T16:29:23.049Z</time></trkpt><trkpt lat="43.3969983" lon="11.8443233"><ele>259.0</ele><time>2026-04-22T16:29:25.052Z</time></trkpt><trkpt lat="43.3971133" lon="11.8443117"><ele>259.0</ele><time>2026-04-22T16:29:27.05Z</time></trkpt><trkpt lat="43.397235" lon="11.8442967"><ele>259.2</ele><time>2026-04-22T16:29:29.051Z</time></trkpt><trkpt lat="43.3973433" lon="11.8443067"><ele>259.4</ele><time>2026-04-22T16:29:31.05Z</time></trkpt><trkpt lat="43.3974483" lon="11.8443117"><ele>259.6</ele><time>2026-04-22T16:29:33.05Z</time></trkpt><trkpt lat="43.3975533" lon="11.8443167"><ele>259.8</ele><time>2026-04-22T16:29:35.048Z</time></trkpt><trkpt lat="43.3976567" lon="11.8443167"><ele>260.0</ele><time>2026-04-22T16:29:37.05Z</time></trkpt><trkpt lat="43.397755" lon="11.844305"><ele>260.0</ele><time>2026-04-22T16:29:39.048Z</time></trkpt><trkpt lat="43.3978467" lon="11.8443017"><ele>260.0</ele><time>2026-04-22T16:29:41.051Z</time></trkpt><trkpt lat="43.39794" lon="11.8443017"><ele>260.0</ele><time>2026-04-22T16:29:43.051Z</time></trkpt><trkpt lat="43.3980333" lon="11.8442917"><ele>260.0</ele><time>2026-04-22T16:29:45.051Z</time></trkpt><trkpt lat="43.3981083" lon="11.8442917"><ele>260.0</ele><time>2026-04-22T16:29:47.046Z</time></trkpt><trkpt lat="43.39818" lon="11.844295"><ele>260.0</ele><time>2026-04-22T16:29:49.049Z</time></trkpt><trkpt lat="43.3982533" lon="11.8442933"><ele>259.7142857142857</ele><time>2026-04-22T16:29:51.05Z</time></trkpt><trkpt lat="43.3983167" lon="11.8442833"><ele>259.42857142857144</ele><time>2026-04-22T16:29:53.048Z</time></trkpt><trkpt lat="43.398395" lon="11.844275"><ele>259.1428571428571</ele><time>2026-04-22T16:29:57.048Z</time></trkpt><trkpt lat="43.3984717" lon="11.8442567"><ele>258.8571428571429</ele><time>2026-04-22T16:30:02.053Z</time></trkpt><trkpt lat="43.39853" lon="11.8442133"><ele>258.57142857142856</ele><time>2026-04-22T16:30:07.05Z</time></trkpt><trkpt lat="43.3986017" lon="11.8441717"><ele>258.2857142857143</ele><time>2026-04-22T16:30:40.052Z</time></trkpt><trkpt lat="43.3986767" lon="11.8442017"><ele>258.0</ele><time>2026-04-22T16:30:43.052Z</time></trkpt><trkpt lat="43.39876" lon="11.8442383"><ele>258.0</ele><time>2026-04-22T16:30:46.053Z</time></trkpt><trkpt lat="43.398825" lon="11.8442533"><ele>258.0</ele><time>2026-04-22T16:30:48.052Z</time></trkpt><trkpt lat="43.3988967" lon="11.84427"><ele>258.0</ele><time>2026-04-22T16:30:50.051Z</time></trkpt><trkpt lat="43.3989783" lon="11.8442767"><ele>258.0</ele><time>2026-04-22T16:30:52.053Z</time></trkpt><trkpt lat="43.3990533" lon="11.844285"><ele>258.0</ele><time>2026-04-22T16:30:54.051Z</time></trkpt><trkpt lat="43.3991417" lon="11.8442833"><ele>258.0</ele><time>2026-04-22T16:30:56.048Z</time></trkpt><trkpt lat="43.3992267" lon="11.8442783"><ele>258.3333333333333</ele><time>2026-04-22T16:30:58.053Z</time></trkpt><trkpt lat="43.3993117" lon="11.8442733"><ele>258.6666666666667</ele><time>2026-04-22T16:31:00.052Z</time></trkpt><trkpt lat="43.3993967" lon="11.8442767"><ele>259.0</ele><time>2026-04-22T16:31:02.054Z</time></trkpt><trkpt lat="43.3994767" lon="11.8442817"><ele>259.33333333333337</ele><time>2026-04-22T16:31:04.051Z</time></trkpt><trkpt lat="43.399555" lon="11.8442767"><ele>259.6666666666667</ele><time>2026-04-22T16:31:06.052Z</time></trkpt><trkpt lat="43.3996367" lon="11.8442633"><ele>260.0</ele><time>2026-04-22T16:31:08.053Z</time></trkpt><trkpt lat="43.39972" lon="11.8442617"><ele>260.5</ele><time>2026-04-22T16:31:10.051Z</time></trkpt><trkpt lat="43.3998033" lon="11.8442483"><ele>261.0</ele><time>2026-04-22T16:31:12.053Z</time></trkpt><trkpt lat="43.3998817" lon="11.8442433"><ele>261.5</ele><time>2026-04-22T16:31:14.052Z</time></trkpt><trkpt lat="43.3999617" lon="11.8442433"><ele>262.0</ele><time>2026-04-22T16:31:16.051Z</time></trkpt><trkpt lat="43.40005" lon="11.84424"><ele>262.5</ele><time>2026-04-22T16:31:18.053Z</time></trkpt><trkpt lat="43.40014" lon="11.8442383"><ele>263.0</ele><time>2026-04-22T16:31:20.055Z</time></trkpt><trkpt lat="43.40022" lon="11.8442283"><ele>263.0</ele><time>2026-04-22T16:31:22.05Z</time></trkpt><trkpt lat="43.4002933" lon="11.8442233"><ele>263.0</ele><time>2026-04-22T16:31:24.051Z</time></trkpt><trkpt lat="43.4003683" lon="11.8442183"><ele>263.0</ele><time>2026-04-22T16:31:26.053Z</time></trkpt><trkpt lat="43.40044" lon="11.8442117"><ele>263.0</ele><time>2026-04-22T16:31:28.054Z</time></trkpt><trkpt lat="43.400515" lon="11.8442133"><ele>263.0</ele><time>2026-04-22T16:31:30.051Z</time></trkpt><trkpt lat="43.400585" lon="11.8442083"><ele>263.0</ele><time>2026-04-22T16:31:32.053Z</time></trkpt><trkpt lat="43.4006833" lon="11.8442117"><ele>263.33333333333337</ele><time>2026-04-22T16:31:35.052Z</time></trkpt><trkpt lat="43.4007667" lon="11.8442083"><ele>263.6666666666667</ele><time>2026-04-22T16:31:37.055Z</time></trkpt><trkpt lat="43.4008483" lon="11.8442067"><ele>264.0</ele><time>2026-04-22T16:31:39.054Z</time></trkpt><trkpt lat="43.4009667" lon="11.8442017"><ele>264.3333333333333</ele><time>2026-04-22T16:31:42.049Z</time></trkpt><trkpt lat="43.4010367" lon="11.84419"><ele>264.66666666666663</ele><time>2026-04-22T16:31:44.054Z</time></trkpt><trkpt lat="43.4011033" lon="11.8441867"><ele>265.0</ele><time>2026-04-22T16:31:46.047Z</time></trkpt><trkpt lat="43.4011833" lon="11.8441667"><ele>264.99999999999994</ele><time>2026-04-22T16:31:49.049Z</time></trkpt><trkpt lat="43.4012467" lon="11.8441417"><ele>265.0</ele><time>2026-04-22T16:31:51.047Z</time></trkpt><trkpt lat="43.4013117" lon="11.84414"><ele>265.0</ele><time>2026-04-22T16:31:54.049Z</time></trkpt><trkpt lat="43.4013767" lon="11.84415"><ele>265.0</ele><time>2026-04-22T16:31:57.05Z</time></trkpt><trkpt lat="43.4014517" lon="11.844145"><ele>265.0</ele><time>2026-04-22T16:32:00.057Z</time></trkpt><trkpt lat="43.40153" lon="11.8441333"><ele>264.99999999999994</ele><time>2026-04-22T16:32:03.054Z</time></trkpt><trkpt lat="43.4016017" lon="11.8441233"><ele>265.0</ele><time>2026-04-22T16:32:06.054Z</time></trkpt><trkpt lat="43.401665" lon="11.8441033"><ele>265.16666666666663</ele><time>2026-04-22T16:32:09.049Z</time></trkpt><trkpt lat="43.4017317" lon="11.8440683"><ele>265.3333333333333</ele><time>2026-04-22T16:32:13.054Z</time></trkpt><trkpt lat="43.40175" lon="11.8439433"><ele>265.5</ele><time>2026-04-22T16:32:17.052Z</time></trkpt><trkpt lat="43.4017367" lon="11.8438217"><ele>265.6666666666667</ele><time>2026-04-22T16:32:19.056Z</time></trkpt><trkpt lat="43.401725" lon="11.8436833"><ele>265.83333333333337</ele><time>2026-04-22T16:32:21.052Z</time></trkpt><trkpt lat="43.4017183" lon="11.8435917"><ele>266.0</ele><time>2026-04-22T16:32:22.052Z</time></trkpt><trkpt lat="43.4017017" lon="11.843505"><ele>265.83333333333337</ele><time>2026-04-22T16:32:23.054Z</time></trkpt><trkpt lat="43.4016867" lon="11.8434117"><ele>265.6666666666667</ele><time>2026-04-22T16:32:24.053Z</time></trkpt><trkpt lat="43.4016733" lon="11.843325"><ele>265.5</ele><time>2026-04-22T16:32:25.051Z</time></trkpt><trkpt lat="43.4016583" lon="11.84324"><ele>265.3333333333333</ele><time>2026-04-22T16:32:26.052Z</time></trkpt><trkpt lat="43.4016467" lon="11.8431517"><ele>265.16666666666663</ele><time>2026-04-22T16:32:27.05Z</time></trkpt><trkpt lat="43.401635" lon="11.8430617"><ele>265.0</ele><time>2026-04-22T16:32:28.052Z</time></trkpt><trkpt lat="43.40161" lon="11.84289"><ele>265.0</ele><time>2026-04-22T16:32:30.056Z</time></trkpt><trkpt lat="43.4015717" lon="11.8427283"><ele>265.0</ele><time>2026-04-22T16:32:32.052Z</time></trkpt><trkpt lat="43.4015317" lon="11.84257"><ele>265.0</ele><time>2026-04-22T16:32:34.052Z</time></trkpt><trkpt lat="43.4015017" lon="11.842405"><ele>265.0</ele><time>2026-04-22T16:32:36.055Z</time></trkpt><trkpt lat="43.4014867" lon="11.842315"><ele>265.0</ele><time>2026-04-22T16:32:37.054Z</time></trkpt><trkpt lat="43.4014733" lon="11.8422267"><ele>264.57142857142856</ele><time>2026-04-22T16:32:38.052Z</time></trkpt><trkpt lat="43.4014583" lon="11.8421333"><ele>264.1428571428571</ele><time>2026-04-22T16:32:39.052Z</time></trkpt><trkpt lat="43.40144" lon="11.8420417"><ele>263.7142857142857</ele><time>2026-04-22T16:32:40.052Z</time></trkpt><trkpt lat="43.40142" lon="11.841955"><ele>263.2857142857143</ele><time>2026-04-22T16:32:41.051Z</time></trkpt><trkpt lat="43.4014033" lon="11.8418633"><ele>262.8571428571429</ele><time>2026-04-22T16:32:42.05Z</time></trkpt><trkpt lat="43.4013817" lon="11.8417767"><ele>262.42857142857144</ele><time>2026-04-22T16:32:43.05Z</time></trkpt><trkpt lat="43.4013583" lon="11.84169"><ele>262.0</ele><time>2026-04-22T16:32:44.053Z</time></trkpt><trkpt lat="43.40132" lon="11.841535"><ele>261.4</ele><time>2026-04-22T16:32:46.05Z</time></trkpt><trkpt lat="43.4012867" lon="11.84139"><ele>260.79999999999995</ele><time>2026-04-22T16:32:48.049Z</time></trkpt><trkpt lat="43.4012617" lon="11.8412583"><ele>260.2</ele><time>2026-04-22T16:32:50.049Z</time></trkpt><trkpt lat="43.401245" lon="11.8411133"><ele>259.59999999999997</ele><time>2026-04-22T16:32:52.053Z</time></trkpt><trkpt lat="43.4012233" lon="11.8409833"><ele>259.0</ele><time>2026-04-22T16:32:54.051Z</time></trkpt><trkpt lat="43.4011933" lon="11.8408417"><ele>259.0</ele><time>2026-04-22T16:32:56.052Z</time></trkpt><trkpt lat="43.4011833" lon="11.8407067"><ele>259.0</ele><time>2026-04-22T16:32:58.051Z</time></trkpt><trkpt lat="43.40116" lon="11.84058"><ele>259.0</ele><time>2026-04-22T16:33:00.052Z</time></trkpt><trkpt lat="43.4011467" lon="11.8404367"><ele>259.0</ele><time>2026-04-22T16:33:02.052Z</time></trkpt><trkpt lat="43.4011133" lon="11.8402867"><ele>259.0</ele><time>2026-04-22T16:33:04.052Z</time></trkpt><trkpt lat="43.4010867" lon="11.8401233"><ele>258.57142857142856</ele><time>2026-04-22T16:33:06.05Z</time></trkpt><trkpt lat="43.401075" lon="11.8400367"><ele>258.1428571428571</ele><time>2026-04-22T16:33:07.05Z</time></trkpt><trkpt lat="43.4010633" lon="11.83995"><ele>257.7142857142857</ele><time>2026-04-22T16:33:08.051Z</time></trkpt><trkpt lat="43.4010517" lon="11.8398633"><ele>257.2857142857143</ele><time>2026-04-22T16:33:09.051Z</time></trkpt><trkpt lat="43.4010417" lon="11.8397767"><ele>256.85714285714283</ele><time>2026-04-22T16:33:10.051Z</time></trkpt><trkpt lat="43.4010183" lon="11.83961"><ele>256.42857142857144</ele><time>2026-04-22T16:33:12.049Z</time></trkpt><trkpt lat="43.401005" lon="11.839525"><ele>256.0</ele><time>2026-04-22T16:33:13.05Z</time></trkpt><trkpt lat="43.4009817" lon="11.8393583"><ele>255.66666666666666</ele><time>2026-04-22T16:33:15.051Z</time></trkpt><trkpt lat="43.400955" lon="11.8391933"><ele>255.33333333333331</ele><time>2026-04-22T16:33:17.049Z</time></trkpt><trkpt lat="43.40093" lon="11.8390283"><ele>255.0</ele><time>2026-04-22T16:33:19.05Z</time></trkpt><trkpt lat="43.4009217" lon="11.83894"><ele>254.66666666666669</ele><time>2026-04-22T16:33:20.051Z</time></trkpt><trkpt lat="43.400915" lon="11.83885"><ele>254.33333333333334</ele><time>2026-04-22T16:33:21.05Z</time></trkpt><trkpt lat="43.4009017" lon="11.8387617"><ele>254.0</ele><time>2026-04-22T16:33:22.054Z</time></trkpt><trkpt lat="43.400865" lon="11.8386083"><ele>254.00000000000003</ele><time>2026-04-22T16:33:24.049Z</time></trkpt><trkpt lat="43.40084" lon="11.8384967"><ele>254.0</ele><time>2026-04-22T16:33:26.051Z</time></trkpt><trkpt lat="43.4008167" lon="11.8383983"><ele>254.0</ele><time>2026-04-22T16:33:28.052Z</time></trkpt><trkpt lat="43.4008" lon="11.8382783"><ele>254.0</ele><time>2026-04-22T16:33:31.052Z</time></trkpt><trkpt lat="43.4007833" lon="11.838175"><ele>254.00000000000003</ele><time>2026-04-22T16:33:34.05Z</time></trkpt><trkpt lat="43.40077" lon="11.8380767"><ele>254.0</ele><time>2026-04-22T16:33:37.051Z</time></trkpt><trkpt lat="43.40076" lon="11.8379817"><ele>254.0</ele><time>2026-04-22T16:33:40.049Z</time></trkpt><trkpt lat="43.400745" lon="11.8378967"><ele>254.0</ele><time>2026-04-22T16:33:43.051Z</time></trkpt><trkpt lat="43.4007067" lon="11.8378017"><ele>254.0</ele><time>2026-04-22T16:33:47.05Z</time></trkpt><trkpt lat="43.400675" lon="11.8377017"><ele>254.0</ele><time>2026-04-22T16:33:51.055Z</time></trkpt><trkpt lat="43.4006617" lon="11.8376117"><ele>254.0</ele><time>2026-04-22T16:33:55.051Z</time></trkpt><trkpt lat="43.4006417" lon="11.8375167"><ele>254.0</ele><time>2026-04-22T16:33:58.055Z</time></trkpt><trkpt lat="43.40062" lon="11.837425"><ele>254.0</ele><time>2026-04-22T16:34:01.05Z</time></trkpt><trkpt lat="43.4005933" lon="11.837345"><ele>254.0</ele><time>2026-04-22T16:34:04.05Z</time></trkpt><trkpt lat="43.4005717" lon="11.8372333"><ele>253.99999999999997</ele><time>2026-04-22T16:34:07.052Z</time></trkpt><trkpt lat="43.4005567" lon="11.8371283"><ele>253.99999999999997</ele><time>2026-04-22T16:34:09.049Z</time></trkpt><trkpt lat="43.40052" lon="11.8369983"><ele>254.0</ele><time>2026-04-22T16:34:11.052Z</time></trkpt><trkpt lat="43.4004917" lon="11.8368217"><ele>254.0</ele><time>2026-04-22T16:34:13.052Z</time></trkpt><trkpt lat="43.4004783" lon="11.8367183"><ele>253.33333333333334</ele><time>2026-04-22T16:34:14.052Z</time></trkpt><trkpt lat="43.40046" lon="11.8366033"><ele>252.66666666666669</ele><time>2026-04-22T16:34:15.053Z</time></trkpt><trkpt lat="43.40044" lon="11.836485"><ele>252.0</ele><time>2026-04-22T16:34:16.053Z</time></trkpt><trkpt lat="43.4004167" lon="11.8363667"><ele>251.33333333333331</ele><time>2026-04-22T16:34:17.053Z</time></trkpt><trkpt lat="43.4003917" lon="11.8362467"><ele>250.66666666666666</ele><time>2026-04-22T16:34:18.052Z</time></trkpt><trkpt lat="43.4003683" lon="11.8361267"><ele>250.0</ele><time>2026-04-22T16:34:19.049Z</time></trkpt><trkpt lat="43.4003467" lon="11.8360117"><ele>249.85714285714283</ele><time>2026-04-22T16:34:20.053Z</time></trkpt><trkpt lat="43.400325" lon="11.8359017"><ele>249.71428571428572</ele><time>2026-04-22T16:34:21.052Z</time></trkpt><trkpt lat="43.4003017" lon="11.8358067"><ele>249.57142857142856</ele><time>2026-04-22T16:34:22.05Z</time></trkpt><trkpt lat="43.40028" lon="11.8357183"><ele>249.42857142857142</ele><time>2026-04-22T16:34:23.051Z</time></trkpt><trkpt lat="43.40026" lon="11.8356283"><ele>249.28571428571428</ele><time>2026-04-22T16:34:24.053Z</time></trkpt><trkpt lat="43.4002417" lon="11.8355383"><ele>249.14285714285714</ele><time>2026-04-22T16:34:25.051Z</time></trkpt><trkpt lat="43.4002267" lon="11.8354533"><ele>249.0</ele><time>2026-04-22T16:34:26.051Z</time></trkpt><trkpt lat="43.4002083" lon="11.83537"><ele>249.0</ele><time>2026-04-22T16:34:27.05Z</time></trkpt><trkpt lat="43.400175" lon="11.83521"><ele>249.0</ele><time>2026-04-22T16:34:29.055Z</time></trkpt><trkpt lat="43.4001483" lon="11.8350467"><ele>249.0</ele><time>2026-04-22T16:34:31.05Z</time></trkpt><trkpt lat="43.4001283" lon="11.834885"><ele>249.0</ele><time>2026-04-22T16:34:33.051Z</time></trkpt><trkpt lat="43.4000967" lon="11.8347433"><ele>248.79999999999998</ele><time>2026-04-22T16:34:35.049Z</time></trkpt><trkpt lat="43.4000867" lon="11.8346"><ele>248.59999999999997</ele><time>2026-04-22T16:34:37.051Z</time></trkpt><trkpt lat="43.4000667" lon="11.8344767"><ele>248.4</ele><time>2026-04-22T16:34:39.049Z</time></trkpt><trkpt lat="43.400045" lon="11.8343533"><ele>248.2</ele><time>2026-04-22T16:34:41.051Z</time></trkpt><trkpt lat="43.4000233" lon="11.8342383"><ele>248.0</ele><time>2026-04-22T16:34:43.052Z</time></trkpt><trkpt lat="43.40001" lon="11.83412"><ele>247.8</ele><time>2026-04-22T16:34:45.049Z</time></trkpt><trkpt lat="43.3999883" lon="11.834005"><ele>247.60000000000002</ele><time>2026-04-22T16:34:47.049Z</time></trkpt><trkpt lat="43.39997" lon="11.8338867"><ele>247.39999999999998</ele><time>2026-04-22T16:34:49.054Z</time></trkpt><trkpt lat="43.39995" lon="11.8337617"><ele>247.2</ele><time>2026-04-22T16:34:51.051Z</time></trkpt><trkpt lat="43.3999283" lon="11.8336383"><ele>247.0</ele><time>2026-04-22T16:34:53.056Z</time></trkpt><trkpt lat="43.399905" lon="11.833515"><ele>246.6</ele><time>2026-04-22T16:34:55.052Z</time></trkpt><trkpt lat="43.3998767" lon="11.833385"><ele>246.2</ele><time>2026-04-22T16:34:57.049Z</time></trkpt><trkpt lat="43.3998517" lon="11.8332617"><ele>245.8</ele><time>2026-04-22T16:34:59.05Z</time></trkpt><trkpt lat="43.39983" lon="11.8331433"><ele>245.4</ele><time>2026-04-22T16:35:01.048Z</time></trkpt><trkpt lat="43.3998083" lon="11.8330167"><ele>245.0</ele><time>2026-04-22T16:35:03.049Z</time></trkpt><trkpt lat="43.399785" lon="11.8328833"><ele>245.0</ele><time>2026-04-22T16:35:05.051Z</time></trkpt><trkpt lat="43.3997617" lon="11.8327567"><ele>245.0</ele><time>2026-04-22T16:35:07.053Z</time></trkpt><trkpt lat="43.39974" lon="11.832635"><ele>245.0</ele><time>2026-04-22T16:35:09.051Z</time></trkpt><trkpt lat="43.3997167" lon="11.8325167"><ele>245.0</ele><time>2026-04-22T16:35:11.053Z</time></trkpt><trkpt lat="43.3996967" lon="11.832395"><ele>245.0</ele><time>2026-04-22T16:35:13.051Z</time></trkpt><trkpt lat="43.3996783" lon="11.83228"><ele>245.4</ele><time>2026-04-22T16:35:15.049Z</time></trkpt><trkpt lat="43.399655" lon="11.83216"><ele>245.8</ele><time>2026-04-22T16:35:17.05Z</time></trkpt><trkpt lat="43.3996417" lon="11.8320417"><ele>246.2</ele><time>2026-04-22T16:35:19.05Z</time></trkpt><trkpt lat="43.399625" lon="11.8319183"><ele>246.6</ele><time>2026-04-22T16:35:21.053Z</time></trkpt><trkpt lat="43.399605" lon="11.8317883"><ele>247.0</ele><time>2026-04-22T16:35:23.052Z</time></trkpt><trkpt lat="43.3995833" lon="11.83165"><ele>247.0</ele><time>2026-04-22T16:35:25.052Z</time></trkpt><trkpt lat="43.3995583" lon="11.831515"><ele>247.0</ele><time>2026-04-22T16:35:27.052Z</time></trkpt><trkpt lat="43.3995367" lon="11.8313817"><ele>247.0</ele><time>2026-04-22T16:35:29.049Z</time></trkpt><trkpt lat="43.3995133" lon="11.831255"><ele>247.0</ele><time>2026-04-22T16:35:31.051Z</time></trkpt><trkpt lat="43.3994883" lon="11.8311283"><ele>247.0</ele><time>2026-04-22T16:35:33.049Z</time></trkpt><trkpt lat="43.399465" lon="11.8310017"><ele>246.83333333333331</ele><time>2026-04-22T16:35:35.051Z</time></trkpt><trkpt lat="43.3994383" lon="11.8308783"><ele>246.66666666666666</ele><time>2026-04-22T16:35:37.053Z</time></trkpt><trkpt lat="43.3994133" lon="11.83076"><ele>246.5</ele><time>2026-04-22T16:35:39.049Z</time></trkpt><trkpt lat="43.3994033" lon="11.8306467"><ele>246.33333333333331</ele><time>2026-04-22T16:35:41.049Z</time></trkpt><trkpt lat="43.399405" lon="11.8305333"><ele>246.16666666666666</ele><time>2026-04-22T16:35:43.05Z</time></trkpt><trkpt lat="43.3993817" lon="11.8304417"><ele>246.0</ele><time>2026-04-22T16:35:45.051Z</time></trkpt><trkpt lat="43.39935" lon="11.8303483"><ele>246.0</ele><time>2026-04-22T16:35:47.05Z</time></trkpt><trkpt lat="43.3993133" lon="11.830255"><ele>246.0</ele><time>2026-04-22T16:35:49.052Z</time></trkpt><trkpt lat="43.3992833" lon="11.830165"><ele>246.0</ele><time>2026-04-22T16:35:51.051Z</time></trkpt><trkpt lat="43.3992533" lon="11.8300667"><ele>246.0</ele><time>2026-04-22T16:35:53.046Z</time></trkpt><trkpt lat="43.3992333" lon="11.8299633"><ele>246.0</ele><time>2026-04-22T16:35:55.047Z</time></trkpt><trkpt lat="43.3991933" lon="11.8298517"><ele>246.0</ele><time>2026-04-22T16:35:57.052Z</time></trkpt><trkpt lat="43.3991517" lon="11.8297317"><ele>245.8</ele><time>2026-04-22T16:35:59.054Z</time></trkpt><trkpt lat="43.399115" lon="11.8296017"><ele>245.60000000000002</ele><time>2026-04-22T16:36:01.049Z</time></trkpt><trkpt lat="43.3990683" lon="11.8294717"><ele>245.4</ele><time>2026-04-22T16:36:03.054Z</time></trkpt><trkpt lat="43.399025" lon="11.829335"><ele>245.2</ele><time>2026-04-22T16:36:05.051Z</time></trkpt><trkpt lat="43.3989783" lon="11.8292"><ele>245.0</ele><time>2026-04-22T16:36:07.05Z</time></trkpt><trkpt lat="43.3989383" lon="11.8290567"><ele>245.0</ele><time>2026-04-22T16:36:09.051Z</time></trkpt><trkpt lat="43.3989033" lon="11.8289167"><ele>245.0</ele><time>2026-04-22T16:36:11.053Z</time></trkpt><trkpt lat="43.3988817" lon="11.8287783"><ele>245.0</ele><time>2026-04-22T16:36:13.053Z</time></trkpt><trkpt lat="43.398855" lon="11.8286433"><ele>245.0</ele><time>2026-04-22T16:36:15.049Z</time></trkpt><trkpt lat="43.398835" lon="11.8285133"><ele>245.0</ele><time>2026-04-22T16:36:17.05Z</time></trkpt><trkpt lat="43.39882" lon="11.8283933"><ele>245.00000000000003</ele><time>2026-04-22T16:36:19.052Z</time></trkpt><trkpt lat="43.398805" lon="11.8282733"><ele>245.0</ele><time>2026-04-22T16:36:21.05Z</time></trkpt><trkpt lat="43.3987867" lon="11.8281633"><ele>245.0</ele><time>2026-04-22T16:36:23.051Z</time></trkpt><trkpt lat="43.3987683" lon="11.8280567"><ele>245.0</ele><time>2026-04-22T16:36:25.05Z</time></trkpt><trkpt lat="43.3987583" lon="11.8279483"><ele>245.00000000000003</ele><time>2026-04-22T16:36:27.051Z</time></trkpt><trkpt lat="43.3987567" lon="11.827845"><ele>245.0</ele><time>2026-04-22T16:36:29.049Z</time></trkpt><trkpt lat="43.398795" lon="11.82776"><ele>245.0</ele><time>2026-04-22T16:36:31.052Z</time></trkpt><trkpt lat="43.3988633" lon="11.827735"><ele>245.0</ele><time>2026-04-22T16:36:33.05Z</time></trkpt><trkpt lat="43.3989283" lon="11.8277367"><ele>245.0</ele><time>2026-04-22T16:36:35.052Z</time></trkpt><trkpt lat="43.399" lon="11.8277383"><ele>245.0</ele><time>2026-04-22T16:36:37.051Z</time></trkpt><trkpt lat="43.3990717" lon="11.82773"><ele>245.0</ele><time>2026-04-22T16:36:39.05Z</time></trkpt><trkpt lat="43.39915" lon="11.8277133"><ele>245.0</ele><time>2026-04-22T16:36:41.052Z</time></trkpt><trkpt lat="43.3992333" lon="11.8277083"><ele>245.0</ele><time>2026-04-22T16:36:43.049Z</time></trkpt><trkpt lat="43.399315" lon="11.8277167"><ele>245.00000000000003</ele><time>2026-04-22T16:36:45.046Z</time></trkpt><trkpt lat="43.3993917" lon="11.82771"><ele>245.0</ele><time>2026-04-22T16:36:47.05Z</time></trkpt><trkpt lat="43.39947" lon="11.8276967"><ele>245.0</ele><time>2026-04-22T16:36:49.051Z</time></trkpt><trkpt lat="43.3995517" lon="11.827685"><ele>245.0</ele><time>2026-04-22T16:36:51.05Z</time></trkpt><trkpt lat="43.3996283" lon="11.8276717"><ele>245.00000000000003</ele><time>2026-04-22T16:36:53.05Z</time></trkpt><trkpt lat="43.3997178" lon="11.8276605"><ele>245.0</ele><time>2026-04-22T16:36:55.19Z</time></trkpt><trkpt lat="43.3998026" lon="11.8276497"><ele>245.00000000000003</ele><time>2026-04-22T16:36:57.183Z</time></trkpt><trkpt lat="43.3998826" lon="11.8276376"><ele>245.0</ele><time>2026-04-22T16:36:59.176Z</time></trkpt><trkpt lat="43.3999645" lon="11.8276262"><ele>245.0</ele><time>2026-04-22T16:37:01.169Z</time></trkpt><trkpt lat="43.4000429" lon="11.8276028"><ele>245.0</ele><time>2026-04-22T16:37:03.017Z</time></trkpt><trkpt lat="43.400131" lon="11.8275676"><ele>245.00000000000003</ele><time>2026-04-22T16:37:05.559Z</time></trkpt><trkpt lat="43.4002226" lon="11.8274923"><ele>245.0</ele><time>2026-04-22T16:37:07.735Z</time></trkpt><trkpt lat="43.4003176" lon="11.8274181"><ele>245.00000000000003</ele><time>2026-04-22T16:37:10.198Z</time></trkpt><trkpt lat="43.4003896" lon="11.827368"><ele>245.0</ele><time>2026-04-22T16:37:12.189Z</time></trkpt><trkpt lat="43.4004653" lon="11.8273091"><ele>245.0</ele><time>2026-04-22T16:37:14.079Z</time></trkpt><trkpt lat="43.4005414" lon="11.8272602"><ele>245.0</ele><time>2026-04-22T16:37:16.081Z</time></trkpt><trkpt lat="43.4006141" lon="11.8272014"><ele>245.00000000000003</ele><time>2026-04-22T16:37:18.168Z</time></trkpt><trkpt lat="43.4006833" lon="11.8271483"><ele>245.0</ele><time>2026-04-22T16:37:20.054Z</time></trkpt><trkpt lat="43.4007583" lon="11.8271"><ele>245.00000000000003</ele><time>2026-04-22T16:37:22.052Z</time></trkpt><trkpt lat="43.4008267" lon="11.8270467"><ele>245.0</ele><time>2026-04-22T16:37:24.049Z</time></trkpt><trkpt lat="43.4009045" lon="11.8269938"><ele>245.0</ele><time>2026-04-22T16:37:26.14Z</time></trkpt><trkpt lat="43.4009763" lon="11.8269509"><ele>245.0</ele><time>2026-04-22T16:37:28.156Z</time></trkpt><trkpt lat="43.4010349" lon="11.8269151"><ele>245.00000000000003</ele><time>2026-04-22T16:37:30.126Z</time></trkpt><trkpt lat="43.4011019" lon="11.8268781"><ele>245.0</ele><time>2026-04-22T16:37:31.958Z</time></trkpt><trkpt lat="43.4011766" lon="11.8268501"><ele>245.16666666666669</ele><time>2026-04-22T16:37:34.112Z</time></trkpt><trkpt lat="43.4012473" lon="11.8268057"><ele>245.33333333333334</ele><time>2026-04-22T16:37:36.105Z</time></trkpt><trkpt lat="43.4013196" lon="11.826753"><ele>245.5</ele><time>2026-04-22T16:37:38.098Z</time></trkpt><trkpt lat="43.4013914" lon="11.8267001"><ele>245.66666666666669</ele><time>2026-04-22T16:37:40.053Z</time></trkpt><trkpt lat="43.401475" lon="11.8266442"><ele>245.83333333333334</ele><time>2026-04-22T16:37:42.117Z</time></trkpt><trkpt lat="43.4015547" lon="11.8265744"><ele>246.0</ele><time>2026-04-22T16:37:44.05Z</time></trkpt><trkpt lat="43.4016433" lon="11.8264896"><ele>246.0</ele><time>2026-04-22T16:37:46.05Z</time></trkpt><trkpt lat="43.4017371" lon="11.8264041"><ele>246.00000000000003</ele><time>2026-04-22T16:37:48.05Z</time></trkpt><trkpt lat="43.4018312" lon="11.8263238"><ele>246.00000000000003</ele><time>2026-04-22T16:37:50.05Z</time></trkpt><trkpt lat="43.4019241" lon="11.8262453"><ele>246.0</ele><time>2026-04-22T16:37:52.051Z</time></trkpt><trkpt lat="43.4020183" lon="11.8261703"><ele>246.0</ele><time>2026-04-22T16:37:54.052Z</time></trkpt><trkpt lat="43.4021082" lon="11.8261037"><ele>245.60000000000002</ele><time>2026-04-22T16:37:56.05Z</time></trkpt><trkpt lat="43.4021901" lon="11.8260443"><ele>245.20000000000002</ele><time>2026-04-22T16:37:58.051Z</time></trkpt><trkpt lat="43.4022787" lon="11.8259714"><ele>244.79999999999998</ele><time>2026-04-22T16:38:00.051Z</time></trkpt><trkpt lat="43.4023692" lon="11.8258838"><ele>244.39999999999998</ele><time>2026-04-22T16:38:02.049Z</time></trkpt><trkpt lat="43.402458" lon="11.8258106"><ele>244.0</ele><time>2026-04-22T16:38:04.051Z</time></trkpt><trkpt lat="43.4025422" lon="11.8257368"><ele>244.0</ele><time>2026-04-22T16:38:06.051Z</time></trkpt><trkpt lat="43.4026244" lon="11.8256689"><ele>243.99999999999997</ele><time>2026-04-22T16:38:08.05Z</time></trkpt><trkpt lat="43.4027097" lon="11.8256022"><ele>243.99999999999997</ele><time>2026-04-22T16:38:10.049Z</time></trkpt><trkpt lat="43.4027935" lon="11.8255345"><ele>244.0</ele><time>2026-04-22T16:38:12.052Z</time></trkpt><trkpt lat="43.4028814" lon="11.8254561"><ele>244.0</ele><time>2026-04-22T16:38:14.049Z</time></trkpt><trkpt lat="43.4029678" lon="11.8253809"><ele>244.0</ele><time>2026-04-22T16:38:16.05Z</time></trkpt><trkpt lat="43.4030562" lon="11.8253224"><ele>243.99999999999997</ele><time>2026-04-22T16:38:18.051Z</time></trkpt><trkpt lat="43.4031432" lon="11.8252511"><ele>243.99999999999997</ele><time>2026-04-22T16:38:20.05Z</time></trkpt><trkpt lat="43.4032283" lon="11.8251667"><ele>244.0</ele><time>2026-04-22T16:38:22.049Z</time></trkpt><trkpt lat="43.403315" lon="11.82509"><ele>244.0</ele><time>2026-04-22T16:38:24.05Z</time></trkpt><trkpt lat="43.4034033" lon="11.8250167"><ele>243.99999999999997</ele><time>2026-04-22T16:38:26.049Z</time></trkpt><trkpt lat="43.40349" lon="11.8249467"><ele>244.0</ele><time>2026-04-22T16:38:28.051Z</time></trkpt><trkpt lat="43.4035717" lon="11.8248817"><ele>244.0</ele><time>2026-04-22T16:38:30.05Z</time></trkpt><trkpt lat="43.4036483" lon="11.824825"><ele>244.0</ele><time>2026-04-22T16:38:32.052Z</time></trkpt><trkpt lat="43.403715" lon="11.82477"><ele>243.99999999999997</ele><time>2026-04-22T16:38:34.051Z</time></trkpt><trkpt lat="43.4037867" lon="11.8247083"><ele>244.0</ele><time>2026-04-22T16:38:36.051Z</time></trkpt><trkpt lat="43.4038583" lon="11.824645"><ele>243.99999999999997</ele><time>2026-04-22T16:38:38.052Z</time></trkpt><trkpt lat="43.4039317" lon="11.8245983"><ele>244.0</ele><time>2026-04-22T16:38:40.049Z</time></trkpt><trkpt lat="43.4040133" lon="11.8245717"><ele>244.0</ele><time>2026-04-22T16:38:42.051Z</time></trkpt><trkpt lat="43.4041033" lon="11.824555"><ele>244.0</ele><time>2026-04-22T16:38:44.051Z</time></trkpt><trkpt lat="43.4041933" lon="11.82454"><ele>243.99999999999997</ele><time>2026-04-22T16:38:46.053Z</time></trkpt><trkpt lat="43.4042817" lon="11.8245517"><ele>244.0</ele><time>2026-04-22T16:38:48.05Z</time></trkpt><trkpt lat="43.40437" lon="11.8245667"><ele>244.0</ele><time>2026-04-22T16:38:50.05Z</time></trkpt><trkpt lat="43.404505" lon="11.8245933"><ele>243.99999999999997</ele><time>2026-04-22T16:38:53.051Z</time></trkpt><trkpt lat="43.4046" lon="11.8246083"><ele>243.99999999999997</ele><time>2026-04-22T16:38:55.048Z</time></trkpt><trkpt lat="43.40469" lon="11.8246217"><ele>244.0</ele><time>2026-04-22T16:38:57.05Z</time></trkpt><trkpt lat="43.40479" lon="11.8246217"><ele>244.0</ele><time>2026-04-22T16:38:59.049Z</time></trkpt><trkpt lat="43.4048833" lon="11.82463"><ele>244.0</ele><time>2026-04-22T16:39:01.05Z</time></trkpt><trkpt lat="43.4049783" lon="11.8246417"><ele>243.99999999999997</ele><time>2026-04-22T16:39:03.05Z</time></trkpt><trkpt lat="43.4050733" lon="11.8246583"><ele>243.99999999999997</ele><time>2026-04-22T16:39:05.051Z</time></trkpt><trkpt lat="43.4051683" lon="11.824675"><ele>244.0</ele><time>2026-04-22T16:39:07.051Z</time></trkpt><trkpt lat="43.405265" lon="11.8246883"><ele>244.0</ele><time>2026-04-22T16:39:09.05Z</time></trkpt><trkpt lat="43.4053617" lon="11.8246967"><ele>244.0</ele><time>2026-04-22T16:39:11.05Z</time></trkpt><trkpt lat="43.4054567" lon="11.8247083"><ele>243.99999999999997</ele><time>2026-04-22T16:39:13.052Z</time></trkpt><trkpt lat="43.4055517" lon="11.8247317"><ele>243.99999999999997</ele><time>2026-04-22T16:39:15.049Z</time></trkpt><trkpt lat="43.405645" lon="11.8247667"><ele>244.0</ele><time>2026-04-22T16:39:17.049Z</time></trkpt><trkpt lat="43.405735" lon="11.824805"><ele>244.0</ele><time>2026-04-22T16:39:19.051Z</time></trkpt><trkpt lat="43.4058233" lon="11.824845"><ele>244.0</ele><time>2026-04-22T16:39:21.05Z</time></trkpt><trkpt lat="43.4059083" lon="11.82489"><ele>243.99999999999997</ele><time>2026-04-22T16:39:23.049Z</time></trkpt><trkpt lat="43.4059983" lon="11.8249317"><ele>243.99999999999997</ele><time>2026-04-22T16:39:25.05Z</time></trkpt><trkpt lat="43.406085" lon="11.8249733"><ele>244.0</ele><time>2026-04-22T16:39:27.054Z</time></trkpt><trkpt lat="43.4061717" lon="11.8250117"><ele>244.0</ele><time>2026-04-22T16:39:29.051Z</time></trkpt><trkpt lat="43.4062633" lon="11.8250483"><ele>243.6</ele><time>2026-04-22T16:39:31.05Z</time></trkpt><trkpt lat="43.4063517" lon="11.8250917"><ele>243.2</ele><time>2026-04-22T16:39:33.048Z</time></trkpt><trkpt lat="43.4064433" lon="11.82514"><ele>242.79999999999998</ele><time>2026-04-22T16:39:35.05Z</time></trkpt><trkpt lat="43.4065317" lon="11.82518"><ele>242.39999999999998</ele><time>2026-04-22T16:39:37.05Z</time></trkpt><trkpt lat="43.4066183" lon="11.8252217"><ele>242.0</ele><time>2026-04-22T16:39:39.05Z</time></trkpt><trkpt lat="43.4067" lon="11.8252683"><ele>242.0</ele><time>2026-04-22T16:39:41.051Z</time></trkpt><trkpt lat="43.4067867" lon="11.8253183"><ele>242.0</ele><time>2026-04-22T16:39:43.049Z</time></trkpt><trkpt lat="43.40688" lon="11.82536"><ele>242.0</ele><time>2026-04-22T16:39:45.051Z</time></trkpt><trkpt lat="43.4069683" lon="11.8253817"><ele>242.0</ele><time>2026-04-22T16:39:47.049Z</time></trkpt><trkpt lat="43.4070667" lon="11.8253683"><ele>242.0</ele><time>2026-04-22T16:39:49.051Z</time></trkpt><trkpt lat="43.4071583" lon="11.8253283"><ele>242.0</ele><time>2026-04-22T16:39:51.049Z</time></trkpt><trkpt lat="43.4072417" lon="11.8252883"><ele>242.0</ele><time>2026-04-22T16:39:53.049Z</time></trkpt><trkpt lat="43.4073233" lon="11.82524"><ele>242.0</ele><time>2026-04-22T16:39:55.053Z</time></trkpt><trkpt lat="43.4074083" lon="11.825195"><ele>242.0</ele><time>2026-04-22T16:39:57.054Z</time></trkpt><trkpt lat="43.407495" lon="11.8251483"><ele>242.0</ele><time>2026-04-22T16:39:59.051Z</time></trkpt><trkpt lat="43.40758" lon="11.8251017"><ele>242.0</ele><time>2026-04-22T16:40:01.054Z</time></trkpt><trkpt lat="43.4076683" lon="11.82507"><ele>242.0</ele><time>2026-04-22T16:40:03.054Z</time></trkpt><trkpt lat="43.4077617" lon="11.8250267"><ele>242.0</ele><time>2026-04-22T16:40:05.054Z</time></trkpt><trkpt lat="43.4078567" lon="11.8249783"><ele>242.0</ele><time>2026-04-22T16:40:07.051Z</time></trkpt><trkpt lat="43.40795" lon="11.8249333"><ele>242.0</ele><time>2026-04-22T16:40:09.051Z</time></trkpt><trkpt lat="43.4080433" lon="11.8248867"><ele>242.39999999999998</ele><time>2026-04-22T16:40:11.051Z</time></trkpt><trkpt lat="43.4081333" lon="11.8248367"><ele>242.79999999999998</ele><time>2026-04-22T16:40:13.051Z</time></trkpt><trkpt lat="43.40822" lon="11.824795"><ele>243.2</ele><time>2026-04-22T16:40:15.052Z</time></trkpt><trkpt lat="43.4083067" lon="11.824745"><ele>243.6</ele><time>2026-04-22T16:40:17.053Z</time></trkpt><trkpt lat="43.4083867" lon="11.8246967"><ele>244.0</ele><time>2026-04-22T16:40:19.052Z</time></trkpt><trkpt lat="43.4084683" lon="11.824655"><ele>243.99999999999997</ele><time>2026-04-22T16:40:21.052Z</time></trkpt><trkpt lat="43.40855" lon="11.824615"><ele>244.0</ele><time>2026-04-22T16:40:23.051Z</time></trkpt><trkpt lat="43.408635" lon="11.8245717"><ele>244.0</ele><time>2026-04-22T16:40:25.052Z</time></trkpt><trkpt lat="43.4087183" lon="11.8245233"><ele>244.0</ele><time>2026-04-22T16:40:27.051Z</time></trkpt><trkpt lat="43.4088033" lon="11.8244883"><ele>243.99999999999997</ele><time>2026-04-22T16:40:29.05Z</time></trkpt><trkpt lat="43.40889" lon="11.8244467"><ele>244.0</ele><time>2026-04-22T16:40:31.05Z</time></trkpt><trkpt lat="43.4089733" lon="11.8244017"><ele>244.0</ele><time>2026-04-22T16:40:33.049Z</time></trkpt><trkpt lat="43.4090583" lon="11.8243633"><ele>243.99999999999997</ele><time>2026-04-22T16:40:35.05Z</time></trkpt><trkpt lat="43.4091432" lon="11.8243193"><ele>243.99999999999997</ele><time>2026-04-22T16:40:37.052Z</time></trkpt><trkpt lat="43.4092738" lon="11.8242505"><ele>244.0</ele><time>2026-04-22T16:40:40.054Z</time></trkpt><trkpt lat="43.4093683" lon="11.8241933"><ele>244.0</ele><time>2026-04-22T16:40:42.049Z</time></trkpt><trkpt lat="43.4094533" lon="11.8241517"><ele>244.0</ele><time>2026-04-22T16:40:44.05Z</time></trkpt><trkpt lat="43.4095333" lon="11.824105"><ele>243.99999999999997</ele><time>2026-04-22T16:40:46.049Z</time></trkpt><trkpt lat="43.4096183" lon="11.8240633"><ele>243.99999999999997</ele><time>2026-04-22T16:40:48.051Z</time></trkpt><trkpt lat="43.4097033" lon="11.8240117"><ele>244.0</ele><time>2026-04-22T16:40:50.052Z</time></trkpt><trkpt lat="43.4097783" lon="11.8239283"><ele>244.0</ele><time>2026-04-22T16:40:52.049Z</time></trkpt><trkpt lat="43.4098217" lon="11.8238133"><ele>243.79999999999998</ele><time>2026-04-22T16:40:54.052Z</time></trkpt><trkpt lat="43.409835" lon="11.823685"><ele>243.59999999999997</ele><time>2026-04-22T16:40:56.052Z</time></trkpt><trkpt lat="43.4098367" lon="11.8235583"><ele>243.4</ele><time>2026-04-22T16:40:58.05Z</time></trkpt><trkpt lat="43.409835" lon="11.8234267"><ele>243.2</ele><time>2026-04-22T16:41:00.049Z</time></trkpt><trkpt lat="43.4098367" lon="11.8232933"><ele>243.0</ele><time>2026-04-22T16:41:02.051Z</time></trkpt><trkpt lat="43.409865" lon="11.823165"><ele>243.0</ele><time>2026-04-22T16:41:04.049Z</time></trkpt><trkpt lat="43.40993" lon="11.8230833"><ele>243.0</ele><time>2026-04-22T16:41:06.053Z</time></trkpt><trkpt lat="43.410015" lon="11.823025"><ele>243.0</ele><time>2026-04-22T16:41:08.051Z</time></trkpt><trkpt lat="43.4101" lon="11.82297"><ele>243.0</ele><time>2026-04-22T16:41:10.048Z</time></trkpt><trkpt lat="43.4101867" lon="11.8229183"><ele>243.0</ele><time>2026-04-22T16:41:12.052Z</time></trkpt><trkpt lat="43.410275" lon="11.8228783"><ele>243.0</ele><time>2026-04-22T16:41:14.053Z</time></trkpt><trkpt lat="43.410365" lon="11.822835"><ele>243.0</ele><time>2026-04-22T16:41:16.05Z</time></trkpt><trkpt lat="43.4104533" lon="11.822785"><ele>243.0</ele><time>2026-04-22T16:41:18.054Z</time></trkpt><trkpt lat="43.4105383" lon="11.822735"><ele>243.0</ele><time>2026-04-22T16:41:20.05Z</time></trkpt><trkpt lat="43.410625" lon="11.8226933"><ele>243.0</ele><time>2026-04-22T16:41:22.051Z</time></trkpt><trkpt lat="43.4107017" lon="11.822635"><ele>243.0</ele><time>2026-04-22T16:41:24.051Z</time></trkpt><trkpt lat="43.410755" lon="11.8225383"><ele>243.0</ele><time>2026-04-22T16:41:26.052Z</time></trkpt><trkpt lat="43.410795" lon="11.8224167"><ele>243.0</ele><time>2026-04-22T16:41:28.052Z</time></trkpt><trkpt lat="43.4108333" lon="11.822295"><ele>243.0</ele><time>2026-04-22T16:41:30.05Z</time></trkpt><trkpt lat="43.41087" lon="11.8221783"><ele>243.0</ele><time>2026-04-22T16:41:32.051Z</time></trkpt><trkpt lat="43.4109033" lon="11.8220483"><ele>243.0</ele><time>2026-04-22T16:41:34.053Z</time></trkpt><trkpt lat="43.4109433" lon="11.8219167"><ele>243.0</ele><time>2026-04-22T16:41:36.049Z</time></trkpt><trkpt lat="43.4109833" lon="11.8217833"><ele>243.0</ele><time>2026-04-22T16:41:38.051Z</time></trkpt><trkpt lat="43.4110217" lon="11.82165"><ele>243.0</ele><time>2026-04-22T16:41:40.049Z</time></trkpt><trkpt lat="43.41106" lon="11.8215167"><ele>243.0</ele><time>2026-04-22T16:41:42.051Z</time></trkpt><trkpt lat="43.411095" lon="11.82139"><ele>242.8</ele><time>2026-04-22T16:41:44.049Z</time></trkpt><trkpt lat="43.411135" lon="11.8212683"><ele>242.60000000000002</ele><time>2026-04-22T16:41:46.05Z</time></trkpt><trkpt lat="43.4111767" lon="11.821145"><ele>242.39999999999998</ele><time>2026-04-22T16:41:48.049Z</time></trkpt><trkpt lat="43.4112117" lon="11.821015"><ele>242.2</ele><time>2026-04-22T16:41:50.051Z</time></trkpt><trkpt lat="43.411235" lon="11.8208817"><ele>242.0</ele><time>2026-04-22T16:41:52.048Z</time></trkpt><trkpt lat="43.4112467" lon="11.820755"><ele>242.39999999999998</ele><time>2026-04-22T16:41:54.049Z</time></trkpt><trkpt lat="43.4112533" lon="11.8206183"><ele>242.79999999999998</ele><time>2026-04-22T16:41:56.051Z</time></trkpt><trkpt lat="43.4112633" lon="11.8204883"><ele>243.2</ele><time>2026-04-22T16:41:58.051Z</time></trkpt><trkpt lat="43.4112883" lon="11.8203667"><ele>243.6</ele><time>2026-04-22T16:42:00.05Z</time></trkpt><trkpt lat="43.4113383" lon="11.82027"><ele>244.0</ele><time>2026-04-22T16:42:02.051Z</time></trkpt><trkpt lat="43.4114133" lon="11.8201817"><ele>244.0</ele><time>2026-04-22T16:42:04.049Z</time></trkpt><trkpt lat="43.411495" lon="11.82011"><ele>243.99999999999997</ele><time>2026-04-22T16:42:06.048Z</time></trkpt><trkpt lat="43.4115833" lon="11.8200433"><ele>243.99999999999997</ele><time>2026-04-22T16:42:08.05Z</time></trkpt><trkpt lat="43.4116633" lon="11.8199683"><ele>244.0</ele><time>2026-04-22T16:42:10.051Z</time></trkpt><trkpt lat="43.411745" lon="11.8198967"><ele>244.0</ele><time>2026-04-22T16:42:12.047Z</time></trkpt><trkpt lat="43.4118283" lon="11.8198233"><ele>244.0</ele><time>2026-04-22T16:42:14.051Z</time></trkpt><trkpt lat="43.4119033" lon="11.819755"><ele>243.99999999999997</ele><time>2026-04-22T16:42:16.051Z</time></trkpt><trkpt lat="43.41198" lon="11.819695"><ele>243.99999999999997</ele><time>2026-04-22T16:42:18.049Z</time></trkpt><trkpt lat="43.412065" lon="11.8196233"><ele>244.0</ele><time>2026-04-22T16:42:20.057Z</time></trkpt><trkpt lat="43.412155" lon="11.8195683"><ele>244.0</ele><time>2026-04-22T16:42:22.049Z</time></trkpt><trkpt lat="43.41224" lon="11.8195"><ele>244.0</ele><time>2026-04-22T16:42:24.049Z</time></trkpt><trkpt lat="43.412325" lon="11.819435"><ele>243.99999999999997</ele><time>2026-04-22T16:42:26.052Z</time></trkpt><trkpt lat="43.412415" lon="11.8193733"><ele>243.99999999999997</ele><time>2026-04-22T16:42:28.049Z</time></trkpt><trkpt lat="43.4125117" lon="11.81932"><ele>244.0</ele><time>2026-04-22T16:42:30.049Z</time></trkpt><trkpt lat="43.412605" lon="11.8192867"><ele>244.0</ele><time>2026-04-22T16:42:32.051Z</time></trkpt><trkpt lat="43.4127033" lon="11.8192717"><ele>244.0</ele><time>2026-04-22T16:42:34.051Z</time></trkpt><trkpt lat="43.4128" lon="11.8192783"><ele>243.99999999999997</ele><time>2026-04-22T16:42:36.051Z</time></trkpt><trkpt lat="43.412895" lon="11.819305"><ele>243.99999999999997</ele><time>2026-04-22T16:42:38.05Z</time></trkpt><trkpt lat="43.4129917" lon="11.8193267"><ele>244.0</ele><time>2026-04-22T16:42:40.049Z</time></trkpt><trkpt lat="43.4130833" lon="11.8193517"><ele>244.0</ele><time>2026-04-22T16:42:42.049Z</time></trkpt><trkpt lat="43.41317" lon="11.81937"><ele>244.0</ele><time>2026-04-22T16:42:44.054Z</time></trkpt><trkpt lat="43.413265" lon="11.819395"><ele>243.99999999999997</ele><time>2026-04-22T16:42:46.059Z</time></trkpt><trkpt lat="43.4133583" lon="11.819425"><ele>243.99999999999997</ele><time>2026-04-22T16:42:48.049Z</time></trkpt><trkpt lat="43.413455" lon="11.8194517"><ele>244.0</ele><time>2026-04-22T16:42:50.05Z</time></trkpt><trkpt lat="43.4135567" lon="11.8194767"><ele>244.0</ele><time>2026-04-22T16:42:52.049Z</time></trkpt><trkpt lat="43.4136567" lon="11.8194967"><ele>244.0</ele><time>2026-04-22T16:42:54.049Z</time></trkpt><trkpt lat="43.4137533" lon="11.8195217"><ele>243.99999999999997</ele><time>2026-04-22T16:42:56.05Z</time></trkpt><trkpt lat="43.4138467" lon="11.819545"><ele>243.99999999999997</ele><time>2026-04-22T16:42:58.048Z</time></trkpt><trkpt lat="43.413945" lon="11.8195717"><ele>244.0</ele><time>2026-04-22T16:43:00.049Z</time></trkpt><trkpt lat="43.4140383" lon="11.8195983"><ele>244.0</ele><time>2026-04-22T16:43:02.05Z</time></trkpt><trkpt lat="43.4141283" lon="11.8196183"><ele>243.79999999999998</ele><time>2026-04-22T16:43:04.048Z</time></trkpt><trkpt lat="43.414225" lon="11.8196367"><ele>243.59999999999997</ele><time>2026-04-22T16:43:06.05Z</time></trkpt><trkpt lat="43.4143167" lon="11.8196583"><ele>243.4</ele><time>2026-04-22T16:43:08.051Z</time></trkpt><trkpt lat="43.4144117" lon="11.81968"><ele>243.2</ele><time>2026-04-22T16:43:10.051Z</time></trkpt><trkpt lat="43.4145067" lon="11.8197033"><ele>243.0</ele><time>2026-04-22T16:43:12.05Z</time></trkpt><trkpt lat="43.414605" lon="11.819725"><ele>242.8</ele><time>2026-04-22T16:43:14.052Z</time></trkpt><trkpt lat="43.4147017" lon="11.8197367"><ele>242.60000000000002</ele><time>2026-04-22T16:43:16.051Z</time></trkpt><trkpt lat="43.4147983" lon="11.819745"><ele>242.39999999999998</ele><time>2026-04-22T16:43:18.051Z</time></trkpt><trkpt lat="43.4148983" lon="11.8197483"><ele>242.2</ele><time>2026-04-22T16:43:20.051Z</time></trkpt><trkpt lat="43.4149933" lon="11.819775"><ele>242.0</ele><time>2026-04-22T16:43:22.055Z</time></trkpt><trkpt lat="43.4150883" lon="11.8198317"><ele>242.0</ele><time>2026-04-22T16:43:24.051Z</time></trkpt><trkpt lat="43.415155" lon="11.819935"><ele>242.0</ele><time>2026-04-22T16:43:26.054Z</time></trkpt><trkpt lat="43.4151917" lon="11.8200517"><ele>242.0</ele><time>2026-04-22T16:43:28.05Z</time></trkpt><trkpt lat="43.4152233" lon="11.8201767"><ele>242.0</ele><time>2026-04-22T16:43:30.051Z</time></trkpt><trkpt lat="43.415255" lon="11.8203"><ele>242.0</ele><time>2026-04-22T16:43:32.052Z</time></trkpt><trkpt lat="43.4153117" lon="11.8203883"><ele>242.16666666666669</ele><time>2026-04-22T16:43:34.053Z</time></trkpt><trkpt lat="43.4153883" lon="11.8204183"><ele>242.33333333333334</ele><time>2026-04-22T16:43:36.051Z</time></trkpt><trkpt lat="43.41547" lon="11.8203967"><ele>242.5</ele><time>2026-04-22T16:43:38.056Z</time></trkpt><trkpt lat="43.415555" lon="11.8203717"><ele>242.66666666666669</ele><time>2026-04-22T16:43:40.053Z</time></trkpt><trkpt lat="43.4156417" lon="11.8203467"><ele>242.83333333333334</ele><time>2026-04-22T16:43:42.051Z</time></trkpt><trkpt lat="43.4157333" lon="11.8203167"><ele>243.0</ele><time>2026-04-22T16:43:44.053Z</time></trkpt><trkpt lat="43.4158267" lon="11.8202817"><ele>243.2</ele><time>2026-04-22T16:43:46.051Z</time></trkpt><trkpt lat="43.4159217" lon="11.8202533"><ele>243.4</ele><time>2026-04-22T16:43:48.052Z</time></trkpt><trkpt lat="43.4160167" lon="11.820225"><ele>243.59999999999997</ele><time>2026-04-22T16:43:50.051Z</time></trkpt><trkpt lat="43.41611" lon="11.8202"><ele>243.79999999999998</ele><time>2026-04-22T16:43:52.051Z</time></trkpt><trkpt lat="43.4162033" lon="11.8201767"><ele>244.0</ele><time>2026-04-22T16:43:54.05Z</time></trkpt><trkpt lat="43.416295" lon="11.820155"><ele>244.0</ele><time>2026-04-22T16:43:56.05Z</time></trkpt><trkpt lat="43.4163883" lon="11.8201333"><ele>243.99999999999997</ele><time>2026-04-22T16:43:58.052Z</time></trkpt><trkpt lat="43.4164783" lon="11.82011"><ele>243.99999999999997</ele><time>2026-04-22T16:44:00.05Z</time></trkpt><trkpt lat="43.416565" lon="11.82009"><ele>244.0</ele><time>2026-04-22T16:44:02.054Z</time></trkpt><trkpt lat="43.4166517" lon="11.8200667"><ele>244.0</ele><time>2026-04-22T16:44:04.051Z</time></trkpt><trkpt lat="43.4167417" lon="11.820045"><ele>243.99999999999997</ele><time>2026-04-22T16:44:06.049Z</time></trkpt><trkpt lat="43.4168333" lon="11.8200233"><ele>244.0</ele><time>2026-04-22T16:44:08.052Z</time></trkpt><trkpt lat="43.416915" lon="11.81999"><ele>244.0</ele><time>2026-04-22T16:44:10.051Z</time></trkpt><trkpt lat="43.41699" lon="11.8199717"><ele>244.0</ele><time>2026-04-22T16:44:12.052Z</time></trkpt><trkpt lat="43.417075" lon="11.8199483"><ele>243.99999999999997</ele><time>2026-04-22T16:44:15.051Z</time></trkpt><trkpt lat="43.41715" lon="11.8199533"><ele>244.0</ele><time>2026-04-22T16:44:18.051Z</time></trkpt><trkpt lat="43.4172267" lon="11.8199517"><ele>243.99999999999997</ele><time>2026-04-22T16:44:21.051Z</time></trkpt><trkpt lat="43.4172967" lon="11.8199317"><ele>244.0</ele><time>2026-04-22T16:44:24.05Z</time></trkpt><trkpt lat="43.4173833" lon="11.8199133"><ele>244.0</ele><time>2026-04-22T16:44:27.052Z</time></trkpt><trkpt lat="43.4174767" lon="11.8198983"><ele>244.0</ele><time>2026-04-22T16:44:30.051Z</time></trkpt><trkpt lat="43.4175633" lon="11.8198683"><ele>243.99999999999997</ele><time>2026-04-22T16:44:33.053Z</time></trkpt><trkpt lat="43.4176517" lon="11.81983"><ele>244.0</ele><time>2026-04-22T16:44:36.052Z</time></trkpt><trkpt lat="43.41772" lon="11.8198083"><ele>243.99999999999997</ele><time>2026-04-22T16:44:38.054Z</time></trkpt><trkpt lat="43.4177867" lon="11.8197917"><ele>244.0</ele><time>2026-04-22T16:44:40.051Z</time></trkpt><trkpt lat="43.41786" lon="11.8197683"><ele>243.99999999999997</ele><time>2026-04-22T16:44:42.049Z</time></trkpt><trkpt lat="43.4179333" lon="11.8197517"><ele>243.99999999999997</ele><time>2026-04-22T16:44:44.05Z</time></trkpt><trkpt lat="43.4180033" lon="11.8197433"><ele>244.0</ele><time>2026-04-22T16:44:46.05Z</time></trkpt><trkpt lat="43.41808" lon="11.8197133"><ele>243.99999999999997</ele><time>2026-04-22T16:44:48.05Z</time></trkpt><trkpt lat="43.4181483" lon="11.81969"><ele>243.99999999999997</ele><time>2026-04-22T16:44:50.05Z</time></trkpt><trkpt lat="43.418215" lon="11.8196717"><ele>243.99999999999997</ele><time>2026-04-22T16:44:52.051Z</time></trkpt><trkpt lat="43.41828" lon="11.819645"><ele>244.0</ele><time>2026-04-22T16:44:54.051Z</time></trkpt><trkpt lat="43.4183417" lon="11.8196133"><ele>243.99999999999997</ele><time>2026-04-22T16:44:56.053Z</time></trkpt><trkpt lat="43.4184" lon="11.8195767"><ele>243.99999999999997</ele><time>2026-04-22T16:44:58.051Z</time></trkpt><trkpt lat="43.4184667" lon="11.8195033"><ele>244.0</ele><time>2026-04-22T16:45:01.053Z</time></trkpt><trkpt lat="43.4184883" lon="11.8194133"><ele>243.99999999999997</ele><time>2026-04-22T16:45:03.05Z</time></trkpt><trkpt lat="43.4184867" lon="11.8193217"><ele>243.99999999999997</ele><time>2026-04-22T16:45:05.053Z</time></trkpt><trkpt lat="43.4184583" lon="11.8192417"><ele>244.28571428571425</ele><time>2026-04-22T16:45:07.05Z</time></trkpt><trkpt lat="43.4184367" lon="11.819145"><ele>244.57142857142856</ele><time>2026-04-22T16:45:10.049Z</time></trkpt><trkpt lat="43.41841" lon="11.8190567"><ele>244.85714285714286</ele><time>2026-04-22T16:45:13.051Z</time></trkpt><trkpt lat="43.41837" lon="11.81898"><ele>245.14285714285714</ele><time>2026-04-22T16:45:16.049Z</time></trkpt><trkpt lat="43.4183317" lon="11.8189017"><ele>245.42857142857144</ele><time>2026-04-22T16:45:19.051Z</time></trkpt><trkpt lat="43.418285" lon="11.81883"><ele>245.71428571428575</ele><time>2026-04-22T16:45:22.052Z</time></trkpt><trkpt lat="43.4182417" lon="11.8187583"><ele>246.00000000000003</ele><time>2026-04-22T16:45:25.053Z</time></trkpt><trkpt lat="43.4182017" lon="11.8186783"><ele>246.00000000000003</ele><time>2026-04-22T16:45:28.051Z</time></trkpt><trkpt lat="43.4181683" lon="11.8185917"><ele>246.0</ele><time>2026-04-22T16:45:31.054Z</time></trkpt><trkpt lat="43.418155" lon="11.8184883"><ele>246.00000000000003</ele><time>2026-04-22T16:45:34.051Z</time></trkpt><trkpt lat="43.41817" lon="11.8183733"><ele>246.00000000000003</ele><time>2026-04-22T16:45:38.052Z</time></trkpt><trkpt lat="43.41821" lon="11.8183"><ele>246.0</ele><time>2026-04-22T16:45:41.051Z</time></trkpt><trkpt lat="43.4182583" lon="11.8182433"><ele>246.00000000000003</ele><time>2026-04-22T16:45:45.053Z</time></trkpt><trkpt lat="43.4183283" lon="11.8181783"><ele>246.00000000000003</ele><time>2026-04-22T16:45:49.053Z</time></trkpt><trkpt lat="43.4183817" lon="11.8181217"><ele>246.4</ele><time>2026-04-22T16:45:52.051Z</time></trkpt><trkpt lat="43.4184433" lon="11.81805"><ele>246.8</ele><time>2026-04-22T16:45:55.052Z</time></trkpt><trkpt lat="43.4185117" lon="11.8179883"><ele>247.20000000000002</ele><time>2026-04-22T16:45:58.052Z</time></trkpt><trkpt lat="43.418605" lon="11.817945"><ele>247.60000000000002</ele><time>2026-04-22T16:46:01.047Z</time></trkpt><trkpt lat="43.418705" lon="11.8179533"><ele>248.0</ele><time>2026-04-22T16:46:03.053Z</time></trkpt><trkpt lat="43.4187933" lon="11.818015"><ele>247.4</ele><time>2026-04-22T16:46:05.048Z</time></trkpt><trkpt lat="43.4188617" lon="11.8181183"><ele>246.8</ele><time>2026-04-22T16:46:07.05Z</time></trkpt><trkpt lat="43.4189183" lon="11.818255"><ele>246.2</ele><time>2026-04-22T16:46:09.051Z</time></trkpt><trkpt lat="43.4189667" lon="11.818415"><ele>245.6</ele><time>2026-04-22T16:46:11.051Z</time></trkpt><trkpt lat="43.4189983" lon="11.8185017"><ele>245.0</ele><time>2026-04-22T16:46:12.053Z</time></trkpt><trkpt lat="43.4190217" lon="11.8186"><ele>245.00000000000003</ele><time>2026-04-22T16:46:13.051Z</time></trkpt><trkpt lat="43.4190533" lon="11.8187033"><ele>245.0</ele><time>2026-04-22T16:46:14.049Z</time></trkpt><trkpt lat="43.419085" lon="11.8188067"><ele>245.0</ele><time>2026-04-22T16:46:15.05Z</time></trkpt><trkpt lat="43.4191167" lon="11.8189083"><ele>245.0</ele><time>2026-04-22T16:46:16.05Z</time></trkpt><trkpt lat="43.4191567" lon="11.8190017"><ele>245.00000000000003</ele><time>2026-04-22T16:46:17.05Z</time></trkpt><trkpt lat="43.4191967" lon="11.8190967"><ele>245.0</ele><time>2026-04-22T16:46:18.049Z</time></trkpt><trkpt lat="43.41925" lon="11.8191867"><ele>245.0</ele><time>2026-04-22T16:46:19.051Z</time></trkpt><trkpt lat="43.4193" lon="11.81928"><ele>245.0</ele><time>2026-04-22T16:46:20.052Z</time></trkpt><trkpt lat="43.4193533" lon="11.8193517"><ele>245.0</ele><time>2026-04-22T16:46:21.053Z</time></trkpt><trkpt lat="43.4194067" lon="11.81942"><ele>245.0</ele><time>2026-04-22T16:46:22.051Z</time></trkpt><trkpt lat="43.41947" lon="11.819475"><ele>245.0</ele><time>2026-04-22T16:46:23.049Z</time></trkpt><trkpt lat="43.419535" lon="11.8195133"><ele>245.0</ele><time>2026-04-22T16:46:24.049Z</time></trkpt><trkpt lat="43.4196017" lon="11.8195417"><ele>245.0</ele><time>2026-04-22T16:46:25.05Z</time></trkpt><trkpt lat="43.4196667" lon="11.819565"><ele>245.00000000000003</ele><time>2026-04-22T16:46:26.052Z</time></trkpt><trkpt lat="43.4197317" lon="11.8195833"><ele>245.0</ele><time>2026-04-22T16:46:27.052Z</time></trkpt><trkpt lat="43.4197933" lon="11.8196017"><ele>245.0</ele><time>2026-04-22T16:46:28.051Z</time></trkpt><trkpt lat="43.4198967" lon="11.819635"><ele>245.0</ele><time>2026-04-22T16:46:30.049Z</time></trkpt><trkpt lat="43.4199733" lon="11.8196567"><ele>245.00000000000003</ele><time>2026-04-22T16:46:32.055Z</time></trkpt><trkpt lat="43.420045" lon="11.8196633"><ele>245.0</ele><time>2026-04-22T16:46:34.05Z</time></trkpt><trkpt lat="43.4201167" lon="11.8196633"><ele>245.00000000000003</ele><time>2026-04-22T16:46:37.052Z</time></trkpt><trkpt lat="43.4201767" lon="11.8195883"><ele>245.0</ele><time>2026-04-22T16:47:01.05Z</time></trkpt><trkpt lat="43.42016" lon="11.8194967"><ele>245.0</ele><time>2026-04-22T16:47:03.05Z</time></trkpt><trkpt lat="43.420135" lon="11.8193933"><ele>245.0</ele><time>2026-04-22T16:47:05.05Z</time></trkpt><trkpt lat="43.4200917" lon="11.8192817"><ele>245.00000000000003</ele><time>2026-04-22T16:47:07.055Z</time></trkpt><trkpt lat="43.4200383" lon="11.8191567"><ele>245.0</ele><time>2026-04-22T16:47:09.051Z</time></trkpt><trkpt lat="43.4199817" lon="11.8190317"><ele>245.0</ele><time>2026-04-22T16:47:11.055Z</time></trkpt><trkpt lat="43.4199217" lon="11.8188967"><ele>245.0</ele><time>2026-04-22T16:47:13.051Z</time></trkpt><trkpt lat="43.4198583" lon="11.8187617"><ele>245.0</ele><time>2026-04-22T16:47:15.056Z</time></trkpt><trkpt lat="43.4197917" lon="11.8186217"><ele>245.0</ele><time>2026-04-22T16:47:17.055Z</time></trkpt><trkpt lat="43.4197267" lon="11.8184783"><ele>244.8</ele><time>2026-04-22T16:47:19.052Z</time></trkpt><trkpt lat="43.419665" lon="11.818345"><ele>244.6</ele><time>2026-04-22T16:47:21.052Z</time></trkpt><trkpt lat="43.4196017" lon="11.8182083"><ele>244.39999999999998</ele><time>2026-04-22T16:47:23.052Z</time></trkpt><trkpt lat="43.4195333" lon="11.8180667"><ele>244.2</ele><time>2026-04-22T16:47:25.051Z</time></trkpt><trkpt lat="43.419495" lon="11.8179933"><ele>244.0</ele><time>2026-04-22T16:47:26.051Z</time></trkpt><trkpt lat="43.4194333" lon="11.8178517"><ele>244.0</ele><time>2026-04-22T16:47:28.05Z</time></trkpt><trkpt lat="43.419395" lon="11.8177817"><ele>243.99999999999997</ele><time>2026-04-22T16:47:29.052Z</time></trkpt><trkpt lat="43.419335" lon="11.817635"><ele>243.99999999999997</ele><time>2026-04-22T16:47:31.052Z</time></trkpt><trkpt lat="43.4192617" lon="11.817495"><ele>244.0</ele><time>2026-04-22T16:47:33.052Z</time></trkpt><trkpt lat="43.4191933" lon="11.817355"><ele>244.0</ele><time>2026-04-22T16:47:35.051Z</time></trkpt><trkpt lat="43.4191317" lon="11.81722"><ele>244.0</ele><time>2026-04-22T16:47:37.054Z</time></trkpt><trkpt lat="43.4190683" lon="11.8170883"><ele>244.0</ele><time>2026-04-22T16:47:39.051Z</time></trkpt><trkpt lat="43.41901" lon="11.8169533"><ele>244.0</ele><time>2026-04-22T16:47:41.05Z</time></trkpt><trkpt lat="43.4189467" lon="11.81682"><ele>244.0</ele><time>2026-04-22T16:47:43.051Z</time></trkpt><trkpt lat="43.4188833" lon="11.8166833"><ele>244.0</ele><time>2026-04-22T16:47:45.051Z</time></trkpt><trkpt lat="43.41882" lon="11.816545"><ele>244.0</ele><time>2026-04-22T16:47:47.05Z</time></trkpt><trkpt lat="43.418765" lon="11.816405"><ele>244.0</ele><time>2026-04-22T16:47:49.052Z</time></trkpt><trkpt lat="43.41871" lon="11.816275"><ele>244.0</ele><time>2026-04-22T16:47:51.05Z</time></trkpt><trkpt lat="43.4186567" lon="11.8161417"><ele>243.6</ele><time>2026-04-22T16:47:53.054Z</time></trkpt><trkpt lat="43.4185983" lon="11.81602"><ele>243.2</ele><time>2026-04-22T16:47:55.049Z</time></trkpt><trkpt lat="43.4185467" lon="11.8159017"><ele>242.79999999999998</ele><time>2026-04-22T16:47:57.051Z</time></trkpt><trkpt lat="43.4184917" lon="11.8157833"><ele>242.39999999999998</ele><time>2026-04-22T16:47:59.05Z</time></trkpt><trkpt lat="43.41843" lon="11.815665"><ele>242.0</ele><time>2026-04-22T16:48:01.051Z</time></trkpt><trkpt lat="43.4183683" lon="11.81555"><ele>242.0</ele><time>2026-04-22T16:48:03.052Z</time></trkpt><trkpt lat="43.4183133" lon="11.8154383"><ele>242.0</ele><time>2026-04-22T16:48:05.049Z</time></trkpt><trkpt lat="43.4182617" lon="11.81533"><ele>242.0</ele><time>2026-04-22T16:48:07.052Z</time></trkpt><trkpt lat="43.4182133" lon="11.8152217"><ele>242.0</ele><time>2026-04-22T16:48:09.05Z</time></trkpt><trkpt lat="43.4181433" lon="11.8151317"><ele>242.0</ele><time>2026-04-22T16:48:11.052Z</time></trkpt><trkpt lat="43.4180633" lon="11.8150567"><ele>241.8</ele><time>2026-04-22T16:48:13.051Z</time></trkpt><trkpt lat="43.4179733" lon="11.8150383"><ele>241.6</ele><time>2026-04-22T16:48:15.052Z</time></trkpt><trkpt lat="43.4178767" lon="11.8150667"><ele>241.40000000000003</ele><time>2026-04-22T16:48:17.049Z</time></trkpt><trkpt lat="43.41777" lon="11.8150967"><ele>241.20000000000002</ele><time>2026-04-22T16:48:19.051Z</time></trkpt><trkpt lat="43.4176667" lon="11.8151267"><ele>241.0</ele><time>2026-04-22T16:48:21.049Z</time></trkpt><trkpt lat="43.417565" lon="11.8151367"><ele>240.99999999999997</ele><time>2026-04-22T16:48:23.049Z</time></trkpt><trkpt lat="43.4174633" lon="11.81512"><ele>241.0</ele><time>2026-04-22T16:48:25.051Z</time></trkpt><trkpt lat="43.4173783" lon="11.815145"><ele>241.0</ele><time>2026-04-22T16:48:27.052Z</time></trkpt><trkpt lat="43.4173033" lon="11.81518"><ele>241.0</ele><time>2026-04-22T16:48:29.051Z</time></trkpt><trkpt lat="43.4172333" lon="11.8151983"><ele>240.99999999999997</ele><time>2026-04-22T16:48:31.051Z</time></trkpt><trkpt lat="43.4171683" lon="11.8152217"><ele>241.0</ele><time>2026-04-22T16:48:33.05Z</time></trkpt><trkpt lat="43.4171" lon="11.8152833"><ele>240.33333333333331</ele><time>2026-04-22T16:48:35.05Z</time></trkpt><trkpt lat="43.417015" lon="11.81534"><ele>239.66666666666666</ele><time>2026-04-22T16:48:37.051Z</time></trkpt><trkpt lat="43.4169417" lon="11.8153717"><ele>239.0</ele><time>2026-04-22T16:48:39.05Z</time></trkpt><trkpt lat="43.4168617" lon="11.8153633"><ele>238.33333333333331</ele><time>2026-04-22T16:48:41.053Z</time></trkpt><trkpt lat="43.4167983" lon="11.81534"><ele>237.66666666666666</ele><time>2026-04-22T16:48:45.052Z</time></trkpt><trkpt lat="43.416725" lon="11.81534"><ele>237.0</ele><time>2026-04-22T16:48:48.053Z</time></trkpt><trkpt lat="43.416625" lon="11.8153633"><ele>237.0</ele><time>2026-04-22T16:48:51.051Z</time></trkpt><trkpt lat="43.416555" lon="11.8153733"><ele>237.0</ele><time>2026-04-22T16:48:53.053Z</time></trkpt><trkpt lat="43.4164917" lon="11.8153583"><ele>237.0</ele><time>2026-04-22T16:48:55.05Z</time></trkpt><trkpt lat="43.416415" lon="11.815385"><ele>237.0</ele><time>2026-04-22T16:48:57.05Z</time></trkpt><trkpt lat="43.4163317" lon="11.8154183"><ele>237.0</ele><time>2026-04-22T16:48:59.051Z</time></trkpt><trkpt lat="43.4162367" lon="11.8154567"><ele>237.0</ele><time>2026-04-22T16:49:01.052Z</time></trkpt><trkpt lat="43.4161367" lon="11.815485"><ele>237.2</ele><time>2026-04-22T16:49:03.054Z</time></trkpt><trkpt lat="43.4160383" lon="11.81551"><ele>237.39999999999998</ele><time>2026-04-22T16:49:05.05Z</time></trkpt><trkpt lat="43.4159333" lon="11.8155267"><ele>237.60000000000002</ele><time>2026-04-22T16:49:07.052Z</time></trkpt><trkpt lat="43.4158267" lon="11.8155517"><ele>237.8</ele><time>2026-04-22T16:49:09.05Z</time></trkpt><trkpt lat="43.4157183" lon="11.81558"><ele>238.0</ele><time>2026-04-22T16:49:11.05Z</time></trkpt><trkpt lat="43.4156083" lon="11.815605"><ele>238.0</ele><time>2026-04-22T16:49:13.049Z</time></trkpt><trkpt lat="43.4155" lon="11.81563"><ele>238.0</ele><time>2026-04-22T16:49:15.051Z</time></trkpt><trkpt lat="43.4153883" lon="11.81565"><ele>238.0</ele><time>2026-04-22T16:49:17.049Z</time></trkpt><trkpt lat="43.415275" lon="11.8156783"><ele>238.0</ele><time>2026-04-22T16:49:19.052Z</time></trkpt><trkpt lat="43.4151633" lon="11.8157083"><ele>238.25</ele><time>2026-04-22T16:49:21.05Z</time></trkpt><trkpt lat="43.41505" lon="11.81574"><ele>238.5</ele><time>2026-04-22T16:49:23.051Z</time></trkpt><trkpt lat="43.4149367" lon="11.8157617"><ele>238.75</ele><time>2026-04-22T16:49:25.049Z</time></trkpt><trkpt lat="43.414825" lon="11.8157833"><ele>239.0</ele><time>2026-04-22T16:49:27.051Z</time></trkpt><trkpt lat="43.4147083" lon="11.8158067"><ele>238.75</ele><time>2026-04-22T16:49:29.049Z</time></trkpt><trkpt lat="43.41459" lon="11.8158383"><ele>238.5</ele><time>2026-04-22T16:49:31.051Z</time></trkpt><trkpt lat="43.4144717" lon="11.8158683"><ele>238.25</ele><time>2026-04-22T16:49:33.05Z</time></trkpt><trkpt lat="43.4143567" lon="11.815895"><ele>238.0</ele><time>2026-04-22T16:49:35.049Z</time></trkpt><trkpt lat="43.4142433" lon="11.815925"><ele>238.0</ele><time>2026-04-22T16:49:37.05Z</time></trkpt><trkpt lat="43.4141283" lon="11.8159583"><ele>238.0</ele><time>2026-04-22T16:49:39.049Z</time></trkpt><trkpt lat="43.4140117" lon="11.81598"><ele>238.0</ele><time>2026-04-22T16:49:41.049Z</time></trkpt><trkpt lat="43.4139017" lon="11.8160033"><ele>238.0</ele><time>2026-04-22T16:49:43.051Z</time></trkpt><trkpt lat="43.4137933" lon="11.8160267"><ele>237.4</ele><time>2026-04-22T16:49:45.049Z</time></trkpt><trkpt lat="43.41369" lon="11.816045"><ele>236.8</ele><time>2026-04-22T16:49:47.051Z</time></trkpt><trkpt lat="43.4135833" lon="11.8160717"><ele>236.2</ele><time>2026-04-22T16:49:49.051Z</time></trkpt><trkpt lat="43.4134817" lon="11.8160933"><ele>235.6</ele><time>2026-04-22T16:49:51.05Z</time></trkpt><trkpt lat="43.413375" lon="11.81612"><ele>235.0</ele><time>2026-04-22T16:49:53.051Z</time></trkpt><trkpt lat="43.4132633" lon="11.816145"><ele>235.0</ele><time>2026-04-22T16:49:55.049Z</time></trkpt><trkpt lat="43.4131517" lon="11.8161733"><ele>235.0</ele><time>2026-04-22T16:49:57.051Z</time></trkpt><trkpt lat="43.4130383" lon="11.816195"><ele>235.0</ele><time>2026-04-22T16:49:59.05Z</time></trkpt><trkpt lat="43.4129317" lon="11.8162183"><ele>235.0</ele><time>2026-04-22T16:50:01.048Z</time></trkpt><trkpt lat="43.4128233" lon="11.8162333"><ele>235.0</ele><time>2026-04-22T16:50:03.05Z</time></trkpt><trkpt lat="43.4127133" lon="11.8162483"><ele>235.2</ele><time>2026-04-22T16:50:05.054Z</time></trkpt><trkpt lat="43.412605" lon="11.81627"><ele>235.4</ele><time>2026-04-22T16:50:07.05Z</time></trkpt><trkpt lat="43.4124967" lon="11.8162983"><ele>235.60000000000002</ele><time>2026-04-22T16:50:09.052Z</time></trkpt><trkpt lat="43.4123867" lon="11.81633"><ele>235.8</ele><time>2026-04-22T16:50:11.05Z</time></trkpt><trkpt lat="43.4122783" lon="11.8163567"><ele>236.0</ele><time>2026-04-22T16:50:13.05Z</time></trkpt><trkpt lat="43.41217" lon="11.81638"><ele>236.60000000000002</ele><time>2026-04-22T16:50:15.052Z</time></trkpt><trkpt lat="43.4120633" lon="11.816395"><ele>237.20000000000002</ele><time>2026-04-22T16:50:17.048Z</time></trkpt><trkpt lat="43.4119633" lon="11.81641"><ele>237.79999999999998</ele><time>2026-04-22T16:50:19.048Z</time></trkpt><trkpt lat="43.411855" lon="11.8164217"><ele>238.39999999999998</ele><time>2026-04-22T16:50:21.052Z</time></trkpt><trkpt lat="43.411745" lon="11.81643"><ele>239.0</ele><time>2026-04-22T16:50:23.049Z</time></trkpt><trkpt lat="43.4116317" lon="11.8164433"><ele>239.0</ele><time>2026-04-22T16:50:25.048Z</time></trkpt><trkpt lat="43.41153" lon="11.8164417"><ele>238.99999999999997</ele><time>2026-04-22T16:50:27.05Z</time></trkpt><trkpt lat="43.4114333" lon="11.8164433"><ele>238.99999999999997</ele><time>2026-04-22T16:50:29.05Z</time></trkpt><trkpt lat="43.4113333" lon="11.8164467"><ele>239.0</ele><time>2026-04-22T16:50:31.05Z</time></trkpt><trkpt lat="43.4112283" lon="11.8164583"><ele>239.0</ele><time>2026-04-22T16:50:33.053Z</time></trkpt><trkpt lat="43.411115" lon="11.81647"><ele>240.0</ele><time>2026-04-22T16:50:35.05Z</time></trkpt><trkpt lat="43.4110033" lon="11.8164667"><ele>241.0</ele><time>2026-04-22T16:50:37.051Z</time></trkpt><trkpt lat="43.4108833" lon="11.8164683"><ele>242.0</ele><time>2026-04-22T16:50:39.049Z</time></trkpt><trkpt lat="43.41076" lon="11.8164783"><ele>243.0</ele><time>2026-04-22T16:50:41.05Z</time></trkpt><trkpt lat="43.41065" lon="11.8164867"><ele>243.0</ele><time>2026-04-22T16:50:43.048Z</time></trkpt><trkpt lat="43.4105383" lon="11.8164933"><ele>243.0</ele><time>2026-04-22T16:50:45.05Z</time></trkpt><trkpt lat="43.4104167" lon="11.816495"><ele>243.0</ele><time>2026-04-22T16:50:47.053Z</time></trkpt><trkpt lat="43.4103067" lon="11.816505"><ele>243.0</ele><time>2026-04-22T16:50:49.05Z</time></trkpt><trkpt lat="43.4101983" lon="11.8165033"><ele>243.0</ele><time>2026-04-22T16:50:51.05Z</time></trkpt><trkpt lat="43.4100917" lon="11.8165083"><ele>243.0</ele><time>2026-04-22T16:50:53.049Z</time></trkpt><trkpt lat="43.4099833" lon="11.816525"><ele>243.0</ele><time>2026-04-22T16:50:55.05Z</time></trkpt><trkpt lat="43.40987" lon="11.8165367"><ele>243.0</ele><time>2026-04-22T16:50:57.051Z</time></trkpt><trkpt lat="43.4097583" lon="11.816555"><ele>243.0</ele><time>2026-04-22T16:50:59.048Z</time></trkpt><trkpt lat="43.4096433" lon="11.8165667"><ele>242.8</ele><time>2026-04-22T16:51:01.049Z</time></trkpt><trkpt lat="43.4095333" lon="11.8165767"><ele>242.60000000000002</ele><time>2026-04-22T16:51:03.05Z</time></trkpt><trkpt lat="43.4094183" lon="11.816585"><ele>242.39999999999998</ele><time>2026-04-22T16:51:05.051Z</time></trkpt><trkpt lat="43.4093067" lon="11.8165883"><ele>242.2</ele><time>2026-04-22T16:51:07.051Z</time></trkpt><trkpt lat="43.4092017" lon="11.816595"><ele>242.0</ele><time>2026-04-22T16:51:09.053Z</time></trkpt><trkpt lat="43.4091033" lon="11.8166033"><ele>242.0</ele><time>2026-04-22T16:51:11.05Z</time></trkpt><trkpt lat="43.4090133" lon="11.816605"><ele>242.0</ele><time>2026-04-22T16:51:13.05Z</time></trkpt><trkpt lat="43.4089167" lon="11.8166117"><ele>242.0</ele><time>2026-04-22T16:51:15.052Z</time></trkpt><trkpt lat="43.4088267" lon="11.8166167"><ele>242.0</ele><time>2026-04-22T16:51:17.052Z</time></trkpt><trkpt lat="43.4087283" lon="11.81662"><ele>242.0</ele><time>2026-04-22T16:51:19.05Z</time></trkpt><trkpt lat="43.4086233" lon="11.81663"><ele>242.0</ele><time>2026-04-22T16:51:21.05Z</time></trkpt><trkpt lat="43.4085217" lon="11.8166467"><ele>242.0</ele><time>2026-04-22T16:51:23.051Z</time></trkpt><trkpt lat="43.4084183" lon="11.8166533"><ele>242.0</ele><time>2026-04-22T16:51:25.055Z</time></trkpt><trkpt lat="43.4083117" lon="11.8166617"><ele>242.0</ele><time>2026-04-22T16:51:27.051Z</time></trkpt><trkpt lat="43.4082067" lon="11.8166683"><ele>242.0</ele><time>2026-04-22T16:51:29.052Z</time></trkpt><trkpt lat="43.408105" lon="11.8166767"><ele>242.0</ele><time>2026-04-22T16:51:31.053Z</time></trkpt><trkpt lat="43.408015" lon="11.8166867"><ele>242.0</ele><time>2026-04-22T16:51:33.052Z</time></trkpt><trkpt lat="43.4079233" lon="11.8166933"><ele>242.0</ele><time>2026-04-22T16:51:35.053Z</time></trkpt><trkpt lat="43.4078233" lon="11.8167083"><ele>242.0</ele><time>2026-04-22T16:51:37.053Z</time></trkpt><trkpt lat="43.4077217" lon="11.8167233"><ele>242.0</ele><time>2026-04-22T16:51:39.05Z</time></trkpt><trkpt lat="43.40762" lon="11.8167283"><ele>242.2</ele><time>2026-04-22T16:51:41.051Z</time></trkpt><trkpt lat="43.4075233" lon="11.8167317"><ele>242.39999999999998</ele><time>2026-04-22T16:51:43.052Z</time></trkpt><trkpt lat="43.4074183" lon="11.8167383"><ele>242.60000000000002</ele><time>2026-04-22T16:51:45.049Z</time></trkpt><trkpt lat="43.4073117" lon="11.81675"><ele>242.8</ele><time>2026-04-22T16:51:47.049Z</time></trkpt><trkpt lat="43.4072017" lon="11.8167583"><ele>243.0</ele><time>2026-04-22T16:51:49.049Z</time></trkpt><trkpt lat="43.4070933" lon="11.816765"><ele>243.0</ele><time>2026-04-22T16:51:51.049Z</time></trkpt><trkpt lat="43.4069833" lon="11.8167767"><ele>243.0</ele><time>2026-04-22T16:51:53.05Z</time></trkpt><trkpt lat="43.4068767" lon="11.81679"><ele>243.0</ele><time>2026-04-22T16:51:55.051Z</time></trkpt><trkpt lat="43.4067717" lon="11.8167967"><ele>243.0</ele><time>2026-04-22T16:51:57.046Z</time></trkpt><trkpt lat="43.40667" lon="11.8168033"><ele>243.0</ele><time>2026-04-22T16:51:59.049Z</time></trkpt><trkpt lat="43.4065683" lon="11.8168117"><ele>243.0</ele><time>2026-04-22T16:52:01.049Z</time></trkpt><trkpt lat="43.4064717" lon="11.8168183"><ele>243.0</ele><time>2026-04-22T16:52:03.051Z</time></trkpt><trkpt lat="43.40638" lon="11.8168183"><ele>243.0</ele><time>2026-04-22T16:52:05.046Z</time></trkpt><trkpt lat="43.4062933" lon="11.816825"><ele>243.0</ele><time>2026-04-22T16:52:07.051Z</time></trkpt><trkpt lat="43.406205" lon="11.816825"><ele>243.0</ele><time>2026-04-22T16:52:09.052Z</time></trkpt><trkpt lat="43.4061183" lon="11.8168217"><ele>242.83333333333334</ele><time>2026-04-22T16:52:11.049Z</time></trkpt><trkpt lat="43.4060383" lon="11.8168067"><ele>242.66666666666669</ele><time>2026-04-22T16:52:13.051Z</time></trkpt><trkpt lat="43.4059683" lon="11.8167867"><ele>242.5</ele><time>2026-04-22T16:52:15.05Z</time></trkpt><trkpt lat="43.4059017" lon="11.816775"><ele>242.33333333333334</ele><time>2026-04-22T16:52:17.049Z</time></trkpt><trkpt lat="43.4058317" lon="11.8167533"><ele>242.16666666666669</ele><time>2026-04-22T16:52:19.053Z</time></trkpt><trkpt lat="43.4057433" lon="11.8167333"><ele>242.0</ele><time>2026-04-22T16:52:22.051Z</time></trkpt><trkpt lat="43.4056733" lon="11.81672"><ele>242.00000000000003</ele><time>2026-04-22T16:52:24.05Z</time></trkpt><trkpt lat="43.4055967" lon="11.8167067"><ele>242.0</ele><time>2026-04-22T16:52:26.05Z</time></trkpt><trkpt lat="43.4055133" lon="11.8166983"><ele>242.0</ele><time>2026-04-22T16:52:28.053Z</time></trkpt><trkpt lat="43.4054267" lon="11.8166883"><ele>242.0</ele><time>2026-04-22T16:52:30.049Z</time></trkpt><trkpt lat="43.4053467" lon="11.8166783"><ele>242.00000000000003</ele><time>2026-04-22T16:52:32.051Z</time></trkpt><trkpt lat="43.4052633" lon="11.816665"><ele>242.0</ele><time>2026-04-22T16:52:34.049Z</time></trkpt><trkpt lat="43.4051833" lon="11.8166567"><ele>242.00000000000003</ele><time>2026-04-22T16:52:36.048Z</time></trkpt><trkpt lat="43.4051083" lon="11.816645"><ele>242.0</ele><time>2026-04-22T16:52:38.051Z</time></trkpt><trkpt lat="43.4050383" lon="11.8166283"><ele>242.0</ele><time>2026-04-22T16:52:40.051Z</time></trkpt><trkpt lat="43.404965" lon="11.8166167"><ele>242.0</ele><time>2026-04-22T16:52:42.048Z</time></trkpt><trkpt lat="43.4048867" lon="11.8166117"><ele>242.00000000000003</ele><time>2026-04-22T16:52:44.051Z</time></trkpt><trkpt lat="43.4048083" lon="11.8165917"><ele>242.0</ele><time>2026-04-22T16:52:46.048Z</time></trkpt><trkpt lat="43.40473" lon="11.8165683"><ele>242.00000000000003</ele><time>2026-04-22T16:52:48.051Z</time></trkpt><trkpt lat="43.4046567" lon="11.8165633"><ele>242.0</ele><time>2026-04-22T16:52:50.05Z</time></trkpt><trkpt lat="43.4045933" lon="11.8165533"><ele>242.0</ele><time>2026-04-22T16:52:52.05Z</time></trkpt><trkpt lat="43.404505" lon="11.8165367"><ele>242.0</ele><time>2026-04-22T16:52:55.05Z</time></trkpt><trkpt lat="43.40441" lon="11.8165117"><ele>242.00000000000003</ele><time>2026-04-22T16:52:58.05Z</time></trkpt><trkpt lat="43.4043383" lon="11.8164983"><ele>242.0</ele><time>2026-04-22T16:53:00.049Z</time></trkpt><trkpt lat="43.40427" lon="11.8164883"><ele>242.0</ele><time>2026-04-22T16:53:02.05Z</time></trkpt><trkpt lat="43.4041983" lon="11.8164867"><ele>241.99999999999997</ele><time>2026-04-22T16:53:04.049Z</time></trkpt><trkpt lat="43.404135" lon="11.8164783"><ele>242.0</ele><time>2026-04-22T16:53:06.051Z</time></trkpt><trkpt lat="43.4040667" lon="11.8164617"><ele>242.0</ele><time>2026-04-22T16:53:08.052Z</time></trkpt><trkpt lat="43.4040033" lon="11.8164467"><ele>241.99999999999997</ele><time>2026-04-22T16:53:10.049Z</time></trkpt><trkpt lat="43.4039367" lon="11.8164317"><ele>242.0</ele><time>2026-04-22T16:53:12.051Z</time></trkpt><trkpt lat="43.4038483" lon="11.81641"><ele>242.0</ele><time>2026-04-22T16:53:15.05Z</time></trkpt><trkpt lat="43.4037717" lon="11.8163783"><ele>241.83333333333334</ele><time>2026-04-22T16:53:18.051Z</time></trkpt><trkpt lat="43.4036833" lon="11.8163683"><ele>241.66666666666669</ele><time>2026-04-22T16:53:21.05Z</time></trkpt><trkpt lat="43.4035983" lon="11.8163533"><ele>241.5</ele><time>2026-04-22T16:53:24.049Z</time></trkpt><trkpt lat="43.4035217" lon="11.81633"><ele>241.33333333333331</ele><time>2026-04-22T16:53:27.054Z</time></trkpt><trkpt lat="43.4034333" lon="11.8163183"><ele>241.16666666666666</ele><time>2026-04-22T16:53:30.048Z</time></trkpt><trkpt lat="43.4033583" lon="11.816315"><ele>241.0</ele><time>2026-04-22T16:53:33.05Z</time></trkpt><trkpt lat="43.40328" lon="11.8163"><ele>240.99999999999997</ele><time>2026-04-22T16:53:36.049Z</time></trkpt><trkpt lat="43.40319" lon="11.8162867"><ele>241.0</ele><time>2026-04-22T16:53:39.05Z</time></trkpt><trkpt lat="43.4031017" lon="11.816275"><ele>241.0</ele><time>2026-04-22T16:53:42.048Z</time></trkpt><trkpt lat="43.4030083" lon="11.8162567"><ele>241.0</ele><time>2026-04-22T16:53:45.053Z</time></trkpt><trkpt lat="43.40294" lon="11.816245"><ele>240.99999999999997</ele><time>2026-04-22T16:53:47.05Z</time></trkpt><trkpt lat="43.4028767" lon="11.8162383"><ele>241.0</ele><time>2026-04-22T16:53:49.05Z</time></trkpt><trkpt lat="43.40281" lon="11.81623"><ele>241.16666666666666</ele><time>2026-04-22T16:53:51.05Z</time></trkpt><trkpt lat="43.40272" lon="11.81621"><ele>241.33333333333331</ele><time>2026-04-22T16:53:54.051Z</time></trkpt><trkpt lat="43.40263" lon="11.8162"><ele>241.5</ele><time>2026-04-22T16:53:57.049Z</time></trkpt><trkpt lat="43.4025483" lon="11.8161767"><ele>241.66666666666669</ele><time>2026-04-22T16:54:00.051Z</time></trkpt><trkpt lat="43.402485" lon="11.8161667"><ele>241.83333333333334</ele><time>2026-04-22T16:54:02.051Z</time></trkpt><trkpt lat="43.402395" lon="11.8161567"><ele>242.0</ele><time>2026-04-22T16:54:05.05Z</time></trkpt><trkpt lat="43.4023017" lon="11.81614"><ele>242.00000000000003</ele><time>2026-04-22T16:54:08.052Z</time></trkpt><trkpt lat="43.4022167" lon="11.816135"><ele>242.0</ele><time>2026-04-22T16:54:11.049Z</time></trkpt><trkpt lat="43.4021017" lon="11.8161317"><ele>242.0</ele><time>2026-04-22T16:54:15.051Z</time></trkpt><trkpt lat="43.4020383" lon="11.8161217"><ele>242.0</ele><time>2026-04-22T16:54:17.05Z</time></trkpt><trkpt lat="43.4019733" lon="11.8161133"><ele>242.00000000000003</ele><time>2026-04-22T16:54:19.05Z</time></trkpt><trkpt lat="43.40188" lon="11.8161033"><ele>242.0</ele><time>2026-04-22T16:54:22.048Z</time></trkpt><trkpt lat="43.4017883" lon="11.8160983"><ele>242.14285714285714</ele><time>2026-04-22T16:54:25.051Z</time></trkpt><trkpt lat="43.4017233" lon="11.8161017"><ele>242.28571428571428</ele><time>2026-04-22T16:54:27.049Z</time></trkpt><trkpt lat="43.4016317" lon="11.8160883"><ele>242.42857142857142</ele><time>2026-04-22T16:54:30.048Z</time></trkpt><trkpt lat="43.4015683" lon="11.8160833"><ele>242.57142857142856</ele><time>2026-04-22T16:54:32.053Z</time></trkpt><trkpt lat="43.4015" lon="11.8160733"><ele>242.71428571428572</ele><time>2026-04-22T16:54:34.052Z</time></trkpt><trkpt lat="43.4014383" lon="11.816055"><ele>242.85714285714283</ele><time>2026-04-22T16:54:36.05Z</time></trkpt><trkpt lat="43.401375" lon="11.816045"><ele>243.0</ele><time>2026-04-22T16:54:38.053Z</time></trkpt><trkpt lat="43.4013117" lon="11.816035"><ele>243.0</ele><time>2026-04-22T16:54:40.049Z</time></trkpt><trkpt lat="43.40122" lon="11.8160183"><ele>243.0</ele><time>2026-04-22T16:54:43.05Z</time></trkpt><trkpt lat="43.4011567" lon="11.8160017"><ele>243.0</ele><time>2026-04-22T16:54:45.053Z</time></trkpt><trkpt lat="43.401065" lon="11.8159767"><ele>243.0</ele><time>2026-04-22T16:54:48.051Z</time></trkpt><trkpt lat="43.4009783" lon="11.8159667"><ele>243.0</ele><time>2026-04-22T16:54:51.05Z</time></trkpt><trkpt lat="43.4009033" lon="11.8159467"><ele>243.0</ele><time>2026-04-22T16:54:54.05Z</time></trkpt><trkpt lat="43.4008383" lon="11.815945"><ele>243.0</ele><time>2026-04-22T16:54:56.052Z</time></trkpt><trkpt lat="43.40077" lon="11.8159367"><ele>243.0</ele><time>2026-04-22T16:54:58.051Z</time></trkpt><trkpt lat="43.4006967" lon="11.8159233"><ele>243.0</ele><time>2026-04-22T16:55:00.052Z</time></trkpt><trkpt lat="43.40063" lon="11.8159217"><ele>243.0</ele><time>2026-04-22T16:55:02.051Z</time></trkpt><trkpt lat="43.400535" lon="11.81591"><ele>243.0</ele><time>2026-04-22T16:55:05.05Z</time></trkpt><trkpt lat="43.4004667" lon="11.815895"><ele>243.0</ele><time>2026-04-22T16:55:07.049Z</time></trkpt><trkpt lat="43.4003967" lon="11.8158883"><ele>243.0</ele><time>2026-04-22T16:55:09.047Z</time></trkpt><trkpt lat="43.4003317" lon="11.8158833"><ele>243.0</ele><time>2026-04-22T16:55:11.052Z</time></trkpt><trkpt lat="43.4002667" lon="11.8158817"><ele>243.0</ele><time>2026-04-22T16:55:13.051Z</time></trkpt><trkpt lat="43.4001817" lon="11.8158767"><ele>243.0</ele><time>2026-04-22T16:55:16.05Z</time></trkpt><trkpt lat="43.4001067" lon="11.8158517"><ele>243.0</ele><time>2026-04-22T16:55:19.051Z</time></trkpt><trkpt lat="43.400025" lon="11.8158367"><ele>243.0</ele><time>2026-04-22T16:55:22.05Z</time></trkpt><trkpt lat="43.3999417" lon="11.8158267"><ele>243.0</ele><time>2026-04-22T16:55:25.052Z</time></trkpt><trkpt lat="43.3998783" lon="11.8158183"><ele>243.0</ele><time>2026-04-22T16:55:27.051Z</time></trkpt><trkpt lat="43.3997833" lon="11.8158083"><ele>243.0</ele><time>2026-04-22T16:55:30.052Z</time></trkpt><trkpt lat="43.3997083" lon="11.8158117"><ele>243.0</ele><time>2026-04-22T16:55:32.05Z</time></trkpt><trkpt lat="43.39963" lon="11.81581"><ele>243.0</ele><time>2026-04-22T16:55:34.049Z</time></trkpt><trkpt lat="43.39955" lon="11.8157983"><ele>243.0</ele><time>2026-04-22T16:55:36.053Z</time></trkpt><trkpt lat="43.3994667" lon="11.8157883"><ele>243.0</ele><time>2026-04-22T16:55:38.052Z</time></trkpt><trkpt lat="43.399385" lon="11.81578"><ele>243.0</ele><time>2026-04-22T16:55:40.049Z</time></trkpt><trkpt lat="43.399305" lon="11.815775"><ele>243.0</ele><time>2026-04-22T16:55:42.053Z</time></trkpt><trkpt lat="43.39922" lon="11.8157667"><ele>243.0</ele><time>2026-04-22T16:55:44.055Z</time></trkpt><trkpt lat="43.39914" lon="11.8157567"><ele>243.0</ele><time>2026-04-22T16:55:46.052Z</time></trkpt><trkpt lat="43.3990617" lon="11.8157517"><ele>243.0</ele><time>2026-04-22T16:55:48.053Z</time></trkpt><trkpt lat="43.3989817" lon="11.8157383"><ele>243.0</ele><time>2026-04-22T16:55:50.054Z</time></trkpt><trkpt lat="43.3989" lon="11.8157267"><ele>242.83333333333334</ele><time>2026-04-22T16:55:52.05Z</time></trkpt><trkpt lat="43.3988167" lon="11.81571"><ele>242.66666666666669</ele><time>2026-04-22T16:55:54.051Z</time></trkpt><trkpt lat="43.3987267" lon="11.8156933"><ele>242.5</ele><time>2026-04-22T16:55:56.051Z</time></trkpt><trkpt lat="43.398635" lon="11.8156817"><ele>242.33333333333334</ele><time>2026-04-22T16:55:58.049Z</time></trkpt><trkpt lat="43.3985467" lon="11.8156717"><ele>242.16666666666669</ele><time>2026-04-22T16:56:00.05Z</time></trkpt><trkpt lat="43.3984583" lon="11.8156583"><ele>242.0</ele><time>2026-04-22T16:56:02.05Z</time></trkpt><trkpt lat="43.398375" lon="11.8156533"><ele>242.0</ele><time>2026-04-22T16:56:04.051Z</time></trkpt><trkpt lat="43.3982883" lon="11.8156433"><ele>242.0</ele><time>2026-04-22T16:56:06.048Z</time></trkpt><trkpt lat="43.3982017" lon="11.8156283"><ele>242.0</ele><time>2026-04-22T16:56:08.055Z</time></trkpt><trkpt lat="43.39811" lon="11.8156167"><ele>242.0</ele><time>2026-04-22T16:56:10.05Z</time></trkpt><trkpt lat="43.398015" lon="11.8156033"><ele>242.0</ele><time>2026-04-22T16:56:12.049Z</time></trkpt><trkpt lat="43.39792" lon="11.8155917"><ele>241.8</ele><time>2026-04-22T16:56:14.05Z</time></trkpt><trkpt lat="43.3978267" lon="11.8155817"><ele>241.6</ele><time>2026-04-22T16:56:16.053Z</time></trkpt><trkpt lat="43.3977317" lon="11.81557"><ele>241.40000000000003</ele><time>2026-04-22T16:56:18.05Z</time></trkpt><trkpt lat="43.3976417" lon="11.8155567"><ele>241.20000000000002</ele><time>2026-04-22T16:56:20.051Z</time></trkpt><trkpt lat="43.39755" lon="11.8155433"><ele>241.0</ele><time>2026-04-22T16:56:22.049Z</time></trkpt><trkpt lat="43.39747" lon="11.8155317"><ele>241.0</ele><time>2026-04-22T16:56:24.049Z</time></trkpt><trkpt lat="43.3973833" lon="11.81553"><ele>241.00000000000003</ele><time>2026-04-22T16:56:26.05Z</time></trkpt><trkpt lat="43.3972933" lon="11.815525"><ele>241.00000000000003</ele><time>2026-04-22T16:56:28.051Z</time></trkpt><trkpt lat="43.3972" lon="11.8155167"><ele>241.0</ele><time>2026-04-22T16:56:30.048Z</time></trkpt><trkpt lat="43.3971033" lon="11.815505"><ele>241.0</ele><time>2026-04-22T16:56:32.053Z</time></trkpt><trkpt lat="43.39701" lon="11.8155"><ele>241.16666666666666</ele><time>2026-04-22T16:56:34.05Z</time></trkpt><trkpt lat="43.3969317" lon="11.815485"><ele>241.33333333333331</ele><time>2026-04-22T16:56:36.052Z</time></trkpt><trkpt lat="43.3968533" lon="11.8154783"><ele>241.5</ele><time>2026-04-22T16:56:38.051Z</time></trkpt><trkpt lat="43.39678" lon="11.8154733"><ele>241.66666666666669</ele><time>2026-04-22T16:56:40.053Z</time></trkpt><trkpt lat="43.3967067" lon="11.8154733"><ele>241.83333333333334</ele><time>2026-04-22T16:56:42.051Z</time></trkpt><trkpt lat="43.3966317" lon="11.8154733"><ele>242.0</ele><time>2026-04-22T16:56:44.051Z</time></trkpt><trkpt lat="43.3965533" lon="11.815465"><ele>242.00000000000003</ele><time>2026-04-22T16:56:46.05Z</time></trkpt><trkpt lat="43.3964733" lon="11.8154517"><ele>242.0</ele><time>2026-04-22T16:56:48.05Z</time></trkpt><trkpt lat="43.39639" lon="11.8154433"><ele>242.0</ele><time>2026-04-22T16:56:50.05Z</time></trkpt><trkpt lat="43.3963033" lon="11.8154317"><ele>242.0</ele><time>2026-04-22T16:56:52.051Z</time></trkpt><trkpt lat="43.3962183" lon="11.81542"><ele>242.00000000000003</ele><time>2026-04-22T16:56:54.052Z</time></trkpt><trkpt lat="43.3961333" lon="11.8154067"><ele>242.0</ele><time>2026-04-22T16:56:56.052Z</time></trkpt><trkpt lat="43.396045" lon="11.8154"><ele>242.16666666666669</ele><time>2026-04-22T16:56:58.051Z</time></trkpt><trkpt lat="43.395955" lon="11.8153917"><ele>242.33333333333334</ele><time>2026-04-22T16:57:00.047Z</time></trkpt><trkpt lat="43.39587" lon="11.8153833"><ele>242.5</ele><time>2026-04-22T16:57:02.051Z</time></trkpt><trkpt lat="43.3957833" lon="11.815375"><ele>242.66666666666669</ele><time>2026-04-22T16:57:04.051Z</time></trkpt><trkpt lat="43.3956933" lon="11.815365"><ele>242.83333333333334</ele><time>2026-04-22T16:57:06.051Z</time></trkpt><trkpt lat="43.3956083" lon="11.8153533"><ele>243.0</ele><time>2026-04-22T16:57:08.053Z</time></trkpt><trkpt lat="43.3955233" lon="11.8153433"><ele>243.16666666666666</ele><time>2026-04-22T16:57:10.049Z</time></trkpt><trkpt lat="43.3954383" lon="11.8153317"><ele>243.33333333333331</ele><time>2026-04-22T16:57:12.049Z</time></trkpt><trkpt lat="43.395355" lon="11.8153167"><ele>243.5</ele><time>2026-04-22T16:57:14.052Z</time></trkpt><trkpt lat="43.395275" lon="11.8153"><ele>243.66666666666666</ele><time>2026-04-22T16:57:16.05Z</time></trkpt><trkpt lat="43.39519" lon="11.81529"><ele>243.83333333333331</ele><time>2026-04-22T16:57:18.05Z</time></trkpt><trkpt lat="43.3951017" lon="11.8152733"><ele>244.0</ele><time>2026-04-22T16:57:20.052Z</time></trkpt><trkpt lat="43.3950117" lon="11.81527"><ele>243.99999999999997</ele><time>2026-04-22T16:57:22.049Z</time></trkpt><trkpt lat="43.39493" lon="11.8152617"><ele>244.0</ele><time>2026-04-22T16:57:24.052Z</time></trkpt><trkpt lat="43.3948433" lon="11.81524"><ele>244.0</ele><time>2026-04-22T16:57:26.052Z</time></trkpt><trkpt lat="43.3947583" lon="11.8152033"><ele>244.0</ele><time>2026-04-22T16:57:28.053Z</time></trkpt><trkpt lat="43.3946817" lon="11.8151417"><ele>243.99999999999997</ele><time>2026-04-22T16:57:30.049Z</time></trkpt><trkpt lat="43.394605" lon="11.8150817"><ele>244.0</ele><time>2026-04-22T16:57:32.052Z</time></trkpt><trkpt lat="43.3945333" lon="11.81502"><ele>243.99999999999997</ele><time>2026-04-22T16:57:34.048Z</time></trkpt><trkpt lat="43.394455" lon="11.81496"><ele>244.0</ele><time>2026-04-22T16:57:36.054Z</time></trkpt><trkpt lat="43.3943683" lon="11.8149067"><ele>244.0</ele><time>2026-04-22T16:57:38.053Z</time></trkpt><trkpt lat="43.3942967" lon="11.814855"><ele>244.0</ele><time>2026-04-22T16:57:40.051Z</time></trkpt><trkpt lat="43.3942133" lon="11.8147967"><ele>243.99999999999997</ele><time>2026-04-22T16:57:42.053Z</time></trkpt><trkpt lat="43.394135" lon="11.8147433"><ele>244.0</ele><time>2026-04-22T16:57:44.051Z</time></trkpt><trkpt lat="43.3940567" lon="11.814695"><ele>244.0</ele><time>2026-04-22T16:57:46.05Z</time></trkpt><trkpt lat="43.3939767" lon="11.8146483"><ele>243.99999999999997</ele><time>2026-04-22T16:57:48.054Z</time></trkpt><trkpt lat="43.393895" lon="11.8145983"><ele>243.99999999999997</ele><time>2026-04-22T16:57:50.052Z</time></trkpt><trkpt lat="43.393805" lon="11.81454"><ele>244.0</ele><time>2026-04-22T16:57:52.05Z</time></trkpt><trkpt lat="43.3937167" lon="11.8144767"><ele>244.0</ele><time>2026-04-22T16:57:54.052Z</time></trkpt><trkpt lat="43.3936183" lon="11.8144183"><ele>244.2</ele><time>2026-04-22T16:57:56.049Z</time></trkpt><trkpt lat="43.39352" lon="11.8143617"><ele>244.39999999999998</ele><time>2026-04-22T16:57:58.051Z</time></trkpt><trkpt lat="43.3934283" lon="11.8143033"><ele>244.6</ele><time>2026-04-22T16:58:00.051Z</time></trkpt><trkpt lat="43.3933383" lon="11.8142417"><ele>244.8</ele><time>2026-04-22T16:58:02.052Z</time></trkpt><trkpt lat="43.393245" lon="11.8141833"><ele>245.0</ele><time>2026-04-22T16:58:04.05Z</time></trkpt><trkpt lat="43.3931467" lon="11.8141217"><ele>245.0</ele><time>2026-04-22T16:58:06.051Z</time></trkpt><trkpt lat="43.3930483" lon="11.8140617"><ele>245.0</ele><time>2026-04-22T16:58:08.053Z</time></trkpt><trkpt lat="43.392945" lon="11.8140033"><ele>245.0</ele><time>2026-04-22T16:58:10.05Z</time></trkpt><trkpt lat="43.3928467" lon="11.81394"><ele>245.0</ele><time>2026-04-22T16:58:12.049Z</time></trkpt><trkpt lat="43.3927583" lon="11.81388"><ele>245.0</ele><time>2026-04-22T16:58:14.05Z</time></trkpt><trkpt lat="43.3926517" lon="11.813825"><ele>245.2</ele><time>2026-04-22T16:58:16.051Z</time></trkpt><trkpt lat="43.392555" lon="11.8137717"><ele>245.4</ele><time>2026-04-22T16:58:18.051Z</time></trkpt><trkpt lat="43.3924583" lon="11.813725"><ele>245.60000000000002</ele><time>2026-04-22T16:58:20.053Z</time></trkpt><trkpt lat="43.3923583" lon="11.8136783"><ele>245.8</ele><time>2026-04-22T16:58:22.05Z</time></trkpt><trkpt lat="43.3922467" lon="11.8136417"><ele>246.0</ele><time>2026-04-22T16:58:24.051Z</time></trkpt><trkpt lat="43.392145" lon="11.8136233"><ele>246.0</ele><time>2026-04-22T16:58:26.051Z</time></trkpt><trkpt lat="43.3920367" lon="11.8136117"><ele>246.00000000000003</ele><time>2026-04-22T16:58:28.05Z</time></trkpt><trkpt lat="43.3919317" lon="11.813605"><ele>246.00000000000003</ele><time>2026-04-22T16:58:30.049Z</time></trkpt><trkpt lat="43.3918283" lon="11.813595"><ele>246.0</ele><time>2026-04-22T16:58:32.048Z</time></trkpt><trkpt lat="43.3917183" lon="11.8135767"><ele>246.0</ele><time>2026-04-22T16:58:34.054Z</time></trkpt><trkpt lat="43.3916033" lon="11.813555"><ele>246.0</ele><time>2026-04-22T16:58:36.051Z</time></trkpt><trkpt lat="43.3914933" lon="11.8135333"><ele>246.00000000000003</ele><time>2026-04-22T16:58:38.05Z</time></trkpt><trkpt lat="43.391385" lon="11.8135117"><ele>246.00000000000003</ele><time>2026-04-22T16:58:40.051Z</time></trkpt><trkpt lat="43.3912867" lon="11.813485"><ele>246.0</ele><time>2026-04-22T16:58:42.051Z</time></trkpt><trkpt lat="43.3911883" lon="11.8134567"><ele>246.0</ele><time>2026-04-22T16:58:44.05Z</time></trkpt><trkpt lat="43.391085" lon="11.8134283"><ele>246.20000000000002</ele><time>2026-04-22T16:58:46.051Z</time></trkpt><trkpt lat="43.3909767" lon="11.8133967"><ele>246.40000000000003</ele><time>2026-04-22T16:58:48.05Z</time></trkpt><trkpt lat="43.3908717" lon="11.8133667"><ele>246.6</ele><time>2026-04-22T16:58:50.05Z</time></trkpt><trkpt lat="43.3907633" lon="11.8133433"><ele>246.8</ele><time>2026-04-22T16:58:52.051Z</time></trkpt><trkpt lat="43.3906517" lon="11.8133117"><ele>247.0</ele><time>2026-04-22T16:58:54.05Z</time></trkpt><trkpt lat="43.3905333" lon="11.8132817"><ele>246.25</ele><time>2026-04-22T16:58:56.049Z</time></trkpt><trkpt lat="43.3904183" lon="11.8132683"><ele>245.5</ele><time>2026-04-22T16:58:58.049Z</time></trkpt><trkpt lat="43.3903033" lon="11.8132583"><ele>244.75</ele><time>2026-04-22T16:59:00.051Z</time></trkpt><trkpt lat="43.39018" lon="11.8132533"><ele>244.0</ele><time>2026-04-22T16:59:02.05Z</time></trkpt><trkpt lat="43.390055" lon="11.8132483"><ele>244.0</ele><time>2026-04-22T16:59:04.05Z</time></trkpt><trkpt lat="43.389935" lon="11.813255"><ele>244.0</ele><time>2026-04-22T16:59:06.05Z</time></trkpt><trkpt lat="43.389815" lon="11.8132633"><ele>244.0</ele><time>2026-04-22T16:59:08.048Z</time></trkpt><trkpt lat="43.3897" lon="11.8132717"><ele>244.0</ele><time>2026-04-22T16:59:10.049Z</time></trkpt><trkpt lat="43.3895767" lon="11.8132767"><ele>244.2</ele><time>2026-04-22T16:59:12.049Z</time></trkpt><trkpt lat="43.389455" lon="11.81328"><ele>244.39999999999998</ele><time>2026-04-22T16:59:14.05Z</time></trkpt><trkpt lat="43.3893917" lon="11.8132817"><ele>244.6</ele><time>2026-04-22T16:59:15.052Z</time></trkpt><trkpt lat="43.3892733" lon="11.81328"><ele>244.8</ele><time>2026-04-22T16:59:17.049Z</time></trkpt><trkpt lat="43.3891633" lon="11.813285"><ele>245.0</ele><time>2026-04-22T16:59:19.048Z</time></trkpt><trkpt lat="43.3890467" lon="11.8132883"><ele>245.0</ele><time>2026-04-22T16:59:21.05Z</time></trkpt><trkpt lat="43.3889317" lon="11.8132883"><ele>245.0</ele><time>2026-04-22T16:59:23.052Z</time></trkpt><trkpt lat="43.388825" lon="11.8132833"><ele>245.0</ele><time>2026-04-22T16:59:25.05Z</time></trkpt><trkpt lat="43.3887217" lon="11.8132783"><ele>245.0</ele><time>2026-04-22T16:59:27.049Z</time></trkpt><trkpt lat="43.3886167" lon="11.8132833"><ele>245.0</ele><time>2026-04-22T16:59:29.048Z</time></trkpt><trkpt lat="43.38851" lon="11.813285"><ele>244.5</ele><time>2026-04-22T16:59:31.052Z</time></trkpt><trkpt lat="43.3883967" lon="11.8132917"><ele>244.0</ele><time>2026-04-22T16:59:33.049Z</time></trkpt><trkpt lat="43.38828" lon="11.813295"><ele>243.5</ele><time>2026-04-22T16:59:35.049Z</time></trkpt><trkpt lat="43.3881683" lon="11.813295"><ele>243.0</ele><time>2026-04-22T16:59:37.05Z</time></trkpt><trkpt lat="43.3880583" lon="11.8132917"><ele>243.25</ele><time>2026-04-22T16:59:39.049Z</time></trkpt><trkpt lat="43.3879433" lon="11.8132767"><ele>243.5</ele><time>2026-04-22T16:59:41.049Z</time></trkpt><trkpt lat="43.3878267" lon="11.81326"><ele>243.75</ele><time>2026-04-22T16:59:43.051Z</time></trkpt><trkpt lat="43.387705" lon="11.8132367"><ele>244.0</ele><time>2026-04-22T16:59:45.051Z</time></trkpt><trkpt lat="43.3875867" lon="11.81321"><ele>244.0</ele><time>2026-04-22T16:59:47.051Z</time></trkpt><trkpt lat="43.3874717" lon="11.813185"><ele>243.99999999999997</ele><time>2026-04-22T16:59:49.053Z</time></trkpt><trkpt lat="43.387365" lon="11.8131617"><ele>243.99999999999997</ele><time>2026-04-22T16:59:51.054Z</time></trkpt><trkpt lat="43.3872633" lon="11.813135"><ele>244.0</ele><time>2026-04-22T16:59:53.05Z</time></trkpt><trkpt lat="43.3871717" lon="11.813105"><ele>244.0</ele><time>2026-04-22T16:59:55.05Z</time></trkpt><trkpt lat="43.3870817" lon="11.813085"><ele>244.16666666666666</ele><time>2026-04-22T16:59:57.052Z</time></trkpt><trkpt lat="43.3870033" lon="11.813065"><ele>244.33333333333331</ele><time>2026-04-22T16:59:59.047Z</time></trkpt><trkpt lat="43.3869233" lon="11.8130483"><ele>244.5</ele><time>2026-04-22T17:00:01.047Z</time></trkpt><trkpt lat="43.38684" lon="11.8130383"><ele>244.66666666666669</ele><time>2026-04-22T17:00:03.05Z</time></trkpt><trkpt lat="43.3867567" lon="11.8129967"><ele>244.83333333333334</ele><time>2026-04-22T17:00:05.05Z</time></trkpt><trkpt lat="43.3866767" lon="11.81292"><ele>245.0</ele><time>2026-04-22T17:00:07.052Z</time></trkpt><trkpt lat="43.3866117" lon="11.8128083"><ele>245.0</ele><time>2026-04-22T17:00:09.049Z</time></trkpt><trkpt lat="43.3865633" lon="11.8126817"><ele>245.0</ele><time>2026-04-22T17:00:11.05Z</time></trkpt><trkpt lat="43.3865267" lon="11.8125433"><ele>245.0</ele><time>2026-04-22T17:00:13.05Z</time></trkpt><trkpt lat="43.3864917" lon="11.8124083"><ele>245.0</ele><time>2026-04-22T17:00:15.055Z</time></trkpt><trkpt lat="43.3864517" lon="11.812265"><ele>245.0</ele><time>2026-04-22T17:00:17.052Z</time></trkpt><trkpt lat="43.38641" lon="11.8121167"><ele>245.0</ele><time>2026-04-22T17:00:19.049Z</time></trkpt><trkpt lat="43.3863733" lon="11.8119733"><ele>245.0</ele><time>2026-04-22T17:00:21.052Z</time></trkpt><trkpt lat="43.3863333" lon="11.811825"><ele>245.0</ele><time>2026-04-22T17:00:23.048Z</time></trkpt><trkpt lat="43.3862917" lon="11.811675"><ele>245.0</ele><time>2026-04-22T17:00:25.05Z</time></trkpt><trkpt lat="43.3862533" lon="11.8115267"><ele>245.0</ele><time>2026-04-22T17:00:27.049Z</time></trkpt><trkpt lat="43.386205" lon="11.81138"><ele>245.0</ele><time>2026-04-22T17:00:29.052Z</time></trkpt><trkpt lat="43.3861567" lon="11.811225"><ele>245.0</ele><time>2026-04-22T17:00:31.049Z</time></trkpt><trkpt lat="43.386135" lon="11.8111433"><ele>245.0</ele><time>2026-04-22T17:00:32.049Z</time></trkpt><trkpt lat="43.3860917" lon="11.810985"><ele>245.0</ele><time>2026-04-22T17:00:34.05Z</time></trkpt><trkpt lat="43.3860467" lon="11.8108317"><ele>245.0</ele><time>2026-04-22T17:00:36.051Z</time></trkpt><trkpt lat="43.386005" lon="11.8106783"><ele>245.0</ele><time>2026-04-22T17:00:38.051Z</time></trkpt><trkpt lat="43.3859567" lon="11.8105283"><ele>245.0</ele><time>2026-04-22T17:00:40.053Z</time></trkpt><trkpt lat="43.385915" lon="11.81038"><ele>245.0</ele><time>2026-04-22T17:00:42.051Z</time></trkpt><trkpt lat="43.3858733" lon="11.8102333"><ele>245.0</ele><time>2026-04-22T17:00:44.051Z</time></trkpt><trkpt lat="43.3858333" lon="11.8100883"><ele>245.0</ele><time>2026-04-22T17:00:46.049Z</time></trkpt><trkpt lat="43.38579" lon="11.8099367"><ele>245.0</ele><time>2026-04-22T17:00:48.051Z</time></trkpt><trkpt lat="43.3857467" lon="11.8097883"><ele>245.0</ele><time>2026-04-22T17:00:50.051Z</time></trkpt><trkpt lat="43.3857033" lon="11.8096367"><ele>245.0</ele><time>2026-04-22T17:00:52.05Z</time></trkpt><trkpt lat="43.3856583" lon="11.8094883"><ele>245.0</ele><time>2026-04-22T17:00:54.047Z</time></trkpt><trkpt lat="43.3856117" lon="11.80934"><ele>245.0</ele><time>2026-04-22T17:00:56.051Z</time></trkpt><trkpt lat="43.3855683" lon="11.8091867"><ele>245.0</ele><time>2026-04-22T17:00:58.049Z</time></trkpt><trkpt lat="43.3855217" lon="11.8090367"><ele>245.0</ele><time>2026-04-22T17:01:00.05Z</time></trkpt><trkpt lat="43.38548" lon="11.8088833"><ele>245.0</ele><time>2026-04-22T17:01:02.049Z</time></trkpt><trkpt lat="43.385435" lon="11.8087417"><ele>245.0</ele><time>2026-04-22T17:01:04.049Z</time></trkpt><trkpt lat="43.3853883" lon="11.8085967"><ele>245.0</ele><time>2026-04-22T17:01:06.053Z</time></trkpt><trkpt lat="43.385345" lon="11.80845"><ele>245.0</ele><time>2026-04-22T17:01:08.053Z</time></trkpt><trkpt lat="43.3853" lon="11.8083"><ele>245.0</ele><time>2026-04-22T17:01:10.049Z</time></trkpt><trkpt lat="43.385255" lon="11.8081433"><ele>245.0</ele><time>2026-04-22T17:01:12.052Z</time></trkpt><trkpt lat="43.3852133" lon="11.8079883"><ele>245.0</ele><time>2026-04-22T17:01:14.052Z</time></trkpt><trkpt lat="43.38518" lon="11.80784"><ele>245.0</ele><time>2026-04-22T17:01:16.05Z</time></trkpt><trkpt lat="43.38514" lon="11.8076933"><ele>245.0</ele><time>2026-04-22T17:01:18.051Z</time></trkpt><trkpt lat="43.3850933" lon="11.8075483"><ele>245.0</ele><time>2026-04-22T17:01:20.053Z</time></trkpt><trkpt lat="43.3850533" lon="11.8074117"><ele>245.0</ele><time>2026-04-22T17:01:22.05Z</time></trkpt><trkpt lat="43.38501" lon="11.8072717"><ele>245.0</ele><time>2026-04-22T17:01:24.051Z</time></trkpt><trkpt lat="43.3849683" lon="11.8071333"><ele>245.2</ele><time>2026-04-22T17:01:26.053Z</time></trkpt><trkpt lat="43.38493" lon="11.80699"><ele>245.4</ele><time>2026-04-22T17:01:28.051Z</time></trkpt><trkpt lat="43.3848917" lon="11.80685"><ele>245.60000000000002</ele><time>2026-04-22T17:01:30.05Z</time></trkpt><trkpt lat="43.384855" lon="11.8067183"><ele>245.8</ele><time>2026-04-22T17:01:32.054Z</time></trkpt><trkpt lat="43.3848267" lon="11.8065933"><ele>246.0</ele><time>2026-04-22T17:01:34.052Z</time></trkpt><trkpt lat="43.3848033" lon="11.80647"><ele>246.16666666666666</ele><time>2026-04-22T17:01:36.054Z</time></trkpt><trkpt lat="43.3847767" lon="11.806365"><ele>246.33333333333331</ele><time>2026-04-22T17:01:38.052Z</time></trkpt><trkpt lat="43.38475" lon="11.806265"><ele>246.5</ele><time>2026-04-22T17:01:40.053Z</time></trkpt><trkpt lat="43.3847283" lon="11.8061667"><ele>246.66666666666666</ele><time>2026-04-22T17:01:42.053Z</time></trkpt><trkpt lat="43.3847117" lon="11.8060683"><ele>246.83333333333331</ele><time>2026-04-22T17:01:44.048Z</time></trkpt><trkpt lat="43.3847183" lon="11.8059633"><ele>247.0</ele><time>2026-04-22T17:01:46.049Z</time></trkpt><trkpt lat="43.3847433" lon="11.805875"><ele>246.99999999999997</ele><time>2026-04-22T17:01:48.052Z</time></trkpt><trkpt lat="43.3847417" lon="11.8057783"><ele>247.0</ele><time>2026-04-22T17:01:50.053Z</time></trkpt><trkpt lat="43.3847267" lon="11.8056817"><ele>247.0</ele><time>2026-04-22T17:01:52.049Z</time></trkpt><trkpt lat="43.3847083" lon="11.805575"><ele>247.0</ele><time>2026-04-22T17:01:54.05Z</time></trkpt><trkpt lat="43.3846967" lon="11.805455"><ele>246.99999999999997</ele><time>2026-04-22T17:01:56.053Z</time></trkpt><trkpt lat="43.3846783" lon="11.8053317"><ele>247.0</ele><time>2026-04-22T17:01:58.052Z</time></trkpt><trkpt lat="43.3846583" lon="11.8052067"><ele>247.0</ele><time>2026-04-22T17:02:00.05Z</time></trkpt><trkpt lat="43.38464" lon="11.80507"><ele>247.0</ele><time>2026-04-22T17:02:02.05Z</time></trkpt><trkpt lat="43.3846317" lon="11.8049367"><ele>247.0</ele><time>2026-04-22T17:02:04.052Z</time></trkpt><trkpt lat="43.3846167" lon="11.804795"><ele>247.0</ele><time>2026-04-22T17:02:06.051Z</time></trkpt><trkpt lat="43.384605" lon="11.80466"><ele>247.0</ele><time>2026-04-22T17:02:08.05Z</time></trkpt><trkpt lat="43.384595" lon="11.8045233"><ele>247.0</ele><time>2026-04-22T17:02:10.05Z</time></trkpt><trkpt lat="43.384585" lon="11.8043867"><ele>247.0</ele><time>2026-04-22T17:02:12.051Z</time></trkpt><trkpt lat="43.384575" lon="11.80425"><ele>247.0</ele><time>2026-04-22T17:02:14.05Z</time></trkpt><trkpt lat="43.3845617" lon="11.8041267"><ele>247.0</ele><time>2026-04-22T17:02:16.051Z</time></trkpt><trkpt lat="43.3845517" lon="11.80401"><ele>247.0</ele><time>2026-04-22T17:02:18.052Z</time></trkpt><trkpt lat="43.3845417" lon="11.8038933"><ele>247.2</ele><time>2026-04-22T17:02:20.051Z</time></trkpt><trkpt lat="43.384525" lon="11.80377"><ele>247.39999999999998</ele><time>2026-04-22T17:02:22.05Z</time></trkpt><trkpt lat="43.3845083" lon="11.8036467"><ele>247.60000000000002</ele><time>2026-04-22T17:02:24.051Z</time></trkpt><trkpt lat="43.384495" lon="11.803525"><ele>247.8</ele><time>2026-04-22T17:02:26.053Z</time></trkpt><trkpt lat="43.3844833" lon="11.8034017"><ele>248.0</ele><time>2026-04-22T17:02:28.05Z</time></trkpt><trkpt lat="43.38447" lon="11.8032783"><ele>248.16666666666669</ele><time>2026-04-22T17:02:30.051Z</time></trkpt><trkpt lat="43.38446" lon="11.8031633"><ele>248.33333333333334</ele><time>2026-04-22T17:02:32.052Z</time></trkpt><trkpt lat="43.3844533" lon="11.80307"><ele>248.5</ele><time>2026-04-22T17:02:34.052Z</time></trkpt><trkpt lat="43.3844417" lon="11.8029783"><ele>248.66666666666669</ele><time>2026-04-22T17:02:36.053Z</time></trkpt><trkpt lat="43.3844317" lon="11.802855"><ele>248.83333333333334</ele><time>2026-04-22T17:02:39.049Z</time></trkpt><trkpt lat="43.3844183" lon="11.8027317"><ele>249.0</ele><time>2026-04-22T17:02:42.05Z</time></trkpt><trkpt lat="43.3844083" lon="11.8026433"><ele>249.66666666666666</ele><time>2026-04-22T17:02:44.051Z</time></trkpt><trkpt lat="43.3843967" lon="11.8025317"><ele>250.33333333333331</ele><time>2026-04-22T17:02:47.048Z</time></trkpt><trkpt lat="43.3843733" lon="11.8024367"><ele>251.0</ele><time>2026-04-22T17:02:50.051Z</time></trkpt><trkpt lat="43.3843233" lon="11.8023533"><ele>251.66666666666666</ele><time>2026-04-22T17:02:54.05Z</time></trkpt><trkpt lat="43.3842483" lon="11.802345"><ele>252.33333333333331</ele><time>2026-04-22T17:02:58.049Z</time></trkpt><trkpt lat="43.3841833" lon="11.8023433"><ele>253.0</ele><time>2026-04-22T17:03:01.047Z</time></trkpt><trkpt lat="43.3841083" lon="11.802365"><ele>252.99999999999997</ele><time>2026-04-22T17:03:04.05Z</time></trkpt><trkpt lat="43.3840333" lon="11.8023933"><ele>253.0</ele><time>2026-04-22T17:03:07.05Z</time></trkpt><trkpt lat="43.38395" lon="11.802415"><ele>253.0</ele><time>2026-04-22T17:03:10.051Z</time></trkpt><trkpt lat="43.3838667" lon="11.8024317"><ele>253.0</ele><time>2026-04-22T17:03:13.053Z</time></trkpt><trkpt lat="43.3837817" lon="11.802405"><ele>252.99999999999997</ele><time>2026-04-22T17:03:16.05Z</time></trkpt><trkpt lat="43.383735" lon="11.802325"><ele>253.0</ele><time>2026-04-22T17:03:19.049Z</time></trkpt><trkpt lat="43.3837167" lon="11.8022283"><ele>253.16666666666666</ele><time>2026-04-22T17:03:22.052Z</time></trkpt><trkpt lat="43.38369" lon="11.80212"><ele>253.33333333333331</ele><time>2026-04-22T17:03:26.052Z</time></trkpt><trkpt lat="43.3836583" lon="11.80203"><ele>253.5</ele><time>2026-04-22T17:03:29.049Z</time></trkpt><trkpt lat="43.3836167" lon="11.8019317"><ele>253.66666666666669</ele><time>2026-04-22T17:03:32.05Z</time></trkpt><trkpt lat="43.3835767" lon="11.8018417"><ele>253.83333333333334</ele><time>2026-04-22T17:03:34.05Z</time></trkpt><trkpt lat="43.38355" lon="11.8017583"><ele>254.0</ele><time>2026-04-22T17:03:36.051Z</time></trkpt><trkpt lat="43.3835133" lon="11.801645"><ele>255.0</ele><time>2026-04-22T17:03:39.051Z</time></trkpt><trkpt lat="43.3834883" lon="11.801555"><ele>256.0</ele><time>2026-04-22T17:03:41.052Z</time></trkpt><trkpt lat="43.3834683" lon="11.8014583"><ele>257.0</ele><time>2026-04-22T17:03:43.05Z</time></trkpt><trkpt lat="43.3834517" lon="11.801355"><ele>258.0</ele><time>2026-04-22T17:03:45.052Z</time></trkpt><trkpt lat="43.3834433" lon="11.8012583"><ele>259.0</ele><time>2026-04-22T17:03:47.05Z</time></trkpt><trkpt lat="43.3834483" lon="11.8011483"><ele>260.0</ele><time>2026-04-22T17:03:51.05Z</time></trkpt><trkpt lat="43.3834633" lon="11.8010517"><ele>261.0</ele><time>2026-04-22T17:03:54.053Z</time></trkpt><trkpt lat="43.3834683" lon="11.80096"><ele>261.0</ele><time>2026-04-22T17:03:56.05Z</time></trkpt><trkpt lat="43.3834633" lon="11.8008733"><ele>261.0</ele><time>2026-04-22T17:04:00.052Z</time></trkpt><trkpt lat="43.3833983" lon="11.800925"><ele>261.0</ele><time>2026-04-22T17:04:06.052Z</time></trkpt><trkpt lat="43.3833283" lon="11.800935"><ele>261.0</ele><time>2026-04-22T17:04:09.05Z</time></trkpt><trkpt lat="43.383255" lon="11.8009467"><ele>261.0</ele><time>2026-04-22T17:04:12.05Z</time></trkpt><trkpt lat="43.38318" lon="11.80097"><ele>261.0</ele><time>2026-04-22T17:04:14.052Z</time></trkpt><trkpt lat="43.3831" lon="11.8009917"><ele>261.0</ele><time>2026-04-22T17:04:16.052Z</time></trkpt><trkpt lat="43.3830167" lon="11.8010267"><ele>261.0</ele><time>2026-04-22T17:04:18.049Z</time></trkpt><trkpt lat="43.3829417" lon="11.801045"><ele>261.0</ele><time>2026-04-22T17:04:20.054Z</time></trkpt><trkpt lat="43.3828733" lon="11.8010683"><ele>261.0</ele><time>2026-04-22T17:04:22.053Z</time></trkpt><trkpt lat="43.3827833" lon="11.801085"><ele>261.0</ele><time>2026-04-22T17:04:25.055Z</time></trkpt><trkpt lat="43.38272" lon="11.80109"><ele>261.0</ele><time>2026-04-22T17:04:27.05Z</time></trkpt><trkpt lat="43.3826283" lon="11.8010333"><ele>261.0</ele><time>2026-04-22T17:04:30.051Z</time></trkpt><trkpt lat="43.382585" lon="11.8009567"><ele>261.3333333333333</ele><time>2026-04-22T17:04:32.052Z</time></trkpt><trkpt lat="43.382555" lon="11.8008383"><ele>261.6666666666667</ele><time>2026-04-22T17:04:35.053Z</time></trkpt><trkpt lat="43.382545" lon="11.8007317"><ele>262.0</ele><time>2026-04-22T17:04:38.051Z</time></trkpt><trkpt lat="43.382545" lon="11.800625"><ele>262.33333333333337</ele><time>2026-04-22T17:04:41.052Z</time></trkpt><trkpt lat="43.382535" lon="11.8005333"><ele>262.6666666666667</ele><time>2026-04-22T17:04:43.05Z</time></trkpt><trkpt lat="43.382525" lon="11.8004333"><ele>263.0</ele><time>2026-04-22T17:04:45.05Z</time></trkpt><trkpt lat="43.382515" lon="11.8003117"><ele>263.0</ele><time>2026-04-22T17:04:47.052Z</time></trkpt><trkpt lat="43.3825083" lon="11.8001767"><ele>263.0</ele><time>2026-04-22T17:04:49.05Z</time></trkpt><trkpt lat="43.3825017" lon="11.8000233"><ele>263.0</ele><time>2026-04-22T17:04:51.051Z</time></trkpt><trkpt lat="43.382505" lon="11.7998717"><ele>263.0</ele><time>2026-04-22T17:04:53.053Z</time></trkpt><trkpt lat="43.3825033" lon="11.7997117"><ele>263.0</ele><time>2026-04-22T17:04:55.051Z</time></trkpt><trkpt lat="43.382495" lon="11.799555"><ele>263.0</ele><time>2026-04-22T17:04:57.051Z</time></trkpt><trkpt lat="43.3824833" lon="11.799425"><ele>263.0</ele><time>2026-04-22T17:04:59.053Z</time></trkpt><trkpt lat="43.3824417" lon="11.7993417"><ele>263.0</ele><time>2026-04-22T17:05:01.051Z</time></trkpt><trkpt lat="43.3823767" lon="11.7993417"><ele>263.0</ele><time>2026-04-22T17:05:03.051Z</time></trkpt><trkpt lat="43.3823067" lon="11.7993533"><ele>263.0</ele><time>2026-04-22T17:05:05.051Z</time></trkpt><trkpt lat="43.3822333" lon="11.7993633"><ele>263.0</ele><time>2026-04-22T17:05:07.05Z</time></trkpt><trkpt lat="43.3821617" lon="11.79937"><ele>263.0</ele><time>2026-04-22T17:05:09.051Z</time></trkpt><trkpt lat="43.3820933" lon="11.79938"><ele>263.0</ele><time>2026-04-22T17:05:11.05Z</time></trkpt><trkpt lat="43.38203" lon="11.799385"><ele>263.0</ele><time>2026-04-22T17:05:13.052Z</time></trkpt><trkpt lat="43.38194" lon="11.7993917"><ele>263.0</ele><time>2026-04-22T17:05:16.052Z</time></trkpt><trkpt lat="43.3818483" lon="11.7994033"><ele>263.0</ele><time>2026-04-22T17:05:19.05Z</time></trkpt><trkpt lat="43.3817567" lon="11.79941"><ele>263.0</ele><time>2026-04-22T17:05:22.051Z</time></trkpt><trkpt lat="43.3816633" lon="11.7994117"><ele>263.0</ele><time>2026-04-22T17:05:25.051Z</time></trkpt><trkpt lat="43.3815983" lon="11.7994183"><ele>263.0</ele><time>2026-04-22T17:05:27.05Z</time></trkpt><trkpt lat="43.381535" lon="11.7994233"><ele>263.0</ele><time>2026-04-22T17:05:29.053Z</time></trkpt><trkpt lat="43.38147" lon="11.79943"><ele>263.0</ele><time>2026-04-22T17:05:31.052Z</time></trkpt><trkpt lat="43.3813767" lon="11.7994333"><ele>263.0</ele><time>2026-04-22T17:05:34.051Z</time></trkpt><trkpt lat="43.3812833" lon="11.79944"><ele>263.0</ele><time>2026-04-22T17:05:37.054Z</time></trkpt><trkpt lat="43.3811917" lon="11.7994483"><ele>263.5</ele><time>2026-04-22T17:05:40.048Z</time></trkpt><trkpt lat="43.3811067" lon="11.7994583"><ele>264.0</ele><time>2026-04-22T17:05:43.05Z</time></trkpt><trkpt lat="43.38102" lon="11.799465"><ele>264.5</ele><time>2026-04-22T17:05:46.055Z</time></trkpt><trkpt lat="43.3809333" lon="11.7994667"><ele>265.0</ele><time>2026-04-22T17:05:49.052Z</time></trkpt><trkpt lat="43.3808533" lon="11.7994717"><ele>265.5</ele><time>2026-04-22T17:05:52.051Z</time></trkpt><trkpt lat="43.3807683" lon="11.7994883"><ele>266.0</ele><time>2026-04-22T17:05:55.051Z</time></trkpt><trkpt lat="43.3806767" lon="11.799485"><ele>266.0</ele><time>2026-04-22T17:05:58.052Z</time></trkpt><trkpt lat="43.3805867" lon="11.79948"><ele>266.0</ele><time>2026-04-22T17:06:01.052Z</time></trkpt><trkpt lat="43.38051" lon="11.7994933"><ele>266.0</ele><time>2026-04-22T17:06:04.051Z</time></trkpt><trkpt lat="43.38041" lon="11.7995017"><ele>266.0</ele><time>2026-04-22T17:06:07.05Z</time></trkpt><trkpt lat="43.3803283" lon="11.7995233"><ele>266.0</ele><time>2026-04-22T17:06:10.052Z</time></trkpt><trkpt lat="43.3802433" lon="11.7995317"><ele>266.0</ele><time>2026-04-22T17:06:13.053Z</time></trkpt><trkpt lat="43.3801717" lon="11.7995267"><ele>265.83333333333337</ele><time>2026-04-22T17:06:15.05Z</time></trkpt><trkpt lat="43.3800867" lon="11.7995367"><ele>265.6666666666667</ele><time>2026-04-22T17:06:17.053Z</time></trkpt><trkpt lat="43.3800117" lon="11.799535"><ele>265.5</ele><time>2026-04-22T17:06:19.051Z</time></trkpt><trkpt lat="43.3799633" lon="11.79946"><ele>265.3333333333333</ele><time>2026-04-22T17:06:22.049Z</time></trkpt><trkpt lat="43.379965" lon="11.7993467"><ele>265.16666666666663</ele><time>2026-04-22T17:06:25.053Z</time></trkpt><trkpt lat="43.3799633" lon="11.79922"><ele>265.0</ele><time>2026-04-22T17:06:28.05Z</time></trkpt><trkpt lat="43.3799567" lon="11.7991333"><ele>265.3333333333333</ele><time>2026-04-22T17:06:30.053Z</time></trkpt><trkpt lat="43.379945" lon="11.7990433"><ele>265.66666666666663</ele><time>2026-04-22T17:06:32.053Z</time></trkpt><trkpt lat="43.3799317" lon="11.7989517"><ele>266.0</ele><time>2026-04-22T17:06:34.05Z</time></trkpt><trkpt lat="43.37991" lon="11.79887"><ele>266.3333333333333</ele><time>2026-04-22T17:06:36.054Z</time></trkpt><trkpt lat="43.3798767" lon="11.7987533"><ele>266.6666666666667</ele><time>2026-04-22T17:06:38.053Z</time></trkpt><trkpt lat="43.37982" lon="11.7986133"><ele>267.0</ele><time>2026-04-22T17:06:40.051Z</time></trkpt><trkpt lat="43.3797817" lon="11.7985367"><ele>266.1666666666667</ele><time>2026-04-22T17:06:41.052Z</time></trkpt><trkpt lat="43.3797417" lon="11.79844"><ele>265.3333333333333</ele><time>2026-04-22T17:06:42.05Z</time></trkpt><trkpt lat="43.3797033" lon="11.7983367"><ele>264.5</ele><time>2026-04-22T17:06:43.05Z</time></trkpt><trkpt lat="43.3796617" lon="11.7982367"><ele>263.66666666666663</ele><time>2026-04-22T17:06:44.054Z</time></trkpt><trkpt lat="43.3796117" lon="11.7981317"><ele>262.8333333333333</ele><time>2026-04-22T17:06:45.051Z</time></trkpt><trkpt lat="43.3795583" lon="11.79802"><ele>262.0</ele><time>2026-04-22T17:06:46.051Z</time></trkpt><trkpt lat="43.3795117" lon="11.7979117"><ele>261.6</ele><time>2026-04-22T17:06:47.052Z</time></trkpt><trkpt lat="43.3794667" lon="11.7978017"><ele>261.2</ele><time>2026-04-22T17:06:48.055Z</time></trkpt><trkpt lat="43.379425" lon="11.7976917"><ele>260.8</ele><time>2026-04-22T17:06:49.054Z</time></trkpt><trkpt lat="43.379385" lon="11.7975833"><ele>260.4</ele><time>2026-04-22T17:06:50.05Z</time></trkpt><trkpt lat="43.3793433" lon="11.7974717"><ele>260.0</ele><time>2026-04-22T17:06:51.049Z</time></trkpt><trkpt lat="43.3793017" lon="11.7973567"><ele>259.83333333333337</ele><time>2026-04-22T17:06:52.05Z</time></trkpt><trkpt lat="43.3792683" lon="11.7972517"><ele>259.6666666666667</ele><time>2026-04-22T17:06:53.051Z</time></trkpt><trkpt lat="43.37924" lon="11.79714"><ele>259.5</ele><time>2026-04-22T17:06:54.051Z</time></trkpt><trkpt lat="43.3792217" lon="11.7970317"><ele>259.3333333333333</ele><time>2026-04-22T17:06:55.049Z</time></trkpt><trkpt lat="43.379205" lon="11.7969367"><ele>259.16666666666663</ele><time>2026-04-22T17:06:56.053Z</time></trkpt><trkpt lat="43.379195" lon="11.7967717"><ele>259.0</ele><time>2026-04-22T17:06:58.053Z</time></trkpt><trkpt lat="43.3791917" lon="11.796635"><ele>259.0</ele><time>2026-04-22T17:07:00.052Z</time></trkpt><trkpt lat="43.37919" lon="11.7965283"><ele>259.0</ele><time>2026-04-22T17:07:02.052Z</time></trkpt><trkpt lat="43.3791783" lon="11.7964183"><ele>259.0</ele><time>2026-04-22T17:07:05.054Z</time></trkpt><trkpt lat="43.37917" lon="11.7963267"><ele>259.0</ele><time>2026-04-22T17:07:08.054Z</time></trkpt><trkpt lat="43.3791633" lon="11.7962317"><ele>259.0</ele><time>2026-04-22T17:07:11.052Z</time></trkpt><trkpt lat="43.3791467" lon="11.7961183"><ele>259.0</ele><time>2026-04-22T17:07:15.052Z</time></trkpt><trkpt lat="43.3791383" lon="11.79603"><ele>259.0</ele><time>2026-04-22T17:07:18.051Z</time></trkpt><trkpt lat="43.3791183" lon="11.7959283"><ele>259.85714285714283</ele><time>2026-04-22T17:07:22.049Z</time></trkpt><trkpt lat="43.3791083" lon="11.7958317"><ele>260.7142857142857</ele><time>2026-04-22T17:07:26.056Z</time></trkpt><trkpt lat="43.3791" lon="11.79574"><ele>261.57142857142856</ele><time>2026-04-22T17:07:31.052Z</time></trkpt><trkpt lat="43.3790833" lon="11.795645"><ele>262.42857142857144</ele><time>2026-04-22T17:07:35.053Z</time></trkpt><trkpt lat="43.3790733" lon="11.795555"><ele>263.2857142857143</ele><time>2026-04-22T17:07:39.052Z</time></trkpt><trkpt lat="43.3790667" lon="11.79544"><ele>264.1428571428571</ele><time>2026-04-22T17:07:43.051Z</time></trkpt><trkpt lat="43.37907" lon="11.79532"><ele>265.0</ele><time>2026-04-22T17:07:46.051Z</time></trkpt><trkpt lat="43.3790767" lon="11.795195"><ele>265.3333333333333</ele><time>2026-04-22T17:07:49.051Z</time></trkpt><trkpt lat="43.37905" lon="11.7950933"><ele>265.66666666666663</ele><time>2026-04-22T17:07:52.051Z</time></trkpt><trkpt lat="43.37898" lon="11.7950183"><ele>266.0</ele><time>2026-04-22T17:07:55.05Z</time></trkpt><trkpt lat="43.378875" lon="11.7950033"><ele>266.3333333333333</ele><time>2026-04-22T17:07:57.051Z</time></trkpt><trkpt lat="43.378805" lon="11.7949983"><ele>266.6666666666667</ele><time>2026-04-22T17:07:58.055Z</time></trkpt><trkpt lat="43.3787183" lon="11.7949917"><ele>267.0</ele><time>2026-04-22T17:07:59.049Z</time></trkpt><trkpt lat="43.3786317" lon="11.7949817"><ele>265.6</ele><time>2026-04-22T17:08:00.05Z</time></trkpt><trkpt lat="43.3785417" lon="11.7949717"><ele>264.2</ele><time>2026-04-22T17:08:01.049Z</time></trkpt><trkpt lat="43.3784517" lon="11.7949667"><ele>262.8</ele><time>2026-04-22T17:08:02.05Z</time></trkpt><trkpt lat="43.3783567" lon="11.7949667"><ele>261.4</ele><time>2026-04-22T17:08:03.05Z</time></trkpt><trkpt lat="43.3782617" lon="11.7949667"><ele>260.0</ele><time>2026-04-22T17:08:04.048Z</time></trkpt><trkpt lat="43.3781667" lon="11.7949633"><ele>260.0</ele><time>2026-04-22T17:08:05.051Z</time></trkpt><trkpt lat="43.3780717" lon="11.7949583"><ele>260.0</ele><time>2026-04-22T17:08:06.051Z</time></trkpt><trkpt lat="43.37798" lon="11.7949533"><ele>260.0</ele><time>2026-04-22T17:08:07.05Z</time></trkpt><trkpt lat="43.37789" lon="11.7949483"><ele>260.0</ele><time>2026-04-22T17:08:08.051Z</time></trkpt><trkpt lat="43.3778" lon="11.7949483"><ele>260.0</ele><time>2026-04-22T17:08:09.05Z</time></trkpt><trkpt lat="43.3777167" lon="11.7949417"><ele>259.83333333333337</ele><time>2026-04-22T17:08:10.05Z</time></trkpt><trkpt lat="43.3776417" lon="11.7949317"><ele>259.6666666666667</ele><time>2026-04-22T17:08:11.05Z</time></trkpt><trkpt lat="43.3775667" lon="11.7949267"><ele>259.5</ele><time>2026-04-22T17:08:12.048Z</time></trkpt><trkpt lat="43.3774967" lon="11.79492"><ele>259.3333333333333</ele><time>2026-04-22T17:08:13.049Z</time></trkpt><trkpt lat="43.3774317" lon="11.7949133"><ele>259.16666666666663</ele><time>2026-04-22T17:08:14.053Z</time></trkpt><trkpt lat="43.3773683" lon="11.7949067"><ele>259.0</ele><time>2026-04-22T17:08:15.05Z</time></trkpt><trkpt lat="43.3772483" lon="11.79489"><ele>259.8333333333333</ele><time>2026-04-22T17:08:17.048Z</time></trkpt><trkpt lat="43.377145" lon="11.7948733"><ele>260.66666666666663</ele><time>2026-04-22T17:08:19.051Z</time></trkpt><trkpt lat="43.377055" lon="11.7948617"><ele>261.5</ele><time>2026-04-22T17:08:21.052Z</time></trkpt><trkpt lat="43.376985" lon="11.794845"><ele>262.3333333333333</ele><time>2026-04-22T17:08:23.049Z</time></trkpt><trkpt lat="43.3769217" lon="11.7948383"><ele>263.1666666666667</ele><time>2026-04-22T17:08:25.05Z</time></trkpt><trkpt lat="43.376845" lon="11.7948317"><ele>264.0</ele><time>2026-04-22T17:08:28.049Z</time></trkpt><trkpt lat="43.3767717" lon="11.7948183"><ele>264.0</ele><time>2026-04-22T17:08:31.049Z</time></trkpt><trkpt lat="43.3767033" lon="11.7948183"><ele>264.0</ele><time>2026-04-22T17:08:34.049Z</time></trkpt><trkpt lat="43.3766383" lon="11.79481"><ele>264.0</ele><time>2026-04-22T17:08:37.049Z</time></trkpt><trkpt lat="43.37657" lon="11.7948"><ele>264.0</ele><time>2026-04-22T17:08:40.052Z</time></trkpt><trkpt lat="43.3765017" lon="11.79479"><ele>264.0</ele><time>2026-04-22T17:08:43.049Z</time></trkpt><trkpt lat="43.3764383" lon="11.7947783"><ele>264.0</ele><time>2026-04-22T17:08:46.05Z</time></trkpt><trkpt lat="43.3763733" lon="11.79477"><ele>264.0</ele><time>2026-04-22T17:08:49.05Z</time></trkpt><trkpt lat="43.376305" lon="11.7947583"><ele>264.85714285714283</ele><time>2026-04-22T17:08:52.051Z</time></trkpt><trkpt lat="43.376235" lon="11.7947583"><ele>265.7142857142857</ele><time>2026-04-22T17:08:55.05Z</time></trkpt><trkpt lat="43.3761667" lon="11.7947583"><ele>266.57142857142856</ele><time>2026-04-22T17:08:58.048Z</time></trkpt><trkpt lat="43.3761" lon="11.794755"><ele>267.42857142857144</ele><time>2026-04-22T17:09:01.049Z</time></trkpt><trkpt lat="43.376035" lon="11.7947517"><ele>268.2857142857143</ele><time>2026-04-22T17:09:04.049Z</time></trkpt><trkpt lat="43.3759683" lon="11.7947433"><ele>269.1428571428571</ele><time>2026-04-22T17:09:07.048Z</time></trkpt><trkpt lat="43.3759017" lon="11.7947533"><ele>270.0</ele><time>2026-04-22T17:09:10.051Z</time></trkpt><trkpt lat="43.3758383" lon="11.79475"><ele>270.0</ele><time>2026-04-22T17:09:13.049Z</time></trkpt><trkpt lat="43.37577" lon="11.79473"><ele>270.0</ele><time>2026-04-22T17:09:16.051Z</time></trkpt><trkpt lat="43.3757083" lon="11.7947117"><ele>270.0</ele><time>2026-04-22T17:09:19.049Z</time></trkpt><trkpt lat="43.3756333" lon="11.7947117"><ele>270.0</ele><time>2026-04-22T17:09:23.052Z</time></trkpt><trkpt lat="43.3755467" lon="11.7946967"><ele>270.0</ele><time>2026-04-22T17:09:27.048Z</time></trkpt><trkpt lat="43.3754733" lon="11.7946883"><ele>270.0</ele><time>2026-04-22T17:09:30.053Z</time></trkpt><trkpt lat="43.3754117" lon="11.79467"><ele>270.0</ele><time>2026-04-22T17:09:32.052Z</time></trkpt><trkpt lat="43.3753433" lon="11.794665"><ele>270.0</ele><time>2026-04-22T17:09:34.049Z</time></trkpt><trkpt lat="43.375265" lon="11.79466"><ele>270.0</ele><time>2026-04-22T17:09:36.051Z</time></trkpt><trkpt lat="43.3751883" lon="11.7946583"><ele>270.0</ele><time>2026-04-22T17:09:38.051Z</time></trkpt><trkpt lat="43.3751133" lon="11.79465"><ele>270.0</ele><time>2026-04-22T17:09:40.05Z</time></trkpt><trkpt lat="43.37503" lon="11.7946433"><ele>270.0</ele><time>2026-04-22T17:09:42.053Z</time></trkpt><trkpt lat="43.374945" lon="11.7946317"><ele>270.0</ele><time>2026-04-22T17:09:44.051Z</time></trkpt><trkpt lat="43.3748667" lon="11.7945933"><ele>270.0</ele><time>2026-04-22T17:09:46.051Z</time></trkpt><trkpt lat="43.3747933" lon="11.79453"><ele>270.0</ele><time>2026-04-22T17:09:48.051Z</time></trkpt><trkpt lat="43.374735" lon="11.7944533"><ele>270.0</ele><time>2026-04-22T17:09:50.051Z</time></trkpt><trkpt lat="43.3746867" lon="11.7943733"><ele>270.0</ele><time>2026-04-22T17:09:52.052Z</time></trkpt><trkpt lat="43.3746433" lon="11.79429"><ele>270.0</ele><time>2026-04-22T17:09:54.051Z</time></trkpt><trkpt lat="43.37463" lon="11.7941983"><ele>270.0</ele><time>2026-04-22T17:09:56.05Z</time></trkpt><trkpt lat="43.3746533" lon="11.7941067"><ele>270.0</ele><time>2026-04-22T17:09:58.051Z</time></trkpt><trkpt lat="43.374685" lon="11.7940267"><ele>270.0</ele><time>2026-04-22T17:10:00.049Z</time></trkpt><trkpt lat="43.3747017" lon="11.7939383"><ele>270.0</ele><time>2026-04-22T17:10:02.051Z</time></trkpt><trkpt lat="43.3746983" lon="11.793845"><ele>270.0</ele><time>2026-04-22T17:10:04.05Z</time></trkpt><trkpt lat="43.3746733" lon="11.7937533"><ele>270.0</ele><time>2026-04-22T17:10:06.051Z</time></trkpt><trkpt lat="43.3746333" lon="11.793675"><ele>270.0</ele><time>2026-04-22T17:10:08.051Z</time></trkpt><trkpt lat="43.374585" lon="11.7936067"><ele>270.0</ele><time>2026-04-22T17:10:10.049Z</time></trkpt><trkpt lat="43.3745383" lon="11.7935367"><ele>270.57142857142856</ele><time>2026-04-22T17:10:12.05Z</time></trkpt><trkpt lat="43.37449" lon="11.7934617"><ele>271.1428571428571</ele><time>2026-04-22T17:10:14.05Z</time></trkpt><trkpt lat="43.3744383" lon="11.7933867"><ele>271.7142857142857</ele><time>2026-04-22T17:10:16.049Z</time></trkpt><trkpt lat="43.3743883" lon="11.793315"><ele>272.2857142857143</ele><time>2026-04-22T17:10:18.051Z</time></trkpt><trkpt lat="43.3743417" lon="11.793245"><ele>272.8571428571429</ele><time>2026-04-22T17:10:20.052Z</time></trkpt><trkpt lat="43.3742917" lon="11.7931683"><ele>273.42857142857144</ele><time>2026-04-22T17:10:22.049Z</time></trkpt><trkpt lat="43.374245" lon="11.793085"><ele>274.0</ele><time>2026-04-22T17:10:24.051Z</time></trkpt><trkpt lat="43.3742" lon="11.7930017"><ele>274.0</ele><time>2026-04-22T17:10:26.051Z</time></trkpt><trkpt lat="43.374155" lon="11.7929183"><ele>274.0</ele><time>2026-04-22T17:10:28.05Z</time></trkpt><trkpt lat="43.374105" lon="11.792825"><ele>274.0</ele><time>2026-04-22T17:10:30.051Z</time></trkpt><trkpt lat="43.3740933" lon="11.7927267"><ele>274.0</ele><time>2026-04-22T17:10:32.052Z</time></trkpt><trkpt lat="43.3741083" lon="11.7926217"><ele>274.0</ele><time>2026-04-22T17:10:34.05Z</time></trkpt><trkpt lat="43.3741383" lon="11.7925167"><ele>274.0</ele><time>2026-04-22T17:10:36.051Z</time></trkpt><trkpt lat="43.3741683" lon="11.792415"><ele>274.0</ele><time>2026-04-22T17:10:38.051Z</time></trkpt><trkpt lat="43.374205" lon="11.7923083"><ele>274.0</ele><time>2026-04-22T17:10:40.05Z</time></trkpt><trkpt lat="43.374245" lon="11.79221"><ele>274.0</ele><time>2026-04-22T17:10:42.048Z</time></trkpt><trkpt lat="43.3742933" lon="11.7921217"><ele>274.0</ele><time>2026-04-22T17:10:44.053Z</time></trkpt><trkpt lat="43.374345" lon="11.79203"><ele>274.0</ele><time>2026-04-22T17:10:46.052Z</time></trkpt><trkpt lat="43.3744067" lon="11.791925"><ele>274.0</ele><time>2026-04-22T17:10:48.049Z</time></trkpt><trkpt lat="43.374475" lon="11.7918033"><ele>273.8</ele><time>2026-04-22T17:10:50.051Z</time></trkpt><trkpt lat="43.3745533" lon="11.791695"><ele>273.59999999999997</ele><time>2026-04-22T17:10:52.049Z</time></trkpt><trkpt lat="43.3746283" lon="11.7915783"><ele>273.4</ele><time>2026-04-22T17:10:54.052Z</time></trkpt><trkpt lat="43.3747017" lon="11.7914467"><ele>273.2</ele><time>2026-04-22T17:10:56.049Z</time></trkpt><trkpt lat="43.37474" lon="11.7913767"><ele>273.0</ele><time>2026-04-22T17:10:57.05Z</time></trkpt><trkpt lat="43.3748117" lon="11.79124"><ele>272.8</ele><time>2026-04-22T17:10:59.053Z</time></trkpt><trkpt lat="43.374885" lon="11.7911033"><ele>272.6</ele><time>2026-04-22T17:11:01.051Z</time></trkpt><trkpt lat="43.374925" lon="11.791035"><ele>272.4</ele><time>2026-04-22T17:11:02.052Z</time></trkpt><trkpt lat="43.375" lon="11.790905"><ele>272.2</ele><time>2026-04-22T17:11:04.05Z</time></trkpt><trkpt lat="43.375075" lon="11.7907767"><ele>272.0</ele><time>2026-04-22T17:11:06.05Z</time></trkpt><trkpt lat="43.3751133" lon="11.7907067"><ele>271.6</ele><time>2026-04-22T17:11:07.052Z</time></trkpt><trkpt lat="43.3751533" lon="11.790635"><ele>271.2</ele><time>2026-04-22T17:11:08.052Z</time></trkpt><trkpt lat="43.3751967" lon="11.7905667"><ele>270.8</ele><time>2026-04-22T17:11:09.05Z</time></trkpt><trkpt lat="43.375275" lon="11.790435"><ele>270.4</ele><time>2026-04-22T17:11:11.049Z</time></trkpt><trkpt lat="43.3753467" lon="11.7903033"><ele>270.0</ele><time>2026-04-22T17:11:13.051Z</time></trkpt><trkpt lat="43.3754083" lon="11.790175"><ele>270.0</ele><time>2026-04-22T17:11:15.053Z</time></trkpt><trkpt lat="43.37546" lon="11.7900433"><ele>270.0</ele><time>2026-04-22T17:11:17.049Z</time></trkpt><trkpt lat="43.3754983" lon="11.789905"><ele>270.0</ele><time>2026-04-22T17:11:19.052Z</time></trkpt><trkpt lat="43.3755267" lon="11.7897767"><ele>270.0</ele><time>2026-04-22T17:11:21.051Z</time></trkpt><trkpt lat="43.3755433" lon="11.7896433"><ele>270.0</ele><time>2026-04-22T17:11:23.05Z</time></trkpt><trkpt lat="43.3755467" lon="11.7895317"><ele>270.0</ele><time>2026-04-22T17:11:25.053Z</time></trkpt><trkpt lat="43.3755517" lon="11.7894317"><ele>270.0</ele><time>2026-04-22T17:11:27.053Z</time></trkpt><trkpt lat="43.3755517" lon="11.789315"><ele>270.0</ele><time>2026-04-22T17:11:30.051Z</time></trkpt><trkpt lat="43.3755433" lon="11.7892183"><ele>270.0</ele><time>2026-04-22T17:11:33.051Z</time></trkpt><trkpt lat="43.375545" lon="11.7891267"><ele>270.0</ele><time>2026-04-22T17:11:36.052Z</time></trkpt><trkpt lat="43.37555" lon="11.7890383"><ele>270.0</ele><time>2026-04-22T17:11:39.052Z</time></trkpt><trkpt lat="43.3755467" lon="11.78895"><ele>270.0</ele><time>2026-04-22T17:11:42.052Z</time></trkpt><trkpt lat="43.3755467" lon="11.788855"><ele>270.0</ele><time>2026-04-22T17:11:45.05Z</time></trkpt><trkpt lat="43.3755467" lon="11.7887467"><ele>270.0</ele><time>2026-04-22T17:11:49.05Z</time></trkpt><trkpt lat="43.3755317" lon="11.788635"><ele>270.0</ele><time>2026-04-22T17:11:53.052Z</time></trkpt><trkpt lat="43.3755267" lon="11.7885217"><ele>270.0</ele><time>2026-04-22T17:11:57.052Z</time></trkpt><trkpt lat="43.3755267" lon="11.7884317"><ele>270.0</ele><time>2026-04-22T17:12:00.051Z</time></trkpt><trkpt lat="43.3755333" lon="11.7883417"><ele>270.0</ele><time>2026-04-22T17:12:03.051Z</time></trkpt><trkpt lat="43.3754983" lon="11.7882433"><ele>270.7142857142857</ele><time>2026-04-22T17:12:07.05Z</time></trkpt><trkpt lat="43.3754767" lon="11.7881567"><ele>271.4285714285714</ele><time>2026-04-22T17:12:11.05Z</time></trkpt><trkpt lat="43.3754567" lon="11.7880567"><ele>272.1428571428571</ele><time>2026-04-22T17:12:15.05Z</time></trkpt><trkpt lat="43.3754583" lon="11.7879533"><ele>272.85714285714283</ele><time>2026-04-22T17:12:19.052Z</time></trkpt><trkpt lat="43.3754517" lon="11.7878633"><ele>273.57142857142856</ele><time>2026-04-22T17:12:23.049Z</time></trkpt><trkpt lat="43.3754417" lon="11.7877617"><ele>274.2857142857143</ele><time>2026-04-22T17:12:27.051Z</time></trkpt><trkpt lat="43.3754417" lon="11.7876467"><ele>275.0</ele><time>2026-04-22T17:12:31.049Z</time></trkpt><trkpt lat="43.3754367" lon="11.7875467"><ele>275.0</ele><time>2026-04-22T17:12:34.05Z</time></trkpt><trkpt lat="43.37543" lon="11.78744"><ele>275.0</ele><time>2026-04-22T17:12:37.051Z</time></trkpt><trkpt lat="43.37544" lon="11.78735"><ele>275.0</ele><time>2026-04-22T17:12:40.049Z</time></trkpt><trkpt lat="43.37544" lon="11.787255"><ele>275.0</ele><time>2026-04-22T17:12:43.049Z</time></trkpt><trkpt lat="43.37541" lon="11.7873383"><ele>275.0</ele><time>2026-04-22T17:12:56.052Z</time></trkpt><trkpt lat="43.3754133" lon="11.787435"><ele>275.0</ele><time>2026-04-22T17:13:00.053Z</time></trkpt><trkpt lat="43.3754167" lon="11.7875233"><ele>275.0</ele><time>2026-04-22T17:13:04.05Z</time></trkpt><trkpt lat="43.3754667" lon="11.78758"><ele>274.7142857142857</ele><time>2026-04-22T17:13:09.051Z</time></trkpt><trkpt lat="43.37554" lon="11.7876267"><ele>274.42857142857144</ele><time>2026-04-22T17:13:29.051Z</time></trkpt><trkpt lat="43.37561" lon="11.7876733"><ele>274.1428571428571</ele><time>2026-04-22T17:13:33.05Z</time></trkpt><trkpt lat="43.3756833" lon="11.7877017"><ele>273.8571428571429</ele><time>2026-04-22T17:13:37.05Z</time></trkpt><trkpt lat="43.3757467" lon="11.7877267"><ele>273.57142857142856</ele><time>2026-04-22T17:13:41.051Z</time></trkpt><trkpt lat="43.3758117" lon="11.7877433"><ele>273.2857142857143</ele><time>2026-04-22T17:13:45.051Z</time></trkpt><trkpt lat="43.3758783" lon="11.7877483"><ele>273.0</ele><time>2026-04-22T17:13:48.051Z</time></trkpt><trkpt lat="43.3759483" lon="11.7877933"><ele>272.0</ele><time>2026-04-22T17:13:51.051Z</time></trkpt><trkpt lat="43.37598" lon="11.7878833"><ele>272.0</ele><time>2026-04-22T17:13:54.05Z</time></trkpt><trkpt lat="43.3759317" lon="11.7879433"><ele>272.0</ele><time>2026-04-22T17:13:59.053Z</time></trkpt><trkpt lat="43.375995" lon="11.7880017"><ele>272.0</ele><time>2026-04-22T17:14:19.045Z</time></trkpt></trkseg></trk></gpx>